<?xml version="1.0" encoding="UTF-8" standalone="no" ?>
<gpx xmlns="http://www.topografix.com/GPX/1/1" xmlns:xsi="http://www.w3.org/2001/XMLSchema-instance" xsi:schemaLocation="http://www.topografix.com/GPX/1/1 http://www.topografix.com/GPX/1/1/gpx.xsd" version="1.1" creator="VisuGPX - https://www.visugpx.com">
  <metadata>
    <name>Pornichet 13/01/2022</name>
    <desc><![CDATA[Sortie vtt jeudi 13 janvier 2022]]></desc>
  </metadata>
  <trk>
    <name><![CDATA[Pornichet Cyclisme]]></name>
    <trkseg>
      <trkpt lat="47.26406" lon="-2.31529">
        <ele>10.6</ele>
        <time>2022-01-13T08:19:39.000Z</time>
      </trkpt>
      <trkpt lat="47.26404" lon="-2.31532">
        <ele>10.4</ele>
        <time>2022-01-13T08:19:42.000Z</time>
      </trkpt>
      <trkpt lat="47.26402" lon="-2.31535">
        <ele>-0.40000000596046</ele>
        <time>2022-01-13T08:19:46.000Z</time>
      </trkpt>
      <trkpt lat="47.264" lon="-2.31536">
        <ele>-0.40000000596046</ele>
        <time>2022-01-13T08:19:47.000Z</time>
      </trkpt>
      <trkpt lat="47.26393" lon="-2.31546">
        <ele>-0.40000000596046</ele>
        <time>2022-01-13T08:19:51.000Z</time>
      </trkpt>
      <trkpt lat="47.26393" lon="-2.31566">
        <ele>-0.40000000596046</ele>
        <time>2022-01-13T08:19:55.000Z</time>
      </trkpt>
      <trkpt lat="47.26392" lon="-2.31572">
        <ele>-0.40000000596046</ele>
        <time>2022-01-13T08:19:56.000Z</time>
      </trkpt>
      <trkpt lat="47.26392" lon="-2.31611">
        <ele>-0.40000000596046</ele>
        <time>2022-01-13T08:20:02.000Z</time>
      </trkpt>
      <trkpt lat="47.26392" lon="-2.31632">
        <ele>-0.40000000596046</ele>
        <time>2022-01-13T08:20:05.000Z</time>
      </trkpt>
      <trkpt lat="47.26393" lon="-2.31645">
        <ele>-0.80000001192093</ele>
        <time>2022-01-13T08:20:07.000Z</time>
      </trkpt>
      <trkpt lat="47.26393" lon="-2.3165">
        <ele>-1.2000000476837</ele>
        <time>2022-01-13T08:20:08.000Z</time>
      </trkpt>
      <trkpt lat="47.26391" lon="-2.31654">
        <ele>-1.6000000238419</ele>
        <time>2022-01-13T08:20:09.000Z</time>
      </trkpt>
      <trkpt lat="47.26388" lon="-2.31656">
        <ele>-2.2000000476837</ele>
        <time>2022-01-13T08:20:10.000Z</time>
      </trkpt>
      <trkpt lat="47.26384" lon="-2.31658">
        <ele>-2.5999999046326</ele>
        <time>2022-01-13T08:20:11.000Z</time>
      </trkpt>
      <trkpt lat="47.26366" lon="-2.31669">
        <ele>-2.5999999046326</ele>
        <time>2022-01-13T08:20:15.000Z</time>
      </trkpt>
      <trkpt lat="47.26334" lon="-2.31685">
        <ele>-2.5999999046326</ele>
        <time>2022-01-13T08:20:21.000Z</time>
      </trkpt>
      <trkpt lat="47.26329" lon="-2.31689">
        <ele>-3</ele>
        <time>2022-01-13T08:20:22.000Z</time>
      </trkpt>
      <trkpt lat="47.26323" lon="-2.31691">
        <ele>-3.4000000953674</ele>
        <time>2022-01-13T08:20:23.000Z</time>
      </trkpt>
      <trkpt lat="47.26317" lon="-2.31694">
        <ele>-3.7999999523163</ele>
        <time>2022-01-13T08:20:24.000Z</time>
      </trkpt>
      <trkpt lat="47.26311" lon="-2.31696">
        <ele>-4.1999998092651</ele>
        <time>2022-01-13T08:20:25.000Z</time>
      </trkpt>
      <trkpt lat="47.26305" lon="-2.31699">
        <ele>-4.5999999046326</ele>
        <time>2022-01-13T08:20:26.000Z</time>
      </trkpt>
      <trkpt lat="47.26295" lon="-2.31704">
        <ele>-4.5999999046326</ele>
        <time>2022-01-13T08:20:28.000Z</time>
      </trkpt>
      <trkpt lat="47.26291" lon="-2.31708">
        <ele>-5</ele>
        <time>2022-01-13T08:20:29.000Z</time>
      </trkpt>
      <trkpt lat="47.26288" lon="-2.31713">
        <ele>-5.4000000953674</ele>
        <time>2022-01-13T08:20:30.000Z</time>
      </trkpt>
      <trkpt lat="47.26286" lon="-2.31718">
        <ele>-5.8000001907349</ele>
        <time>2022-01-13T08:20:31.000Z</time>
      </trkpt>
      <trkpt lat="47.26286" lon="-2.31723">
        <ele>-6.1999998092651</ele>
        <time>2022-01-13T08:20:32.000Z</time>
      </trkpt>
      <trkpt lat="47.26286" lon="-2.31729">
        <ele>-6.5999999046326</ele>
        <time>2022-01-13T08:20:33.000Z</time>
      </trkpt>
      <trkpt lat="47.26286" lon="-2.31735">
        <ele>-6.5999999046326</ele>
        <time>2022-01-13T08:20:34.000Z</time>
      </trkpt>
      <trkpt lat="47.26287" lon="-2.3174">
        <ele>-6.5999999046326</ele>
        <time>2022-01-13T08:20:35.000Z</time>
      </trkpt>
      <trkpt lat="47.26288" lon="-2.31752">
        <ele>-6.5999999046326</ele>
        <time>2022-01-13T08:20:37.000Z</time>
      </trkpt>
      <trkpt lat="47.26289" lon="-2.3177">
        <ele>-6.5999999046326</ele>
        <time>2022-01-13T08:20:40.000Z</time>
      </trkpt>
      <trkpt lat="47.26289" lon="-2.31776">
        <ele>-6.5999999046326</ele>
        <time>2022-01-13T08:20:41.000Z</time>
      </trkpt>
      <trkpt lat="47.26288" lon="-2.31788">
        <ele>-6.5999999046326</ele>
        <time>2022-01-13T08:20:43.000Z</time>
      </trkpt>
      <trkpt lat="47.26287" lon="-2.31805">
        <ele>-6.5999999046326</ele>
        <time>2022-01-13T08:20:46.000Z</time>
      </trkpt>
      <trkpt lat="47.26284" lon="-2.31838">
        <ele>-6.5999999046326</ele>
        <time>2022-01-13T08:20:52.000Z</time>
      </trkpt>
      <trkpt lat="47.26284" lon="-2.31862">
        <ele>-6.5999999046326</ele>
        <time>2022-01-13T08:20:57.000Z</time>
      </trkpt>
      <trkpt lat="47.26282" lon="-2.31865">
        <ele>-6.5999999046326</ele>
        <time>2022-01-13T08:20:58.000Z</time>
      </trkpt>
      <trkpt lat="47.26277" lon="-2.31872">
        <ele>-6.5999999046326</ele>
        <time>2022-01-13T08:21:00.000Z</time>
      </trkpt>
      <trkpt lat="47.26263" lon="-2.3189">
        <ele>-6.5999999046326</ele>
        <time>2022-01-13T08:21:05.000Z</time>
      </trkpt>
      <trkpt lat="47.26252" lon="-2.31913">
        <ele>-7</ele>
        <time>2022-01-13T08:21:10.000Z</time>
      </trkpt>
      <trkpt lat="47.2625" lon="-2.31917">
        <ele>-7.4000000953674</ele>
        <time>2022-01-13T08:21:11.000Z</time>
      </trkpt>
      <trkpt lat="47.26248" lon="-2.31921">
        <ele>-7.8000001907349</ele>
        <time>2022-01-13T08:21:12.000Z</time>
      </trkpt>
      <trkpt lat="47.26245" lon="-2.31924">
        <ele>-8.1999998092651</ele>
        <time>2022-01-13T08:21:13.000Z</time>
      </trkpt>
      <trkpt lat="47.26243" lon="-2.31928">
        <ele>-8.6000003814697</ele>
        <time>2022-01-13T08:21:14.000Z</time>
      </trkpt>
      <trkpt lat="47.26237" lon="-2.31935">
        <ele>-8.6000003814697</ele>
        <time>2022-01-13T08:21:16.000Z</time>
      </trkpt>
      <trkpt lat="47.26231" lon="-2.31942">
        <ele>-8.6000003814697</ele>
        <time>2022-01-13T08:21:18.000Z</time>
      </trkpt>
      <trkpt lat="47.2622" lon="-2.3195">
        <ele>-8.6000003814697</ele>
        <time>2022-01-13T08:21:22.000Z</time>
      </trkpt>
      <trkpt lat="47.26207" lon="-2.31963">
        <ele>-8.6000003814697</ele>
        <time>2022-01-13T08:21:27.000Z</time>
      </trkpt>
      <trkpt lat="47.262" lon="-2.31971">
        <ele>-8.6000003814697</ele>
        <time>2022-01-13T08:21:31.000Z</time>
      </trkpt>
      <trkpt lat="47.26195" lon="-2.31987">
        <ele>-8.6000003814697</ele>
        <time>2022-01-13T08:21:37.000Z</time>
      </trkpt>
      <trkpt lat="47.26184" lon="-2.31988">
        <ele>-8.6000003814697</ele>
        <time>2022-01-13T08:21:42.000Z</time>
      </trkpt>
      <trkpt lat="47.26181" lon="-2.31989">
        <ele>-8.6000003814697</ele>
        <time>2022-01-13T08:21:43.000Z</time>
      </trkpt>
      <trkpt lat="47.26165" lon="-2.31997">
        <ele>-8.6000003814697</ele>
        <time>2022-01-13T08:21:47.000Z</time>
      </trkpt>
      <trkpt lat="47.26158" lon="-2.32005">
        <ele>-8.6000003814697</ele>
        <time>2022-01-13T08:21:49.000Z</time>
      </trkpt>
      <trkpt lat="47.2615" lon="-2.32028">
        <ele>-8.6000003814697</ele>
        <time>2022-01-13T08:21:53.000Z</time>
      </trkpt>
      <trkpt lat="47.26149" lon="-2.32034">
        <ele>-8.6000003814697</ele>
        <time>2022-01-13T08:21:54.000Z</time>
      </trkpt>
      <trkpt lat="47.26139" lon="-2.32073">
        <ele>-8.6000003814697</ele>
        <time>2022-01-13T08:22:01.000Z</time>
      </trkpt>
      <trkpt lat="47.26137" lon="-2.32078">
        <ele>-8.6000003814697</ele>
        <time>2022-01-13T08:22:02.000Z</time>
      </trkpt>
      <trkpt lat="47.26128" lon="-2.32111">
        <ele>-8.6000003814697</ele>
        <time>2022-01-13T08:22:08.000Z</time>
      </trkpt>
      <trkpt lat="47.26115" lon="-2.32145">
        <ele>-8.6000003814697</ele>
        <time>2022-01-13T08:22:14.000Z</time>
      </trkpt>
      <trkpt lat="47.26113" lon="-2.3215">
        <ele>-8.6000003814697</ele>
        <time>2022-01-13T08:22:15.000Z</time>
      </trkpt>
      <trkpt lat="47.261" lon="-2.32182">
        <ele>-8.6000003814697</ele>
        <time>2022-01-13T08:22:21.000Z</time>
      </trkpt>
      <trkpt lat="47.26097" lon="-2.32187">
        <ele>-8.6000003814697</ele>
        <time>2022-01-13T08:22:22.000Z</time>
      </trkpt>
      <trkpt lat="47.26079" lon="-2.32209">
        <ele>-8.6000003814697</ele>
        <time>2022-01-13T08:22:27.000Z</time>
      </trkpt>
      <trkpt lat="47.26053" lon="-2.3224">
        <ele>-8.6000003814697</ele>
        <time>2022-01-13T08:22:34.000Z</time>
      </trkpt>
      <trkpt lat="47.26025" lon="-2.32272">
        <ele>-8.6000003814697</ele>
        <time>2022-01-13T08:22:41.000Z</time>
      </trkpt>
      <trkpt lat="47.25992" lon="-2.32312">
        <ele>-8.6000003814697</ele>
        <time>2022-01-13T08:22:49.000Z</time>
      </trkpt>
      <trkpt lat="47.25963" lon="-2.32345">
        <ele>-8.6000003814697</ele>
        <time>2022-01-13T08:22:56.000Z</time>
      </trkpt>
      <trkpt lat="47.25936" lon="-2.3238">
        <ele>-8.6000003814697</ele>
        <time>2022-01-13T08:23:03.000Z</time>
      </trkpt>
      <trkpt lat="47.25905" lon="-2.32418">
        <ele>-8.6000003814697</ele>
        <time>2022-01-13T08:23:11.000Z</time>
      </trkpt>
      <trkpt lat="47.25902" lon="-2.32422">
        <ele>-8.6000003814697</ele>
        <time>2022-01-13T08:23:12.000Z</time>
      </trkpt>
      <trkpt lat="47.25902" lon="-2.32435">
        <ele>-8.6000003814697</ele>
        <time>2022-01-13T08:23:15.000Z</time>
      </trkpt>
      <trkpt lat="47.25912" lon="-2.32443">
        <ele>-8.6000003814697</ele>
        <time>2022-01-13T08:23:18.000Z</time>
      </trkpt>
      <trkpt lat="47.25924" lon="-2.32462">
        <ele>-8.6000003814697</ele>
        <time>2022-01-13T08:23:22.000Z</time>
      </trkpt>
      <trkpt lat="47.25928" lon="-2.32475">
        <ele>-8.6000003814697</ele>
        <time>2022-01-13T08:23:24.000Z</time>
      </trkpt>
      <trkpt lat="47.25935" lon="-2.32501">
        <ele>-8.6000003814697</ele>
        <time>2022-01-13T08:23:28.000Z</time>
      </trkpt>
      <trkpt lat="47.25951" lon="-2.32556">
        <ele>-8.6000003814697</ele>
        <time>2022-01-13T08:23:36.000Z</time>
      </trkpt>
      <trkpt lat="47.25961" lon="-2.32607">
        <ele>-8.6000003814697</ele>
        <time>2022-01-13T08:23:43.000Z</time>
      </trkpt>
      <trkpt lat="47.25961" lon="-2.32614">
        <ele>-8.6000003814697</ele>
        <time>2022-01-13T08:23:44.000Z</time>
      </trkpt>
      <trkpt lat="47.25961" lon="-2.3262">
        <ele>-8.6000003814697</ele>
        <time>2022-01-13T08:23:45.000Z</time>
      </trkpt>
      <trkpt lat="47.25968" lon="-2.32629">
        <ele>-8.6000003814697</ele>
        <time>2022-01-13T08:23:48.000Z</time>
      </trkpt>
      <trkpt lat="47.25975" lon="-2.32628">
        <ele>-8.6000003814697</ele>
        <time>2022-01-13T08:23:50.000Z</time>
      </trkpt>
      <trkpt lat="47.25987" lon="-2.32631">
        <ele>-8.6000003814697</ele>
        <time>2022-01-13T08:23:53.000Z</time>
      </trkpt>
      <trkpt lat="47.26004" lon="-2.32629">
        <ele>-8.1999998092651</ele>
        <time>2022-01-13T08:23:57.000Z</time>
      </trkpt>
      <trkpt lat="47.26009" lon="-2.32628">
        <ele>-7.8000001907349</ele>
        <time>2022-01-13T08:23:58.000Z</time>
      </trkpt>
      <trkpt lat="47.26013" lon="-2.32627">
        <ele>-7.4000000953674</ele>
        <time>2022-01-13T08:23:59.000Z</time>
      </trkpt>
      <trkpt lat="47.26017" lon="-2.32626">
        <ele>-7</ele>
        <time>2022-01-13T08:24:00.000Z</time>
      </trkpt>
      <trkpt lat="47.26021" lon="-2.32625">
        <ele>-6.5999999046326</ele>
        <time>2022-01-13T08:24:01.000Z</time>
      </trkpt>
      <trkpt lat="47.26025" lon="-2.32625">
        <ele>-6.5999999046326</ele>
        <time>2022-01-13T08:24:02.000Z</time>
      </trkpt>
      <trkpt lat="47.26036" lon="-2.32628">
        <ele>-6.5999999046326</ele>
        <time>2022-01-13T08:24:05.000Z</time>
      </trkpt>
      <trkpt lat="47.2604" lon="-2.32628">
        <ele>-6.5999999046326</ele>
        <time>2022-01-13T08:24:06.000Z</time>
      </trkpt>
      <trkpt lat="47.26077" lon="-2.32624">
        <ele>-6.5999999046326</ele>
        <time>2022-01-13T08:24:15.000Z</time>
      </trkpt>
      <trkpt lat="47.26126" lon="-2.32627">
        <ele>-6.5999999046326</ele>
        <time>2022-01-13T08:24:25.000Z</time>
      </trkpt>
      <trkpt lat="47.26135" lon="-2.32629">
        <ele>-6.1999998092651</ele>
        <time>2022-01-13T08:24:27.000Z</time>
      </trkpt>
      <trkpt lat="47.2614" lon="-2.32631">
        <ele>-5.8000001907349</ele>
        <time>2022-01-13T08:24:28.000Z</time>
      </trkpt>
      <trkpt lat="47.26145" lon="-2.32633">
        <ele>-5.4000000953674</ele>
        <time>2022-01-13T08:24:29.000Z</time>
      </trkpt>
      <trkpt lat="47.2615" lon="-2.32635">
        <ele>-5</ele>
        <time>2022-01-13T08:24:30.000Z</time>
      </trkpt>
      <trkpt lat="47.26155" lon="-2.32638">
        <ele>-4.5999999046326</ele>
        <time>2022-01-13T08:24:31.000Z</time>
      </trkpt>
      <trkpt lat="47.2616" lon="-2.32641">
        <ele>-4.5999999046326</ele>
        <time>2022-01-13T08:24:32.000Z</time>
      </trkpt>
      <trkpt lat="47.26178" lon="-2.32651">
        <ele>-4.5999999046326</ele>
        <time>2022-01-13T08:24:36.000Z</time>
      </trkpt>
      <trkpt lat="47.26186" lon="-2.32658">
        <ele>-4.5999999046326</ele>
        <time>2022-01-13T08:24:38.000Z</time>
      </trkpt>
      <trkpt lat="47.26203" lon="-2.32675">
        <ele>-4.5999999046326</ele>
        <time>2022-01-13T08:24:42.000Z</time>
      </trkpt>
      <trkpt lat="47.26215" lon="-2.32691">
        <ele>-4.5999999046326</ele>
        <time>2022-01-13T08:24:45.000Z</time>
      </trkpt>
      <trkpt lat="47.26223" lon="-2.32699">
        <ele>-4.5999999046326</ele>
        <time>2022-01-13T08:24:47.000Z</time>
      </trkpt>
      <trkpt lat="47.26235" lon="-2.32715">
        <ele>-4.5999999046326</ele>
        <time>2022-01-13T08:24:50.000Z</time>
      </trkpt>
      <trkpt lat="47.26238" lon="-2.32721">
        <ele>-4.5999999046326</ele>
        <time>2022-01-13T08:24:51.000Z</time>
      </trkpt>
      <trkpt lat="47.26265" lon="-2.32761">
        <ele>-4.5999999046326</ele>
        <time>2022-01-13T08:24:58.000Z</time>
      </trkpt>
      <trkpt lat="47.26277" lon="-2.32788">
        <ele>-5</ele>
        <time>2022-01-13T08:25:02.000Z</time>
      </trkpt>
      <trkpt lat="47.26279" lon="-2.32795">
        <ele>-5.8000001907349</ele>
        <time>2022-01-13T08:25:03.000Z</time>
      </trkpt>
      <trkpt lat="47.26282" lon="-2.32802">
        <ele>-6.1999998092651</ele>
        <time>2022-01-13T08:25:04.000Z</time>
      </trkpt>
      <trkpt lat="47.26285" lon="-2.3281">
        <ele>-6.5999999046326</ele>
        <time>2022-01-13T08:25:05.000Z</time>
      </trkpt>
      <trkpt lat="47.26289" lon="-2.32825">
        <ele>-6.5999999046326</ele>
        <time>2022-01-13T08:25:07.000Z</time>
      </trkpt>
      <trkpt lat="47.26291" lon="-2.32841">
        <ele>-6.5999999046326</ele>
        <time>2022-01-13T08:25:09.000Z</time>
      </trkpt>
      <trkpt lat="47.26301" lon="-2.32857">
        <ele>-6.5999999046326</ele>
        <time>2022-01-13T08:25:12.000Z</time>
      </trkpt>
      <trkpt lat="47.26316" lon="-2.32861">
        <ele>-6.5999999046326</ele>
        <time>2022-01-13T08:25:15.000Z</time>
      </trkpt>
      <trkpt lat="47.26325" lon="-2.32878">
        <ele>-6.5999999046326</ele>
        <time>2022-01-13T08:25:18.000Z</time>
      </trkpt>
      <trkpt lat="47.26329" lon="-2.32892">
        <ele>-6.5999999046326</ele>
        <time>2022-01-13T08:25:20.000Z</time>
      </trkpt>
      <trkpt lat="47.26339" lon="-2.32922">
        <ele>-6.5999999046326</ele>
        <time>2022-01-13T08:25:24.000Z</time>
      </trkpt>
      <trkpt lat="47.26358" lon="-2.3297">
        <ele>-6.5999999046326</ele>
        <time>2022-01-13T08:25:31.000Z</time>
      </trkpt>
      <trkpt lat="47.26362" lon="-2.32975">
        <ele>-6.5999999046326</ele>
        <time>2022-01-13T08:25:32.000Z</time>
      </trkpt>
      <trkpt lat="47.26368" lon="-2.32985">
        <ele>-6.5999999046326</ele>
        <time>2022-01-13T08:25:34.000Z</time>
      </trkpt>
      <trkpt lat="47.26371" lon="-2.32999">
        <ele>-6.5999999046326</ele>
        <time>2022-01-13T08:25:36.000Z</time>
      </trkpt>
      <trkpt lat="47.26373" lon="-2.33023">
        <ele>-6.5999999046326</ele>
        <time>2022-01-13T08:25:39.000Z</time>
      </trkpt>
      <trkpt lat="47.26374" lon="-2.33039">
        <ele>-6.5999999046326</ele>
        <time>2022-01-13T08:25:41.000Z</time>
      </trkpt>
      <trkpt lat="47.26376" lon="-2.33102">
        <ele>-6.5999999046326</ele>
        <time>2022-01-13T08:25:49.000Z</time>
      </trkpt>
      <trkpt lat="47.26379" lon="-2.33163">
        <ele>-6.5999999046326</ele>
        <time>2022-01-13T08:25:57.000Z</time>
      </trkpt>
      <trkpt lat="47.2638" lon="-2.3317">
        <ele>-6.5999999046326</ele>
        <time>2022-01-13T08:25:58.000Z</time>
      </trkpt>
      <trkpt lat="47.26382" lon="-2.3323">
        <ele>-6.5999999046326</ele>
        <time>2022-01-13T08:26:06.000Z</time>
      </trkpt>
      <trkpt lat="47.26385" lon="-2.33251">
        <ele>-6.5999999046326</ele>
        <time>2022-01-13T08:26:09.000Z</time>
      </trkpt>
      <trkpt lat="47.26393" lon="-2.33261">
        <ele>-6.5999999046326</ele>
        <time>2022-01-13T08:26:11.000Z</time>
      </trkpt>
      <trkpt lat="47.26408" lon="-2.33267">
        <ele>-6.5999999046326</ele>
        <time>2022-01-13T08:26:14.000Z</time>
      </trkpt>
      <trkpt lat="47.26418" lon="-2.33268">
        <ele>-6.5999999046326</ele>
        <time>2022-01-13T08:26:16.000Z</time>
      </trkpt>
      <trkpt lat="47.26436" lon="-2.33269">
        <ele>-6.5999999046326</ele>
        <time>2022-01-13T08:26:20.000Z</time>
      </trkpt>
      <trkpt lat="47.26458" lon="-2.33274">
        <ele>-6.5999999046326</ele>
        <time>2022-01-13T08:26:25.000Z</time>
      </trkpt>
      <trkpt lat="47.26467" lon="-2.33277">
        <ele>-6.5999999046326</ele>
        <time>2022-01-13T08:26:27.000Z</time>
      </trkpt>
      <trkpt lat="47.26502" lon="-2.33281">
        <ele>-6.5999999046326</ele>
        <time>2022-01-13T08:26:35.000Z</time>
      </trkpt>
      <trkpt lat="47.26517" lon="-2.33295">
        <ele>-6.5999999046326</ele>
        <time>2022-01-13T08:26:39.000Z</time>
      </trkpt>
      <trkpt lat="47.26524" lon="-2.33305">
        <ele>-6.5999999046326</ele>
        <time>2022-01-13T08:26:41.000Z</time>
      </trkpt>
      <trkpt lat="47.26529" lon="-2.33319">
        <ele>-6.5999999046326</ele>
        <time>2022-01-13T08:26:43.000Z</time>
      </trkpt>
      <trkpt lat="47.26529" lon="-2.33343">
        <ele>-6.5999999046326</ele>
        <time>2022-01-13T08:26:46.000Z</time>
      </trkpt>
      <trkpt lat="47.26536" lon="-2.33375">
        <ele>-6.5999999046326</ele>
        <time>2022-01-13T08:26:50.000Z</time>
      </trkpt>
      <trkpt lat="47.26546" lon="-2.33422">
        <ele>-6.5999999046326</ele>
        <time>2022-01-13T08:26:56.000Z</time>
      </trkpt>
      <trkpt lat="47.26555" lon="-2.33478">
        <ele>-6.5999999046326</ele>
        <time>2022-01-13T08:27:03.000Z</time>
      </trkpt>
      <trkpt lat="47.26561" lon="-2.33516">
        <ele>-6.1999998092651</ele>
        <time>2022-01-13T08:27:08.000Z</time>
      </trkpt>
      <trkpt lat="47.26562" lon="-2.33524">
        <ele>-5.8000001907349</ele>
        <time>2022-01-13T08:27:09.000Z</time>
      </trkpt>
      <trkpt lat="47.26563" lon="-2.33531">
        <ele>-5.4000000953674</ele>
        <time>2022-01-13T08:27:10.000Z</time>
      </trkpt>
      <trkpt lat="47.26564" lon="-2.33538">
        <ele>-5</ele>
        <time>2022-01-13T08:27:11.000Z</time>
      </trkpt>
      <trkpt lat="47.26565" lon="-2.33545">
        <ele>-4.5999999046326</ele>
        <time>2022-01-13T08:27:12.000Z</time>
      </trkpt>
      <trkpt lat="47.26572" lon="-2.33591">
        <ele>-4.5999999046326</ele>
        <time>2022-01-13T08:27:18.000Z</time>
      </trkpt>
      <trkpt lat="47.26579" lon="-2.33638">
        <ele>-4.5999999046326</ele>
        <time>2022-01-13T08:27:25.000Z</time>
      </trkpt>
      <trkpt lat="47.26581" lon="-2.33645">
        <ele>-4.5999999046326</ele>
        <time>2022-01-13T08:27:26.000Z</time>
      </trkpt>
      <trkpt lat="47.26583" lon="-2.33663">
        <ele>-4.1999998092651</ele>
        <time>2022-01-13T08:27:29.000Z</time>
      </trkpt>
      <trkpt lat="47.26585" lon="-2.33669">
        <ele>-3.2000000476837</ele>
        <time>2022-01-13T08:27:30.000Z</time>
      </trkpt>
      <trkpt lat="47.26587" lon="-2.33673">
        <ele>-2.7999999523163</ele>
        <time>2022-01-13T08:27:31.000Z</time>
      </trkpt>
      <trkpt lat="47.26591" lon="-2.33678">
        <ele>-2.4000000953674</ele>
        <time>2022-01-13T08:27:32.000Z</time>
      </trkpt>
      <trkpt lat="47.26594" lon="-2.33683">
        <ele>-2.4000000953674</ele>
        <time>2022-01-13T08:27:33.000Z</time>
      </trkpt>
      <trkpt lat="47.26597" lon="-2.33688">
        <ele>-2.4000000953674</ele>
        <time>2022-01-13T08:27:34.000Z</time>
      </trkpt>
      <trkpt lat="47.26606" lon="-2.33701">
        <ele>-2</ele>
        <time>2022-01-13T08:27:37.000Z</time>
      </trkpt>
      <trkpt lat="47.26609" lon="-2.33706">
        <ele>-1.6000000238419</ele>
        <time>2022-01-13T08:27:38.000Z</time>
      </trkpt>
      <trkpt lat="47.26612" lon="-2.33711">
        <ele>-1.2000000476837</ele>
        <time>2022-01-13T08:27:39.000Z</time>
      </trkpt>
      <trkpt lat="47.26615" lon="-2.33716">
        <ele>-0.80000001192093</ele>
        <time>2022-01-13T08:27:40.000Z</time>
      </trkpt>
      <trkpt lat="47.26618" lon="-2.33721">
        <ele>-0.40000000596046</ele>
        <time>2022-01-13T08:27:41.000Z</time>
      </trkpt>
      <trkpt lat="47.26639" lon="-2.33757">
        <ele>-0.40000000596046</ele>
        <time>2022-01-13T08:27:48.000Z</time>
      </trkpt>
      <trkpt lat="47.26663" lon="-2.33792">
        <ele>-0.40000000596046</ele>
        <time>2022-01-13T08:27:55.000Z</time>
      </trkpt>
      <trkpt lat="47.26667" lon="-2.33797">
        <ele>8</ele>
        <time>2022-01-13T08:27:56.000Z</time>
      </trkpt>
      <trkpt lat="47.2667" lon="-2.33801">
        <ele>0.40000000596046</ele>
        <time>2022-01-13T08:27:57.000Z</time>
      </trkpt>
      <trkpt lat="47.26673" lon="-2.33806">
        <ele>1</ele>
        <time>2022-01-13T08:27:58.000Z</time>
      </trkpt>
      <trkpt lat="47.26676" lon="-2.33811">
        <ele>1.3999999761581</ele>
        <time>2022-01-13T08:27:59.000Z</time>
      </trkpt>
      <trkpt lat="47.26679" lon="-2.33815">
        <ele>1.7999999523163</ele>
        <time>2022-01-13T08:28:00.000Z</time>
      </trkpt>
      <trkpt lat="47.26686" lon="-2.33824">
        <ele>1.7999999523163</ele>
        <time>2022-01-13T08:28:02.000Z</time>
      </trkpt>
      <trkpt lat="47.26709" lon="-2.33858">
        <ele>1.7999999523163</ele>
        <time>2022-01-13T08:28:09.000Z</time>
      </trkpt>
      <trkpt lat="47.26711" lon="-2.33864">
        <ele>1.7999999523163</ele>
        <time>2022-01-13T08:28:10.000Z</time>
      </trkpt>
      <trkpt lat="47.26724" lon="-2.33886">
        <ele>1.7999999523163</ele>
        <time>2022-01-13T08:28:14.000Z</time>
      </trkpt>
      <trkpt lat="47.26744" lon="-2.33917">
        <ele>1.7999999523163</ele>
        <time>2022-01-13T08:28:20.000Z</time>
      </trkpt>
      <trkpt lat="47.26748" lon="-2.33922">
        <ele>1.7999999523163</ele>
        <time>2022-01-13T08:28:21.000Z</time>
      </trkpt>
      <trkpt lat="47.2677" lon="-2.33957">
        <ele>1.7999999523163</ele>
        <time>2022-01-13T08:28:28.000Z</time>
      </trkpt>
      <trkpt lat="47.26776" lon="-2.33967">
        <ele>1.7999999523163</ele>
        <time>2022-01-13T08:28:30.000Z</time>
      </trkpt>
      <trkpt lat="47.26785" lon="-2.33983">
        <ele>1.7999999523163</ele>
        <time>2022-01-13T08:28:33.000Z</time>
      </trkpt>
      <trkpt lat="47.26801" lon="-2.34009">
        <ele>1.7999999523163</ele>
        <time>2022-01-13T08:28:38.000Z</time>
      </trkpt>
      <trkpt lat="47.26807" lon="-2.34019">
        <ele>1.7999999523163</ele>
        <time>2022-01-13T08:28:40.000Z</time>
      </trkpt>
      <trkpt lat="47.26827" lon="-2.34048">
        <ele>1.7999999523163</ele>
        <time>2022-01-13T08:28:46.000Z</time>
      </trkpt>
      <trkpt lat="47.26843" lon="-2.34074">
        <ele>1.7999999523163</ele>
        <time>2022-01-13T08:28:51.000Z</time>
      </trkpt>
      <trkpt lat="47.26853" lon="-2.34091">
        <ele>2.2000000476837</ele>
        <time>2022-01-13T08:28:54.000Z</time>
      </trkpt>
      <trkpt lat="47.26856" lon="-2.34096">
        <ele>2.5999999046326</ele>
        <time>2022-01-13T08:28:55.000Z</time>
      </trkpt>
      <trkpt lat="47.2686" lon="-2.34101">
        <ele>3</ele>
        <time>2022-01-13T08:28:56.000Z</time>
      </trkpt>
      <trkpt lat="47.26863" lon="-2.34107">
        <ele>3.4000000953674</ele>
        <time>2022-01-13T08:28:57.000Z</time>
      </trkpt>
      <trkpt lat="47.26866" lon="-2.34113">
        <ele>3.7999999523163</ele>
        <time>2022-01-13T08:28:58.000Z</time>
      </trkpt>
      <trkpt lat="47.26873" lon="-2.34124">
        <ele>3.7999999523163</ele>
        <time>2022-01-13T08:29:00.000Z</time>
      </trkpt>
      <trkpt lat="47.2688" lon="-2.34135">
        <ele>3.7999999523163</ele>
        <time>2022-01-13T08:29:02.000Z</time>
      </trkpt>
      <trkpt lat="47.26898" lon="-2.34164">
        <ele>3.7999999523163</ele>
        <time>2022-01-13T08:29:07.000Z</time>
      </trkpt>
      <trkpt lat="47.26922" lon="-2.34196">
        <ele>3.7999999523163</ele>
        <time>2022-01-13T08:29:13.000Z</time>
      </trkpt>
      <trkpt lat="47.26932" lon="-2.34213">
        <ele>3.7999999523163</ele>
        <time>2022-01-13T08:29:16.000Z</time>
      </trkpt>
      <trkpt lat="47.26943" lon="-2.34231">
        <ele>3.7999999523163</ele>
        <time>2022-01-13T08:29:19.000Z</time>
      </trkpt>
      <trkpt lat="47.26975" lon="-2.34281">
        <ele>3.7999999523163</ele>
        <time>2022-01-13T08:29:27.000Z</time>
      </trkpt>
      <trkpt lat="47.26988" lon="-2.34304">
        <ele>3.7999999523163</ele>
        <time>2022-01-13T08:29:31.000Z</time>
      </trkpt>
      <trkpt lat="47.26993" lon="-2.34314">
        <ele>3.7999999523163</ele>
        <time>2022-01-13T08:29:33.000Z</time>
      </trkpt>
      <trkpt lat="47.27004" lon="-2.34318">
        <ele>3.7999999523163</ele>
        <time>2022-01-13T08:29:36.000Z</time>
      </trkpt>
      <trkpt lat="47.27017" lon="-2.34319">
        <ele>3.7999999523163</ele>
        <time>2022-01-13T08:29:39.000Z</time>
      </trkpt>
      <trkpt lat="47.27029" lon="-2.34318">
        <ele>3.7999999523163</ele>
        <time>2022-01-13T08:29:42.000Z</time>
      </trkpt>
      <trkpt lat="47.27038" lon="-2.3432">
        <ele>3.7999999523163</ele>
        <time>2022-01-13T08:29:44.000Z</time>
      </trkpt>
      <trkpt lat="47.27043" lon="-2.34331">
        <ele>3.7999999523163</ele>
        <time>2022-01-13T08:29:46.000Z</time>
      </trkpt>
      <trkpt lat="47.27049" lon="-2.34353">
        <ele>3.7999999523163</ele>
        <time>2022-01-13T08:29:49.000Z</time>
      </trkpt>
      <trkpt lat="47.27053" lon="-2.34368">
        <ele>3.7999999523163</ele>
        <time>2022-01-13T08:29:51.000Z</time>
      </trkpt>
      <trkpt lat="47.27064" lon="-2.34417">
        <ele>3.7999999523163</ele>
        <time>2022-01-13T08:29:57.000Z</time>
      </trkpt>
      <trkpt lat="47.27079" lon="-2.34481">
        <ele>3.7999999523163</ele>
        <time>2022-01-13T08:30:05.000Z</time>
      </trkpt>
      <trkpt lat="47.27081" lon="-2.34488">
        <ele>4.1999998092651</ele>
        <time>2022-01-13T08:30:06.000Z</time>
      </trkpt>
      <trkpt lat="47.27082" lon="-2.34496">
        <ele>4.5999999046326</ele>
        <time>2022-01-13T08:30:07.000Z</time>
      </trkpt>
      <trkpt lat="47.27084" lon="-2.34504">
        <ele>5</ele>
        <time>2022-01-13T08:30:08.000Z</time>
      </trkpt>
      <trkpt lat="47.27086" lon="-2.34512">
        <ele>5.4000000953674</ele>
        <time>2022-01-13T08:30:09.000Z</time>
      </trkpt>
      <trkpt lat="47.27088" lon="-2.3452">
        <ele>6</ele>
        <time>2022-01-13T08:30:10.000Z</time>
      </trkpt>
      <trkpt lat="47.27091" lon="-2.34536">
        <ele>6</ele>
        <time>2022-01-13T08:30:12.000Z</time>
      </trkpt>
      <trkpt lat="47.27106" lon="-2.34603">
        <ele>6</ele>
        <time>2022-01-13T08:30:20.000Z</time>
      </trkpt>
      <trkpt lat="47.27122" lon="-2.34675">
        <ele>6</ele>
        <time>2022-01-13T08:30:28.000Z</time>
      </trkpt>
      <trkpt lat="47.27135" lon="-2.3474">
        <ele>6</ele>
        <time>2022-01-13T08:30:35.000Z</time>
      </trkpt>
      <trkpt lat="47.27145" lon="-2.34791">
        <ele>6</ele>
        <time>2022-01-13T08:30:41.000Z</time>
      </trkpt>
      <trkpt lat="47.27158" lon="-2.34852">
        <ele>6</ele>
        <time>2022-01-13T08:30:48.000Z</time>
      </trkpt>
      <trkpt lat="47.27176" lon="-2.34917">
        <ele>6</ele>
        <time>2022-01-13T08:30:56.000Z</time>
      </trkpt>
      <trkpt lat="47.27191" lon="-2.34962">
        <ele>6.4000000953674</ele>
        <time>2022-01-13T08:31:02.000Z</time>
      </trkpt>
      <trkpt lat="47.27194" lon="-2.3497">
        <ele>6.8000001907349</ele>
        <time>2022-01-13T08:31:03.000Z</time>
      </trkpt>
      <trkpt lat="47.27196" lon="-2.34977">
        <ele>7.1999998092651</ele>
        <time>2022-01-13T08:31:04.000Z</time>
      </trkpt>
      <trkpt lat="47.27198" lon="-2.34985">
        <ele>7.5999999046326</ele>
        <time>2022-01-13T08:31:05.000Z</time>
      </trkpt>
      <trkpt lat="47.27201" lon="-2.34991">
        <ele>8</ele>
        <time>2022-01-13T08:31:06.000Z</time>
      </trkpt>
      <trkpt lat="47.27213" lon="-2.35025">
        <ele>8</ele>
        <time>2022-01-13T08:31:11.000Z</time>
      </trkpt>
      <trkpt lat="47.27231" lon="-2.35076">
        <ele>8</ele>
        <time>2022-01-13T08:31:18.000Z</time>
      </trkpt>
      <trkpt lat="47.2725" lon="-2.35115">
        <ele>8</ele>
        <time>2022-01-13T08:31:24.000Z</time>
      </trkpt>
      <trkpt lat="47.27253" lon="-2.3512">
        <ele>8</ele>
        <time>2022-01-13T08:31:25.000Z</time>
      </trkpt>
      <trkpt lat="47.27261" lon="-2.35122">
        <ele>8</ele>
        <time>2022-01-13T08:31:27.000Z</time>
      </trkpt>
      <trkpt lat="47.27275" lon="-2.35115">
        <ele>8</ele>
        <time>2022-01-13T08:31:30.000Z</time>
      </trkpt>
      <trkpt lat="47.27279" lon="-2.35112">
        <ele>8</ele>
        <time>2022-01-13T08:31:31.000Z</time>
      </trkpt>
      <trkpt lat="47.27283" lon="-2.3511">
        <ele>8</ele>
        <time>2022-01-13T08:31:32.000Z</time>
      </trkpt>
      <trkpt lat="47.27297" lon="-2.35104">
        <ele>8</ele>
        <time>2022-01-13T08:31:37.000Z</time>
      </trkpt>
      <trkpt lat="47.27298" lon="-2.35106">
        <ele>8.8000001907349</ele>
        <time>2022-01-13T08:31:38.000Z</time>
      </trkpt>
      <trkpt lat="47.273" lon="-2.35106">
        <ele>9.1999998092651</ele>
        <time>2022-01-13T08:31:39.000Z</time>
      </trkpt>
      <trkpt lat="47.27302" lon="-2.35106">
        <ele>9.6000003814697</ele>
        <time>2022-01-13T08:31:40.000Z</time>
      </trkpt>
      <trkpt lat="47.27304" lon="-2.35106">
        <ele>10</ele>
        <time>2022-01-13T08:31:41.000Z</time>
      </trkpt>
      <trkpt lat="47.27307" lon="-2.35103">
        <ele>10</ele>
        <time>2022-01-13T08:31:42.000Z</time>
      </trkpt>
      <trkpt lat="47.27314" lon="-2.35095">
        <ele>10</ele>
        <time>2022-01-13T08:31:45.000Z</time>
      </trkpt>
      <trkpt lat="47.27321" lon="-2.35094">
        <ele>10</ele>
        <time>2022-01-13T08:31:47.000Z</time>
      </trkpt>
      <trkpt lat="47.27325" lon="-2.35092">
        <ele>10.39999961853</ele>
        <time>2022-01-13T08:31:48.000Z</time>
      </trkpt>
      <trkpt lat="47.27328" lon="-2.35091">
        <ele>10.800000190735</ele>
        <time>2022-01-13T08:31:49.000Z</time>
      </trkpt>
      <trkpt lat="47.27331" lon="-2.35089">
        <ele>11.199999809265</ele>
        <time>2022-01-13T08:31:50.000Z</time>
      </trkpt>
      <trkpt lat="47.27334" lon="-2.35088">
        <ele>11.60000038147</ele>
        <time>2022-01-13T08:31:51.000Z</time>
      </trkpt>
      <trkpt lat="47.27338" lon="-2.35088">
        <ele>12</ele>
        <time>2022-01-13T08:31:52.000Z</time>
      </trkpt>
      <trkpt lat="47.27347" lon="-2.35082">
        <ele>12.39999961853</ele>
        <time>2022-01-13T08:31:55.000Z</time>
      </trkpt>
      <trkpt lat="47.27351" lon="-2.35079">
        <ele>13</ele>
        <time>2022-01-13T08:31:56.000Z</time>
      </trkpt>
      <trkpt lat="47.27354" lon="-2.35078">
        <ele>13.39999961853</ele>
        <time>2022-01-13T08:31:57.000Z</time>
      </trkpt>
      <trkpt lat="47.27357" lon="-2.35076">
        <ele>13.800000190735</ele>
        <time>2022-01-13T08:31:58.000Z</time>
      </trkpt>
      <trkpt lat="47.27359" lon="-2.35073">
        <ele>14.39999961853</ele>
        <time>2022-01-13T08:31:59.000Z</time>
      </trkpt>
      <trkpt lat="47.27366" lon="-2.35068">
        <ele>14.39999961853</ele>
        <time>2022-01-13T08:32:01.000Z</time>
      </trkpt>
      <trkpt lat="47.27386" lon="-2.35058">
        <ele>14.39999961853</ele>
        <time>2022-01-13T08:32:07.000Z</time>
      </trkpt>
      <trkpt lat="47.27392" lon="-2.35056">
        <ele>14.800000190735</ele>
        <time>2022-01-13T08:32:09.000Z</time>
      </trkpt>
      <trkpt lat="47.27396" lon="-2.35056">
        <ele>15.199999809265</ele>
        <time>2022-01-13T08:32:10.000Z</time>
      </trkpt>
      <trkpt lat="47.27399" lon="-2.35058">
        <ele>15.60000038147</ele>
        <time>2022-01-13T08:32:11.000Z</time>
      </trkpt>
      <trkpt lat="47.27402" lon="-2.35062">
        <ele>16</ele>
        <time>2022-01-13T08:32:12.000Z</time>
      </trkpt>
      <trkpt lat="47.27404" lon="-2.35067">
        <ele>16.39999961853</ele>
        <time>2022-01-13T08:32:13.000Z</time>
      </trkpt>
      <trkpt lat="47.27409" lon="-2.35082">
        <ele>16.39999961853</ele>
        <time>2022-01-13T08:32:16.000Z</time>
      </trkpt>
      <trkpt lat="47.2741" lon="-2.35087">
        <ele>16.39999961853</ele>
        <time>2022-01-13T08:32:17.000Z</time>
      </trkpt>
      <trkpt lat="47.2742" lon="-2.35133">
        <ele>16.39999961853</ele>
        <time>2022-01-13T08:32:25.000Z</time>
      </trkpt>
      <trkpt lat="47.27423" lon="-2.35158">
        <ele>16.39999961853</ele>
        <time>2022-01-13T08:32:29.000Z</time>
      </trkpt>
      <trkpt lat="47.27431" lon="-2.35173">
        <ele>16.39999961853</ele>
        <time>2022-01-13T08:32:32.000Z</time>
      </trkpt>
      <trkpt lat="47.27433" lon="-2.35174">
        <ele>16.39999961853</ele>
        <time>2022-01-13T08:32:33.000Z</time>
      </trkpt>
      <trkpt lat="47.27444" lon="-2.35168">
        <ele>16.39999961853</ele>
        <time>2022-01-13T08:32:35.000Z</time>
      </trkpt>
      <trkpt lat="47.27455" lon="-2.3516">
        <ele>16.799999237061</ele>
        <time>2022-01-13T08:32:38.000Z</time>
      </trkpt>
      <trkpt lat="47.27459" lon="-2.35158">
        <ele>17.200000762939</ele>
        <time>2022-01-13T08:32:39.000Z</time>
      </trkpt>
      <trkpt lat="47.27463" lon="-2.35156">
        <ele>17.60000038147</ele>
        <time>2022-01-13T08:32:40.000Z</time>
      </trkpt>
      <trkpt lat="47.27467" lon="-2.35154">
        <ele>18</ele>
        <time>2022-01-13T08:32:41.000Z</time>
      </trkpt>
      <trkpt lat="47.27471" lon="-2.35153">
        <ele>18.39999961853</ele>
        <time>2022-01-13T08:32:42.000Z</time>
      </trkpt>
      <trkpt lat="47.27493" lon="-2.35142">
        <ele>18.39999961853</ele>
        <time>2022-01-13T08:32:48.000Z</time>
      </trkpt>
      <trkpt lat="47.27503" lon="-2.35131">
        <ele>19.39999961853</ele>
        <time>2022-01-13T08:32:52.000Z</time>
      </trkpt>
      <trkpt lat="47.27504" lon="-2.35127">
        <ele>19.799999237061</ele>
        <time>2022-01-13T08:32:53.000Z</time>
      </trkpt>
      <trkpt lat="47.27507" lon="-2.35126">
        <ele>20.200000762939</ele>
        <time>2022-01-13T08:32:54.000Z</time>
      </trkpt>
      <trkpt lat="47.27511" lon="-2.35127">
        <ele>20.60000038147</ele>
        <time>2022-01-13T08:32:55.000Z</time>
      </trkpt>
      <trkpt lat="47.27521" lon="-2.35132">
        <ele>20.60000038147</ele>
        <time>2022-01-13T08:32:58.000Z</time>
      </trkpt>
      <trkpt lat="47.27529" lon="-2.35135">
        <ele>20.60000038147</ele>
        <time>2022-01-13T08:33:00.000Z</time>
      </trkpt>
      <trkpt lat="47.27541" lon="-2.35135">
        <ele>20.60000038147</ele>
        <time>2022-01-13T08:33:03.000Z</time>
      </trkpt>
      <trkpt lat="47.2755" lon="-2.35133">
        <ele>20.60000038147</ele>
        <time>2022-01-13T08:33:05.000Z</time>
      </trkpt>
      <trkpt lat="47.27558" lon="-2.35133">
        <ele>20.60000038147</ele>
        <time>2022-01-13T08:33:07.000Z</time>
      </trkpt>
      <trkpt lat="47.2758" lon="-2.35131">
        <ele>20.60000038147</ele>
        <time>2022-01-13T08:33:12.000Z</time>
      </trkpt>
      <trkpt lat="47.27603" lon="-2.35133">
        <ele>20.60000038147</ele>
        <time>2022-01-13T08:33:17.000Z</time>
      </trkpt>
      <trkpt lat="47.27607" lon="-2.35135">
        <ele>20.60000038147</ele>
        <time>2022-01-13T08:33:18.000Z</time>
      </trkpt>
      <trkpt lat="47.27621" lon="-2.35142">
        <ele>20.60000038147</ele>
        <time>2022-01-13T08:33:22.000Z</time>
      </trkpt>
      <trkpt lat="47.27639" lon="-2.35144">
        <ele>20.60000038147</ele>
        <time>2022-01-13T08:33:27.000Z</time>
      </trkpt>
      <trkpt lat="47.2765" lon="-2.35142">
        <ele>20.60000038147</ele>
        <time>2022-01-13T08:33:30.000Z</time>
      </trkpt>
      <trkpt lat="47.27666" lon="-2.35155">
        <ele>20.60000038147</ele>
        <time>2022-01-13T08:33:34.000Z</time>
      </trkpt>
      <trkpt lat="47.27673" lon="-2.35174">
        <ele>20.60000038147</ele>
        <time>2022-01-13T08:33:37.000Z</time>
      </trkpt>
      <trkpt lat="47.27676" lon="-2.35206">
        <ele>20.200000762939</ele>
        <time>2022-01-13T08:33:41.000Z</time>
      </trkpt>
      <trkpt lat="47.27677" lon="-2.35212">
        <ele>19.200000762939</ele>
        <time>2022-01-13T08:33:42.000Z</time>
      </trkpt>
      <trkpt lat="47.27678" lon="-2.35217">
        <ele>18.60000038147</ele>
        <time>2022-01-13T08:33:43.000Z</time>
      </trkpt>
      <trkpt lat="47.27682" lon="-2.35219">
        <ele>18.200000762939</ele>
        <time>2022-01-13T08:33:44.000Z</time>
      </trkpt>
      <trkpt lat="47.27696" lon="-2.35217">
        <ele>18.200000762939</ele>
        <time>2022-01-13T08:33:47.000Z</time>
      </trkpt>
      <trkpt lat="47.27726" lon="-2.35207">
        <ele>18.200000762939</ele>
        <time>2022-01-13T08:33:53.000Z</time>
      </trkpt>
      <trkpt lat="47.27742" lon="-2.35202">
        <ele>17.799999237061</ele>
        <time>2022-01-13T08:33:56.000Z</time>
      </trkpt>
      <trkpt lat="47.27747" lon="-2.35201">
        <ele>17.200000762939</ele>
        <time>2022-01-13T08:33:57.000Z</time>
      </trkpt>
      <trkpt lat="47.27752" lon="-2.352">
        <ele>16.799999237061</ele>
        <time>2022-01-13T08:33:58.000Z</time>
      </trkpt>
      <trkpt lat="47.27757" lon="-2.35198">
        <ele>16.39999961853</ele>
        <time>2022-01-13T08:33:59.000Z</time>
      </trkpt>
      <trkpt lat="47.27763" lon="-2.35198">
        <ele>16</ele>
        <time>2022-01-13T08:34:00.000Z</time>
      </trkpt>
      <trkpt lat="47.27774" lon="-2.35204">
        <ele>16</ele>
        <time>2022-01-13T08:34:03.000Z</time>
      </trkpt>
      <trkpt lat="47.27778" lon="-2.35216">
        <ele>15.60000038147</ele>
        <time>2022-01-13T08:34:05.000Z</time>
      </trkpt>
      <trkpt lat="47.2778" lon="-2.35223">
        <ele>14.60000038147</ele>
        <time>2022-01-13T08:34:06.000Z</time>
      </trkpt>
      <trkpt lat="47.27781" lon="-2.3523">
        <ele>14.199999809265</ele>
        <time>2022-01-13T08:34:07.000Z</time>
      </trkpt>
      <trkpt lat="47.27782" lon="-2.35238">
        <ele>13.800000190735</ele>
        <time>2022-01-13T08:34:08.000Z</time>
      </trkpt>
      <trkpt lat="47.27786" lon="-2.35269">
        <ele>13.800000190735</ele>
        <time>2022-01-13T08:34:12.000Z</time>
      </trkpt>
      <trkpt lat="47.27788" lon="-2.35276">
        <ele>13.800000190735</ele>
        <time>2022-01-13T08:34:13.000Z</time>
      </trkpt>
      <trkpt lat="47.27798" lon="-2.35325">
        <ele>13.800000190735</ele>
        <time>2022-01-13T08:34:19.000Z</time>
      </trkpt>
      <trkpt lat="47.27804" lon="-2.35349">
        <ele>13.800000190735</ele>
        <time>2022-01-13T08:34:22.000Z</time>
      </trkpt>
      <trkpt lat="47.27811" lon="-2.3536">
        <ele>13.800000190735</ele>
        <time>2022-01-13T08:34:24.000Z</time>
      </trkpt>
      <trkpt lat="47.27826" lon="-2.35363">
        <ele>13.800000190735</ele>
        <time>2022-01-13T08:34:27.000Z</time>
      </trkpt>
      <trkpt lat="47.27836" lon="-2.35361">
        <ele>13.800000190735</ele>
        <time>2022-01-13T08:34:29.000Z</time>
      </trkpt>
      <trkpt lat="47.27856" lon="-2.35358">
        <ele>13.800000190735</ele>
        <time>2022-01-13T08:34:33.000Z</time>
      </trkpt>
      <trkpt lat="47.2787" lon="-2.3536">
        <ele>13.800000190735</ele>
        <time>2022-01-13T08:34:36.000Z</time>
      </trkpt>
      <trkpt lat="47.27874" lon="-2.35362">
        <ele>14.199999809265</ele>
        <time>2022-01-13T08:34:37.000Z</time>
      </trkpt>
      <trkpt lat="47.27879" lon="-2.35365">
        <ele>14.60000038147</ele>
        <time>2022-01-13T08:34:38.000Z</time>
      </trkpt>
      <trkpt lat="47.27883" lon="-2.35369">
        <ele>15</ele>
        <time>2022-01-13T08:34:39.000Z</time>
      </trkpt>
      <trkpt lat="47.27887" lon="-2.35374">
        <ele>15.39999961853</ele>
        <time>2022-01-13T08:34:40.000Z</time>
      </trkpt>
      <trkpt lat="47.2789" lon="-2.35379">
        <ele>15.800000190735</ele>
        <time>2022-01-13T08:34:41.000Z</time>
      </trkpt>
      <trkpt lat="47.27894" lon="-2.35384">
        <ele>15.800000190735</ele>
        <time>2022-01-13T08:34:42.000Z</time>
      </trkpt>
      <trkpt lat="47.27898" lon="-2.35389">
        <ele>15.800000190735</ele>
        <time>2022-01-13T08:34:43.000Z</time>
      </trkpt>
      <trkpt lat="47.27929" lon="-2.35429">
        <ele>15.800000190735</ele>
        <time>2022-01-13T08:34:51.000Z</time>
      </trkpt>
      <trkpt lat="47.27951" lon="-2.35452">
        <ele>15.800000190735</ele>
        <time>2022-01-13T08:34:56.000Z</time>
      </trkpt>
      <trkpt lat="47.27961" lon="-2.35457">
        <ele>15.800000190735</ele>
        <time>2022-01-13T08:34:58.000Z</time>
      </trkpt>
      <trkpt lat="47.27973" lon="-2.35467">
        <ele>15.800000190735</ele>
        <time>2022-01-13T08:35:01.000Z</time>
      </trkpt>
      <trkpt lat="47.27981" lon="-2.35478">
        <ele>15.800000190735</ele>
        <time>2022-01-13T08:35:03.000Z</time>
      </trkpt>
      <trkpt lat="47.2799" lon="-2.35496">
        <ele>15.800000190735</ele>
        <time>2022-01-13T08:35:06.000Z</time>
      </trkpt>
      <trkpt lat="47.27996" lon="-2.35508">
        <ele>15.800000190735</ele>
        <time>2022-01-13T08:35:08.000Z</time>
      </trkpt>
      <trkpt lat="47.27998" lon="-2.35513">
        <ele>15.800000190735</ele>
        <time>2022-01-13T08:35:09.000Z</time>
      </trkpt>
      <trkpt lat="47.28007" lon="-2.35542">
        <ele>16.39999961853</ele>
        <time>2022-01-13T08:35:15.000Z</time>
      </trkpt>
      <trkpt lat="47.28008" lon="-2.35546">
        <ele>16.799999237061</ele>
        <time>2022-01-13T08:35:16.000Z</time>
      </trkpt>
      <trkpt lat="47.2801" lon="-2.3555">
        <ele>17.200000762939</ele>
        <time>2022-01-13T08:35:17.000Z</time>
      </trkpt>
      <trkpt lat="47.28013" lon="-2.35551">
        <ele>17.60000038147</ele>
        <time>2022-01-13T08:35:18.000Z</time>
      </trkpt>
      <trkpt lat="47.28016" lon="-2.35553">
        <ele>18</ele>
        <time>2022-01-13T08:35:19.000Z</time>
      </trkpt>
      <trkpt lat="47.28027" lon="-2.35559">
        <ele>18</ele>
        <time>2022-01-13T08:35:22.000Z</time>
      </trkpt>
      <trkpt lat="47.28035" lon="-2.35566">
        <ele>18</ele>
        <time>2022-01-13T08:35:24.000Z</time>
      </trkpt>
      <trkpt lat="47.28047" lon="-2.35575">
        <ele>18.39999961853</ele>
        <time>2022-01-13T08:35:28.000Z</time>
      </trkpt>
      <trkpt lat="47.2805" lon="-2.35576">
        <ele>18.799999237061</ele>
        <time>2022-01-13T08:35:29.000Z</time>
      </trkpt>
      <trkpt lat="47.28053" lon="-2.35578">
        <ele>19.39999961853</ele>
        <time>2022-01-13T08:35:30.000Z</time>
      </trkpt>
      <trkpt lat="47.28057" lon="-2.35579">
        <ele>19.799999237061</ele>
        <time>2022-01-13T08:35:31.000Z</time>
      </trkpt>
      <trkpt lat="47.2806" lon="-2.3558">
        <ele>20.200000762939</ele>
        <time>2022-01-13T08:35:32.000Z</time>
      </trkpt>
      <trkpt lat="47.28071" lon="-2.35585">
        <ele>20.200000762939</ele>
        <time>2022-01-13T08:35:36.000Z</time>
      </trkpt>
      <trkpt lat="47.2808" lon="-2.35602">
        <ele>20.200000762939</ele>
        <time>2022-01-13T08:35:40.000Z</time>
      </trkpt>
      <trkpt lat="47.28088" lon="-2.35616">
        <ele>20.200000762939</ele>
        <time>2022-01-13T08:35:45.000Z</time>
      </trkpt>
      <trkpt lat="47.28091" lon="-2.3562">
        <ele>20.200000762939</ele>
        <time>2022-01-13T08:35:50.000Z</time>
      </trkpt>
      <trkpt lat="47.28089" lon="-2.35618">
        <ele>26.200000762939</ele>
        <time>2022-01-13T08:45:45.000Z</time>
      </trkpt>
      <trkpt lat="47.2808" lon="-2.35608">
        <ele>26.200000762939</ele>
        <time>2022-01-13T08:45:51.000Z</time>
      </trkpt>
      <trkpt lat="47.28072" lon="-2.35589">
        <ele>26.200000762939</ele>
        <time>2022-01-13T08:45:57.000Z</time>
      </trkpt>
      <trkpt lat="47.28069" lon="-2.35577">
        <ele>26.200000762939</ele>
        <time>2022-01-13T08:46:01.000Z</time>
      </trkpt>
      <trkpt lat="47.2807" lon="-2.35574">
        <ele>26.200000762939</ele>
        <time>2022-01-13T08:46:02.000Z</time>
      </trkpt>
      <trkpt lat="47.2808" lon="-2.35562">
        <ele>26.200000762939</ele>
        <time>2022-01-13T08:46:07.000Z</time>
      </trkpt>
      <trkpt lat="47.28097" lon="-2.35562">
        <ele>26.200000762939</ele>
        <time>2022-01-13T08:46:12.000Z</time>
      </trkpt>
      <trkpt lat="47.28115" lon="-2.35561">
        <ele>26.60000038147</ele>
        <time>2022-01-13T08:46:17.000Z</time>
      </trkpt>
      <trkpt lat="47.28118" lon="-2.35562">
        <ele>27.200000762939</ele>
        <time>2022-01-13T08:46:18.000Z</time>
      </trkpt>
      <trkpt lat="47.28121" lon="-2.35562">
        <ele>27.60000038147</ele>
        <time>2022-01-13T08:46:19.000Z</time>
      </trkpt>
      <trkpt lat="47.28124" lon="-2.35562">
        <ele>28</ele>
        <time>2022-01-13T08:46:20.000Z</time>
      </trkpt>
      <trkpt lat="47.28128" lon="-2.35561">
        <ele>28.39999961853</ele>
        <time>2022-01-13T08:46:21.000Z</time>
      </trkpt>
      <trkpt lat="47.28145" lon="-2.35562">
        <ele>28.39999961853</ele>
        <time>2022-01-13T08:46:26.000Z</time>
      </trkpt>
      <trkpt lat="47.28163" lon="-2.35567">
        <ele>28.39999961853</ele>
        <time>2022-01-13T08:46:32.000Z</time>
      </trkpt>
      <trkpt lat="47.2818" lon="-2.35578">
        <ele>28.39999961853</ele>
        <time>2022-01-13T08:46:39.000Z</time>
      </trkpt>
      <trkpt lat="47.28183" lon="-2.3558">
        <ele>28.799999237061</ele>
        <time>2022-01-13T08:46:40.000Z</time>
      </trkpt>
      <trkpt lat="47.28185" lon="-2.35582">
        <ele>29.200000762939</ele>
        <time>2022-01-13T08:46:41.000Z</time>
      </trkpt>
      <trkpt lat="47.28188" lon="-2.35584">
        <ele>29.60000038147</ele>
        <time>2022-01-13T08:46:42.000Z</time>
      </trkpt>
      <trkpt lat="47.2819" lon="-2.35587">
        <ele>30</ele>
        <time>2022-01-13T08:46:43.000Z</time>
      </trkpt>
      <trkpt lat="47.28193" lon="-2.3559">
        <ele>30.39999961853</ele>
        <time>2022-01-13T08:46:44.000Z</time>
      </trkpt>
      <trkpt lat="47.28196" lon="-2.35594">
        <ele>30.39999961853</ele>
        <time>2022-01-13T08:46:45.000Z</time>
      </trkpt>
      <trkpt lat="47.28212" lon="-2.35617">
        <ele>30.39999961853</ele>
        <time>2022-01-13T08:46:52.000Z</time>
      </trkpt>
      <trkpt lat="47.28223" lon="-2.35632">
        <ele>30.39999961853</ele>
        <time>2022-01-13T08:46:57.000Z</time>
      </trkpt>
      <trkpt lat="47.28232" lon="-2.35646">
        <ele>30.799999237061</ele>
        <time>2022-01-13T08:47:02.000Z</time>
      </trkpt>
      <trkpt lat="47.28234" lon="-2.35649">
        <ele>31.200000762939</ele>
        <time>2022-01-13T08:47:03.000Z</time>
      </trkpt>
      <trkpt lat="47.28236" lon="-2.35652">
        <ele>31.60000038147</ele>
        <time>2022-01-13T08:47:04.000Z</time>
      </trkpt>
      <trkpt lat="47.28238" lon="-2.35654">
        <ele>32</ele>
        <time>2022-01-13T08:47:05.000Z</time>
      </trkpt>
      <trkpt lat="47.2824" lon="-2.35657">
        <ele>32.400001525879</ele>
        <time>2022-01-13T08:47:06.000Z</time>
      </trkpt>
      <trkpt lat="47.28248" lon="-2.3567">
        <ele>32.400001525879</ele>
        <time>2022-01-13T08:47:10.000Z</time>
      </trkpt>
      <trkpt lat="47.28265" lon="-2.35691">
        <ele>32.400001525879</ele>
        <time>2022-01-13T08:47:16.000Z</time>
      </trkpt>
      <trkpt lat="47.28283" lon="-2.35709">
        <ele>32.400001525879</ele>
        <time>2022-01-13T08:47:22.000Z</time>
      </trkpt>
      <trkpt lat="47.28286" lon="-2.35712">
        <ele>32.799999237061</ele>
        <time>2022-01-13T08:47:23.000Z</time>
      </trkpt>
      <trkpt lat="47.28289" lon="-2.35714">
        <ele>33.200000762939</ele>
        <time>2022-01-13T08:47:24.000Z</time>
      </trkpt>
      <trkpt lat="47.28292" lon="-2.35717">
        <ele>33.599998474121</ele>
        <time>2022-01-13T08:47:25.000Z</time>
      </trkpt>
      <trkpt lat="47.28295" lon="-2.3572">
        <ele>34.200000762939</ele>
        <time>2022-01-13T08:47:26.000Z</time>
      </trkpt>
      <trkpt lat="47.28298" lon="-2.35723">
        <ele>34.599998474121</ele>
        <time>2022-01-13T08:47:27.000Z</time>
      </trkpt>
      <trkpt lat="47.28309" lon="-2.35733">
        <ele>34.599998474121</ele>
        <time>2022-01-13T08:47:31.000Z</time>
      </trkpt>
      <trkpt lat="47.28325" lon="-2.35746">
        <ele>34.599998474121</ele>
        <time>2022-01-13T08:47:37.000Z</time>
      </trkpt>
      <trkpt lat="47.28344" lon="-2.35759">
        <ele>34.599998474121</ele>
        <time>2022-01-13T08:47:44.000Z</time>
      </trkpt>
      <trkpt lat="47.28355" lon="-2.35764">
        <ele>35</ele>
        <time>2022-01-13T08:47:47.000Z</time>
      </trkpt>
      <trkpt lat="47.28359" lon="-2.35765">
        <ele>35.400001525879</ele>
        <time>2022-01-13T08:47:48.000Z</time>
      </trkpt>
      <trkpt lat="47.28362" lon="-2.35767">
        <ele>35.799999237061</ele>
        <time>2022-01-13T08:47:49.000Z</time>
      </trkpt>
      <trkpt lat="47.28366" lon="-2.35768">
        <ele>36.200000762939</ele>
        <time>2022-01-13T08:47:50.000Z</time>
      </trkpt>
      <trkpt lat="47.28369" lon="-2.3577">
        <ele>36.599998474121</ele>
        <time>2022-01-13T08:47:51.000Z</time>
      </trkpt>
      <trkpt lat="47.28372" lon="-2.35772">
        <ele>36.599998474121</ele>
        <time>2022-01-13T08:47:52.000Z</time>
      </trkpt>
      <trkpt lat="47.28393" lon="-2.35781">
        <ele>36.599998474121</ele>
        <time>2022-01-13T08:47:59.000Z</time>
      </trkpt>
      <trkpt lat="47.2842" lon="-2.35792">
        <ele>36.599998474121</ele>
        <time>2022-01-13T08:48:06.000Z</time>
      </trkpt>
      <trkpt lat="47.28444" lon="-2.35801">
        <ele>36.599998474121</ele>
        <time>2022-01-13T08:48:12.000Z</time>
      </trkpt>
      <trkpt lat="47.28465" lon="-2.35808">
        <ele>36.599998474121</ele>
        <time>2022-01-13T08:48:18.000Z</time>
      </trkpt>
      <trkpt lat="47.28487" lon="-2.35818">
        <ele>36.599998474121</ele>
        <time>2022-01-13T08:48:24.000Z</time>
      </trkpt>
      <trkpt lat="47.28507" lon="-2.35825">
        <ele>36.599998474121</ele>
        <time>2022-01-13T08:48:30.000Z</time>
      </trkpt>
      <trkpt lat="47.2851" lon="-2.35826">
        <ele>37.400001525879</ele>
        <time>2022-01-13T08:48:31.000Z</time>
      </trkpt>
      <trkpt lat="47.28513" lon="-2.35827">
        <ele>37.799999237061</ele>
        <time>2022-01-13T08:48:32.000Z</time>
      </trkpt>
      <trkpt lat="47.28516" lon="-2.35828">
        <ele>38.200000762939</ele>
        <time>2022-01-13T08:48:33.000Z</time>
      </trkpt>
      <trkpt lat="47.2852" lon="-2.3583">
        <ele>38.599998474121</ele>
        <time>2022-01-13T08:48:34.000Z</time>
      </trkpt>
      <trkpt lat="47.28527" lon="-2.35832">
        <ele>38.599998474121</ele>
        <time>2022-01-13T08:48:36.000Z</time>
      </trkpt>
      <trkpt lat="47.28546" lon="-2.35845">
        <ele>38.599998474121</ele>
        <time>2022-01-13T08:48:42.000Z</time>
      </trkpt>
      <trkpt lat="47.28562" lon="-2.35866">
        <ele>38.599998474121</ele>
        <time>2022-01-13T08:48:48.000Z</time>
      </trkpt>
      <trkpt lat="47.28576" lon="-2.35899">
        <ele>38.599998474121</ele>
        <time>2022-01-13T08:48:54.000Z</time>
      </trkpt>
      <trkpt lat="47.28587" lon="-2.35924">
        <ele>39</ele>
        <time>2022-01-13T08:48:59.000Z</time>
      </trkpt>
      <trkpt lat="47.28589" lon="-2.35929">
        <ele>39.400001525879</ele>
        <time>2022-01-13T08:49:00.000Z</time>
      </trkpt>
      <trkpt lat="47.28591" lon="-2.35934">
        <ele>40</ele>
        <time>2022-01-13T08:49:01.000Z</time>
      </trkpt>
      <trkpt lat="47.28593" lon="-2.35939">
        <ele>40.400001525879</ele>
        <time>2022-01-13T08:49:02.000Z</time>
      </trkpt>
      <trkpt lat="47.28595" lon="-2.35943">
        <ele>40.799999237061</ele>
        <time>2022-01-13T08:49:03.000Z</time>
      </trkpt>
      <trkpt lat="47.28604" lon="-2.35964">
        <ele>40.799999237061</ele>
        <time>2022-01-13T08:49:08.000Z</time>
      </trkpt>
      <trkpt lat="47.28615" lon="-2.35991">
        <ele>40.799999237061</ele>
        <time>2022-01-13T08:49:13.000Z</time>
      </trkpt>
      <trkpt lat="47.28631" lon="-2.36026">
        <ele>41.200000762939</ele>
        <time>2022-01-13T08:49:20.000Z</time>
      </trkpt>
      <trkpt lat="47.28633" lon="-2.36031">
        <ele>42</ele>
        <time>2022-01-13T08:49:21.000Z</time>
      </trkpt>
      <trkpt lat="47.28635" lon="-2.36035">
        <ele>42.400001525879</ele>
        <time>2022-01-13T08:49:22.000Z</time>
      </trkpt>
      <trkpt lat="47.28637" lon="-2.3604">
        <ele>42.799999237061</ele>
        <time>2022-01-13T08:49:23.000Z</time>
      </trkpt>
      <trkpt lat="47.28643" lon="-2.36055">
        <ele>42.799999237061</ele>
        <time>2022-01-13T08:49:27.000Z</time>
      </trkpt>
      <trkpt lat="47.28652" lon="-2.36074">
        <ele>42.799999237061</ele>
        <time>2022-01-13T08:49:32.000Z</time>
      </trkpt>
      <trkpt lat="47.28664" lon="-2.36105">
        <ele>42.799999237061</ele>
        <time>2022-01-13T08:49:39.000Z</time>
      </trkpt>
      <trkpt lat="47.28669" lon="-2.36125">
        <ele>42.799999237061</ele>
        <time>2022-01-13T08:49:44.000Z</time>
      </trkpt>
      <trkpt lat="47.28671" lon="-2.36134">
        <ele>42.799999237061</ele>
        <time>2022-01-13T08:49:46.000Z</time>
      </trkpt>
      <trkpt lat="47.28673" lon="-2.36138">
        <ele>42.799999237061</ele>
        <time>2022-01-13T08:49:48.000Z</time>
      </trkpt>
      <trkpt lat="47.28683" lon="-2.36156">
        <ele>42.799999237061</ele>
        <time>2022-01-13T08:49:56.000Z</time>
      </trkpt>
      <trkpt lat="47.28688" lon="-2.36166">
        <ele>43.200000762939</ele>
        <time>2022-01-13T08:50:03.000Z</time>
      </trkpt>
      <trkpt lat="47.28689" lon="-2.36167">
        <ele>43.599998474121</ele>
        <time>2022-01-13T08:50:04.000Z</time>
      </trkpt>
      <trkpt lat="47.2869" lon="-2.36169">
        <ele>44</ele>
        <time>2022-01-13T08:50:05.000Z</time>
      </trkpt>
      <trkpt lat="47.28691" lon="-2.36172">
        <ele>44.400001525879</ele>
        <time>2022-01-13T08:50:06.000Z</time>
      </trkpt>
      <trkpt lat="47.28692" lon="-2.36175">
        <ele>44.799999237061</ele>
        <time>2022-01-13T08:50:07.000Z</time>
      </trkpt>
      <trkpt lat="47.28696" lon="-2.36184">
        <ele>44.799999237061</ele>
        <time>2022-01-13T08:50:09.000Z</time>
      </trkpt>
      <trkpt lat="47.28704" lon="-2.36207">
        <ele>44.799999237061</ele>
        <time>2022-01-13T08:50:14.000Z</time>
      </trkpt>
      <trkpt lat="47.28706" lon="-2.36211">
        <ele>44.799999237061</ele>
        <time>2022-01-13T08:50:16.000Z</time>
      </trkpt>
      <trkpt lat="47.28711" lon="-2.36213">
        <ele>44.799999237061</ele>
        <time>2022-01-13T08:50:18.000Z</time>
      </trkpt>
      <trkpt lat="47.28725" lon="-2.36212">
        <ele>44.799999237061</ele>
        <time>2022-01-13T08:50:23.000Z</time>
      </trkpt>
      <trkpt lat="47.28742" lon="-2.36208">
        <ele>44.799999237061</ele>
        <time>2022-01-13T08:50:29.000Z</time>
      </trkpt>
      <trkpt lat="47.28749" lon="-2.36207">
        <ele>44.799999237061</ele>
        <time>2022-01-13T08:50:35.000Z</time>
      </trkpt>
      <trkpt lat="47.2875" lon="-2.36209">
        <ele>44.799999237061</ele>
        <time>2022-01-13T08:50:36.000Z</time>
      </trkpt>
      <trkpt lat="47.28756" lon="-2.36217">
        <ele>44.799999237061</ele>
        <time>2022-01-13T08:50:40.000Z</time>
      </trkpt>
      <trkpt lat="47.28765" lon="-2.3623">
        <ele>44.799999237061</ele>
        <time>2022-01-13T08:50:46.000Z</time>
      </trkpt>
      <trkpt lat="47.28767" lon="-2.36232">
        <ele>44.799999237061</ele>
        <time>2022-01-13T08:50:47.000Z</time>
      </trkpt>
      <trkpt lat="47.28776" lon="-2.36236">
        <ele>44.799999237061</ele>
        <time>2022-01-13T08:50:50.000Z</time>
      </trkpt>
      <trkpt lat="47.28789" lon="-2.36252">
        <ele>44.799999237061</ele>
        <time>2022-01-13T08:50:55.000Z</time>
      </trkpt>
      <trkpt lat="47.28809" lon="-2.36275">
        <ele>44.400001525879</ele>
        <time>2022-01-13T08:51:01.000Z</time>
      </trkpt>
      <trkpt lat="47.28812" lon="-2.3628">
        <ele>44</ele>
        <time>2022-01-13T08:51:02.000Z</time>
      </trkpt>
      <trkpt lat="47.28817" lon="-2.36284">
        <ele>43.599998474121</ele>
        <time>2022-01-13T08:51:03.000Z</time>
      </trkpt>
      <trkpt lat="47.28821" lon="-2.36288">
        <ele>43.200000762939</ele>
        <time>2022-01-13T08:51:04.000Z</time>
      </trkpt>
      <trkpt lat="47.28826" lon="-2.36293">
        <ele>42.799999237061</ele>
        <time>2022-01-13T08:51:05.000Z</time>
      </trkpt>
      <trkpt lat="47.28834" lon="-2.36303">
        <ele>42.799999237061</ele>
        <time>2022-01-13T08:51:07.000Z</time>
      </trkpt>
      <trkpt lat="47.28841" lon="-2.36312">
        <ele>42.799999237061</ele>
        <time>2022-01-13T08:51:10.000Z</time>
      </trkpt>
      <trkpt lat="47.2885" lon="-2.36323">
        <ele>42.799999237061</ele>
        <time>2022-01-13T08:51:15.000Z</time>
      </trkpt>
      <trkpt lat="47.28851" lon="-2.36323">
        <ele>42.799999237061</ele>
        <time>2022-01-13T08:51:16.000Z</time>
      </trkpt>
      <trkpt lat="47.28853" lon="-2.36324">
        <ele>42.400001525879</ele>
        <time>2022-01-13T08:51:20.000Z</time>
      </trkpt>
      <trkpt lat="47.28853" lon="-2.36325">
        <ele>42</ele>
        <time>2022-01-13T08:51:21.000Z</time>
      </trkpt>
      <trkpt lat="47.28855" lon="-2.36326">
        <ele>40.799999237061</ele>
        <time>2022-01-13T08:51:32.000Z</time>
      </trkpt>
      <trkpt lat="47.28863" lon="-2.36327">
        <ele>40.799999237061</ele>
        <time>2022-01-13T08:51:34.000Z</time>
      </trkpt>
      <trkpt lat="47.28876" lon="-2.36333">
        <ele>40.200000762939</ele>
        <time>2022-01-13T08:51:36.000Z</time>
      </trkpt>
      <trkpt lat="47.28884" lon="-2.36337">
        <ele>39.599998474121</ele>
        <time>2022-01-13T08:51:37.000Z</time>
      </trkpt>
      <trkpt lat="47.28894" lon="-2.36342">
        <ele>38.799999237061</ele>
        <time>2022-01-13T08:51:38.000Z</time>
      </trkpt>
      <trkpt lat="47.28903" lon="-2.36346">
        <ele>38</ele>
        <time>2022-01-13T08:51:39.000Z</time>
      </trkpt>
      <trkpt lat="47.28913" lon="-2.36351">
        <ele>37.200000762939</ele>
        <time>2022-01-13T08:51:40.000Z</time>
      </trkpt>
      <trkpt lat="47.28922" lon="-2.36356">
        <ele>36.400001525879</ele>
        <time>2022-01-13T08:51:41.000Z</time>
      </trkpt>
      <trkpt lat="47.28931" lon="-2.36362">
        <ele>35.799999237061</ele>
        <time>2022-01-13T08:51:42.000Z</time>
      </trkpt>
      <trkpt lat="47.2894" lon="-2.36368">
        <ele>35.200000762939</ele>
        <time>2022-01-13T08:51:43.000Z</time>
      </trkpt>
      <trkpt lat="47.2895" lon="-2.36375">
        <ele>34.599998474121</ele>
        <time>2022-01-13T08:51:44.000Z</time>
      </trkpt>
      <trkpt lat="47.28958" lon="-2.36382">
        <ele>34</ele>
        <time>2022-01-13T08:51:45.000Z</time>
      </trkpt>
      <trkpt lat="47.28966" lon="-2.36389">
        <ele>33.200000762939</ele>
        <time>2022-01-13T08:51:46.000Z</time>
      </trkpt>
      <trkpt lat="47.28981" lon="-2.36408">
        <ele>32.799999237061</ele>
        <time>2022-01-13T08:51:48.000Z</time>
      </trkpt>
      <trkpt lat="47.28987" lon="-2.3642">
        <ele>31.799999237061</ele>
        <time>2022-01-13T08:51:49.000Z</time>
      </trkpt>
      <trkpt lat="47.28992" lon="-2.36431">
        <ele>31.39999961853</ele>
        <time>2022-01-13T08:51:50.000Z</time>
      </trkpt>
      <trkpt lat="47.28998" lon="-2.36442">
        <ele>30.799999237061</ele>
        <time>2022-01-13T08:51:51.000Z</time>
      </trkpt>
      <trkpt lat="47.29016" lon="-2.36474">
        <ele>30.799999237061</ele>
        <time>2022-01-13T08:51:55.000Z</time>
      </trkpt>
      <trkpt lat="47.29019" lon="-2.3648">
        <ele>30.799999237061</ele>
        <time>2022-01-13T08:51:56.000Z</time>
      </trkpt>
      <trkpt lat="47.29022" lon="-2.36488">
        <ele>30.799999237061</ele>
        <time>2022-01-13T08:51:58.000Z</time>
      </trkpt>
      <trkpt lat="47.29025" lon="-2.365">
        <ele>30.799999237061</ele>
        <time>2022-01-13T08:52:01.000Z</time>
      </trkpt>
      <trkpt lat="47.29026" lon="-2.36515">
        <ele>30.799999237061</ele>
        <time>2022-01-13T08:52:04.000Z</time>
      </trkpt>
      <trkpt lat="47.29031" lon="-2.36546">
        <ele>31.39999961853</ele>
        <time>2022-01-13T08:52:10.000Z</time>
      </trkpt>
      <trkpt lat="47.29031" lon="-2.36551">
        <ele>31.799999237061</ele>
        <time>2022-01-13T08:52:11.000Z</time>
      </trkpt>
      <trkpt lat="47.29032" lon="-2.36555">
        <ele>32.200000762939</ele>
        <time>2022-01-13T08:52:12.000Z</time>
      </trkpt>
      <trkpt lat="47.29033" lon="-2.36559">
        <ele>32.599998474121</ele>
        <time>2022-01-13T08:52:13.000Z</time>
      </trkpt>
      <trkpt lat="47.29033" lon="-2.36564">
        <ele>33</ele>
        <time>2022-01-13T08:52:14.000Z</time>
      </trkpt>
      <trkpt lat="47.29036" lon="-2.36576">
        <ele>33.400001525879</ele>
        <time>2022-01-13T08:52:17.000Z</time>
      </trkpt>
      <trkpt lat="47.29037" lon="-2.36581">
        <ele>33.799999237061</ele>
        <time>2022-01-13T08:52:18.000Z</time>
      </trkpt>
      <trkpt lat="47.29038" lon="-2.36585">
        <ele>34.200000762939</ele>
        <time>2022-01-13T08:52:19.000Z</time>
      </trkpt>
      <trkpt lat="47.29039" lon="-2.36589">
        <ele>34.799999237061</ele>
        <time>2022-01-13T08:52:20.000Z</time>
      </trkpt>
      <trkpt lat="47.2904" lon="-2.36593">
        <ele>35.200000762939</ele>
        <time>2022-01-13T08:52:21.000Z</time>
      </trkpt>
      <trkpt lat="47.29045" lon="-2.3661">
        <ele>35.200000762939</ele>
        <time>2022-01-13T08:52:25.000Z</time>
      </trkpt>
      <trkpt lat="47.29048" lon="-2.3662">
        <ele>35.599998474121</ele>
        <time>2022-01-13T08:52:27.000Z</time>
      </trkpt>
      <trkpt lat="47.29049" lon="-2.36625">
        <ele>36</ele>
        <time>2022-01-13T08:52:28.000Z</time>
      </trkpt>
      <trkpt lat="47.2905" lon="-2.3663">
        <ele>36.400001525879</ele>
        <time>2022-01-13T08:52:29.000Z</time>
      </trkpt>
      <trkpt lat="47.29051" lon="-2.36636">
        <ele>36.799999237061</ele>
        <time>2022-01-13T08:52:30.000Z</time>
      </trkpt>
      <trkpt lat="47.29052" lon="-2.36641">
        <ele>37.200000762939</ele>
        <time>2022-01-13T08:52:31.000Z</time>
      </trkpt>
      <trkpt lat="47.29054" lon="-2.36646">
        <ele>37.200000762939</ele>
        <time>2022-01-13T08:52:32.000Z</time>
      </trkpt>
      <trkpt lat="47.29062" lon="-2.36677">
        <ele>38</ele>
        <time>2022-01-13T08:52:38.000Z</time>
      </trkpt>
      <trkpt lat="47.29063" lon="-2.36683">
        <ele>38.599998474121</ele>
        <time>2022-01-13T08:52:39.000Z</time>
      </trkpt>
      <trkpt lat="47.29064" lon="-2.36689">
        <ele>39</ele>
        <time>2022-01-13T08:52:40.000Z</time>
      </trkpt>
      <trkpt lat="47.29065" lon="-2.36694">
        <ele>39.400001525879</ele>
        <time>2022-01-13T08:52:41.000Z</time>
      </trkpt>
      <trkpt lat="47.29074" lon="-2.36734">
        <ele>39.400001525879</ele>
        <time>2022-01-13T08:52:48.000Z</time>
      </trkpt>
      <trkpt lat="47.2908" lon="-2.36765">
        <ele>39.400001525879</ele>
        <time>2022-01-13T08:52:54.000Z</time>
      </trkpt>
      <trkpt lat="47.29087" lon="-2.36795">
        <ele>39.799999237061</ele>
        <time>2022-01-13T08:52:59.000Z</time>
      </trkpt>
      <trkpt lat="47.29088" lon="-2.36801">
        <ele>40.200000762939</ele>
        <time>2022-01-13T08:53:00.000Z</time>
      </trkpt>
      <trkpt lat="47.2909" lon="-2.36807">
        <ele>40.599998474121</ele>
        <time>2022-01-13T08:53:01.000Z</time>
      </trkpt>
      <trkpt lat="47.29091" lon="-2.36813">
        <ele>41</ele>
        <time>2022-01-13T08:53:02.000Z</time>
      </trkpt>
      <trkpt lat="47.29093" lon="-2.36819">
        <ele>41.599998474121</ele>
        <time>2022-01-13T08:53:03.000Z</time>
      </trkpt>
      <trkpt lat="47.29096" lon="-2.36831">
        <ele>41.599998474121</ele>
        <time>2022-01-13T08:53:05.000Z</time>
      </trkpt>
      <trkpt lat="47.29102" lon="-2.36854">
        <ele>41.599998474121</ele>
        <time>2022-01-13T08:53:09.000Z</time>
      </trkpt>
      <trkpt lat="47.29115" lon="-2.3689">
        <ele>41.599998474121</ele>
        <time>2022-01-13T08:53:15.000Z</time>
      </trkpt>
      <trkpt lat="47.29123" lon="-2.36921">
        <ele>41.599998474121</ele>
        <time>2022-01-13T08:53:21.000Z</time>
      </trkpt>
      <trkpt lat="47.29134" lon="-2.36952">
        <ele>41.599998474121</ele>
        <time>2022-01-13T08:53:27.000Z</time>
      </trkpt>
      <trkpt lat="47.2914" lon="-2.36968">
        <ele>41.599998474121</ele>
        <time>2022-01-13T08:53:30.000Z</time>
      </trkpt>
      <trkpt lat="47.29149" lon="-2.36982">
        <ele>41.599998474121</ele>
        <time>2022-01-13T08:53:33.000Z</time>
      </trkpt>
      <trkpt lat="47.29157" lon="-2.36991">
        <ele>41.599998474121</ele>
        <time>2022-01-13T08:53:35.000Z</time>
      </trkpt>
      <trkpt lat="47.29179" lon="-2.37019">
        <ele>41.599998474121</ele>
        <time>2022-01-13T08:53:41.000Z</time>
      </trkpt>
      <trkpt lat="47.29203" lon="-2.37049">
        <ele>41.599998474121</ele>
        <time>2022-01-13T08:53:48.000Z</time>
      </trkpt>
      <trkpt lat="47.29225" lon="-2.37074">
        <ele>41.599998474121</ele>
        <time>2022-01-13T08:53:54.000Z</time>
      </trkpt>
      <trkpt lat="47.29248" lon="-2.37101">
        <ele>41.599998474121</ele>
        <time>2022-01-13T08:54:01.000Z</time>
      </trkpt>
      <trkpt lat="47.29272" lon="-2.37127">
        <ele>41.599998474121</ele>
        <time>2022-01-13T08:54:08.000Z</time>
      </trkpt>
      <trkpt lat="47.2929" lon="-2.37141">
        <ele>41.599998474121</ele>
        <time>2022-01-13T08:54:13.000Z</time>
      </trkpt>
      <trkpt lat="47.29293" lon="-2.37146">
        <ele>41.599998474121</ele>
        <time>2022-01-13T08:54:14.000Z</time>
      </trkpt>
      <trkpt lat="47.29317" lon="-2.37176">
        <ele>41.599998474121</ele>
        <time>2022-01-13T08:54:21.000Z</time>
      </trkpt>
      <trkpt lat="47.29348" lon="-2.37198">
        <ele>41.599998474121</ele>
        <time>2022-01-13T08:54:28.000Z</time>
      </trkpt>
      <trkpt lat="47.29382" lon="-2.37214">
        <ele>41.599998474121</ele>
        <time>2022-01-13T08:54:35.000Z</time>
      </trkpt>
      <trkpt lat="47.29411" lon="-2.37228">
        <ele>41.599998474121</ele>
        <time>2022-01-13T08:54:42.000Z</time>
      </trkpt>
      <trkpt lat="47.29414" lon="-2.37232">
        <ele>41.599998474121</ele>
        <time>2022-01-13T08:54:43.000Z</time>
      </trkpt>
      <trkpt lat="47.29437" lon="-2.37257">
        <ele>41.599998474121</ele>
        <time>2022-01-13T08:54:49.000Z</time>
      </trkpt>
      <trkpt lat="47.29458" lon="-2.37279">
        <ele>41.599998474121</ele>
        <time>2022-01-13T08:54:55.000Z</time>
      </trkpt>
      <trkpt lat="47.29478" lon="-2.37299">
        <ele>42</ele>
        <time>2022-01-13T08:55:01.000Z</time>
      </trkpt>
      <trkpt lat="47.29481" lon="-2.37303">
        <ele>42.400001525879</ele>
        <time>2022-01-13T08:55:02.000Z</time>
      </trkpt>
      <trkpt lat="47.29484" lon="-2.37306">
        <ele>42.799999237061</ele>
        <time>2022-01-13T08:55:03.000Z</time>
      </trkpt>
      <trkpt lat="47.29487" lon="-2.3731">
        <ele>43.200000762939</ele>
        <time>2022-01-13T08:55:04.000Z</time>
      </trkpt>
      <trkpt lat="47.2949" lon="-2.37313">
        <ele>43.599998474121</ele>
        <time>2022-01-13T08:55:05.000Z</time>
      </trkpt>
      <trkpt lat="47.29503" lon="-2.37328">
        <ele>43.599998474121</ele>
        <time>2022-01-13T08:55:09.000Z</time>
      </trkpt>
      <trkpt lat="47.29525" lon="-2.37355">
        <ele>43.599998474121</ele>
        <time>2022-01-13T08:55:16.000Z</time>
      </trkpt>
      <trkpt lat="47.29534" lon="-2.37365">
        <ele>44</ele>
        <time>2022-01-13T08:55:19.000Z</time>
      </trkpt>
      <trkpt lat="47.29537" lon="-2.37368">
        <ele>44.400001525879</ele>
        <time>2022-01-13T08:55:20.000Z</time>
      </trkpt>
      <trkpt lat="47.29541" lon="-2.37372">
        <ele>44.799999237061</ele>
        <time>2022-01-13T08:55:21.000Z</time>
      </trkpt>
      <trkpt lat="47.29544" lon="-2.37375">
        <ele>45.200000762939</ele>
        <time>2022-01-13T08:55:22.000Z</time>
      </trkpt>
      <trkpt lat="47.29547" lon="-2.37378">
        <ele>45.599998474121</ele>
        <time>2022-01-13T08:55:23.000Z</time>
      </trkpt>
      <trkpt lat="47.29564" lon="-2.37403">
        <ele>45.599998474121</ele>
        <time>2022-01-13T08:55:29.000Z</time>
      </trkpt>
      <trkpt lat="47.2957" lon="-2.37412">
        <ele>45.599998474121</ele>
        <time>2022-01-13T08:55:31.000Z</time>
      </trkpt>
      <trkpt lat="47.29582" lon="-2.37432">
        <ele>45.599998474121</ele>
        <time>2022-01-13T08:55:35.000Z</time>
      </trkpt>
      <trkpt lat="47.29603" lon="-2.37472">
        <ele>45.599998474121</ele>
        <time>2022-01-13T08:55:42.000Z</time>
      </trkpt>
      <trkpt lat="47.2962" lon="-2.37492">
        <ele>45.599998474121</ele>
        <time>2022-01-13T08:55:46.000Z</time>
      </trkpt>
      <trkpt lat="47.29625" lon="-2.37496">
        <ele>45.599998474121</ele>
        <time>2022-01-13T08:55:47.000Z</time>
      </trkpt>
      <trkpt lat="47.29659" lon="-2.3752">
        <ele>45.599998474121</ele>
        <time>2022-01-13T08:55:53.000Z</time>
      </trkpt>
      <trkpt lat="47.29665" lon="-2.37524">
        <ele>45.200000762939</ele>
        <time>2022-01-13T08:55:54.000Z</time>
      </trkpt>
      <trkpt lat="47.29671" lon="-2.37529">
        <ele>44.799999237061</ele>
        <time>2022-01-13T08:55:55.000Z</time>
      </trkpt>
      <trkpt lat="47.29677" lon="-2.37533">
        <ele>44.400001525879</ele>
        <time>2022-01-13T08:55:56.000Z</time>
      </trkpt>
      <trkpt lat="47.29682" lon="-2.37537">
        <ele>43.400001525879</ele>
        <time>2022-01-13T08:55:57.000Z</time>
      </trkpt>
      <trkpt lat="47.29698" lon="-2.3755">
        <ele>43.400001525879</ele>
        <time>2022-01-13T08:56:00.000Z</time>
      </trkpt>
      <trkpt lat="47.29711" lon="-2.37564">
        <ele>43.400001525879</ele>
        <time>2022-01-13T08:56:03.000Z</time>
      </trkpt>
      <trkpt lat="47.29722" lon="-2.37578">
        <ele>43.400001525879</ele>
        <time>2022-01-13T08:56:06.000Z</time>
      </trkpt>
      <trkpt lat="47.29732" lon="-2.37591">
        <ele>43.799999237061</ele>
        <time>2022-01-13T08:56:09.000Z</time>
      </trkpt>
      <trkpt lat="47.29735" lon="-2.37595">
        <ele>44.200000762939</ele>
        <time>2022-01-13T08:56:10.000Z</time>
      </trkpt>
      <trkpt lat="47.29738" lon="-2.37599">
        <ele>44.599998474121</ele>
        <time>2022-01-13T08:56:11.000Z</time>
      </trkpt>
      <trkpt lat="47.29741" lon="-2.37603">
        <ele>45</ele>
        <time>2022-01-13T08:56:12.000Z</time>
      </trkpt>
      <trkpt lat="47.29744" lon="-2.37607">
        <ele>45.400001525879</ele>
        <time>2022-01-13T08:56:13.000Z</time>
      </trkpt>
      <trkpt lat="47.29755" lon="-2.37623">
        <ele>45.400001525879</ele>
        <time>2022-01-13T08:56:17.000Z</time>
      </trkpt>
      <trkpt lat="47.29765" lon="-2.37634">
        <ele>45.400001525879</ele>
        <time>2022-01-13T08:56:20.000Z</time>
      </trkpt>
      <trkpt lat="47.29771" lon="-2.37642">
        <ele>46.400001525879</ele>
        <time>2022-01-13T08:56:22.000Z</time>
      </trkpt>
      <trkpt lat="47.29774" lon="-2.37647">
        <ele>46.799999237061</ele>
        <time>2022-01-13T08:56:23.000Z</time>
      </trkpt>
      <trkpt lat="47.29777" lon="-2.37651">
        <ele>47.200000762939</ele>
        <time>2022-01-13T08:56:24.000Z</time>
      </trkpt>
      <trkpt lat="47.2978" lon="-2.37656">
        <ele>47.599998474121</ele>
        <time>2022-01-13T08:56:25.000Z</time>
      </trkpt>
      <trkpt lat="47.29789" lon="-2.37669">
        <ele>47.599998474121</ele>
        <time>2022-01-13T08:56:28.000Z</time>
      </trkpt>
      <trkpt lat="47.29812" lon="-2.37703">
        <ele>47.599998474121</ele>
        <time>2022-01-13T08:56:35.000Z</time>
      </trkpt>
      <trkpt lat="47.2984" lon="-2.37751">
        <ele>47.599998474121</ele>
        <time>2022-01-13T08:56:44.000Z</time>
      </trkpt>
      <trkpt lat="47.2987" lon="-2.37797">
        <ele>47.599998474121</ele>
        <time>2022-01-13T08:56:52.000Z</time>
      </trkpt>
      <trkpt lat="47.29878" lon="-2.3781">
        <ele>47.200000762939</ele>
        <time>2022-01-13T08:56:54.000Z</time>
      </trkpt>
      <trkpt lat="47.29883" lon="-2.37817">
        <ele>46.799999237061</ele>
        <time>2022-01-13T08:56:55.000Z</time>
      </trkpt>
      <trkpt lat="47.29889" lon="-2.37824">
        <ele>46.400001525879</ele>
        <time>2022-01-13T08:56:56.000Z</time>
      </trkpt>
      <trkpt lat="47.29895" lon="-2.37833">
        <ele>46</ele>
        <time>2022-01-13T08:56:57.000Z</time>
      </trkpt>
      <trkpt lat="47.29901" lon="-2.37842">
        <ele>45.400001525879</ele>
        <time>2022-01-13T08:56:58.000Z</time>
      </trkpt>
      <trkpt lat="47.29908" lon="-2.37851">
        <ele>44.799999237061</ele>
        <time>2022-01-13T08:56:59.000Z</time>
      </trkpt>
      <trkpt lat="47.29916" lon="-2.37861">
        <ele>44.200000762939</ele>
        <time>2022-01-13T08:57:00.000Z</time>
      </trkpt>
      <trkpt lat="47.29923" lon="-2.37871">
        <ele>43.400001525879</ele>
        <time>2022-01-13T08:57:01.000Z</time>
      </trkpt>
      <trkpt lat="47.29931" lon="-2.37881">
        <ele>42.799999237061</ele>
        <time>2022-01-13T08:57:02.000Z</time>
      </trkpt>
      <trkpt lat="47.29938" lon="-2.37891">
        <ele>42</ele>
        <time>2022-01-13T08:57:03.000Z</time>
      </trkpt>
      <trkpt lat="47.29946" lon="-2.379">
        <ele>41.400001525879</ele>
        <time>2022-01-13T08:57:04.000Z</time>
      </trkpt>
      <trkpt lat="47.29954" lon="-2.37908">
        <ele>40.799999237061</ele>
        <time>2022-01-13T08:57:05.000Z</time>
      </trkpt>
      <trkpt lat="47.29961" lon="-2.37916">
        <ele>40.200000762939</ele>
        <time>2022-01-13T08:57:06.000Z</time>
      </trkpt>
      <trkpt lat="47.29968" lon="-2.37924">
        <ele>39.599998474121</ele>
        <time>2022-01-13T08:57:07.000Z</time>
      </trkpt>
      <trkpt lat="47.29974" lon="-2.37931">
        <ele>39</ele>
        <time>2022-01-13T08:57:08.000Z</time>
      </trkpt>
      <trkpt lat="47.2998" lon="-2.37938">
        <ele>38.400001525879</ele>
        <time>2022-01-13T08:57:09.000Z</time>
      </trkpt>
      <trkpt lat="47.2999" lon="-2.37946">
        <ele>38.400001525879</ele>
        <time>2022-01-13T08:57:11.000Z</time>
      </trkpt>
      <trkpt lat="47.30005" lon="-2.37957">
        <ele>38.400001525879</ele>
        <time>2022-01-13T08:57:15.000Z</time>
      </trkpt>
      <trkpt lat="47.3" lon="-2.37971">
        <ele>38.400001525879</ele>
        <time>2022-01-13T08:57:18.000Z</time>
      </trkpt>
      <trkpt lat="47.29992" lon="-2.38">
        <ele>38.400001525879</ele>
        <time>2022-01-13T08:57:22.000Z</time>
      </trkpt>
      <trkpt lat="47.29991" lon="-2.38026">
        <ele>38.400001525879</ele>
        <time>2022-01-13T08:57:25.000Z</time>
      </trkpt>
      <trkpt lat="47.29991" lon="-2.38052">
        <ele>38.400001525879</ele>
        <time>2022-01-13T08:57:28.000Z</time>
      </trkpt>
      <trkpt lat="47.2999" lon="-2.38104">
        <ele>38.400001525879</ele>
        <time>2022-01-13T08:57:35.000Z</time>
      </trkpt>
      <trkpt lat="47.29991" lon="-2.38166">
        <ele>38.400001525879</ele>
        <time>2022-01-13T08:57:44.000Z</time>
      </trkpt>
      <trkpt lat="47.29993" lon="-2.38201">
        <ele>38.799999237061</ele>
        <time>2022-01-13T08:57:49.000Z</time>
      </trkpt>
      <trkpt lat="47.29993" lon="-2.38208">
        <ele>39.200000762939</ele>
        <time>2022-01-13T08:57:50.000Z</time>
      </trkpt>
      <trkpt lat="47.29993" lon="-2.38216">
        <ele>39.599998474121</ele>
        <time>2022-01-13T08:57:51.000Z</time>
      </trkpt>
      <trkpt lat="47.29994" lon="-2.38223">
        <ele>40</ele>
        <time>2022-01-13T08:57:52.000Z</time>
      </trkpt>
      <trkpt lat="47.29995" lon="-2.38231">
        <ele>40.400001525879</ele>
        <time>2022-01-13T08:57:53.000Z</time>
      </trkpt>
      <trkpt lat="47.29996" lon="-2.38266">
        <ele>40.400001525879</ele>
        <time>2022-01-13T08:57:58.000Z</time>
      </trkpt>
      <trkpt lat="47.29997" lon="-2.38289">
        <ele>40.799999237061</ele>
        <time>2022-01-13T08:58:01.000Z</time>
      </trkpt>
      <trkpt lat="47.29997" lon="-2.38297">
        <ele>41.200000762939</ele>
        <time>2022-01-13T08:58:02.000Z</time>
      </trkpt>
      <trkpt lat="47.29997" lon="-2.38304">
        <ele>41.599998474121</ele>
        <time>2022-01-13T08:58:03.000Z</time>
      </trkpt>
      <trkpt lat="47.29997" lon="-2.38312">
        <ele>42</ele>
        <time>2022-01-13T08:58:04.000Z</time>
      </trkpt>
      <trkpt lat="47.29997" lon="-2.38319">
        <ele>42.400001525879</ele>
        <time>2022-01-13T08:58:05.000Z</time>
      </trkpt>
      <trkpt lat="47.29998" lon="-2.38334">
        <ele>42.400001525879</ele>
        <time>2022-01-13T08:58:07.000Z</time>
      </trkpt>
      <trkpt lat="47.29999" lon="-2.38388">
        <ele>42.400001525879</ele>
        <time>2022-01-13T08:58:14.000Z</time>
      </trkpt>
      <trkpt lat="47.30004" lon="-2.38437">
        <ele>42.400001525879</ele>
        <time>2022-01-13T08:58:21.000Z</time>
      </trkpt>
      <trkpt lat="47.3001" lon="-2.38478">
        <ele>42.400001525879</ele>
        <time>2022-01-13T08:58:27.000Z</time>
      </trkpt>
      <trkpt lat="47.30011" lon="-2.38484">
        <ele>42.400001525879</ele>
        <time>2022-01-13T08:58:28.000Z</time>
      </trkpt>
      <trkpt lat="47.3002" lon="-2.38539">
        <ele>42.400001525879</ele>
        <time>2022-01-13T08:58:35.000Z</time>
      </trkpt>
      <trkpt lat="47.30023" lon="-2.38578">
        <ele>42</ele>
        <time>2022-01-13T08:58:39.000Z</time>
      </trkpt>
      <trkpt lat="47.30024" lon="-2.38586">
        <ele>41.599998474121</ele>
        <time>2022-01-13T08:58:40.000Z</time>
      </trkpt>
      <trkpt lat="47.30024" lon="-2.38593">
        <ele>41</ele>
        <time>2022-01-13T08:58:41.000Z</time>
      </trkpt>
      <trkpt lat="47.30025" lon="-2.386">
        <ele>40.599998474121</ele>
        <time>2022-01-13T08:58:42.000Z</time>
      </trkpt>
      <trkpt lat="47.30025" lon="-2.38605">
        <ele>40.200000762939</ele>
        <time>2022-01-13T08:58:43.000Z</time>
      </trkpt>
      <trkpt lat="47.30025" lon="-2.3861">
        <ele>39.799999237061</ele>
        <time>2022-01-13T08:58:44.000Z</time>
      </trkpt>
      <trkpt lat="47.30025" lon="-2.38615">
        <ele>39.200000762939</ele>
        <time>2022-01-13T08:58:45.000Z</time>
      </trkpt>
      <trkpt lat="47.30024" lon="-2.38621">
        <ele>38.799999237061</ele>
        <time>2022-01-13T08:58:46.000Z</time>
      </trkpt>
      <trkpt lat="47.30024" lon="-2.38628">
        <ele>38.400001525879</ele>
        <time>2022-01-13T08:58:47.000Z</time>
      </trkpt>
      <trkpt lat="47.30025" lon="-2.38635">
        <ele>37.799999237061</ele>
        <time>2022-01-13T08:58:48.000Z</time>
      </trkpt>
      <trkpt lat="47.30026" lon="-2.38643">
        <ele>37.799999237061</ele>
        <time>2022-01-13T08:58:49.000Z</time>
      </trkpt>
      <trkpt lat="47.30028" lon="-2.38677">
        <ele>37.400001525879</ele>
        <time>2022-01-13T08:58:53.000Z</time>
      </trkpt>
      <trkpt lat="47.30028" lon="-2.38687">
        <ele>37</ele>
        <time>2022-01-13T08:58:54.000Z</time>
      </trkpt>
      <trkpt lat="47.30027" lon="-2.38696">
        <ele>36.599998474121</ele>
        <time>2022-01-13T08:58:55.000Z</time>
      </trkpt>
      <trkpt lat="47.30026" lon="-2.38705">
        <ele>36.200000762939</ele>
        <time>2022-01-13T08:58:56.000Z</time>
      </trkpt>
      <trkpt lat="47.30025" lon="-2.38714">
        <ele>35.799999237061</ele>
        <time>2022-01-13T08:58:57.000Z</time>
      </trkpt>
      <trkpt lat="47.30019" lon="-2.38756">
        <ele>35.400001525879</ele>
        <time>2022-01-13T08:59:01.000Z</time>
      </trkpt>
      <trkpt lat="47.30017" lon="-2.38767">
        <ele>35</ele>
        <time>2022-01-13T08:59:02.000Z</time>
      </trkpt>
      <trkpt lat="47.30016" lon="-2.38778">
        <ele>34.599998474121</ele>
        <time>2022-01-13T08:59:03.000Z</time>
      </trkpt>
      <trkpt lat="47.30014" lon="-2.38789">
        <ele>34</ele>
        <time>2022-01-13T08:59:04.000Z</time>
      </trkpt>
      <trkpt lat="47.30013" lon="-2.38801">
        <ele>33.599998474121</ele>
        <time>2022-01-13T08:59:05.000Z</time>
      </trkpt>
      <trkpt lat="47.30012" lon="-2.38812">
        <ele>33.200000762939</ele>
        <time>2022-01-13T08:59:06.000Z</time>
      </trkpt>
      <trkpt lat="47.30011" lon="-2.38824">
        <ele>32.599998474121</ele>
        <time>2022-01-13T08:59:07.000Z</time>
      </trkpt>
      <trkpt lat="47.3001" lon="-2.38836">
        <ele>32.200000762939</ele>
        <time>2022-01-13T08:59:08.000Z</time>
      </trkpt>
      <trkpt lat="47.3001" lon="-2.38847">
        <ele>31.60000038147</ele>
        <time>2022-01-13T08:59:09.000Z</time>
      </trkpt>
      <trkpt lat="47.30009" lon="-2.38858">
        <ele>31.200000762939</ele>
        <time>2022-01-13T08:59:10.000Z</time>
      </trkpt>
      <trkpt lat="47.30009" lon="-2.38868">
        <ele>30.799999237061</ele>
        <time>2022-01-13T08:59:11.000Z</time>
      </trkpt>
      <trkpt lat="47.30008" lon="-2.38878">
        <ele>30.200000762939</ele>
        <time>2022-01-13T08:59:12.000Z</time>
      </trkpt>
      <trkpt lat="47.30008" lon="-2.38888">
        <ele>29.799999237061</ele>
        <time>2022-01-13T08:59:13.000Z</time>
      </trkpt>
      <trkpt lat="47.30008" lon="-2.38898">
        <ele>29.39999961853</ele>
        <time>2022-01-13T08:59:14.000Z</time>
      </trkpt>
      <trkpt lat="47.30009" lon="-2.38908">
        <ele>28.799999237061</ele>
        <time>2022-01-13T08:59:15.000Z</time>
      </trkpt>
      <trkpt lat="47.30009" lon="-2.38928">
        <ele>28.39999961853</ele>
        <time>2022-01-13T08:59:17.000Z</time>
      </trkpt>
      <trkpt lat="47.30009" lon="-2.38938">
        <ele>28</ele>
        <time>2022-01-13T08:59:18.000Z</time>
      </trkpt>
      <trkpt lat="47.30008" lon="-2.38949">
        <ele>27.60000038147</ele>
        <time>2022-01-13T08:59:19.000Z</time>
      </trkpt>
      <trkpt lat="47.30009" lon="-2.38958">
        <ele>27.200000762939</ele>
        <time>2022-01-13T08:59:20.000Z</time>
      </trkpt>
      <trkpt lat="47.3001" lon="-2.38966">
        <ele>26.60000038147</ele>
        <time>2022-01-13T08:59:21.000Z</time>
      </trkpt>
      <trkpt lat="47.30013" lon="-2.38972">
        <ele>26</ele>
        <time>2022-01-13T08:59:22.000Z</time>
      </trkpt>
      <trkpt lat="47.30017" lon="-2.38974">
        <ele>25.60000038147</ele>
        <time>2022-01-13T08:59:23.000Z</time>
      </trkpt>
      <trkpt lat="47.30023" lon="-2.38974">
        <ele>25</ele>
        <time>2022-01-13T08:59:24.000Z</time>
      </trkpt>
      <trkpt lat="47.30028" lon="-2.38973">
        <ele>24.39999961853</ele>
        <time>2022-01-13T08:59:25.000Z</time>
      </trkpt>
      <trkpt lat="47.30042" lon="-2.38961">
        <ele>24.39999961853</ele>
        <time>2022-01-13T08:59:28.000Z</time>
      </trkpt>
      <trkpt lat="47.30047" lon="-2.38956">
        <ele>24.39999961853</ele>
        <time>2022-01-13T08:59:29.000Z</time>
      </trkpt>
      <trkpt lat="47.30056" lon="-2.38947">
        <ele>24.39999961853</ele>
        <time>2022-01-13T08:59:31.000Z</time>
      </trkpt>
      <trkpt lat="47.3007" lon="-2.38937">
        <ele>24.39999961853</ele>
        <time>2022-01-13T08:59:34.000Z</time>
      </trkpt>
      <trkpt lat="47.30096" lon="-2.38917">
        <ele>25</ele>
        <time>2022-01-13T08:59:41.000Z</time>
      </trkpt>
      <trkpt lat="47.301" lon="-2.38914">
        <ele>25.39999961853</ele>
        <time>2022-01-13T08:59:42.000Z</time>
      </trkpt>
      <trkpt lat="47.30103" lon="-2.38912">
        <ele>25.799999237061</ele>
        <time>2022-01-13T08:59:43.000Z</time>
      </trkpt>
      <trkpt lat="47.30106" lon="-2.38909">
        <ele>26.200000762939</ele>
        <time>2022-01-13T08:59:44.000Z</time>
      </trkpt>
      <trkpt lat="47.30109" lon="-2.38905">
        <ele>26.60000038147</ele>
        <time>2022-01-13T08:59:45.000Z</time>
      </trkpt>
      <trkpt lat="47.30117" lon="-2.38893">
        <ele>26.60000038147</ele>
        <time>2022-01-13T08:59:48.000Z</time>
      </trkpt>
      <trkpt lat="47.30122" lon="-2.38884">
        <ele>27.200000762939</ele>
        <time>2022-01-13T08:59:50.000Z</time>
      </trkpt>
      <trkpt lat="47.30125" lon="-2.3888">
        <ele>27.60000038147</ele>
        <time>2022-01-13T08:59:51.000Z</time>
      </trkpt>
      <trkpt lat="47.30127" lon="-2.38875">
        <ele>28</ele>
        <time>2022-01-13T08:59:52.000Z</time>
      </trkpt>
      <trkpt lat="47.3013" lon="-2.38871">
        <ele>28.39999961853</ele>
        <time>2022-01-13T08:59:53.000Z</time>
      </trkpt>
      <trkpt lat="47.30132" lon="-2.38867">
        <ele>28.799999237061</ele>
        <time>2022-01-13T08:59:54.000Z</time>
      </trkpt>
      <trkpt lat="47.30135" lon="-2.38862">
        <ele>28.799999237061</ele>
        <time>2022-01-13T08:59:55.000Z</time>
      </trkpt>
      <trkpt lat="47.30151" lon="-2.38836">
        <ele>29.200000762939</ele>
        <time>2022-01-13T09:00:01.000Z</time>
      </trkpt>
      <trkpt lat="47.30153" lon="-2.38832">
        <ele>29.60000038147</ele>
        <time>2022-01-13T09:00:02.000Z</time>
      </trkpt>
      <trkpt lat="47.30155" lon="-2.38828">
        <ele>30.200000762939</ele>
        <time>2022-01-13T09:00:03.000Z</time>
      </trkpt>
      <trkpt lat="47.30157" lon="-2.38824">
        <ele>30.60000038147</ele>
        <time>2022-01-13T09:00:04.000Z</time>
      </trkpt>
      <trkpt lat="47.3016" lon="-2.38821">
        <ele>31</ele>
        <time>2022-01-13T09:00:05.000Z</time>
      </trkpt>
      <trkpt lat="47.30166" lon="-2.3881">
        <ele>31</ele>
        <time>2022-01-13T09:00:08.000Z</time>
      </trkpt>
      <trkpt lat="47.30172" lon="-2.38803">
        <ele>31.39999961853</ele>
        <time>2022-01-13T09:00:10.000Z</time>
      </trkpt>
      <trkpt lat="47.30175" lon="-2.388">
        <ele>31.799999237061</ele>
        <time>2022-01-13T09:00:11.000Z</time>
      </trkpt>
      <trkpt lat="47.30178" lon="-2.38797">
        <ele>32.200000762939</ele>
        <time>2022-01-13T09:00:12.000Z</time>
      </trkpt>
      <trkpt lat="47.30181" lon="-2.38794">
        <ele>32.599998474121</ele>
        <time>2022-01-13T09:00:13.000Z</time>
      </trkpt>
      <trkpt lat="47.30184" lon="-2.38791">
        <ele>33</ele>
        <time>2022-01-13T09:00:14.000Z</time>
      </trkpt>
      <trkpt lat="47.30197" lon="-2.38776">
        <ele>33.400001525879</ele>
        <time>2022-01-13T09:00:19.000Z</time>
      </trkpt>
      <trkpt lat="47.302" lon="-2.38773">
        <ele>33.799999237061</ele>
        <time>2022-01-13T09:00:20.000Z</time>
      </trkpt>
      <trkpt lat="47.30202" lon="-2.38772">
        <ele>34.200000762939</ele>
        <time>2022-01-13T09:00:21.000Z</time>
      </trkpt>
      <trkpt lat="47.30206" lon="-2.38771">
        <ele>34.799999237061</ele>
        <time>2022-01-13T09:00:22.000Z</time>
      </trkpt>
      <trkpt lat="47.30209" lon="-2.3877">
        <ele>35.200000762939</ele>
        <time>2022-01-13T09:00:23.000Z</time>
      </trkpt>
      <trkpt lat="47.30215" lon="-2.3877">
        <ele>35.200000762939</ele>
        <time>2022-01-13T09:00:25.000Z</time>
      </trkpt>
      <trkpt lat="47.30218" lon="-2.38771">
        <ele>35.599998474121</ele>
        <time>2022-01-13T09:00:26.000Z</time>
      </trkpt>
      <trkpt lat="47.30221" lon="-2.38773">
        <ele>36</ele>
        <time>2022-01-13T09:00:27.000Z</time>
      </trkpt>
      <trkpt lat="47.30223" lon="-2.38774">
        <ele>36.400001525879</ele>
        <time>2022-01-13T09:00:28.000Z</time>
      </trkpt>
      <trkpt lat="47.30225" lon="-2.38776">
        <ele>37.400001525879</ele>
        <time>2022-01-13T09:00:29.000Z</time>
      </trkpt>
      <trkpt lat="47.30228" lon="-2.38778">
        <ele>37.400001525879</ele>
        <time>2022-01-13T09:00:30.000Z</time>
      </trkpt>
      <trkpt lat="47.3023" lon="-2.3878">
        <ele>37.799999237061</ele>
        <time>2022-01-13T09:00:31.000Z</time>
      </trkpt>
      <trkpt lat="47.30232" lon="-2.38782">
        <ele>38.200000762939</ele>
        <time>2022-01-13T09:00:32.000Z</time>
      </trkpt>
      <trkpt lat="47.30234" lon="-2.38784">
        <ele>38.799999237061</ele>
        <time>2022-01-13T09:00:33.000Z</time>
      </trkpt>
      <trkpt lat="47.30237" lon="-2.38787">
        <ele>39.200000762939</ele>
        <time>2022-01-13T09:00:34.000Z</time>
      </trkpt>
      <trkpt lat="47.30239" lon="-2.3879">
        <ele>39.599998474121</ele>
        <time>2022-01-13T09:00:35.000Z</time>
      </trkpt>
      <trkpt lat="47.30243" lon="-2.38795">
        <ele>39.599998474121</ele>
        <time>2022-01-13T09:00:37.000Z</time>
      </trkpt>
      <trkpt lat="47.30247" lon="-2.38801">
        <ele>40</ele>
        <time>2022-01-13T09:00:39.000Z</time>
      </trkpt>
      <trkpt lat="47.30249" lon="-2.38803">
        <ele>40.599998474121</ele>
        <time>2022-01-13T09:00:40.000Z</time>
      </trkpt>
      <trkpt lat="47.3025" lon="-2.38806">
        <ele>41</ele>
        <time>2022-01-13T09:00:41.000Z</time>
      </trkpt>
      <trkpt lat="47.30252" lon="-2.38809">
        <ele>41.400001525879</ele>
        <time>2022-01-13T09:00:42.000Z</time>
      </trkpt>
      <trkpt lat="47.30254" lon="-2.38812">
        <ele>41.799999237061</ele>
        <time>2022-01-13T09:00:43.000Z</time>
      </trkpt>
      <trkpt lat="47.30256" lon="-2.38815">
        <ele>41.799999237061</ele>
        <time>2022-01-13T09:00:44.000Z</time>
      </trkpt>
      <trkpt lat="47.30263" lon="-2.38831">
        <ele>42.200000762939</ele>
        <time>2022-01-13T09:00:49.000Z</time>
      </trkpt>
      <trkpt lat="47.30264" lon="-2.38835">
        <ele>42.599998474121</ele>
        <time>2022-01-13T09:00:50.000Z</time>
      </trkpt>
      <trkpt lat="47.30265" lon="-2.38838">
        <ele>43.200000762939</ele>
        <time>2022-01-13T09:00:51.000Z</time>
      </trkpt>
      <trkpt lat="47.30267" lon="-2.38842">
        <ele>43.599998474121</ele>
        <time>2022-01-13T09:00:52.000Z</time>
      </trkpt>
      <trkpt lat="47.30269" lon="-2.38846">
        <ele>44</ele>
        <time>2022-01-13T09:00:53.000Z</time>
      </trkpt>
      <trkpt lat="47.30279" lon="-2.38873">
        <ele>44</ele>
        <time>2022-01-13T09:00:59.000Z</time>
      </trkpt>
      <trkpt lat="47.30294" lon="-2.38909">
        <ele>44.400001525879</ele>
        <time>2022-01-13T09:01:07.000Z</time>
      </trkpt>
      <trkpt lat="47.30296" lon="-2.38914">
        <ele>44.799999237061</ele>
        <time>2022-01-13T09:01:08.000Z</time>
      </trkpt>
      <trkpt lat="47.30298" lon="-2.38919">
        <ele>45.200000762939</ele>
        <time>2022-01-13T09:01:09.000Z</time>
      </trkpt>
      <trkpt lat="47.303" lon="-2.38923">
        <ele>45.599998474121</ele>
        <time>2022-01-13T09:01:10.000Z</time>
      </trkpt>
      <trkpt lat="47.30302" lon="-2.38928">
        <ele>46</ele>
        <time>2022-01-13T09:01:11.000Z</time>
      </trkpt>
      <trkpt lat="47.30311" lon="-2.38946">
        <ele>46</ele>
        <time>2022-01-13T09:01:15.000Z</time>
      </trkpt>
      <trkpt lat="47.30325" lon="-2.38969">
        <ele>46</ele>
        <time>2022-01-13T09:01:21.000Z</time>
      </trkpt>
      <trkpt lat="47.30338" lon="-2.38991">
        <ele>46.400001525879</ele>
        <time>2022-01-13T09:01:26.000Z</time>
      </trkpt>
      <trkpt lat="47.30339" lon="-2.38996">
        <ele>46.799999237061</ele>
        <time>2022-01-13T09:01:27.000Z</time>
      </trkpt>
      <trkpt lat="47.30341" lon="-2.39001">
        <ele>47.200000762939</ele>
        <time>2022-01-13T09:01:28.000Z</time>
      </trkpt>
      <trkpt lat="47.30343" lon="-2.39006">
        <ele>47.599998474121</ele>
        <time>2022-01-13T09:01:29.000Z</time>
      </trkpt>
      <trkpt lat="47.30345" lon="-2.3901">
        <ele>48</ele>
        <time>2022-01-13T09:01:30.000Z</time>
      </trkpt>
      <trkpt lat="47.30353" lon="-2.39039">
        <ele>48</ele>
        <time>2022-01-13T09:01:36.000Z</time>
      </trkpt>
      <trkpt lat="47.30359" lon="-2.39068">
        <ele>48.400001525879</ele>
        <time>2022-01-13T09:01:41.000Z</time>
      </trkpt>
      <trkpt lat="47.3036" lon="-2.39074">
        <ele>48.799999237061</ele>
        <time>2022-01-13T09:01:42.000Z</time>
      </trkpt>
      <trkpt lat="47.30361" lon="-2.39081">
        <ele>49.599998474121</ele>
        <time>2022-01-13T09:01:43.000Z</time>
      </trkpt>
      <trkpt lat="47.30363" lon="-2.39088">
        <ele>50</ele>
        <time>2022-01-13T09:01:44.000Z</time>
      </trkpt>
      <trkpt lat="47.30374" lon="-2.39128">
        <ele>50</ele>
        <time>2022-01-13T09:01:49.000Z</time>
      </trkpt>
      <trkpt lat="47.30384" lon="-2.39151">
        <ele>50</ele>
        <time>2022-01-13T09:01:52.000Z</time>
      </trkpt>
      <trkpt lat="47.30389" lon="-2.39157">
        <ele>49.599998474121</ele>
        <time>2022-01-13T09:01:53.000Z</time>
      </trkpt>
      <trkpt lat="47.30394" lon="-2.39162">
        <ele>49.200000762939</ele>
        <time>2022-01-13T09:01:54.000Z</time>
      </trkpt>
      <trkpt lat="47.30399" lon="-2.39166">
        <ele>48.799999237061</ele>
        <time>2022-01-13T09:01:55.000Z</time>
      </trkpt>
      <trkpt lat="47.30405" lon="-2.39168">
        <ele>48.400001525879</ele>
        <time>2022-01-13T09:01:56.000Z</time>
      </trkpt>
      <trkpt lat="47.30411" lon="-2.39169">
        <ele>48</ele>
        <time>2022-01-13T09:01:57.000Z</time>
      </trkpt>
      <trkpt lat="47.30433" lon="-2.39164">
        <ele>48</ele>
        <time>2022-01-13T09:02:01.000Z</time>
      </trkpt>
      <trkpt lat="47.30442" lon="-2.39157">
        <ele>48</ele>
        <time>2022-01-13T09:02:03.000Z</time>
      </trkpt>
      <trkpt lat="47.30446" lon="-2.39153">
        <ele>48</ele>
        <time>2022-01-13T09:02:04.000Z</time>
      </trkpt>
      <trkpt lat="47.30454" lon="-2.39144">
        <ele>48</ele>
        <time>2022-01-13T09:02:06.000Z</time>
      </trkpt>
      <trkpt lat="47.30465" lon="-2.39131">
        <ele>48.400001525879</ele>
        <time>2022-01-13T09:02:09.000Z</time>
      </trkpt>
      <trkpt lat="47.30469" lon="-2.39128">
        <ele>48.799999237061</ele>
        <time>2022-01-13T09:02:10.000Z</time>
      </trkpt>
      <trkpt lat="47.30472" lon="-2.39124">
        <ele>49.200000762939</ele>
        <time>2022-01-13T09:02:11.000Z</time>
      </trkpt>
      <trkpt lat="47.30476" lon="-2.3912">
        <ele>49.599998474121</ele>
        <time>2022-01-13T09:02:12.000Z</time>
      </trkpt>
      <trkpt lat="47.3048" lon="-2.39116">
        <ele>50</ele>
        <time>2022-01-13T09:02:13.000Z</time>
      </trkpt>
      <trkpt lat="47.30505" lon="-2.3909">
        <ele>50</ele>
        <time>2022-01-13T09:02:20.000Z</time>
      </trkpt>
      <trkpt lat="47.30525" lon="-2.39074">
        <ele>50.400001525879</ele>
        <time>2022-01-13T09:02:25.000Z</time>
      </trkpt>
      <trkpt lat="47.30529" lon="-2.3907">
        <ele>50.799999237061</ele>
        <time>2022-01-13T09:02:26.000Z</time>
      </trkpt>
      <trkpt lat="47.30532" lon="-2.39067">
        <ele>51.400001525879</ele>
        <time>2022-01-13T09:02:27.000Z</time>
      </trkpt>
      <trkpt lat="47.30536" lon="-2.39064">
        <ele>51.799999237061</ele>
        <time>2022-01-13T09:02:28.000Z</time>
      </trkpt>
      <trkpt lat="47.3054" lon="-2.3906">
        <ele>52.200000762939</ele>
        <time>2022-01-13T09:02:29.000Z</time>
      </trkpt>
      <trkpt lat="47.30554" lon="-2.39045">
        <ele>52.200000762939</ele>
        <time>2022-01-13T09:02:33.000Z</time>
      </trkpt>
      <trkpt lat="47.30578" lon="-2.39018">
        <ele>52.200000762939</ele>
        <time>2022-01-13T09:02:40.000Z</time>
      </trkpt>
      <trkpt lat="47.30584" lon="-2.39008">
        <ele>52.599998474121</ele>
        <time>2022-01-13T09:02:42.000Z</time>
      </trkpt>
      <trkpt lat="47.30587" lon="-2.39003">
        <ele>53</ele>
        <time>2022-01-13T09:02:43.000Z</time>
      </trkpt>
      <trkpt lat="47.3059" lon="-2.38999">
        <ele>53.400001525879</ele>
        <time>2022-01-13T09:02:44.000Z</time>
      </trkpt>
      <trkpt lat="47.30593" lon="-2.38994">
        <ele>53.799999237061</ele>
        <time>2022-01-13T09:02:45.000Z</time>
      </trkpt>
      <trkpt lat="47.30597" lon="-2.3899">
        <ele>54.200000762939</ele>
        <time>2022-01-13T09:02:46.000Z</time>
      </trkpt>
      <trkpt lat="47.30601" lon="-2.38986">
        <ele>54.200000762939</ele>
        <time>2022-01-13T09:02:47.000Z</time>
      </trkpt>
      <trkpt lat="47.30622" lon="-2.38963">
        <ele>54.200000762939</ele>
        <time>2022-01-13T09:02:53.000Z</time>
      </trkpt>
      <trkpt lat="47.30637" lon="-2.38948">
        <ele>55</ele>
        <time>2022-01-13T09:02:57.000Z</time>
      </trkpt>
      <trkpt lat="47.30641" lon="-2.38945">
        <ele>55.400001525879</ele>
        <time>2022-01-13T09:02:58.000Z</time>
      </trkpt>
      <trkpt lat="47.30644" lon="-2.38942">
        <ele>55.799999237061</ele>
        <time>2022-01-13T09:02:59.000Z</time>
      </trkpt>
      <trkpt lat="47.30647" lon="-2.38939">
        <ele>56.400001525879</ele>
        <time>2022-01-13T09:03:00.000Z</time>
      </trkpt>
      <trkpt lat="47.30677" lon="-2.38913">
        <ele>56.400001525879</ele>
        <time>2022-01-13T09:03:09.000Z</time>
      </trkpt>
      <trkpt lat="47.30691" lon="-2.38909">
        <ele>56.400001525879</ele>
        <time>2022-01-13T09:03:14.000Z</time>
      </trkpt>
      <trkpt lat="47.307" lon="-2.38919">
        <ele>56.400001525879</ele>
        <time>2022-01-13T09:03:19.000Z</time>
      </trkpt>
      <trkpt lat="47.30701" lon="-2.38927">
        <ele>56.400001525879</ele>
        <time>2022-01-13T09:03:21.000Z</time>
      </trkpt>
      <trkpt lat="47.307" lon="-2.38936">
        <ele>56.400001525879</ele>
        <time>2022-01-13T09:03:23.000Z</time>
      </trkpt>
      <trkpt lat="47.30705" lon="-2.38959">
        <ele>56.400001525879</ele>
        <time>2022-01-13T09:03:27.000Z</time>
      </trkpt>
      <trkpt lat="47.30718" lon="-2.38962">
        <ele>56.400001525879</ele>
        <time>2022-01-13T09:03:30.000Z</time>
      </trkpt>
      <trkpt lat="47.30736" lon="-2.38954">
        <ele>56.400001525879</ele>
        <time>2022-01-13T09:03:34.000Z</time>
      </trkpt>
      <trkpt lat="47.30751" lon="-2.38955">
        <ele>56.400001525879</ele>
        <time>2022-01-13T09:03:37.000Z</time>
      </trkpt>
      <trkpt lat="47.30756" lon="-2.38954">
        <ele>56.400001525879</ele>
        <time>2022-01-13T09:03:38.000Z</time>
      </trkpt>
      <trkpt lat="47.30762" lon="-2.38951">
        <ele>56.400001525879</ele>
        <time>2022-01-13T09:03:39.000Z</time>
      </trkpt>
      <trkpt lat="47.30779" lon="-2.3894">
        <ele>55.799999237061</ele>
        <time>2022-01-13T09:03:42.000Z</time>
      </trkpt>
      <trkpt lat="47.30785" lon="-2.38935">
        <ele>55.400001525879</ele>
        <time>2022-01-13T09:03:43.000Z</time>
      </trkpt>
      <trkpt lat="47.30791" lon="-2.3893">
        <ele>55</ele>
        <time>2022-01-13T09:03:44.000Z</time>
      </trkpt>
      <trkpt lat="47.30797" lon="-2.38926">
        <ele>54.200000762939</ele>
        <time>2022-01-13T09:03:45.000Z</time>
      </trkpt>
      <trkpt lat="47.30803" lon="-2.3892">
        <ele>54.200000762939</ele>
        <time>2022-01-13T09:03:46.000Z</time>
      </trkpt>
      <trkpt lat="47.30826" lon="-2.38899">
        <ele>54.200000762939</ele>
        <time>2022-01-13T09:03:50.000Z</time>
      </trkpt>
      <trkpt lat="47.30849" lon="-2.38883">
        <ele>54.200000762939</ele>
        <time>2022-01-13T09:03:55.000Z</time>
      </trkpt>
      <trkpt lat="47.30866" lon="-2.38866">
        <ele>54.200000762939</ele>
        <time>2022-01-13T09:04:00.000Z</time>
      </trkpt>
      <trkpt lat="47.30868" lon="-2.3886">
        <ele>54.200000762939</ele>
        <time>2022-01-13T09:04:01.000Z</time>
      </trkpt>
      <trkpt lat="47.3087" lon="-2.38854">
        <ele>54.599998474121</ele>
        <time>2022-01-13T09:04:02.000Z</time>
      </trkpt>
      <trkpt lat="47.30872" lon="-2.38848">
        <ele>55</ele>
        <time>2022-01-13T09:04:03.000Z</time>
      </trkpt>
      <trkpt lat="47.30875" lon="-2.38842">
        <ele>55.400001525879</ele>
        <time>2022-01-13T09:04:04.000Z</time>
      </trkpt>
      <trkpt lat="47.30878" lon="-2.38838">
        <ele>55.799999237061</ele>
        <time>2022-01-13T09:04:05.000Z</time>
      </trkpt>
      <trkpt lat="47.30882" lon="-2.38836">
        <ele>56.200000762939</ele>
        <time>2022-01-13T09:04:06.000Z</time>
      </trkpt>
      <trkpt lat="47.30896" lon="-2.38838">
        <ele>56.200000762939</ele>
        <time>2022-01-13T09:04:09.000Z</time>
      </trkpt>
      <trkpt lat="47.30906" lon="-2.38854">
        <ele>56.200000762939</ele>
        <time>2022-01-13T09:04:12.000Z</time>
      </trkpt>
      <trkpt lat="47.3091" lon="-2.38875">
        <ele>56.200000762939</ele>
        <time>2022-01-13T09:04:15.000Z</time>
      </trkpt>
      <trkpt lat="47.30914" lon="-2.38881">
        <ele>56.200000762939</ele>
        <time>2022-01-13T09:04:16.000Z</time>
      </trkpt>
      <trkpt lat="47.3093" lon="-2.38903">
        <ele>56.200000762939</ele>
        <time>2022-01-13T09:04:20.000Z</time>
      </trkpt>
      <trkpt lat="47.30933" lon="-2.38909">
        <ele>56.200000762939</ele>
        <time>2022-01-13T09:04:21.000Z</time>
      </trkpt>
      <trkpt lat="47.30934" lon="-2.38915">
        <ele>56.200000762939</ele>
        <time>2022-01-13T09:04:22.000Z</time>
      </trkpt>
      <trkpt lat="47.30934" lon="-2.38929">
        <ele>56.200000762939</ele>
        <time>2022-01-13T09:04:24.000Z</time>
      </trkpt>
      <trkpt lat="47.30922" lon="-2.38956">
        <ele>56.200000762939</ele>
        <time>2022-01-13T09:04:28.000Z</time>
      </trkpt>
      <trkpt lat="47.30918" lon="-2.38963">
        <ele>56.200000762939</ele>
        <time>2022-01-13T09:04:29.000Z</time>
      </trkpt>
      <trkpt lat="47.30909" lon="-2.38985">
        <ele>56.200000762939</ele>
        <time>2022-01-13T09:04:32.000Z</time>
      </trkpt>
      <trkpt lat="47.30908" lon="-2.38994">
        <ele>56.200000762939</ele>
        <time>2022-01-13T09:04:33.000Z</time>
      </trkpt>
      <trkpt lat="47.30906" lon="-2.39019">
        <ele>56.200000762939</ele>
        <time>2022-01-13T09:04:36.000Z</time>
      </trkpt>
      <trkpt lat="47.30903" lon="-2.39044">
        <ele>56.200000762939</ele>
        <time>2022-01-13T09:04:39.000Z</time>
      </trkpt>
      <trkpt lat="47.30903" lon="-2.39078">
        <ele>56.200000762939</ele>
        <time>2022-01-13T09:04:43.000Z</time>
      </trkpt>
      <trkpt lat="47.30906" lon="-2.39093">
        <ele>56.200000762939</ele>
        <time>2022-01-13T09:04:45.000Z</time>
      </trkpt>
      <trkpt lat="47.30911" lon="-2.39108">
        <ele>56.200000762939</ele>
        <time>2022-01-13T09:04:47.000Z</time>
      </trkpt>
      <trkpt lat="47.30914" lon="-2.39115">
        <ele>56.200000762939</ele>
        <time>2022-01-13T09:04:48.000Z</time>
      </trkpt>
      <trkpt lat="47.30923" lon="-2.39138">
        <ele>56.200000762939</ele>
        <time>2022-01-13T09:04:51.000Z</time>
      </trkpt>
      <trkpt lat="47.30928" lon="-2.39154">
        <ele>56.599998474121</ele>
        <time>2022-01-13T09:04:53.000Z</time>
      </trkpt>
      <trkpt lat="47.30931" lon="-2.39162">
        <ele>57</ele>
        <time>2022-01-13T09:04:54.000Z</time>
      </trkpt>
      <trkpt lat="47.30934" lon="-2.3917">
        <ele>57.400001525879</ele>
        <time>2022-01-13T09:04:55.000Z</time>
      </trkpt>
      <trkpt lat="47.30937" lon="-2.39177">
        <ele>57.799999237061</ele>
        <time>2022-01-13T09:04:56.000Z</time>
      </trkpt>
      <trkpt lat="47.3094" lon="-2.39184">
        <ele>58.200000762939</ele>
        <time>2022-01-13T09:04:57.000Z</time>
      </trkpt>
      <trkpt lat="47.30946" lon="-2.39199">
        <ele>58.200000762939</ele>
        <time>2022-01-13T09:04:59.000Z</time>
      </trkpt>
      <trkpt lat="47.3097" lon="-2.39256">
        <ele>58.200000762939</ele>
        <time>2022-01-13T09:05:07.000Z</time>
      </trkpt>
      <trkpt lat="47.30993" lon="-2.39317">
        <ele>58.200000762939</ele>
        <time>2022-01-13T09:05:15.000Z</time>
      </trkpt>
      <trkpt lat="47.31013" lon="-2.39381">
        <ele>58.200000762939</ele>
        <time>2022-01-13T09:05:23.000Z</time>
      </trkpt>
      <trkpt lat="47.31035" lon="-2.39447">
        <ele>57.799999237061</ele>
        <time>2022-01-13T09:05:31.000Z</time>
      </trkpt>
      <trkpt lat="47.31038" lon="-2.39456">
        <ele>57.400001525879</ele>
        <time>2022-01-13T09:05:32.000Z</time>
      </trkpt>
      <trkpt lat="47.31041" lon="-2.39465">
        <ele>57</ele>
        <time>2022-01-13T09:05:33.000Z</time>
      </trkpt>
      <trkpt lat="47.31044" lon="-2.39473">
        <ele>56.599998474121</ele>
        <time>2022-01-13T09:05:34.000Z</time>
      </trkpt>
      <trkpt lat="47.31047" lon="-2.39482">
        <ele>56.200000762939</ele>
        <time>2022-01-13T09:05:35.000Z</time>
      </trkpt>
      <trkpt lat="47.31056" lon="-2.39514">
        <ele>56.200000762939</ele>
        <time>2022-01-13T09:05:39.000Z</time>
      </trkpt>
      <trkpt lat="47.31072" lon="-2.39563">
        <ele>56.200000762939</ele>
        <time>2022-01-13T09:05:46.000Z</time>
      </trkpt>
      <trkpt lat="47.3108" lon="-2.39583">
        <ele>56.599998474121</ele>
        <time>2022-01-13T09:05:49.000Z</time>
      </trkpt>
      <trkpt lat="47.31082" lon="-2.3959">
        <ele>57</ele>
        <time>2022-01-13T09:05:50.000Z</time>
      </trkpt>
      <trkpt lat="47.31085" lon="-2.39596">
        <ele>57.400001525879</ele>
        <time>2022-01-13T09:05:51.000Z</time>
      </trkpt>
      <trkpt lat="47.31087" lon="-2.39603">
        <ele>57.799999237061</ele>
        <time>2022-01-13T09:05:52.000Z</time>
      </trkpt>
      <trkpt lat="47.3109" lon="-2.3961">
        <ele>58.200000762939</ele>
        <time>2022-01-13T09:05:53.000Z</time>
      </trkpt>
      <trkpt lat="47.31098" lon="-2.3963">
        <ele>58.200000762939</ele>
        <time>2022-01-13T09:05:56.000Z</time>
      </trkpt>
      <trkpt lat="47.3112" lon="-2.39692">
        <ele>58.200000762939</ele>
        <time>2022-01-13T09:06:04.000Z</time>
      </trkpt>
      <trkpt lat="47.31147" lon="-2.39769">
        <ele>58.200000762939</ele>
        <time>2022-01-13T09:06:14.000Z</time>
      </trkpt>
      <trkpt lat="47.3115" lon="-2.39777">
        <ele>57.799999237061</ele>
        <time>2022-01-13T09:06:15.000Z</time>
      </trkpt>
      <trkpt lat="47.31153" lon="-2.39785">
        <ele>57.400001525879</ele>
        <time>2022-01-13T09:06:16.000Z</time>
      </trkpt>
      <trkpt lat="47.31156" lon="-2.39793">
        <ele>57</ele>
        <time>2022-01-13T09:06:17.000Z</time>
      </trkpt>
      <trkpt lat="47.31159" lon="-2.39801">
        <ele>56.599998474121</ele>
        <time>2022-01-13T09:06:18.000Z</time>
      </trkpt>
      <trkpt lat="47.31162" lon="-2.39809">
        <ele>56.200000762939</ele>
        <time>2022-01-13T09:06:19.000Z</time>
      </trkpt>
      <trkpt lat="47.31176" lon="-2.39844">
        <ele>56.200000762939</ele>
        <time>2022-01-13T09:06:24.000Z</time>
      </trkpt>
      <trkpt lat="47.31181" lon="-2.39855">
        <ele>56.200000762939</ele>
        <time>2022-01-13T09:06:26.000Z</time>
      </trkpt>
      <trkpt lat="47.31184" lon="-2.3987">
        <ele>56.200000762939</ele>
        <time>2022-01-13T09:06:28.000Z</time>
      </trkpt>
      <trkpt lat="47.3119" lon="-2.3989">
        <ele>56.200000762939</ele>
        <time>2022-01-13T09:06:32.000Z</time>
      </trkpt>
      <trkpt lat="47.31193" lon="-2.39903">
        <ele>56.200000762939</ele>
        <time>2022-01-13T09:06:34.000Z</time>
      </trkpt>
      <trkpt lat="47.31195" lon="-2.39908">
        <ele>56.200000762939</ele>
        <time>2022-01-13T09:06:35.000Z</time>
      </trkpt>
      <trkpt lat="47.31198" lon="-2.39918">
        <ele>55.799999237061</ele>
        <time>2022-01-13T09:06:37.000Z</time>
      </trkpt>
      <trkpt lat="47.312" lon="-2.39922">
        <ele>55</ele>
        <time>2022-01-13T09:06:38.000Z</time>
      </trkpt>
      <trkpt lat="47.31201" lon="-2.39927">
        <ele>54.599998474121</ele>
        <time>2022-01-13T09:06:39.000Z</time>
      </trkpt>
      <trkpt lat="47.31204" lon="-2.39932">
        <ele>54.200000762939</ele>
        <time>2022-01-13T09:06:40.000Z</time>
      </trkpt>
      <trkpt lat="47.31206" lon="-2.39937">
        <ele>54.200000762939</ele>
        <time>2022-01-13T09:06:41.000Z</time>
      </trkpt>
      <trkpt lat="47.31216" lon="-2.39967">
        <ele>53.599998474121</ele>
        <time>2022-01-13T09:06:47.000Z</time>
      </trkpt>
      <trkpt lat="47.31218" lon="-2.39972">
        <ele>53.200000762939</ele>
        <time>2022-01-13T09:06:48.000Z</time>
      </trkpt>
      <trkpt lat="47.3122" lon="-2.39978">
        <ele>52.799999237061</ele>
        <time>2022-01-13T09:06:49.000Z</time>
      </trkpt>
      <trkpt lat="47.31222" lon="-2.39984">
        <ele>52.400001525879</ele>
        <time>2022-01-13T09:06:50.000Z</time>
      </trkpt>
      <trkpt lat="47.31224" lon="-2.3999">
        <ele>52</ele>
        <time>2022-01-13T09:06:51.000Z</time>
      </trkpt>
      <trkpt lat="47.31228" lon="-2.40007">
        <ele>52</ele>
        <time>2022-01-13T09:06:54.000Z</time>
      </trkpt>
      <trkpt lat="47.31232" lon="-2.4002">
        <ele>51.599998474121</ele>
        <time>2022-01-13T09:06:56.000Z</time>
      </trkpt>
      <trkpt lat="47.31234" lon="-2.40027">
        <ele>51.200000762939</ele>
        <time>2022-01-13T09:06:57.000Z</time>
      </trkpt>
      <trkpt lat="47.31235" lon="-2.40031">
        <ele>50.799999237061</ele>
        <time>2022-01-13T09:06:58.000Z</time>
      </trkpt>
      <trkpt lat="47.31236" lon="-2.40036">
        <ele>50.400001525879</ele>
        <time>2022-01-13T09:06:59.000Z</time>
      </trkpt>
      <trkpt lat="47.31239" lon="-2.4004">
        <ele>49.799999237061</ele>
        <time>2022-01-13T09:07:00.000Z</time>
      </trkpt>
      <trkpt lat="47.31245" lon="-2.4004">
        <ele>49.799999237061</ele>
        <time>2022-01-13T09:07:02.000Z</time>
      </trkpt>
      <trkpt lat="47.3125" lon="-2.40043">
        <ele>49.799999237061</ele>
        <time>2022-01-13T09:07:05.000Z</time>
      </trkpt>
      <trkpt lat="47.31256" lon="-2.4005">
        <ele>49.799999237061</ele>
        <time>2022-01-13T09:07:07.000Z</time>
      </trkpt>
      <trkpt lat="47.31267" lon="-2.40059">
        <ele>49.799999237061</ele>
        <time>2022-01-13T09:07:09.000Z</time>
      </trkpt>
      <trkpt lat="47.31272" lon="-2.4006">
        <ele>49.799999237061</ele>
        <time>2022-01-13T09:07:10.000Z</time>
      </trkpt>
      <trkpt lat="47.31284" lon="-2.40061">
        <ele>49.799999237061</ele>
        <time>2022-01-13T09:07:13.000Z</time>
      </trkpt>
      <trkpt lat="47.31288" lon="-2.40062">
        <ele>49.799999237061</ele>
        <time>2022-01-13T09:07:14.000Z</time>
      </trkpt>
      <trkpt lat="47.31311" lon="-2.40069">
        <ele>49.799999237061</ele>
        <time>2022-01-13T09:07:20.000Z</time>
      </trkpt>
      <trkpt lat="47.3133" lon="-2.40078">
        <ele>49.799999237061</ele>
        <time>2022-01-13T09:07:25.000Z</time>
      </trkpt>
      <trkpt lat="47.31353" lon="-2.40089">
        <ele>49.799999237061</ele>
        <time>2022-01-13T09:07:31.000Z</time>
      </trkpt>
      <trkpt lat="47.31375" lon="-2.40104">
        <ele>49.799999237061</ele>
        <time>2022-01-13T09:07:37.000Z</time>
      </trkpt>
      <trkpt lat="47.31391" lon="-2.4011">
        <ele>49.799999237061</ele>
        <time>2022-01-13T09:07:41.000Z</time>
      </trkpt>
      <trkpt lat="47.31396" lon="-2.40113">
        <ele>49.799999237061</ele>
        <time>2022-01-13T09:07:42.000Z</time>
      </trkpt>
      <trkpt lat="47.31413" lon="-2.40123">
        <ele>49.799999237061</ele>
        <time>2022-01-13T09:07:46.000Z</time>
      </trkpt>
      <trkpt lat="47.31417" lon="-2.40125">
        <ele>49.799999237061</ele>
        <time>2022-01-13T09:07:47.000Z</time>
      </trkpt>
      <trkpt lat="47.31432" lon="-2.40136">
        <ele>49.799999237061</ele>
        <time>2022-01-13T09:07:51.000Z</time>
      </trkpt>
      <trkpt lat="47.31436" lon="-2.40139">
        <ele>49.799999237061</ele>
        <time>2022-01-13T09:07:52.000Z</time>
      </trkpt>
      <trkpt lat="47.31458" lon="-2.40157">
        <ele>50.400001525879</ele>
        <time>2022-01-13T09:07:58.000Z</time>
      </trkpt>
      <trkpt lat="47.31462" lon="-2.4016">
        <ele>50.799999237061</ele>
        <time>2022-01-13T09:07:59.000Z</time>
      </trkpt>
      <trkpt lat="47.31466" lon="-2.40162">
        <ele>51.200000762939</ele>
        <time>2022-01-13T09:08:00.000Z</time>
      </trkpt>
      <trkpt lat="47.3147" lon="-2.40165">
        <ele>51.599998474121</ele>
        <time>2022-01-13T09:08:01.000Z</time>
      </trkpt>
      <trkpt lat="47.31473" lon="-2.40167">
        <ele>52</ele>
        <time>2022-01-13T09:08:02.000Z</time>
      </trkpt>
      <trkpt lat="47.31483" lon="-2.40176">
        <ele>52</ele>
        <time>2022-01-13T09:08:05.000Z</time>
      </trkpt>
      <trkpt lat="47.31509" lon="-2.40194">
        <ele>52</ele>
        <time>2022-01-13T09:08:12.000Z</time>
      </trkpt>
      <trkpt lat="47.31536" lon="-2.40214">
        <ele>52</ele>
        <time>2022-01-13T09:08:19.000Z</time>
      </trkpt>
      <trkpt lat="47.3154" lon="-2.40217">
        <ele>52.400001525879</ele>
        <time>2022-01-13T09:08:20.000Z</time>
      </trkpt>
      <trkpt lat="47.31543" lon="-2.4022">
        <ele>52.799999237061</ele>
        <time>2022-01-13T09:08:21.000Z</time>
      </trkpt>
      <trkpt lat="47.31547" lon="-2.40223">
        <ele>53.200000762939</ele>
        <time>2022-01-13T09:08:22.000Z</time>
      </trkpt>
      <trkpt lat="47.31551" lon="-2.40226">
        <ele>53.599998474121</ele>
        <time>2022-01-13T09:08:23.000Z</time>
      </trkpt>
      <trkpt lat="47.31556" lon="-2.40228">
        <ele>54</ele>
        <time>2022-01-13T09:08:24.000Z</time>
      </trkpt>
      <trkpt lat="47.31564" lon="-2.40233">
        <ele>54</ele>
        <time>2022-01-13T09:08:26.000Z</time>
      </trkpt>
      <trkpt lat="47.31587" lon="-2.40253">
        <ele>54</ele>
        <time>2022-01-13T09:08:32.000Z</time>
      </trkpt>
      <trkpt lat="47.3159" lon="-2.40256">
        <ele>54</ele>
        <time>2022-01-13T09:08:33.000Z</time>
      </trkpt>
      <trkpt lat="47.31616" lon="-2.40276">
        <ele>54</ele>
        <time>2022-01-13T09:08:39.000Z</time>
      </trkpt>
      <trkpt lat="47.31628" lon="-2.40285">
        <ele>54</ele>
        <time>2022-01-13T09:08:42.000Z</time>
      </trkpt>
      <trkpt lat="47.31639" lon="-2.40294">
        <ele>54</ele>
        <time>2022-01-13T09:08:45.000Z</time>
      </trkpt>
      <trkpt lat="47.31649" lon="-2.40302">
        <ele>54.400001525879</ele>
        <time>2022-01-13T09:08:48.000Z</time>
      </trkpt>
      <trkpt lat="47.31653" lon="-2.40305">
        <ele>54.799999237061</ele>
        <time>2022-01-13T09:08:49.000Z</time>
      </trkpt>
      <trkpt lat="47.31656" lon="-2.40308">
        <ele>55.200000762939</ele>
        <time>2022-01-13T09:08:50.000Z</time>
      </trkpt>
      <trkpt lat="47.3166" lon="-2.40311">
        <ele>55.799999237061</ele>
        <time>2022-01-13T09:08:51.000Z</time>
      </trkpt>
      <trkpt lat="47.31662" lon="-2.40314">
        <ele>56.200000762939</ele>
        <time>2022-01-13T09:08:52.000Z</time>
      </trkpt>
      <trkpt lat="47.31675" lon="-2.40327">
        <ele>56.599998474121</ele>
        <time>2022-01-13T09:08:57.000Z</time>
      </trkpt>
      <trkpt lat="47.31679" lon="-2.40329">
        <ele>57</ele>
        <time>2022-01-13T09:08:58.000Z</time>
      </trkpt>
      <trkpt lat="47.31683" lon="-2.40331">
        <ele>57.400001525879</ele>
        <time>2022-01-13T09:08:59.000Z</time>
      </trkpt>
      <trkpt lat="47.31688" lon="-2.40334">
        <ele>57.799999237061</ele>
        <time>2022-01-13T09:09:00.000Z</time>
      </trkpt>
      <trkpt lat="47.31692" lon="-2.40336">
        <ele>58.200000762939</ele>
        <time>2022-01-13T09:09:01.000Z</time>
      </trkpt>
      <trkpt lat="47.31705" lon="-2.40344">
        <ele>58.200000762939</ele>
        <time>2022-01-13T09:09:04.000Z</time>
      </trkpt>
      <trkpt lat="47.31739" lon="-2.40367">
        <ele>58.200000762939</ele>
        <time>2022-01-13T09:09:13.000Z</time>
      </trkpt>
      <trkpt lat="47.31767" lon="-2.40389">
        <ele>58.200000762939</ele>
        <time>2022-01-13T09:09:20.000Z</time>
      </trkpt>
      <trkpt lat="47.31805" lon="-2.40419">
        <ele>58.200000762939</ele>
        <time>2022-01-13T09:09:29.000Z</time>
      </trkpt>
      <trkpt lat="47.31818" lon="-2.40429">
        <ele>59</ele>
        <time>2022-01-13T09:09:32.000Z</time>
      </trkpt>
      <trkpt lat="47.31822" lon="-2.40431">
        <ele>59.400001525879</ele>
        <time>2022-01-13T09:09:33.000Z</time>
      </trkpt>
      <trkpt lat="47.31825" lon="-2.40434">
        <ele>59.799999237061</ele>
        <time>2022-01-13T09:09:34.000Z</time>
      </trkpt>
      <trkpt lat="47.31829" lon="-2.40437">
        <ele>60.200000762939</ele>
        <time>2022-01-13T09:09:35.000Z</time>
      </trkpt>
      <trkpt lat="47.31855" lon="-2.40458">
        <ele>60.200000762939</ele>
        <time>2022-01-13T09:09:42.000Z</time>
      </trkpt>
      <trkpt lat="47.31878" lon="-2.40475">
        <ele>60.200000762939</ele>
        <time>2022-01-13T09:09:49.000Z</time>
      </trkpt>
      <trkpt lat="47.31902" lon="-2.40492">
        <ele>60.200000762939</ele>
        <time>2022-01-13T09:09:55.000Z</time>
      </trkpt>
      <trkpt lat="47.31927" lon="-2.4051">
        <ele>60.200000762939</ele>
        <time>2022-01-13T09:10:01.000Z</time>
      </trkpt>
      <trkpt lat="47.31931" lon="-2.40514">
        <ele>60.599998474121</ele>
        <time>2022-01-13T09:10:02.000Z</time>
      </trkpt>
      <trkpt lat="47.31935" lon="-2.40518">
        <ele>61</ele>
        <time>2022-01-13T09:10:03.000Z</time>
      </trkpt>
      <trkpt lat="47.31939" lon="-2.40521">
        <ele>61.400001525879</ele>
        <time>2022-01-13T09:10:04.000Z</time>
      </trkpt>
      <trkpt lat="47.31942" lon="-2.40523">
        <ele>61.799999237061</ele>
        <time>2022-01-13T09:10:05.000Z</time>
      </trkpt>
      <trkpt lat="47.31946" lon="-2.40526">
        <ele>62.400001525879</ele>
        <time>2022-01-13T09:10:06.000Z</time>
      </trkpt>
      <trkpt lat="47.31955" lon="-2.40532">
        <ele>62.400001525879</ele>
        <time>2022-01-13T09:10:09.000Z</time>
      </trkpt>
      <trkpt lat="47.31976" lon="-2.40546">
        <ele>62.400001525879</ele>
        <time>2022-01-13T09:10:15.000Z</time>
      </trkpt>
      <trkpt lat="47.31985" lon="-2.40552">
        <ele>62.400001525879</ele>
        <time>2022-01-13T09:10:17.000Z</time>
      </trkpt>
      <trkpt lat="47.32006" lon="-2.4057">
        <ele>62.400001525879</ele>
        <time>2022-01-13T09:10:22.000Z</time>
      </trkpt>
      <trkpt lat="47.32026" lon="-2.40589">
        <ele>62.799999237061</ele>
        <time>2022-01-13T09:10:26.000Z</time>
      </trkpt>
      <trkpt lat="47.3203" lon="-2.40592">
        <ele>63.200000762939</ele>
        <time>2022-01-13T09:10:27.000Z</time>
      </trkpt>
      <trkpt lat="47.32034" lon="-2.40595">
        <ele>63.599998474121</ele>
        <time>2022-01-13T09:10:28.000Z</time>
      </trkpt>
      <trkpt lat="47.32038" lon="-2.40598">
        <ele>64</ele>
        <time>2022-01-13T09:10:29.000Z</time>
      </trkpt>
      <trkpt lat="47.32042" lon="-2.40602">
        <ele>64.400001525879</ele>
        <time>2022-01-13T09:10:30.000Z</time>
      </trkpt>
      <trkpt lat="47.3205" lon="-2.40607">
        <ele>64.400001525879</ele>
        <time>2022-01-13T09:10:32.000Z</time>
      </trkpt>
      <trkpt lat="47.3208" lon="-2.40631">
        <ele>64.400001525879</ele>
        <time>2022-01-13T09:10:39.000Z</time>
      </trkpt>
      <trkpt lat="47.32084" lon="-2.40635">
        <ele>64.400001525879</ele>
        <time>2022-01-13T09:10:40.000Z</time>
      </trkpt>
      <trkpt lat="47.32102" lon="-2.40658">
        <ele>64.400001525879</ele>
        <time>2022-01-13T09:10:45.000Z</time>
      </trkpt>
      <trkpt lat="47.32124" lon="-2.40684">
        <ele>64.800003051758</ele>
        <time>2022-01-13T09:10:51.000Z</time>
      </trkpt>
      <trkpt lat="47.32128" lon="-2.40688">
        <ele>65.199996948242</ele>
        <time>2022-01-13T09:10:52.000Z</time>
      </trkpt>
      <trkpt lat="47.32131" lon="-2.40691">
        <ele>65.599998474121</ele>
        <time>2022-01-13T09:10:53.000Z</time>
      </trkpt>
      <trkpt lat="47.32134" lon="-2.40696">
        <ele>66</ele>
        <time>2022-01-13T09:10:54.000Z</time>
      </trkpt>
      <trkpt lat="47.32138" lon="-2.407">
        <ele>66.400001525879</ele>
        <time>2022-01-13T09:10:55.000Z</time>
      </trkpt>
      <trkpt lat="47.32141" lon="-2.40705">
        <ele>66.400001525879</ele>
        <time>2022-01-13T09:10:56.000Z</time>
      </trkpt>
      <trkpt lat="47.32161" lon="-2.40724">
        <ele>66.400001525879</ele>
        <time>2022-01-13T09:11:01.000Z</time>
      </trkpt>
      <trkpt lat="47.32165" lon="-2.40729">
        <ele>66.400001525879</ele>
        <time>2022-01-13T09:11:02.000Z</time>
      </trkpt>
      <trkpt lat="47.3218" lon="-2.40752">
        <ele>66.400001525879</ele>
        <time>2022-01-13T09:11:07.000Z</time>
      </trkpt>
      <trkpt lat="47.32198" lon="-2.40784">
        <ele>66.400001525879</ele>
        <time>2022-01-13T09:11:14.000Z</time>
      </trkpt>
      <trkpt lat="47.32208" lon="-2.40798">
        <ele>66.400001525879</ele>
        <time>2022-01-13T09:11:19.000Z</time>
      </trkpt>
      <trkpt lat="47.32219" lon="-2.40814">
        <ele>66.400001525879</ele>
        <time>2022-01-13T09:11:24.000Z</time>
      </trkpt>
      <trkpt lat="47.32222" lon="-2.40816">
        <ele>66.400001525879</ele>
        <time>2022-01-13T09:11:25.000Z</time>
      </trkpt>
      <trkpt lat="47.32228" lon="-2.40822">
        <ele>66.400001525879</ele>
        <time>2022-01-13T09:11:27.000Z</time>
      </trkpt>
      <trkpt lat="47.32246" lon="-2.40852">
        <ele>66.400001525879</ele>
        <time>2022-01-13T09:11:33.000Z</time>
      </trkpt>
      <trkpt lat="47.32268" lon="-2.40888">
        <ele>66.400001525879</ele>
        <time>2022-01-13T09:11:40.000Z</time>
      </trkpt>
      <trkpt lat="47.32302" lon="-2.40951">
        <ele>66.800003051758</ele>
        <time>2022-01-13T09:11:51.000Z</time>
      </trkpt>
      <trkpt lat="47.32304" lon="-2.40956">
        <ele>67.199996948242</ele>
        <time>2022-01-13T09:11:52.000Z</time>
      </trkpt>
      <trkpt lat="47.32307" lon="-2.40961">
        <ele>67.599998474121</ele>
        <time>2022-01-13T09:11:53.000Z</time>
      </trkpt>
      <trkpt lat="47.3231" lon="-2.40967">
        <ele>68</ele>
        <time>2022-01-13T09:11:54.000Z</time>
      </trkpt>
      <trkpt lat="47.32313" lon="-2.40972">
        <ele>68.400001525879</ele>
        <time>2022-01-13T09:11:55.000Z</time>
      </trkpt>
      <trkpt lat="47.32324" lon="-2.40993">
        <ele>68.400001525879</ele>
        <time>2022-01-13T09:11:59.000Z</time>
      </trkpt>
      <trkpt lat="47.32349" lon="-2.4104">
        <ele>68.400001525879</ele>
        <time>2022-01-13T09:12:08.000Z</time>
      </trkpt>
      <trkpt lat="47.32362" lon="-2.41065">
        <ele>68.400001525879</ele>
        <time>2022-01-13T09:12:14.000Z</time>
      </trkpt>
      <trkpt lat="47.32372" lon="-2.41081">
        <ele>68.400001525879</ele>
        <time>2022-01-13T09:12:18.000Z</time>
      </trkpt>
      <trkpt lat="47.32375" lon="-2.41091">
        <ele>68.400001525879</ele>
        <time>2022-01-13T09:12:20.000Z</time>
      </trkpt>
      <trkpt lat="47.32387" lon="-2.41121">
        <ele>68.400001525879</ele>
        <time>2022-01-13T09:12:26.000Z</time>
      </trkpt>
      <trkpt lat="47.32408" lon="-2.4115">
        <ele>68.400001525879</ele>
        <time>2022-01-13T09:12:33.000Z</time>
      </trkpt>
      <trkpt lat="47.32418" lon="-2.41162">
        <ele>68.400001525879</ele>
        <time>2022-01-13T09:12:38.000Z</time>
      </trkpt>
      <trkpt lat="47.3242" lon="-2.41165">
        <ele>68.400001525879</ele>
        <time>2022-01-13T09:12:41.000Z</time>
      </trkpt>
      <trkpt lat="47.3242" lon="-2.41165">
        <ele>68.400001525879</ele>
        <time>2022-01-13T09:12:47.000Z</time>
      </trkpt>
      <trkpt lat="47.32421" lon="-2.41167">
        <ele>68.400001525879</ele>
        <time>2022-01-13T09:12:48.000Z</time>
      </trkpt>
      <trkpt lat="47.32428" lon="-2.41183">
        <ele>68.400001525879</ele>
        <time>2022-01-13T09:12:52.000Z</time>
      </trkpt>
      <trkpt lat="47.32436" lon="-2.41196">
        <ele>68.400001525879</ele>
        <time>2022-01-13T09:12:55.000Z</time>
      </trkpt>
      <trkpt lat="47.32438" lon="-2.41202">
        <ele>68.400001525879</ele>
        <time>2022-01-13T09:12:56.000Z</time>
      </trkpt>
      <trkpt lat="47.32452" lon="-2.41233">
        <ele>68.800003051758</ele>
        <time>2022-01-13T09:13:01.000Z</time>
      </trkpt>
      <trkpt lat="47.32456" lon="-2.41239">
        <ele>69.199996948242</ele>
        <time>2022-01-13T09:13:02.000Z</time>
      </trkpt>
      <trkpt lat="47.32459" lon="-2.41245">
        <ele>69.599998474121</ele>
        <time>2022-01-13T09:13:03.000Z</time>
      </trkpt>
      <trkpt lat="47.32463" lon="-2.41251">
        <ele>70</ele>
        <time>2022-01-13T09:13:04.000Z</time>
      </trkpt>
      <trkpt lat="47.32467" lon="-2.41257">
        <ele>70.599998474121</ele>
        <time>2022-01-13T09:13:05.000Z</time>
      </trkpt>
      <trkpt lat="47.32486" lon="-2.4129">
        <ele>70.599998474121</ele>
        <time>2022-01-13T09:13:10.000Z</time>
      </trkpt>
      <trkpt lat="47.3251" lon="-2.41336">
        <ele>70.599998474121</ele>
        <time>2022-01-13T09:13:17.000Z</time>
      </trkpt>
      <trkpt lat="47.32533" lon="-2.41382">
        <ele>70.599998474121</ele>
        <time>2022-01-13T09:13:24.000Z</time>
      </trkpt>
      <trkpt lat="47.32559" lon="-2.41434">
        <ele>70.599998474121</ele>
        <time>2022-01-13T09:13:32.000Z</time>
      </trkpt>
      <trkpt lat="47.32571" lon="-2.41458">
        <ele>70.599998474121</ele>
        <time>2022-01-13T09:13:36.000Z</time>
      </trkpt>
      <trkpt lat="47.32574" lon="-2.41463">
        <ele>70.599998474121</ele>
        <time>2022-01-13T09:13:37.000Z</time>
      </trkpt>
      <trkpt lat="47.32577" lon="-2.41471">
        <ele>70.199996948242</ele>
        <time>2022-01-13T09:13:39.000Z</time>
      </trkpt>
      <trkpt lat="47.32578" lon="-2.41476">
        <ele>69.800003051758</ele>
        <time>2022-01-13T09:13:40.000Z</time>
      </trkpt>
      <trkpt lat="47.32579" lon="-2.41481">
        <ele>69.199996948242</ele>
        <time>2022-01-13T09:13:41.000Z</time>
      </trkpt>
      <trkpt lat="47.32579" lon="-2.41487">
        <ele>68.800003051758</ele>
        <time>2022-01-13T09:13:42.000Z</time>
      </trkpt>
      <trkpt lat="47.3258" lon="-2.41493">
        <ele>68.400001525879</ele>
        <time>2022-01-13T09:13:43.000Z</time>
      </trkpt>
      <trkpt lat="47.3258" lon="-2.41506">
        <ele>68.400001525879</ele>
        <time>2022-01-13T09:13:45.000Z</time>
      </trkpt>
      <trkpt lat="47.32587" lon="-2.41521">
        <ele>68.400001525879</ele>
        <time>2022-01-13T09:13:48.000Z</time>
      </trkpt>
      <trkpt lat="47.32602" lon="-2.41523">
        <ele>68.400001525879</ele>
        <time>2022-01-13T09:13:51.000Z</time>
      </trkpt>
      <trkpt lat="47.32607" lon="-2.41523">
        <ele>68.400001525879</ele>
        <time>2022-01-13T09:13:52.000Z</time>
      </trkpt>
      <trkpt lat="47.32647" lon="-2.41531">
        <ele>68.400001525879</ele>
        <time>2022-01-13T09:14:00.000Z</time>
      </trkpt>
      <trkpt lat="47.32676" lon="-2.41536">
        <ele>68</ele>
        <time>2022-01-13T09:14:06.000Z</time>
      </trkpt>
      <trkpt lat="47.32681" lon="-2.41537">
        <ele>67.599998474121</ele>
        <time>2022-01-13T09:14:07.000Z</time>
      </trkpt>
      <trkpt lat="47.32686" lon="-2.41538">
        <ele>67.199996948242</ele>
        <time>2022-01-13T09:14:08.000Z</time>
      </trkpt>
      <trkpt lat="47.32691" lon="-2.41539">
        <ele>66.800003051758</ele>
        <time>2022-01-13T09:14:09.000Z</time>
      </trkpt>
      <trkpt lat="47.32695" lon="-2.4154">
        <ele>66.400001525879</ele>
        <time>2022-01-13T09:14:10.000Z</time>
      </trkpt>
      <trkpt lat="47.32699" lon="-2.41541">
        <ele>66.400001525879</ele>
        <time>2022-01-13T09:14:12.000Z</time>
      </trkpt>
      <trkpt lat="47.32703" lon="-2.41542">
        <ele>66</ele>
        <time>2022-01-13T09:14:15.000Z</time>
      </trkpt>
      <trkpt lat="47.32704" lon="-2.41543">
        <ele>65.599998474121</ele>
        <time>2022-01-13T09:14:16.000Z</time>
      </trkpt>
      <trkpt lat="47.32705" lon="-2.41545">
        <ele>65.199996948242</ele>
        <time>2022-01-13T09:14:17.000Z</time>
      </trkpt>
      <trkpt lat="47.32705" lon="-2.41547">
        <ele>64.599998474121</ele>
        <time>2022-01-13T09:14:18.000Z</time>
      </trkpt>
      <trkpt lat="47.32705" lon="-2.41549">
        <ele>64.199996948242</ele>
        <time>2022-01-13T09:14:19.000Z</time>
      </trkpt>
      <trkpt lat="47.32704" lon="-2.4156">
        <ele>64.199996948242</ele>
        <time>2022-01-13T09:14:24.000Z</time>
      </trkpt>
      <trkpt lat="47.32704" lon="-2.4156">
        <ele>64.199996948242</ele>
        <time>2022-01-13T09:14:25.000Z</time>
      </trkpt>
      <trkpt lat="47.32708" lon="-2.41561">
        <ele>64.199996948242</ele>
        <time>2022-01-13T09:14:27.000Z</time>
      </trkpt>
      <trkpt lat="47.32722" lon="-2.41554">
        <ele>64.199996948242</ele>
        <time>2022-01-13T09:14:31.000Z</time>
      </trkpt>
      <trkpt lat="47.32726" lon="-2.4155">
        <ele>64.199996948242</ele>
        <time>2022-01-13T09:14:32.000Z</time>
      </trkpt>
      <trkpt lat="47.32729" lon="-2.41545">
        <ele>64.199996948242</ele>
        <time>2022-01-13T09:14:33.000Z</time>
      </trkpt>
      <trkpt lat="47.32738" lon="-2.4153">
        <ele>64.199996948242</ele>
        <time>2022-01-13T09:14:36.000Z</time>
      </trkpt>
      <trkpt lat="47.3275" lon="-2.41529">
        <ele>64.199996948242</ele>
        <time>2022-01-13T09:14:39.000Z</time>
      </trkpt>
      <trkpt lat="47.32755" lon="-2.41528">
        <ele>64.199996948242</ele>
        <time>2022-01-13T09:14:40.000Z</time>
      </trkpt>
      <trkpt lat="47.32769" lon="-2.41533">
        <ele>64.199996948242</ele>
        <time>2022-01-13T09:14:43.000Z</time>
      </trkpt>
      <trkpt lat="47.32777" lon="-2.41536">
        <ele>63.799999237061</ele>
        <time>2022-01-13T09:14:45.000Z</time>
      </trkpt>
      <trkpt lat="47.32781" lon="-2.41537">
        <ele>63.400001525879</ele>
        <time>2022-01-13T09:14:46.000Z</time>
      </trkpt>
      <trkpt lat="47.32786" lon="-2.41538">
        <ele>63</ele>
        <time>2022-01-13T09:14:47.000Z</time>
      </trkpt>
      <trkpt lat="47.3279" lon="-2.41538">
        <ele>62.599998474121</ele>
        <time>2022-01-13T09:14:48.000Z</time>
      </trkpt>
      <trkpt lat="47.32795" lon="-2.41539">
        <ele>62.200000762939</ele>
        <time>2022-01-13T09:14:49.000Z</time>
      </trkpt>
      <trkpt lat="47.32824" lon="-2.41543">
        <ele>62.200000762939</ele>
        <time>2022-01-13T09:14:55.000Z</time>
      </trkpt>
      <trkpt lat="47.32855" lon="-2.41548">
        <ele>61.799999237061</ele>
        <time>2022-01-13T09:15:01.000Z</time>
      </trkpt>
      <trkpt lat="47.3286" lon="-2.41548">
        <ele>61.200000762939</ele>
        <time>2022-01-13T09:15:02.000Z</time>
      </trkpt>
      <trkpt lat="47.32865" lon="-2.41549">
        <ele>60.799999237061</ele>
        <time>2022-01-13T09:15:03.000Z</time>
      </trkpt>
      <trkpt lat="47.3287" lon="-2.4155">
        <ele>60.400001525879</ele>
        <time>2022-01-13T09:15:04.000Z</time>
      </trkpt>
      <trkpt lat="47.32875" lon="-2.41551">
        <ele>60</ele>
        <time>2022-01-13T09:15:05.000Z</time>
      </trkpt>
      <trkpt lat="47.32904" lon="-2.41559">
        <ele>60</ele>
        <time>2022-01-13T09:15:11.000Z</time>
      </trkpt>
      <trkpt lat="47.32933" lon="-2.41567">
        <ele>59.599998474121</ele>
        <time>2022-01-13T09:15:17.000Z</time>
      </trkpt>
      <trkpt lat="47.32938" lon="-2.41569">
        <ele>59.200000762939</ele>
        <time>2022-01-13T09:15:18.000Z</time>
      </trkpt>
      <trkpt lat="47.32943" lon="-2.4157">
        <ele>58.799999237061</ele>
        <time>2022-01-13T09:15:19.000Z</time>
      </trkpt>
      <trkpt lat="47.32946" lon="-2.4157">
        <ele>58.400001525879</ele>
        <time>2022-01-13T09:15:20.000Z</time>
      </trkpt>
      <trkpt lat="47.32948" lon="-2.41569">
        <ele>58</ele>
        <time>2022-01-13T09:15:21.000Z</time>
      </trkpt>
      <trkpt lat="47.32954" lon="-2.41556">
        <ele>58</ele>
        <time>2022-01-13T09:15:24.000Z</time>
      </trkpt>
      <trkpt lat="47.32955" lon="-2.4155">
        <ele>58</ele>
        <time>2022-01-13T09:15:25.000Z</time>
      </trkpt>
      <trkpt lat="47.32961" lon="-2.41521">
        <ele>58</ele>
        <time>2022-01-13T09:15:30.000Z</time>
      </trkpt>
      <trkpt lat="47.32961" lon="-2.41509">
        <ele>58</ele>
        <time>2022-01-13T09:15:34.000Z</time>
      </trkpt>
      <trkpt lat="47.32962" lon="-2.41508">
        <ele>58</ele>
        <time>2022-01-13T09:15:35.000Z</time>
      </trkpt>
      <trkpt lat="47.32965" lon="-2.41508">
        <ele>58</ele>
        <time>2022-01-13T09:15:38.000Z</time>
      </trkpt>
      <trkpt lat="47.32973" lon="-2.41507">
        <ele>58</ele>
        <time>2022-01-13T09:15:42.000Z</time>
      </trkpt>
      <trkpt lat="47.32975" lon="-2.41504">
        <ele>58</ele>
        <time>2022-01-13T09:15:43.000Z</time>
      </trkpt>
      <trkpt lat="47.32976" lon="-2.41491">
        <ele>58</ele>
        <time>2022-01-13T09:15:46.000Z</time>
      </trkpt>
      <trkpt lat="47.32977" lon="-2.4148">
        <ele>58</ele>
        <time>2022-01-13T09:15:48.000Z</time>
      </trkpt>
      <trkpt lat="47.32981" lon="-2.41454">
        <ele>58</ele>
        <time>2022-01-13T09:15:53.000Z</time>
      </trkpt>
      <trkpt lat="47.32988" lon="-2.41415">
        <ele>58</ele>
        <time>2022-01-13T09:16:00.000Z</time>
      </trkpt>
      <trkpt lat="47.32991" lon="-2.41397">
        <ele>58</ele>
        <time>2022-01-13T09:16:03.000Z</time>
      </trkpt>
      <trkpt lat="47.32992" lon="-2.41384">
        <ele>58</ele>
        <time>2022-01-13T09:16:05.000Z</time>
      </trkpt>
      <trkpt lat="47.32994" lon="-2.41372">
        <ele>58</ele>
        <time>2022-01-13T09:16:07.000Z</time>
      </trkpt>
      <trkpt lat="47.33001" lon="-2.41336">
        <ele>58</ele>
        <time>2022-01-13T09:16:13.000Z</time>
      </trkpt>
      <trkpt lat="47.33002" lon="-2.41324">
        <ele>58</ele>
        <time>2022-01-13T09:16:15.000Z</time>
      </trkpt>
      <trkpt lat="47.33004" lon="-2.413">
        <ele>58</ele>
        <time>2022-01-13T09:16:19.000Z</time>
      </trkpt>
      <trkpt lat="47.33004" lon="-2.41294">
        <ele>58.400001525879</ele>
        <time>2022-01-13T09:16:20.000Z</time>
      </trkpt>
      <trkpt lat="47.33004" lon="-2.41287">
        <ele>58.799999237061</ele>
        <time>2022-01-13T09:16:21.000Z</time>
      </trkpt>
      <trkpt lat="47.33004" lon="-2.41281">
        <ele>59.400001525879</ele>
        <time>2022-01-13T09:16:22.000Z</time>
      </trkpt>
      <trkpt lat="47.33003" lon="-2.41275">
        <ele>59.799999237061</ele>
        <time>2022-01-13T09:16:23.000Z</time>
      </trkpt>
      <trkpt lat="47.33003" lon="-2.41269">
        <ele>60.200000762939</ele>
        <time>2022-01-13T09:16:24.000Z</time>
      </trkpt>
      <trkpt lat="47.33002" lon="-2.41264">
        <ele>60.200000762939</ele>
        <time>2022-01-13T09:16:25.000Z</time>
      </trkpt>
      <trkpt lat="47.33003" lon="-2.4125">
        <ele>60.200000762939</ele>
        <time>2022-01-13T09:16:28.000Z</time>
      </trkpt>
      <trkpt lat="47.33006" lon="-2.41246">
        <ele>60.200000762939</ele>
        <time>2022-01-13T09:16:29.000Z</time>
      </trkpt>
      <trkpt lat="47.33013" lon="-2.41228">
        <ele>60.599998474121</ele>
        <time>2022-01-13T09:16:33.000Z</time>
      </trkpt>
      <trkpt lat="47.33016" lon="-2.41224">
        <ele>61</ele>
        <time>2022-01-13T09:16:34.000Z</time>
      </trkpt>
      <trkpt lat="47.33019" lon="-2.4122">
        <ele>61.599998474121</ele>
        <time>2022-01-13T09:16:35.000Z</time>
      </trkpt>
      <trkpt lat="47.33022" lon="-2.41215">
        <ele>62</ele>
        <time>2022-01-13T09:16:36.000Z</time>
      </trkpt>
      <trkpt lat="47.33026" lon="-2.4121">
        <ele>62.400001525879</ele>
        <time>2022-01-13T09:16:37.000Z</time>
      </trkpt>
      <trkpt lat="47.33028" lon="-2.41205">
        <ele>62.400001525879</ele>
        <time>2022-01-13T09:16:38.000Z</time>
      </trkpt>
      <trkpt lat="47.33031" lon="-2.41199">
        <ele>62.400001525879</ele>
        <time>2022-01-13T09:16:39.000Z</time>
      </trkpt>
      <trkpt lat="47.3304" lon="-2.41182">
        <ele>62.400001525879</ele>
        <time>2022-01-13T09:16:42.000Z</time>
      </trkpt>
      <trkpt lat="47.33042" lon="-2.41176">
        <ele>62.400001525879</ele>
        <time>2022-01-13T09:16:43.000Z</time>
      </trkpt>
      <trkpt lat="47.33049" lon="-2.41158">
        <ele>62.400001525879</ele>
        <time>2022-01-13T09:16:46.000Z</time>
      </trkpt>
      <trkpt lat="47.33056" lon="-2.41147">
        <ele>62.400001525879</ele>
        <time>2022-01-13T09:16:48.000Z</time>
      </trkpt>
      <trkpt lat="47.33069" lon="-2.41122">
        <ele>62.400001525879</ele>
        <time>2022-01-13T09:16:52.000Z</time>
      </trkpt>
      <trkpt lat="47.33074" lon="-2.41107">
        <ele>62.400001525879</ele>
        <time>2022-01-13T09:16:54.000Z</time>
      </trkpt>
      <trkpt lat="47.33091" lon="-2.41056">
        <ele>62.400001525879</ele>
        <time>2022-01-13T09:17:01.000Z</time>
      </trkpt>
      <trkpt lat="47.33106" lon="-2.4101">
        <ele>62.400001525879</ele>
        <time>2022-01-13T09:17:08.000Z</time>
      </trkpt>
      <trkpt lat="47.33115" lon="-2.40985">
        <ele>62</ele>
        <time>2022-01-13T09:17:12.000Z</time>
      </trkpt>
      <trkpt lat="47.33117" lon="-2.40978">
        <ele>61.599998474121</ele>
        <time>2022-01-13T09:17:13.000Z</time>
      </trkpt>
      <trkpt lat="47.3312" lon="-2.40972">
        <ele>61.200000762939</ele>
        <time>2022-01-13T09:17:14.000Z</time>
      </trkpt>
      <trkpt lat="47.33123" lon="-2.40966">
        <ele>60.799999237061</ele>
        <time>2022-01-13T09:17:15.000Z</time>
      </trkpt>
      <trkpt lat="47.33125" lon="-2.4096">
        <ele>60.400001525879</ele>
        <time>2022-01-13T09:17:16.000Z</time>
      </trkpt>
      <trkpt lat="47.33137" lon="-2.40937">
        <ele>60.400001525879</ele>
        <time>2022-01-13T09:17:21.000Z</time>
      </trkpt>
      <trkpt lat="47.33141" lon="-2.40931">
        <ele>60.400001525879</ele>
        <time>2022-01-13T09:17:26.000Z</time>
      </trkpt>
      <trkpt lat="47.33144" lon="-2.40937">
        <ele>58.400001525879</ele>
        <time>2022-01-13T09:17:53.000Z</time>
      </trkpt>
      <trkpt lat="47.33148" lon="-2.4094">
        <ele>58.400001525879</ele>
        <time>2022-01-13T09:17:56.000Z</time>
      </trkpt>
      <trkpt lat="47.33162" lon="-2.40948">
        <ele>58.400001525879</ele>
        <time>2022-01-13T09:18:03.000Z</time>
      </trkpt>
      <trkpt lat="47.3318" lon="-2.40961">
        <ele>58.400001525879</ele>
        <time>2022-01-13T09:18:08.000Z</time>
      </trkpt>
      <trkpt lat="47.33208" lon="-2.40982">
        <ele>58.400001525879</ele>
        <time>2022-01-13T09:18:15.000Z</time>
      </trkpt>
      <trkpt lat="47.33215" lon="-2.40989">
        <ele>58.400001525879</ele>
        <time>2022-01-13T09:18:17.000Z</time>
      </trkpt>
      <trkpt lat="47.33248" lon="-2.41018">
        <ele>58.400001525879</ele>
        <time>2022-01-13T09:18:25.000Z</time>
      </trkpt>
      <trkpt lat="47.33265" lon="-2.41035">
        <ele>58</ele>
        <time>2022-01-13T09:18:29.000Z</time>
      </trkpt>
      <trkpt lat="47.3327" lon="-2.41039">
        <ele>57.599998474121</ele>
        <time>2022-01-13T09:18:30.000Z</time>
      </trkpt>
      <trkpt lat="47.33274" lon="-2.41043">
        <ele>57.200000762939</ele>
        <time>2022-01-13T09:18:31.000Z</time>
      </trkpt>
      <trkpt lat="47.33279" lon="-2.41047">
        <ele>56.799999237061</ele>
        <time>2022-01-13T09:18:32.000Z</time>
      </trkpt>
      <trkpt lat="47.33283" lon="-2.41051">
        <ele>56.400001525879</ele>
        <time>2022-01-13T09:18:33.000Z</time>
      </trkpt>
      <trkpt lat="47.33306" lon="-2.41069">
        <ele>56</ele>
        <time>2022-01-13T09:18:38.000Z</time>
      </trkpt>
      <trkpt lat="47.33311" lon="-2.41073">
        <ele>55.599998474121</ele>
        <time>2022-01-13T09:18:39.000Z</time>
      </trkpt>
      <trkpt lat="47.33316" lon="-2.41077">
        <ele>55</ele>
        <time>2022-01-13T09:18:40.000Z</time>
      </trkpt>
      <trkpt lat="47.33322" lon="-2.4108">
        <ele>54.599998474121</ele>
        <time>2022-01-13T09:18:41.000Z</time>
      </trkpt>
      <trkpt lat="47.33327" lon="-2.41084">
        <ele>54.200000762939</ele>
        <time>2022-01-13T09:18:42.000Z</time>
      </trkpt>
      <trkpt lat="47.33334" lon="-2.41092">
        <ele>54.200000762939</ele>
        <time>2022-01-13T09:18:44.000Z</time>
      </trkpt>
      <trkpt lat="47.33337" lon="-2.41097">
        <ele>53.799999237061</ele>
        <time>2022-01-13T09:18:45.000Z</time>
      </trkpt>
      <trkpt lat="47.33339" lon="-2.41103">
        <ele>53.400001525879</ele>
        <time>2022-01-13T09:18:46.000Z</time>
      </trkpt>
      <trkpt lat="47.33341" lon="-2.41108">
        <ele>53</ele>
        <time>2022-01-13T09:18:47.000Z</time>
      </trkpt>
      <trkpt lat="47.33345" lon="-2.41112">
        <ele>52.599998474121</ele>
        <time>2022-01-13T09:18:48.000Z</time>
      </trkpt>
      <trkpt lat="47.33349" lon="-2.41114">
        <ele>52.200000762939</ele>
        <time>2022-01-13T09:18:49.000Z</time>
      </trkpt>
      <trkpt lat="47.33359" lon="-2.41117">
        <ele>52.200000762939</ele>
        <time>2022-01-13T09:18:51.000Z</time>
      </trkpt>
      <trkpt lat="47.33375" lon="-2.41123">
        <ele>52.200000762939</ele>
        <time>2022-01-13T09:18:54.000Z</time>
      </trkpt>
      <trkpt lat="47.33408" lon="-2.41137">
        <ele>51.799999237061</ele>
        <time>2022-01-13T09:19:00.000Z</time>
      </trkpt>
      <trkpt lat="47.33413" lon="-2.4114">
        <ele>51.400001525879</ele>
        <time>2022-01-13T09:19:01.000Z</time>
      </trkpt>
      <trkpt lat="47.33419" lon="-2.41142">
        <ele>51</ele>
        <time>2022-01-13T09:19:02.000Z</time>
      </trkpt>
      <trkpt lat="47.33424" lon="-2.41144">
        <ele>50.599998474121</ele>
        <time>2022-01-13T09:19:03.000Z</time>
      </trkpt>
      <trkpt lat="47.3343" lon="-2.41146">
        <ele>50</ele>
        <time>2022-01-13T09:19:04.000Z</time>
      </trkpt>
      <trkpt lat="47.33463" lon="-2.41166">
        <ele>50</ele>
        <time>2022-01-13T09:19:10.000Z</time>
      </trkpt>
      <trkpt lat="47.33468" lon="-2.41171">
        <ele>49.599998474121</ele>
        <time>2022-01-13T09:19:11.000Z</time>
      </trkpt>
      <trkpt lat="47.33472" lon="-2.41178">
        <ele>49.200000762939</ele>
        <time>2022-01-13T09:19:12.000Z</time>
      </trkpt>
      <trkpt lat="47.33476" lon="-2.41184">
        <ele>48.799999237061</ele>
        <time>2022-01-13T09:19:13.000Z</time>
      </trkpt>
      <trkpt lat="47.3348" lon="-2.41189">
        <ele>48.400001525879</ele>
        <time>2022-01-13T09:19:14.000Z</time>
      </trkpt>
      <trkpt lat="47.33484" lon="-2.41194">
        <ele>48</ele>
        <time>2022-01-13T09:19:15.000Z</time>
      </trkpt>
      <trkpt lat="47.33507" lon="-2.41215">
        <ele>48</ele>
        <time>2022-01-13T09:19:20.000Z</time>
      </trkpt>
      <trkpt lat="47.33516" lon="-2.41224">
        <ele>48</ele>
        <time>2022-01-13T09:19:22.000Z</time>
      </trkpt>
      <trkpt lat="47.33522" lon="-2.41238">
        <ele>48</ele>
        <time>2022-01-13T09:19:25.000Z</time>
      </trkpt>
      <trkpt lat="47.33522" lon="-2.41247">
        <ele>48</ele>
        <time>2022-01-13T09:19:27.000Z</time>
      </trkpt>
      <trkpt lat="47.33523" lon="-2.4126">
        <ele>48</ele>
        <time>2022-01-13T09:19:30.000Z</time>
      </trkpt>
      <trkpt lat="47.33534" lon="-2.41284">
        <ele>48</ele>
        <time>2022-01-13T09:19:36.000Z</time>
      </trkpt>
      <trkpt lat="47.33537" lon="-2.41284">
        <ele>48</ele>
        <time>2022-01-13T09:19:37.000Z</time>
      </trkpt>
      <trkpt lat="47.33543" lon="-2.4128">
        <ele>48</ele>
        <time>2022-01-13T09:19:39.000Z</time>
      </trkpt>
      <trkpt lat="47.3355" lon="-2.41276">
        <ele>48</ele>
        <time>2022-01-13T09:19:41.000Z</time>
      </trkpt>
      <trkpt lat="47.33563" lon="-2.41269">
        <ele>48</ele>
        <time>2022-01-13T09:19:44.000Z</time>
      </trkpt>
      <trkpt lat="47.33567" lon="-2.41267">
        <ele>48.400001525879</ele>
        <time>2022-01-13T09:19:45.000Z</time>
      </trkpt>
      <trkpt lat="47.33571" lon="-2.41266">
        <ele>48.799999237061</ele>
        <time>2022-01-13T09:19:46.000Z</time>
      </trkpt>
      <trkpt lat="47.33576" lon="-2.41265">
        <ele>49.200000762939</ele>
        <time>2022-01-13T09:19:47.000Z</time>
      </trkpt>
      <trkpt lat="47.3358" lon="-2.41263">
        <ele>49.599998474121</ele>
        <time>2022-01-13T09:19:48.000Z</time>
      </trkpt>
      <trkpt lat="47.33584" lon="-2.41262">
        <ele>50</ele>
        <time>2022-01-13T09:19:49.000Z</time>
      </trkpt>
      <trkpt lat="47.33597" lon="-2.4126">
        <ele>50</ele>
        <time>2022-01-13T09:19:52.000Z</time>
      </trkpt>
      <trkpt lat="47.3364" lon="-2.41254">
        <ele>50</ele>
        <time>2022-01-13T09:20:02.000Z</time>
      </trkpt>
      <trkpt lat="47.33662" lon="-2.41256">
        <ele>50</ele>
        <time>2022-01-13T09:20:07.000Z</time>
      </trkpt>
      <trkpt lat="47.33667" lon="-2.41258">
        <ele>50</ele>
        <time>2022-01-13T09:20:08.000Z</time>
      </trkpt>
      <trkpt lat="47.33678" lon="-2.41266">
        <ele>50</ele>
        <time>2022-01-13T09:20:11.000Z</time>
      </trkpt>
      <trkpt lat="47.33684" lon="-2.41274">
        <ele>50</ele>
        <time>2022-01-13T09:20:13.000Z</time>
      </trkpt>
      <trkpt lat="47.33703" lon="-2.41296">
        <ele>50</ele>
        <time>2022-01-13T09:20:19.000Z</time>
      </trkpt>
      <trkpt lat="47.3372" lon="-2.41309">
        <ele>50</ele>
        <time>2022-01-13T09:20:25.000Z</time>
      </trkpt>
      <trkpt lat="47.33729" lon="-2.41304">
        <ele>50</ele>
        <time>2022-01-13T09:20:30.000Z</time>
      </trkpt>
      <trkpt lat="47.33738" lon="-2.41286">
        <ele>50</ele>
        <time>2022-01-13T09:20:34.000Z</time>
      </trkpt>
      <trkpt lat="47.33755" lon="-2.41245">
        <ele>50</ele>
        <time>2022-01-13T09:20:41.000Z</time>
      </trkpt>
      <trkpt lat="47.33776" lon="-2.412">
        <ele>50</ele>
        <time>2022-01-13T09:20:48.000Z</time>
      </trkpt>
      <trkpt lat="47.33805" lon="-2.41153">
        <ele>50</ele>
        <time>2022-01-13T09:20:55.000Z</time>
      </trkpt>
      <trkpt lat="47.3381" lon="-2.41146">
        <ele>49.599998474121</ele>
        <time>2022-01-13T09:20:56.000Z</time>
      </trkpt>
      <trkpt lat="47.33815" lon="-2.41138">
        <ele>49.200000762939</ele>
        <time>2022-01-13T09:20:57.000Z</time>
      </trkpt>
      <trkpt lat="47.3382" lon="-2.41131">
        <ele>48.799999237061</ele>
        <time>2022-01-13T09:20:58.000Z</time>
      </trkpt>
      <trkpt lat="47.33826" lon="-2.41123">
        <ele>48.400001525879</ele>
        <time>2022-01-13T09:20:59.000Z</time>
      </trkpt>
      <trkpt lat="47.33831" lon="-2.41115">
        <ele>47.799999237061</ele>
        <time>2022-01-13T09:21:00.000Z</time>
      </trkpt>
      <trkpt lat="47.33837" lon="-2.41108">
        <ele>47.400001525879</ele>
        <time>2022-01-13T09:21:01.000Z</time>
      </trkpt>
      <trkpt lat="47.33842" lon="-2.411">
        <ele>47</ele>
        <time>2022-01-13T09:21:02.000Z</time>
      </trkpt>
      <trkpt lat="47.33848" lon="-2.41092">
        <ele>46.599998474121</ele>
        <time>2022-01-13T09:21:03.000Z</time>
      </trkpt>
      <trkpt lat="47.33853" lon="-2.41084">
        <ele>45.599998474121</ele>
        <time>2022-01-13T09:21:04.000Z</time>
      </trkpt>
      <trkpt lat="47.33892" lon="-2.41028">
        <ele>45.599998474121</ele>
        <time>2022-01-13T09:21:11.000Z</time>
      </trkpt>
      <trkpt lat="47.33908" lon="-2.41005">
        <ele>45.200000762939</ele>
        <time>2022-01-13T09:21:14.000Z</time>
      </trkpt>
      <trkpt lat="47.33913" lon="-2.40998">
        <ele>44.799999237061</ele>
        <time>2022-01-13T09:21:15.000Z</time>
      </trkpt>
      <trkpt lat="47.33918" lon="-2.40991">
        <ele>44.400001525879</ele>
        <time>2022-01-13T09:21:16.000Z</time>
      </trkpt>
      <trkpt lat="47.33923" lon="-2.40984">
        <ele>44</ele>
        <time>2022-01-13T09:21:17.000Z</time>
      </trkpt>
      <trkpt lat="47.33928" lon="-2.40976">
        <ele>43.599998474121</ele>
        <time>2022-01-13T09:21:18.000Z</time>
      </trkpt>
      <trkpt lat="47.33934" lon="-2.40969">
        <ele>43.599998474121</ele>
        <time>2022-01-13T09:21:19.000Z</time>
      </trkpt>
      <trkpt lat="47.33979" lon="-2.40913">
        <ele>43.599998474121</ele>
        <time>2022-01-13T09:21:27.000Z</time>
      </trkpt>
      <trkpt lat="47.33984" lon="-2.40906">
        <ele>43.200000762939</ele>
        <time>2022-01-13T09:21:28.000Z</time>
      </trkpt>
      <trkpt lat="47.3399" lon="-2.40899">
        <ele>42.200000762939</ele>
        <time>2022-01-13T09:21:29.000Z</time>
      </trkpt>
      <trkpt lat="47.33995" lon="-2.40892">
        <ele>41.799999237061</ele>
        <time>2022-01-13T09:21:30.000Z</time>
      </trkpt>
      <trkpt lat="47.34" lon="-2.40886">
        <ele>41.400001525879</ele>
        <time>2022-01-13T09:21:31.000Z</time>
      </trkpt>
      <trkpt lat="47.34015" lon="-2.40867">
        <ele>41.400001525879</ele>
        <time>2022-01-13T09:21:34.000Z</time>
      </trkpt>
      <trkpt lat="47.34049" lon="-2.40824">
        <ele>41.400001525879</ele>
        <time>2022-01-13T09:21:41.000Z</time>
      </trkpt>
      <trkpt lat="47.34072" lon="-2.40794">
        <ele>41</ele>
        <time>2022-01-13T09:21:46.000Z</time>
      </trkpt>
      <trkpt lat="47.34076" lon="-2.40789">
        <ele>40.400001525879</ele>
        <time>2022-01-13T09:21:47.000Z</time>
      </trkpt>
      <trkpt lat="47.34079" lon="-2.40784">
        <ele>40</ele>
        <time>2022-01-13T09:21:48.000Z</time>
      </trkpt>
      <trkpt lat="47.34083" lon="-2.4078">
        <ele>39.599998474121</ele>
        <time>2022-01-13T09:21:49.000Z</time>
      </trkpt>
      <trkpt lat="47.34086" lon="-2.40776">
        <ele>39.200000762939</ele>
        <time>2022-01-13T09:21:50.000Z</time>
      </trkpt>
      <trkpt lat="47.34096" lon="-2.4077">
        <ele>39.200000762939</ele>
        <time>2022-01-13T09:21:53.000Z</time>
      </trkpt>
      <trkpt lat="47.34106" lon="-2.40771">
        <ele>39.200000762939</ele>
        <time>2022-01-13T09:21:58.000Z</time>
      </trkpt>
      <trkpt lat="47.34112" lon="-2.40772">
        <ele>39.200000762939</ele>
        <time>2022-01-13T09:22:03.000Z</time>
      </trkpt>
      <trkpt lat="47.34113" lon="-2.40772">
        <ele>39.200000762939</ele>
        <time>2022-01-13T09:22:04.000Z</time>
      </trkpt>
      <trkpt lat="47.34112" lon="-2.4077">
        <ele>39.200000762939</ele>
        <time>2022-01-13T09:25:49.000Z</time>
      </trkpt>
      <trkpt lat="47.34112" lon="-2.40765">
        <ele>39.200000762939</ele>
        <time>2022-01-13T09:25:51.000Z</time>
      </trkpt>
      <trkpt lat="47.3411" lon="-2.40751">
        <ele>39.200000762939</ele>
        <time>2022-01-13T09:25:56.000Z</time>
      </trkpt>
      <trkpt lat="47.3411" lon="-2.40748">
        <ele>39.200000762939</ele>
        <time>2022-01-13T09:25:57.000Z</time>
      </trkpt>
      <trkpt lat="47.34112" lon="-2.4074">
        <ele>39.200000762939</ele>
        <time>2022-01-13T09:26:02.000Z</time>
      </trkpt>
      <trkpt lat="47.34114" lon="-2.40726">
        <ele>39.200000762939</ele>
        <time>2022-01-13T09:26:07.000Z</time>
      </trkpt>
      <trkpt lat="47.34122" lon="-2.40704">
        <ele>39.200000762939</ele>
        <time>2022-01-13T09:26:12.000Z</time>
      </trkpt>
      <trkpt lat="47.34134" lon="-2.40687">
        <ele>38.799999237061</ele>
        <time>2022-01-13T09:26:16.000Z</time>
      </trkpt>
      <trkpt lat="47.34137" lon="-2.40683">
        <ele>38.400001525879</ele>
        <time>2022-01-13T09:26:17.000Z</time>
      </trkpt>
      <trkpt lat="47.34141" lon="-2.40678">
        <ele>38</ele>
        <time>2022-01-13T09:26:18.000Z</time>
      </trkpt>
      <trkpt lat="47.34144" lon="-2.40672">
        <ele>37.599998474121</ele>
        <time>2022-01-13T09:26:19.000Z</time>
      </trkpt>
      <trkpt lat="47.34148" lon="-2.40667">
        <ele>37.200000762939</ele>
        <time>2022-01-13T09:26:20.000Z</time>
      </trkpt>
      <trkpt lat="47.34167" lon="-2.40635">
        <ele>37.200000762939</ele>
        <time>2022-01-13T09:26:25.000Z</time>
      </trkpt>
      <trkpt lat="47.34194" lon="-2.4059">
        <ele>37.200000762939</ele>
        <time>2022-01-13T09:26:32.000Z</time>
      </trkpt>
      <trkpt lat="47.3422" lon="-2.40541">
        <ele>37.200000762939</ele>
        <time>2022-01-13T09:26:40.000Z</time>
      </trkpt>
      <trkpt lat="47.34244" lon="-2.40499">
        <ele>37.200000762939</ele>
        <time>2022-01-13T09:26:47.000Z</time>
      </trkpt>
      <trkpt lat="47.3427" lon="-2.40451">
        <ele>37.200000762939</ele>
        <time>2022-01-13T09:26:54.000Z</time>
      </trkpt>
      <trkpt lat="47.34277" lon="-2.40437">
        <ele>37.599998474121</ele>
        <time>2022-01-13T09:26:56.000Z</time>
      </trkpt>
      <trkpt lat="47.3428" lon="-2.40431">
        <ele>38</ele>
        <time>2022-01-13T09:26:57.000Z</time>
      </trkpt>
      <trkpt lat="47.34283" lon="-2.40425">
        <ele>38.599998474121</ele>
        <time>2022-01-13T09:26:58.000Z</time>
      </trkpt>
      <trkpt lat="47.34287" lon="-2.40418">
        <ele>39</ele>
        <time>2022-01-13T09:26:59.000Z</time>
      </trkpt>
      <trkpt lat="47.34291" lon="-2.40411">
        <ele>39.400001525879</ele>
        <time>2022-01-13T09:27:00.000Z</time>
      </trkpt>
      <trkpt lat="47.34294" lon="-2.40405">
        <ele>39.400001525879</ele>
        <time>2022-01-13T09:27:01.000Z</time>
      </trkpt>
      <trkpt lat="47.34329" lon="-2.40346">
        <ele>39.799999237061</ele>
        <time>2022-01-13T09:27:11.000Z</time>
      </trkpt>
      <trkpt lat="47.34332" lon="-2.4034">
        <ele>40.200000762939</ele>
        <time>2022-01-13T09:27:12.000Z</time>
      </trkpt>
      <trkpt lat="47.34336" lon="-2.40335">
        <ele>40.599998474121</ele>
        <time>2022-01-13T09:27:13.000Z</time>
      </trkpt>
      <trkpt lat="47.3434" lon="-2.40329">
        <ele>41</ele>
        <time>2022-01-13T09:27:14.000Z</time>
      </trkpt>
      <trkpt lat="47.34343" lon="-2.40323">
        <ele>41.599998474121</ele>
        <time>2022-01-13T09:27:15.000Z</time>
      </trkpt>
      <trkpt lat="47.34363" lon="-2.40297">
        <ele>41.599998474121</ele>
        <time>2022-01-13T09:27:20.000Z</time>
      </trkpt>
      <trkpt lat="47.34394" lon="-2.40251">
        <ele>41.599998474121</ele>
        <time>2022-01-13T09:27:28.000Z</time>
      </trkpt>
      <trkpt lat="47.34437" lon="-2.40192">
        <ele>41.599998474121</ele>
        <time>2022-01-13T09:27:38.000Z</time>
      </trkpt>
      <trkpt lat="47.3447" lon="-2.40146">
        <ele>41.599998474121</ele>
        <time>2022-01-13T09:27:46.000Z</time>
      </trkpt>
      <trkpt lat="47.34478" lon="-2.40134">
        <ele>41</ele>
        <time>2022-01-13T09:27:48.000Z</time>
      </trkpt>
      <trkpt lat="47.34482" lon="-2.40128">
        <ele>40.599998474121</ele>
        <time>2022-01-13T09:27:49.000Z</time>
      </trkpt>
      <trkpt lat="47.34487" lon="-2.40122">
        <ele>40.200000762939</ele>
        <time>2022-01-13T09:27:50.000Z</time>
      </trkpt>
      <trkpt lat="47.34491" lon="-2.40116">
        <ele>39.799999237061</ele>
        <time>2022-01-13T09:27:51.000Z</time>
      </trkpt>
      <trkpt lat="47.34495" lon="-2.4011">
        <ele>39.400001525879</ele>
        <time>2022-01-13T09:27:52.000Z</time>
      </trkpt>
      <trkpt lat="47.34503" lon="-2.40097">
        <ele>39.400001525879</ele>
        <time>2022-01-13T09:27:54.000Z</time>
      </trkpt>
      <trkpt lat="47.34533" lon="-2.40051">
        <ele>39.400001525879</ele>
        <time>2022-01-13T09:28:02.000Z</time>
      </trkpt>
      <trkpt lat="47.3456" lon="-2.40012">
        <ele>39.400001525879</ele>
        <time>2022-01-13T09:28:09.000Z</time>
      </trkpt>
      <trkpt lat="47.34576" lon="-2.39991">
        <ele>39.400001525879</ele>
        <time>2022-01-13T09:28:13.000Z</time>
      </trkpt>
      <trkpt lat="47.34581" lon="-2.39989">
        <ele>39.400001525879</ele>
        <time>2022-01-13T09:28:14.000Z</time>
      </trkpt>
      <trkpt lat="47.34595" lon="-2.39998">
        <ele>39.400001525879</ele>
        <time>2022-01-13T09:28:17.000Z</time>
      </trkpt>
      <trkpt lat="47.34606" lon="-2.40017">
        <ele>39.400001525879</ele>
        <time>2022-01-13T09:28:20.000Z</time>
      </trkpt>
      <trkpt lat="47.3461" lon="-2.40023">
        <ele>39.400001525879</ele>
        <time>2022-01-13T09:28:21.000Z</time>
      </trkpt>
      <trkpt lat="47.3464" lon="-2.40074">
        <ele>39.400001525879</ele>
        <time>2022-01-13T09:28:29.000Z</time>
      </trkpt>
      <trkpt lat="47.34651" lon="-2.40092">
        <ele>39</ele>
        <time>2022-01-13T09:28:32.000Z</time>
      </trkpt>
      <trkpt lat="47.34655" lon="-2.40099">
        <ele>38.599998474121</ele>
        <time>2022-01-13T09:28:33.000Z</time>
      </trkpt>
      <trkpt lat="47.3466" lon="-2.40105">
        <ele>38.200000762939</ele>
        <time>2022-01-13T09:28:34.000Z</time>
      </trkpt>
      <trkpt lat="47.34664" lon="-2.4011">
        <ele>37.799999237061</ele>
        <time>2022-01-13T09:28:35.000Z</time>
      </trkpt>
      <trkpt lat="47.34669" lon="-2.40115">
        <ele>37.400001525879</ele>
        <time>2022-01-13T09:28:36.000Z</time>
      </trkpt>
      <trkpt lat="47.34685" lon="-2.40123">
        <ele>37.400001525879</ele>
        <time>2022-01-13T09:28:39.000Z</time>
      </trkpt>
      <trkpt lat="47.34697" lon="-2.40126">
        <ele>37.400001525879</ele>
        <time>2022-01-13T09:28:41.000Z</time>
      </trkpt>
      <trkpt lat="47.34719" lon="-2.40132">
        <ele>37.400001525879</ele>
        <time>2022-01-13T09:28:45.000Z</time>
      </trkpt>
      <trkpt lat="47.34729" lon="-2.40138">
        <ele>37.400001525879</ele>
        <time>2022-01-13T09:28:47.000Z</time>
      </trkpt>
      <trkpt lat="47.34742" lon="-2.40152">
        <ele>37.400001525879</ele>
        <time>2022-01-13T09:28:50.000Z</time>
      </trkpt>
      <trkpt lat="47.34746" lon="-2.40157">
        <ele>37.400001525879</ele>
        <time>2022-01-13T09:28:51.000Z</time>
      </trkpt>
      <trkpt lat="47.34762" lon="-2.40179">
        <ele>37.400001525879</ele>
        <time>2022-01-13T09:28:56.000Z</time>
      </trkpt>
      <trkpt lat="47.34777" lon="-2.40202">
        <ele>37.400001525879</ele>
        <time>2022-01-13T09:29:02.000Z</time>
      </trkpt>
      <trkpt lat="47.34791" lon="-2.40216">
        <ele>37.400001525879</ele>
        <time>2022-01-13T09:29:09.000Z</time>
      </trkpt>
      <trkpt lat="47.34801" lon="-2.40224">
        <ele>37.400001525879</ele>
        <time>2022-01-13T09:29:12.000Z</time>
      </trkpt>
      <trkpt lat="47.34808" lon="-2.40234">
        <ele>37</ele>
        <time>2022-01-13T09:29:14.000Z</time>
      </trkpt>
      <trkpt lat="47.34811" lon="-2.40239">
        <ele>36.599998474121</ele>
        <time>2022-01-13T09:29:15.000Z</time>
      </trkpt>
      <trkpt lat="47.34814" lon="-2.40245">
        <ele>36</ele>
        <time>2022-01-13T09:29:16.000Z</time>
      </trkpt>
      <trkpt lat="47.34816" lon="-2.40251">
        <ele>35.599998474121</ele>
        <time>2022-01-13T09:29:17.000Z</time>
      </trkpt>
      <trkpt lat="47.34819" lon="-2.40258">
        <ele>35.200000762939</ele>
        <time>2022-01-13T09:29:18.000Z</time>
      </trkpt>
      <trkpt lat="47.34826" lon="-2.40272">
        <ele>35.200000762939</ele>
        <time>2022-01-13T09:29:20.000Z</time>
      </trkpt>
      <trkpt lat="47.34849" lon="-2.40319">
        <ele>35.200000762939</ele>
        <time>2022-01-13T09:29:27.000Z</time>
      </trkpt>
      <trkpt lat="47.34852" lon="-2.40327">
        <ele>35.200000762939</ele>
        <time>2022-01-13T09:29:28.000Z</time>
      </trkpt>
      <trkpt lat="47.34857" lon="-2.40342">
        <ele>35.200000762939</ele>
        <time>2022-01-13T09:29:30.000Z</time>
      </trkpt>
      <trkpt lat="47.34861" lon="-2.40359">
        <ele>35.200000762939</ele>
        <time>2022-01-13T09:29:32.000Z</time>
      </trkpt>
      <trkpt lat="47.34864" lon="-2.40377">
        <ele>34.799999237061</ele>
        <time>2022-01-13T09:29:34.000Z</time>
      </trkpt>
      <trkpt lat="47.34866" lon="-2.40387">
        <ele>34.400001525879</ele>
        <time>2022-01-13T09:29:35.000Z</time>
      </trkpt>
      <trkpt lat="47.34867" lon="-2.40396">
        <ele>34</ele>
        <time>2022-01-13T09:29:36.000Z</time>
      </trkpt>
      <trkpt lat="47.34868" lon="-2.40405">
        <ele>33.599998474121</ele>
        <time>2022-01-13T09:29:37.000Z</time>
      </trkpt>
      <trkpt lat="47.3487" lon="-2.40414">
        <ele>33.200000762939</ele>
        <time>2022-01-13T09:29:38.000Z</time>
      </trkpt>
      <trkpt lat="47.34877" lon="-2.40462">
        <ele>33.200000762939</ele>
        <time>2022-01-13T09:29:43.000Z</time>
      </trkpt>
      <trkpt lat="47.34882" lon="-2.40494">
        <ele>32.799999237061</ele>
        <time>2022-01-13T09:29:46.000Z</time>
      </trkpt>
      <trkpt lat="47.34883" lon="-2.40505">
        <ele>32.400001525879</ele>
        <time>2022-01-13T09:29:47.000Z</time>
      </trkpt>
      <trkpt lat="47.34884" lon="-2.40515">
        <ele>31.799999237061</ele>
        <time>2022-01-13T09:29:48.000Z</time>
      </trkpt>
      <trkpt lat="47.34885" lon="-2.40526">
        <ele>31.39999961853</ele>
        <time>2022-01-13T09:29:49.000Z</time>
      </trkpt>
      <trkpt lat="47.34885" lon="-2.40535">
        <ele>31</ele>
        <time>2022-01-13T09:29:50.000Z</time>
      </trkpt>
      <trkpt lat="47.34884" lon="-2.40554">
        <ele>31</ele>
        <time>2022-01-13T09:29:52.000Z</time>
      </trkpt>
      <trkpt lat="47.34881" lon="-2.40562">
        <ele>31</ele>
        <time>2022-01-13T09:29:53.000Z</time>
      </trkpt>
      <trkpt lat="47.34862" lon="-2.40587">
        <ele>31</ele>
        <time>2022-01-13T09:29:57.000Z</time>
      </trkpt>
      <trkpt lat="47.34839" lon="-2.40615">
        <ele>31</ele>
        <time>2022-01-13T09:30:02.000Z</time>
      </trkpt>
      <trkpt lat="47.34836" lon="-2.40623">
        <ele>31</ele>
        <time>2022-01-13T09:30:03.000Z</time>
      </trkpt>
      <trkpt lat="47.3483" lon="-2.40649">
        <ele>31</ele>
        <time>2022-01-13T09:30:06.000Z</time>
      </trkpt>
      <trkpt lat="47.34826" lon="-2.40666">
        <ele>31</ele>
        <time>2022-01-13T09:30:08.000Z</time>
      </trkpt>
      <trkpt lat="47.34821" lon="-2.40711">
        <ele>31</ele>
        <time>2022-01-13T09:30:14.000Z</time>
      </trkpt>
      <trkpt lat="47.34821" lon="-2.40718">
        <ele>31</ele>
        <time>2022-01-13T09:30:15.000Z</time>
      </trkpt>
      <trkpt lat="47.34824" lon="-2.40746">
        <ele>31</ele>
        <time>2022-01-13T09:30:19.000Z</time>
      </trkpt>
      <trkpt lat="47.34835" lon="-2.40779">
        <ele>31</ele>
        <time>2022-01-13T09:30:25.000Z</time>
      </trkpt>
      <trkpt lat="47.34838" lon="-2.40784">
        <ele>31</ele>
        <time>2022-01-13T09:30:27.000Z</time>
      </trkpt>
      <trkpt lat="47.34838" lon="-2.40786">
        <ele>31</ele>
        <time>2022-01-13T09:30:29.000Z</time>
      </trkpt>
      <trkpt lat="47.34838" lon="-2.40788">
        <ele>31</ele>
        <time>2022-01-13T09:30:30.000Z</time>
      </trkpt>
      <trkpt lat="47.34837" lon="-2.40789">
        <ele>31</ele>
        <time>2022-01-13T09:30:32.000Z</time>
      </trkpt>
      <trkpt lat="47.34836" lon="-2.40787">
        <ele>31</ele>
        <time>2022-01-13T09:30:33.000Z</time>
      </trkpt>
      <trkpt lat="47.34841" lon="-2.40777">
        <ele>31</ele>
        <time>2022-01-13T09:30:37.000Z</time>
      </trkpt>
      <trkpt lat="47.34848" lon="-2.40775">
        <ele>31</ele>
        <time>2022-01-13T09:30:39.000Z</time>
      </trkpt>
      <trkpt lat="47.34853" lon="-2.40774">
        <ele>31</ele>
        <time>2022-01-13T09:30:40.000Z</time>
      </trkpt>
      <trkpt lat="47.34858" lon="-2.40774">
        <ele>31</ele>
        <time>2022-01-13T09:30:41.000Z</time>
      </trkpt>
      <trkpt lat="47.34872" lon="-2.40774">
        <ele>31.39999961853</ele>
        <time>2022-01-13T09:30:44.000Z</time>
      </trkpt>
      <trkpt lat="47.34877" lon="-2.40774">
        <ele>31.799999237061</ele>
        <time>2022-01-13T09:30:45.000Z</time>
      </trkpt>
      <trkpt lat="47.34882" lon="-2.40775">
        <ele>32.200000762939</ele>
        <time>2022-01-13T09:30:46.000Z</time>
      </trkpt>
      <trkpt lat="47.34886" lon="-2.40776">
        <ele>32.599998474121</ele>
        <time>2022-01-13T09:30:47.000Z</time>
      </trkpt>
      <trkpt lat="47.3489" lon="-2.4078">
        <ele>33</ele>
        <time>2022-01-13T09:30:48.000Z</time>
      </trkpt>
      <trkpt lat="47.34898" lon="-2.4079">
        <ele>33</ele>
        <time>2022-01-13T09:30:50.000Z</time>
      </trkpt>
      <trkpt lat="47.34905" lon="-2.40802">
        <ele>33</ele>
        <time>2022-01-13T09:30:52.000Z</time>
      </trkpt>
      <trkpt lat="47.34919" lon="-2.40828">
        <ele>33</ele>
        <time>2022-01-13T09:30:56.000Z</time>
      </trkpt>
      <trkpt lat="47.34934" lon="-2.40856">
        <ele>33</ele>
        <time>2022-01-13T09:31:01.000Z</time>
      </trkpt>
      <trkpt lat="47.34937" lon="-2.40862">
        <ele>33</ele>
        <time>2022-01-13T09:31:02.000Z</time>
      </trkpt>
      <trkpt lat="47.34945" lon="-2.40888">
        <ele>33</ele>
        <time>2022-01-13T09:31:06.000Z</time>
      </trkpt>
      <trkpt lat="47.34946" lon="-2.40895">
        <ele>33</ele>
        <time>2022-01-13T09:31:07.000Z</time>
      </trkpt>
      <trkpt lat="47.34946" lon="-2.40918">
        <ele>33</ele>
        <time>2022-01-13T09:31:10.000Z</time>
      </trkpt>
      <trkpt lat="47.34944" lon="-2.40934">
        <ele>33</ele>
        <time>2022-01-13T09:31:12.000Z</time>
      </trkpt>
      <trkpt lat="47.34941" lon="-2.4098">
        <ele>33</ele>
        <time>2022-01-13T09:31:18.000Z</time>
      </trkpt>
      <trkpt lat="47.34938" lon="-2.40994">
        <ele>33</ele>
        <time>2022-01-13T09:31:20.000Z</time>
      </trkpt>
      <trkpt lat="47.34936" lon="-2.41013">
        <ele>33</ele>
        <time>2022-01-13T09:31:23.000Z</time>
      </trkpt>
      <trkpt lat="47.34931" lon="-2.41054">
        <ele>33</ele>
        <time>2022-01-13T09:31:29.000Z</time>
      </trkpt>
      <trkpt lat="47.34938" lon="-2.41083">
        <ele>33</ele>
        <time>2022-01-13T09:31:33.000Z</time>
      </trkpt>
      <trkpt lat="47.3494" lon="-2.4109">
        <ele>33</ele>
        <time>2022-01-13T09:31:34.000Z</time>
      </trkpt>
      <trkpt lat="47.34957" lon="-2.41123">
        <ele>33</ele>
        <time>2022-01-13T09:31:38.000Z</time>
      </trkpt>
      <trkpt lat="47.34976" lon="-2.4116">
        <ele>33</ele>
        <time>2022-01-13T09:31:43.000Z</time>
      </trkpt>
      <trkpt lat="47.3498" lon="-2.41166">
        <ele>33</ele>
        <time>2022-01-13T09:31:44.000Z</time>
      </trkpt>
      <trkpt lat="47.34983" lon="-2.41173">
        <ele>33</ele>
        <time>2022-01-13T09:31:45.000Z</time>
      </trkpt>
      <trkpt lat="47.34994" lon="-2.41201">
        <ele>33</ele>
        <time>2022-01-13T09:31:49.000Z</time>
      </trkpt>
      <trkpt lat="47.35009" lon="-2.41236">
        <ele>33</ele>
        <time>2022-01-13T09:31:54.000Z</time>
      </trkpt>
      <trkpt lat="47.3503" lon="-2.41283">
        <ele>33</ele>
        <time>2022-01-13T09:32:01.000Z</time>
      </trkpt>
      <trkpt lat="47.35045" lon="-2.4132">
        <ele>33</ele>
        <time>2022-01-13T09:32:07.000Z</time>
      </trkpt>
      <trkpt lat="47.35061" lon="-2.41358">
        <ele>33</ele>
        <time>2022-01-13T09:32:12.000Z</time>
      </trkpt>
      <trkpt lat="47.35076" lon="-2.41388">
        <ele>32.599998474121</ele>
        <time>2022-01-13T09:32:16.000Z</time>
      </trkpt>
      <trkpt lat="47.35079" lon="-2.41394">
        <ele>32.200000762939</ele>
        <time>2022-01-13T09:32:17.000Z</time>
      </trkpt>
      <trkpt lat="47.35083" lon="-2.41398">
        <ele>31.799999237061</ele>
        <time>2022-01-13T09:32:18.000Z</time>
      </trkpt>
      <trkpt lat="47.35088" lon="-2.41399">
        <ele>31.39999961853</ele>
        <time>2022-01-13T09:32:19.000Z</time>
      </trkpt>
      <trkpt lat="47.35092" lon="-2.41397">
        <ele>30.799999237061</ele>
        <time>2022-01-13T09:32:20.000Z</time>
      </trkpt>
      <trkpt lat="47.35096" lon="-2.41395">
        <ele>30.799999237061</ele>
        <time>2022-01-13T09:32:21.000Z</time>
      </trkpt>
      <trkpt lat="47.35129" lon="-2.41378">
        <ele>30.799999237061</ele>
        <time>2022-01-13T09:32:28.000Z</time>
      </trkpt>
      <trkpt lat="47.35161" lon="-2.41359">
        <ele>30.799999237061</ele>
        <time>2022-01-13T09:32:34.000Z</time>
      </trkpt>
      <trkpt lat="47.35172" lon="-2.41356">
        <ele>30.799999237061</ele>
        <time>2022-01-13T09:32:36.000Z</time>
      </trkpt>
      <trkpt lat="47.35187" lon="-2.4136">
        <ele>30.799999237061</ele>
        <time>2022-01-13T09:32:39.000Z</time>
      </trkpt>
      <trkpt lat="47.35199" lon="-2.41374">
        <ele>30.799999237061</ele>
        <time>2022-01-13T09:32:42.000Z</time>
      </trkpt>
      <trkpt lat="47.35203" lon="-2.4138">
        <ele>30.799999237061</ele>
        <time>2022-01-13T09:32:43.000Z</time>
      </trkpt>
      <trkpt lat="47.35227" lon="-2.41416">
        <ele>30.799999237061</ele>
        <time>2022-01-13T09:32:50.000Z</time>
      </trkpt>
      <trkpt lat="47.35245" lon="-2.41442">
        <ele>30.799999237061</ele>
        <time>2022-01-13T09:32:55.000Z</time>
      </trkpt>
      <trkpt lat="47.35248" lon="-2.41445">
        <ele>30.799999237061</ele>
        <time>2022-01-13T09:32:56.000Z</time>
      </trkpt>
      <trkpt lat="47.35252" lon="-2.41449">
        <ele>30.799999237061</ele>
        <time>2022-01-13T09:32:57.000Z</time>
      </trkpt>
      <trkpt lat="47.35267" lon="-2.41449">
        <ele>30.799999237061</ele>
        <time>2022-01-13T09:33:00.000Z</time>
      </trkpt>
      <trkpt lat="47.35285" lon="-2.41435">
        <ele>30.799999237061</ele>
        <time>2022-01-13T09:33:04.000Z</time>
      </trkpt>
      <trkpt lat="47.3529" lon="-2.41431">
        <ele>30.799999237061</ele>
        <time>2022-01-13T09:33:05.000Z</time>
      </trkpt>
      <trkpt lat="47.35307" lon="-2.41411">
        <ele>30.799999237061</ele>
        <time>2022-01-13T09:33:09.000Z</time>
      </trkpt>
      <trkpt lat="47.35313" lon="-2.41398">
        <ele>30.799999237061</ele>
        <time>2022-01-13T09:33:11.000Z</time>
      </trkpt>
      <trkpt lat="47.35338" lon="-2.41354">
        <ele>30.799999237061</ele>
        <time>2022-01-13T09:33:18.000Z</time>
      </trkpt>
      <trkpt lat="47.35363" lon="-2.41318">
        <ele>30.799999237061</ele>
        <time>2022-01-13T09:33:24.000Z</time>
      </trkpt>
      <trkpt lat="47.35386" lon="-2.41287">
        <ele>30.799999237061</ele>
        <time>2022-01-13T09:33:30.000Z</time>
      </trkpt>
      <trkpt lat="47.35405" lon="-2.41274">
        <ele>30.799999237061</ele>
        <time>2022-01-13T09:33:34.000Z</time>
      </trkpt>
      <trkpt lat="47.3541" lon="-2.4127">
        <ele>30.799999237061</ele>
        <time>2022-01-13T09:33:35.000Z</time>
      </trkpt>
      <trkpt lat="47.35423" lon="-2.41259">
        <ele>30.799999237061</ele>
        <time>2022-01-13T09:33:38.000Z</time>
      </trkpt>
      <trkpt lat="47.35434" lon="-2.41243">
        <ele>30.799999237061</ele>
        <time>2022-01-13T09:33:41.000Z</time>
      </trkpt>
      <trkpt lat="47.3545" lon="-2.41216">
        <ele>30.799999237061</ele>
        <time>2022-01-13T09:33:46.000Z</time>
      </trkpt>
      <trkpt lat="47.35459" lon="-2.41207">
        <ele>30.799999237061</ele>
        <time>2022-01-13T09:33:48.000Z</time>
      </trkpt>
      <trkpt lat="47.35486" lon="-2.41186">
        <ele>30.799999237061</ele>
        <time>2022-01-13T09:33:54.000Z</time>
      </trkpt>
      <trkpt lat="47.35511" lon="-2.41164">
        <ele>30.799999237061</ele>
        <time>2022-01-13T09:34:00.000Z</time>
      </trkpt>
      <trkpt lat="47.35543" lon="-2.41142">
        <ele>30.799999237061</ele>
        <time>2022-01-13T09:34:07.000Z</time>
      </trkpt>
      <trkpt lat="47.35572" lon="-2.41121">
        <ele>30.799999237061</ele>
        <time>2022-01-13T09:34:13.000Z</time>
      </trkpt>
      <trkpt lat="47.35603" lon="-2.41087">
        <ele>30.799999237061</ele>
        <time>2022-01-13T09:34:20.000Z</time>
      </trkpt>
      <trkpt lat="47.35634" lon="-2.41054">
        <ele>30.799999237061</ele>
        <time>2022-01-13T09:34:27.000Z</time>
      </trkpt>
      <trkpt lat="47.35657" lon="-2.41022">
        <ele>30.799999237061</ele>
        <time>2022-01-13T09:34:33.000Z</time>
      </trkpt>
      <trkpt lat="47.35675" lon="-2.40994">
        <ele>30.799999237061</ele>
        <time>2022-01-13T09:34:38.000Z</time>
      </trkpt>
      <trkpt lat="47.35691" lon="-2.40968">
        <ele>30.799999237061</ele>
        <time>2022-01-13T09:34:44.000Z</time>
      </trkpt>
      <trkpt lat="47.35705" lon="-2.40947">
        <ele>30.799999237061</ele>
        <time>2022-01-13T09:34:49.000Z</time>
      </trkpt>
      <trkpt lat="47.35727" lon="-2.40915">
        <ele>30.799999237061</ele>
        <time>2022-01-13T09:34:56.000Z</time>
      </trkpt>
      <trkpt lat="47.35746" lon="-2.40886">
        <ele>30.799999237061</ele>
        <time>2022-01-13T09:35:02.000Z</time>
      </trkpt>
      <trkpt lat="47.35766" lon="-2.40855">
        <ele>30.799999237061</ele>
        <time>2022-01-13T09:35:08.000Z</time>
      </trkpt>
      <trkpt lat="47.35794" lon="-2.40816">
        <ele>30.799999237061</ele>
        <time>2022-01-13T09:35:15.000Z</time>
      </trkpt>
      <trkpt lat="47.35827" lon="-2.40767">
        <ele>30.799999237061</ele>
        <time>2022-01-13T09:35:24.000Z</time>
      </trkpt>
      <trkpt lat="47.35853" lon="-2.40729">
        <ele>30.799999237061</ele>
        <time>2022-01-13T09:35:31.000Z</time>
      </trkpt>
      <trkpt lat="47.35857" lon="-2.40697">
        <ele>30.799999237061</ele>
        <time>2022-01-13T09:35:35.000Z</time>
      </trkpt>
      <trkpt lat="47.3586" lon="-2.40682">
        <ele>30.799999237061</ele>
        <time>2022-01-13T09:35:37.000Z</time>
      </trkpt>
      <trkpt lat="47.35868" lon="-2.40662">
        <ele>30.799999237061</ele>
        <time>2022-01-13T09:35:40.000Z</time>
      </trkpt>
      <trkpt lat="47.3588" lon="-2.40639">
        <ele>30.799999237061</ele>
        <time>2022-01-13T09:35:44.000Z</time>
      </trkpt>
      <trkpt lat="47.35887" lon="-2.40628">
        <ele>30.799999237061</ele>
        <time>2022-01-13T09:35:46.000Z</time>
      </trkpt>
      <trkpt lat="47.35909" lon="-2.40591">
        <ele>30.799999237061</ele>
        <time>2022-01-13T09:35:53.000Z</time>
      </trkpt>
      <trkpt lat="47.35932" lon="-2.40557">
        <ele>30.799999237061</ele>
        <time>2022-01-13T09:36:00.000Z</time>
      </trkpt>
      <trkpt lat="47.35964" lon="-2.40514">
        <ele>30.799999237061</ele>
        <time>2022-01-13T09:36:09.000Z</time>
      </trkpt>
      <trkpt lat="47.35987" lon="-2.40481">
        <ele>30.799999237061</ele>
        <time>2022-01-13T09:36:16.000Z</time>
      </trkpt>
      <trkpt lat="47.36011" lon="-2.40451">
        <ele>30.799999237061</ele>
        <time>2022-01-13T09:36:23.000Z</time>
      </trkpt>
      <trkpt lat="47.36017" lon="-2.40441">
        <ele>30.799999237061</ele>
        <time>2022-01-13T09:36:25.000Z</time>
      </trkpt>
      <trkpt lat="47.36023" lon="-2.4042">
        <ele>30.799999237061</ele>
        <time>2022-01-13T09:36:28.000Z</time>
      </trkpt>
      <trkpt lat="47.36024" lon="-2.40404">
        <ele>30.799999237061</ele>
        <time>2022-01-13T09:36:30.000Z</time>
      </trkpt>
      <trkpt lat="47.36025" lon="-2.40373">
        <ele>30.799999237061</ele>
        <time>2022-01-13T09:36:34.000Z</time>
      </trkpt>
      <trkpt lat="47.36032" lon="-2.40329">
        <ele>30.799999237061</ele>
        <time>2022-01-13T09:36:40.000Z</time>
      </trkpt>
      <trkpt lat="47.36043" lon="-2.40309">
        <ele>30.799999237061</ele>
        <time>2022-01-13T09:36:44.000Z</time>
      </trkpt>
      <trkpt lat="47.36061" lon="-2.40289">
        <ele>30.799999237061</ele>
        <time>2022-01-13T09:36:49.000Z</time>
      </trkpt>
      <trkpt lat="47.36091" lon="-2.40265">
        <ele>30.799999237061</ele>
        <time>2022-01-13T09:36:56.000Z</time>
      </trkpt>
      <trkpt lat="47.36121" lon="-2.40242">
        <ele>30.799999237061</ele>
        <time>2022-01-13T09:37:03.000Z</time>
      </trkpt>
      <trkpt lat="47.3615" lon="-2.4022">
        <ele>30.799999237061</ele>
        <time>2022-01-13T09:37:10.000Z</time>
      </trkpt>
      <trkpt lat="47.36167" lon="-2.40206">
        <ele>30.799999237061</ele>
        <time>2022-01-13T09:37:14.000Z</time>
      </trkpt>
      <trkpt lat="47.36172" lon="-2.40203">
        <ele>30.799999237061</ele>
        <time>2022-01-13T09:37:15.000Z</time>
      </trkpt>
      <trkpt lat="47.36199" lon="-2.40178">
        <ele>30.799999237061</ele>
        <time>2022-01-13T09:37:21.000Z</time>
      </trkpt>
      <trkpt lat="47.36235" lon="-2.40144">
        <ele>30.799999237061</ele>
        <time>2022-01-13T09:37:29.000Z</time>
      </trkpt>
      <trkpt lat="47.36262" lon="-2.40124">
        <ele>30.799999237061</ele>
        <time>2022-01-13T09:37:35.000Z</time>
      </trkpt>
      <trkpt lat="47.36267" lon="-2.40123">
        <ele>30.39999961853</ele>
        <time>2022-01-13T09:37:36.000Z</time>
      </trkpt>
      <trkpt lat="47.36272" lon="-2.40122">
        <ele>30</ele>
        <time>2022-01-13T09:37:37.000Z</time>
      </trkpt>
      <trkpt lat="47.36277" lon="-2.40121">
        <ele>29.60000038147</ele>
        <time>2022-01-13T09:37:38.000Z</time>
      </trkpt>
      <trkpt lat="47.36282" lon="-2.40119">
        <ele>29.200000762939</ele>
        <time>2022-01-13T09:37:39.000Z</time>
      </trkpt>
      <trkpt lat="47.36287" lon="-2.40117">
        <ele>28.799999237061</ele>
        <time>2022-01-13T09:37:40.000Z</time>
      </trkpt>
      <trkpt lat="47.36292" lon="-2.40114">
        <ele>28.799999237061</ele>
        <time>2022-01-13T09:37:41.000Z</time>
      </trkpt>
      <trkpt lat="47.36326" lon="-2.40101">
        <ele>28.799999237061</ele>
        <time>2022-01-13T09:37:48.000Z</time>
      </trkpt>
      <trkpt lat="47.36362" lon="-2.40085">
        <ele>28.799999237061</ele>
        <time>2022-01-13T09:37:56.000Z</time>
      </trkpt>
      <trkpt lat="47.36396" lon="-2.40075">
        <ele>28.799999237061</ele>
        <time>2022-01-13T09:38:03.000Z</time>
      </trkpt>
      <trkpt lat="47.36431" lon="-2.40065">
        <ele>28.799999237061</ele>
        <time>2022-01-13T09:38:10.000Z</time>
      </trkpt>
      <trkpt lat="47.36454" lon="-2.40057">
        <ele>28.799999237061</ele>
        <time>2022-01-13T09:38:15.000Z</time>
      </trkpt>
      <trkpt lat="47.36458" lon="-2.40055">
        <ele>28.799999237061</ele>
        <time>2022-01-13T09:38:16.000Z</time>
      </trkpt>
      <trkpt lat="47.36487" lon="-2.40035">
        <ele>28.799999237061</ele>
        <time>2022-01-13T09:38:23.000Z</time>
      </trkpt>
      <trkpt lat="47.36516" lon="-2.40007">
        <ele>28.799999237061</ele>
        <time>2022-01-13T09:38:30.000Z</time>
      </trkpt>
      <trkpt lat="47.36542" lon="-2.3998">
        <ele>28.799999237061</ele>
        <time>2022-01-13T09:38:36.000Z</time>
      </trkpt>
      <trkpt lat="47.36565" lon="-2.39953">
        <ele>28.799999237061</ele>
        <time>2022-01-13T09:38:42.000Z</time>
      </trkpt>
      <trkpt lat="47.36585" lon="-2.39921">
        <ele>28.799999237061</ele>
        <time>2022-01-13T09:38:48.000Z</time>
      </trkpt>
      <trkpt lat="47.36589" lon="-2.3991">
        <ele>28.39999961853</ele>
        <time>2022-01-13T09:38:50.000Z</time>
      </trkpt>
      <trkpt lat="47.36589" lon="-2.39906">
        <ele>28</ele>
        <time>2022-01-13T09:38:51.000Z</time>
      </trkpt>
      <trkpt lat="47.36587" lon="-2.39901">
        <ele>27.60000038147</ele>
        <time>2022-01-13T09:38:52.000Z</time>
      </trkpt>
      <trkpt lat="47.36586" lon="-2.39896">
        <ele>27.200000762939</ele>
        <time>2022-01-13T09:38:53.000Z</time>
      </trkpt>
      <trkpt lat="47.36583" lon="-2.39892">
        <ele>26.799999237061</ele>
        <time>2022-01-13T09:38:54.000Z</time>
      </trkpt>
      <trkpt lat="47.36577" lon="-2.39882">
        <ele>26.799999237061</ele>
        <time>2022-01-13T09:38:56.000Z</time>
      </trkpt>
      <trkpt lat="47.36567" lon="-2.39873">
        <ele>26.799999237061</ele>
        <time>2022-01-13T09:38:59.000Z</time>
      </trkpt>
      <trkpt lat="47.36561" lon="-2.3987">
        <ele>26.799999237061</ele>
        <time>2022-01-13T09:39:00.000Z</time>
      </trkpt>
      <trkpt lat="47.36546" lon="-2.39853">
        <ele>26.799999237061</ele>
        <time>2022-01-13T09:39:04.000Z</time>
      </trkpt>
      <trkpt lat="47.36543" lon="-2.39848">
        <ele>26.799999237061</ele>
        <time>2022-01-13T09:39:05.000Z</time>
      </trkpt>
      <trkpt lat="47.36531" lon="-2.39821">
        <ele>26.799999237061</ele>
        <time>2022-01-13T09:39:10.000Z</time>
      </trkpt>
      <trkpt lat="47.36529" lon="-2.39815">
        <ele>26</ele>
        <time>2022-01-13T09:39:11.000Z</time>
      </trkpt>
      <trkpt lat="47.36527" lon="-2.39809">
        <ele>25.60000038147</ele>
        <time>2022-01-13T09:39:12.000Z</time>
      </trkpt>
      <trkpt lat="47.36525" lon="-2.39803">
        <ele>25.200000762939</ele>
        <time>2022-01-13T09:39:13.000Z</time>
      </trkpt>
      <trkpt lat="47.36523" lon="-2.39795">
        <ele>24.799999237061</ele>
        <time>2022-01-13T09:39:14.000Z</time>
      </trkpt>
      <trkpt lat="47.3652" lon="-2.39789">
        <ele>24.799999237061</ele>
        <time>2022-01-13T09:39:15.000Z</time>
      </trkpt>
      <trkpt lat="47.36503" lon="-2.39772">
        <ele>24.799999237061</ele>
        <time>2022-01-13T09:39:19.000Z</time>
      </trkpt>
      <trkpt lat="47.36487" lon="-2.39763">
        <ele>24.799999237061</ele>
        <time>2022-01-13T09:39:22.000Z</time>
      </trkpt>
      <trkpt lat="47.3648" lon="-2.39751">
        <ele>24.799999237061</ele>
        <time>2022-01-13T09:39:24.000Z</time>
      </trkpt>
      <trkpt lat="47.36475" lon="-2.3974">
        <ele>24.799999237061</ele>
        <time>2022-01-13T09:39:26.000Z</time>
      </trkpt>
      <trkpt lat="47.36473" lon="-2.39733">
        <ele>24.799999237061</ele>
        <time>2022-01-13T09:39:27.000Z</time>
      </trkpt>
      <trkpt lat="47.3647" lon="-2.3972">
        <ele>24.799999237061</ele>
        <time>2022-01-13T09:39:29.000Z</time>
      </trkpt>
      <trkpt lat="47.36465" lon="-2.39706">
        <ele>25.200000762939</ele>
        <time>2022-01-13T09:39:31.000Z</time>
      </trkpt>
      <trkpt lat="47.36463" lon="-2.39699">
        <ele>25.60000038147</ele>
        <time>2022-01-13T09:39:32.000Z</time>
      </trkpt>
      <trkpt lat="47.36461" lon="-2.39692">
        <ele>26</ele>
        <time>2022-01-13T09:39:33.000Z</time>
      </trkpt>
      <trkpt lat="47.36459" lon="-2.39685">
        <ele>26.60000038147</ele>
        <time>2022-01-13T09:39:34.000Z</time>
      </trkpt>
      <trkpt lat="47.36456" lon="-2.39678">
        <ele>27</ele>
        <time>2022-01-13T09:39:35.000Z</time>
      </trkpt>
      <trkpt lat="47.36453" lon="-2.39665">
        <ele>27</ele>
        <time>2022-01-13T09:39:37.000Z</time>
      </trkpt>
      <trkpt lat="47.3645" lon="-2.39652">
        <ele>27</ele>
        <time>2022-01-13T09:39:39.000Z</time>
      </trkpt>
      <trkpt lat="47.36447" lon="-2.39631">
        <ele>27</ele>
        <time>2022-01-13T09:39:42.000Z</time>
      </trkpt>
      <trkpt lat="47.36445" lon="-2.39624">
        <ele>27</ele>
        <time>2022-01-13T09:39:43.000Z</time>
      </trkpt>
      <trkpt lat="47.36425" lon="-2.39575">
        <ele>27</ele>
        <time>2022-01-13T09:39:51.000Z</time>
      </trkpt>
      <trkpt lat="47.3641" lon="-2.39526">
        <ele>27</ele>
        <time>2022-01-13T09:39:58.000Z</time>
      </trkpt>
      <trkpt lat="47.36396" lon="-2.39469">
        <ele>27</ele>
        <time>2022-01-13T09:40:06.000Z</time>
      </trkpt>
      <trkpt lat="47.36384" lon="-2.39413">
        <ele>27</ele>
        <time>2022-01-13T09:40:14.000Z</time>
      </trkpt>
      <trkpt lat="47.36375" lon="-2.39357">
        <ele>27</ele>
        <time>2022-01-13T09:40:22.000Z</time>
      </trkpt>
      <trkpt lat="47.36372" lon="-2.3933">
        <ele>27</ele>
        <time>2022-01-13T09:40:26.000Z</time>
      </trkpt>
      <trkpt lat="47.36374" lon="-2.3931">
        <ele>27</ele>
        <time>2022-01-13T09:40:29.000Z</time>
      </trkpt>
      <trkpt lat="47.36385" lon="-2.3929">
        <ele>27</ele>
        <time>2022-01-13T09:40:33.000Z</time>
      </trkpt>
      <trkpt lat="47.36393" lon="-2.39281">
        <ele>27</ele>
        <time>2022-01-13T09:40:35.000Z</time>
      </trkpt>
      <trkpt lat="47.36405" lon="-2.39267">
        <ele>26.60000038147</ele>
        <time>2022-01-13T09:40:38.000Z</time>
      </trkpt>
      <trkpt lat="47.36409" lon="-2.39262">
        <ele>26.200000762939</ele>
        <time>2022-01-13T09:40:39.000Z</time>
      </trkpt>
      <trkpt lat="47.36414" lon="-2.39258">
        <ele>25.799999237061</ele>
        <time>2022-01-13T09:40:40.000Z</time>
      </trkpt>
      <trkpt lat="47.36418" lon="-2.39253">
        <ele>25.39999961853</ele>
        <time>2022-01-13T09:40:41.000Z</time>
      </trkpt>
      <trkpt lat="47.36423" lon="-2.39248">
        <ele>25</ele>
        <time>2022-01-13T09:40:42.000Z</time>
      </trkpt>
      <trkpt lat="47.36445" lon="-2.39224">
        <ele>25</ele>
        <time>2022-01-13T09:40:47.000Z</time>
      </trkpt>
      <trkpt lat="47.36449" lon="-2.39217">
        <ele>25</ele>
        <time>2022-01-13T09:40:48.000Z</time>
      </trkpt>
      <trkpt lat="47.36469" lon="-2.39184">
        <ele>25</ele>
        <time>2022-01-13T09:40:53.000Z</time>
      </trkpt>
      <trkpt lat="47.36488" lon="-2.39139">
        <ele>25</ele>
        <time>2022-01-13T09:40:59.000Z</time>
      </trkpt>
      <trkpt lat="47.3649" lon="-2.39131">
        <ele>25</ele>
        <time>2022-01-13T09:41:00.000Z</time>
      </trkpt>
      <trkpt lat="47.36499" lon="-2.39079">
        <ele>25</ele>
        <time>2022-01-13T09:41:07.000Z</time>
      </trkpt>
      <trkpt lat="47.36501" lon="-2.39039">
        <ele>25</ele>
        <time>2022-01-13T09:41:13.000Z</time>
      </trkpt>
      <trkpt lat="47.36501" lon="-2.38991">
        <ele>25</ele>
        <time>2022-01-13T09:41:20.000Z</time>
      </trkpt>
      <trkpt lat="47.36506" lon="-2.38934">
        <ele>25</ele>
        <time>2022-01-13T09:41:28.000Z</time>
      </trkpt>
      <trkpt lat="47.3651" lon="-2.38912">
        <ele>25.39999961853</ele>
        <time>2022-01-13T09:41:31.000Z</time>
      </trkpt>
      <trkpt lat="47.36511" lon="-2.38906">
        <ele>25.799999237061</ele>
        <time>2022-01-13T09:41:32.000Z</time>
      </trkpt>
      <trkpt lat="47.36512" lon="-2.38901">
        <ele>26.200000762939</ele>
        <time>2022-01-13T09:41:33.000Z</time>
      </trkpt>
      <trkpt lat="47.36513" lon="-2.38895">
        <ele>26.799999237061</ele>
        <time>2022-01-13T09:41:34.000Z</time>
      </trkpt>
      <trkpt lat="47.36514" lon="-2.3889">
        <ele>27.200000762939</ele>
        <time>2022-01-13T09:41:35.000Z</time>
      </trkpt>
      <trkpt lat="47.36519" lon="-2.38866">
        <ele>27.200000762939</ele>
        <time>2022-01-13T09:41:39.000Z</time>
      </trkpt>
      <trkpt lat="47.36522" lon="-2.38847">
        <ele>27.200000762939</ele>
        <time>2022-01-13T09:41:42.000Z</time>
      </trkpt>
      <trkpt lat="47.36531" lon="-2.38803">
        <ele>27.200000762939</ele>
        <time>2022-01-13T09:41:49.000Z</time>
      </trkpt>
      <trkpt lat="47.36537" lon="-2.38765">
        <ele>27.200000762939</ele>
        <time>2022-01-13T09:41:55.000Z</time>
      </trkpt>
      <trkpt lat="47.3654" lon="-2.38747">
        <ele>27.200000762939</ele>
        <time>2022-01-13T09:41:58.000Z</time>
      </trkpt>
      <trkpt lat="47.36546" lon="-2.3872">
        <ele>27.200000762939</ele>
        <time>2022-01-13T09:42:02.000Z</time>
      </trkpt>
      <trkpt lat="47.36554" lon="-2.38692">
        <ele>27.200000762939</ele>
        <time>2022-01-13T09:42:07.000Z</time>
      </trkpt>
      <trkpt lat="47.36558" lon="-2.38687">
        <ele>27.200000762939</ele>
        <time>2022-01-13T09:42:08.000Z</time>
      </trkpt>
      <trkpt lat="47.36569" lon="-2.38677">
        <ele>27.200000762939</ele>
        <time>2022-01-13T09:42:11.000Z</time>
      </trkpt>
      <trkpt lat="47.36584" lon="-2.3867">
        <ele>27.60000038147</ele>
        <time>2022-01-13T09:42:14.000Z</time>
      </trkpt>
      <trkpt lat="47.36589" lon="-2.38666">
        <ele>28</ele>
        <time>2022-01-13T09:42:15.000Z</time>
      </trkpt>
      <trkpt lat="47.36593" lon="-2.38663">
        <ele>28.39999961853</ele>
        <time>2022-01-13T09:42:16.000Z</time>
      </trkpt>
      <trkpt lat="47.36597" lon="-2.38659">
        <ele>28.799999237061</ele>
        <time>2022-01-13T09:42:17.000Z</time>
      </trkpt>
      <trkpt lat="47.366" lon="-2.38654">
        <ele>29.200000762939</ele>
        <time>2022-01-13T09:42:18.000Z</time>
      </trkpt>
      <trkpt lat="47.36602" lon="-2.38647">
        <ele>29.200000762939</ele>
        <time>2022-01-13T09:42:19.000Z</time>
      </trkpt>
      <trkpt lat="47.36608" lon="-2.38628">
        <ele>29.200000762939</ele>
        <time>2022-01-13T09:42:22.000Z</time>
      </trkpt>
      <trkpt lat="47.36611" lon="-2.38615">
        <ele>29.200000762939</ele>
        <time>2022-01-13T09:42:24.000Z</time>
      </trkpt>
      <trkpt lat="47.36624" lon="-2.38561">
        <ele>29.60000038147</ele>
        <time>2022-01-13T09:42:32.000Z</time>
      </trkpt>
      <trkpt lat="47.36625" lon="-2.38555">
        <ele>30</ele>
        <time>2022-01-13T09:42:33.000Z</time>
      </trkpt>
      <trkpt lat="47.36627" lon="-2.38549">
        <ele>30.39999961853</ele>
        <time>2022-01-13T09:42:34.000Z</time>
      </trkpt>
      <trkpt lat="47.36629" lon="-2.38542">
        <ele>30.799999237061</ele>
        <time>2022-01-13T09:42:35.000Z</time>
      </trkpt>
      <trkpt lat="47.3663" lon="-2.38535">
        <ele>31.200000762939</ele>
        <time>2022-01-13T09:42:36.000Z</time>
      </trkpt>
      <trkpt lat="47.36636" lon="-2.385">
        <ele>31.200000762939</ele>
        <time>2022-01-13T09:42:41.000Z</time>
      </trkpt>
      <trkpt lat="47.36649" lon="-2.38442">
        <ele>31.200000762939</ele>
        <time>2022-01-13T09:42:50.000Z</time>
      </trkpt>
      <trkpt lat="47.3666" lon="-2.38387">
        <ele>30.799999237061</ele>
        <time>2022-01-13T09:42:59.000Z</time>
      </trkpt>
      <trkpt lat="47.36662" lon="-2.38382">
        <ele>30.39999961853</ele>
        <time>2022-01-13T09:43:00.000Z</time>
      </trkpt>
      <trkpt lat="47.36664" lon="-2.38377">
        <ele>30</ele>
        <time>2022-01-13T09:43:01.000Z</time>
      </trkpt>
      <trkpt lat="47.36667" lon="-2.38372">
        <ele>29.60000038147</ele>
        <time>2022-01-13T09:43:02.000Z</time>
      </trkpt>
      <trkpt lat="47.3667" lon="-2.38367">
        <ele>29.200000762939</ele>
        <time>2022-01-13T09:43:03.000Z</time>
      </trkpt>
      <trkpt lat="47.36691" lon="-2.3833">
        <ele>29.200000762939</ele>
        <time>2022-01-13T09:43:10.000Z</time>
      </trkpt>
      <trkpt lat="47.36714" lon="-2.38288">
        <ele>29.200000762939</ele>
        <time>2022-01-13T09:43:19.000Z</time>
      </trkpt>
      <trkpt lat="47.36721" lon="-2.38265">
        <ele>29.200000762939</ele>
        <time>2022-01-13T09:43:24.000Z</time>
      </trkpt>
      <trkpt lat="47.36714" lon="-2.38254">
        <ele>29.200000762939</ele>
        <time>2022-01-13T09:43:27.000Z</time>
      </trkpt>
      <trkpt lat="47.36698" lon="-2.38232">
        <ele>29.200000762939</ele>
        <time>2022-01-13T09:43:32.000Z</time>
      </trkpt>
      <trkpt lat="47.36675" lon="-2.38197">
        <ele>29.200000762939</ele>
        <time>2022-01-13T09:43:39.000Z</time>
      </trkpt>
      <trkpt lat="47.36641" lon="-2.38143">
        <ele>29.200000762939</ele>
        <time>2022-01-13T09:43:49.000Z</time>
      </trkpt>
      <trkpt lat="47.36637" lon="-2.38137">
        <ele>28.799999237061</ele>
        <time>2022-01-13T09:43:50.000Z</time>
      </trkpt>
      <trkpt lat="47.36633" lon="-2.38131">
        <ele>28.39999961853</ele>
        <time>2022-01-13T09:43:51.000Z</time>
      </trkpt>
      <trkpt lat="47.3663" lon="-2.38126">
        <ele>27.799999237061</ele>
        <time>2022-01-13T09:43:52.000Z</time>
      </trkpt>
      <trkpt lat="47.36626" lon="-2.3812">
        <ele>27.39999961853</ele>
        <time>2022-01-13T09:43:53.000Z</time>
      </trkpt>
      <trkpt lat="47.36623" lon="-2.38115">
        <ele>27</ele>
        <time>2022-01-13T09:43:54.000Z</time>
      </trkpt>
      <trkpt lat="47.36619" lon="-2.3811">
        <ele>27</ele>
        <time>2022-01-13T09:43:55.000Z</time>
      </trkpt>
      <trkpt lat="47.36616" lon="-2.38104">
        <ele>27</ele>
        <time>2022-01-13T09:43:56.000Z</time>
      </trkpt>
      <trkpt lat="47.36611" lon="-2.38091">
        <ele>27</ele>
        <time>2022-01-13T09:43:58.000Z</time>
      </trkpt>
      <trkpt lat="47.36608" lon="-2.38076">
        <ele>27</ele>
        <time>2022-01-13T09:44:00.000Z</time>
      </trkpt>
      <trkpt lat="47.36607" lon="-2.3806">
        <ele>27</ele>
        <time>2022-01-13T09:44:02.000Z</time>
      </trkpt>
      <trkpt lat="47.36606" lon="-2.38028">
        <ele>27</ele>
        <time>2022-01-13T09:44:06.000Z</time>
      </trkpt>
      <trkpt lat="47.36606" lon="-2.38019">
        <ele>27</ele>
        <time>2022-01-13T09:44:07.000Z</time>
      </trkpt>
      <trkpt lat="47.36604" lon="-2.38002">
        <ele>27</ele>
        <time>2022-01-13T09:44:10.000Z</time>
      </trkpt>
      <trkpt lat="47.36601" lon="-2.3799">
        <ele>26.60000038147</ele>
        <time>2022-01-13T09:44:13.000Z</time>
      </trkpt>
      <trkpt lat="47.36601" lon="-2.37987">
        <ele>26.200000762939</ele>
        <time>2022-01-13T09:44:14.000Z</time>
      </trkpt>
      <trkpt lat="47.366" lon="-2.37985">
        <ele>25.799999237061</ele>
        <time>2022-01-13T09:44:15.000Z</time>
      </trkpt>
      <trkpt lat="47.36599" lon="-2.37983">
        <ele>25.39999961853</ele>
        <time>2022-01-13T09:44:16.000Z</time>
      </trkpt>
      <trkpt lat="47.36598" lon="-2.37981">
        <ele>24.799999237061</ele>
        <time>2022-01-13T09:44:17.000Z</time>
      </trkpt>
      <trkpt lat="47.36592" lon="-2.37973">
        <ele>24.799999237061</ele>
        <time>2022-01-13T09:44:21.000Z</time>
      </trkpt>
      <trkpt lat="47.36587" lon="-2.37962">
        <ele>24.799999237061</ele>
        <time>2022-01-13T09:44:27.000Z</time>
      </trkpt>
      <trkpt lat="47.36585" lon="-2.37953">
        <ele>24.799999237061</ele>
        <time>2022-01-13T09:44:31.000Z</time>
      </trkpt>
      <trkpt lat="47.36584" lon="-2.37949">
        <ele>24.799999237061</ele>
        <time>2022-01-13T09:44:33.000Z</time>
      </trkpt>
      <trkpt lat="47.36588" lon="-2.37951">
        <ele>24.799999237061</ele>
        <time>2022-01-13T09:44:37.000Z</time>
      </trkpt>
      <trkpt lat="47.36589" lon="-2.37954">
        <ele>24.799999237061</ele>
        <time>2022-01-13T09:44:38.000Z</time>
      </trkpt>
      <trkpt lat="47.36594" lon="-2.37967">
        <ele>24.799999237061</ele>
        <time>2022-01-13T09:44:44.000Z</time>
      </trkpt>
      <trkpt lat="47.36602" lon="-2.37982">
        <ele>24.799999237061</ele>
        <time>2022-01-13T09:44:51.000Z</time>
      </trkpt>
      <trkpt lat="47.36611" lon="-2.37996">
        <ele>24.799999237061</ele>
        <time>2022-01-13T09:44:57.000Z</time>
      </trkpt>
      <trkpt lat="47.36613" lon="-2.37998">
        <ele>24.799999237061</ele>
        <time>2022-01-13T09:44:58.000Z</time>
      </trkpt>
      <trkpt lat="47.36617" lon="-2.37999">
        <ele>24.799999237061</ele>
        <time>2022-01-13T09:45:00.000Z</time>
      </trkpt>
      <trkpt lat="47.36619" lon="-2.37997">
        <ele>24.799999237061</ele>
        <time>2022-01-13T09:45:01.000Z</time>
      </trkpt>
      <trkpt lat="47.36626" lon="-2.37979">
        <ele>24.799999237061</ele>
        <time>2022-01-13T09:45:05.000Z</time>
      </trkpt>
      <trkpt lat="47.36639" lon="-2.37931">
        <ele>24.799999237061</ele>
        <time>2022-01-13T09:45:13.000Z</time>
      </trkpt>
      <trkpt lat="47.36654" lon="-2.37886">
        <ele>24.799999237061</ele>
        <time>2022-01-13T09:45:21.000Z</time>
      </trkpt>
      <trkpt lat="47.36668" lon="-2.37844">
        <ele>24.799999237061</ele>
        <time>2022-01-13T09:45:28.000Z</time>
      </trkpt>
      <trkpt lat="47.36684" lon="-2.37797">
        <ele>24.799999237061</ele>
        <time>2022-01-13T09:45:35.000Z</time>
      </trkpt>
      <trkpt lat="47.36692" lon="-2.37766">
        <ele>24.39999961853</ele>
        <time>2022-01-13T09:45:39.000Z</time>
      </trkpt>
      <trkpt lat="47.36693" lon="-2.37757">
        <ele>24</ele>
        <time>2022-01-13T09:45:40.000Z</time>
      </trkpt>
      <trkpt lat="47.36695" lon="-2.37749">
        <ele>23.60000038147</ele>
        <time>2022-01-13T09:45:41.000Z</time>
      </trkpt>
      <trkpt lat="47.36696" lon="-2.37741">
        <ele>23.200000762939</ele>
        <time>2022-01-13T09:45:42.000Z</time>
      </trkpt>
      <trkpt lat="47.36697" lon="-2.37733">
        <ele>22.799999237061</ele>
        <time>2022-01-13T09:45:43.000Z</time>
      </trkpt>
      <trkpt lat="47.36702" lon="-2.37696">
        <ele>22.799999237061</ele>
        <time>2022-01-13T09:45:48.000Z</time>
      </trkpt>
      <trkpt lat="47.36704" lon="-2.37683">
        <ele>22.799999237061</ele>
        <time>2022-01-13T09:45:50.000Z</time>
      </trkpt>
      <trkpt lat="47.36711" lon="-2.37651">
        <ele>22.799999237061</ele>
        <time>2022-01-13T09:45:55.000Z</time>
      </trkpt>
      <trkpt lat="47.36725" lon="-2.37612">
        <ele>22.799999237061</ele>
        <time>2022-01-13T09:46:00.000Z</time>
      </trkpt>
      <trkpt lat="47.36746" lon="-2.37566">
        <ele>22.799999237061</ele>
        <time>2022-01-13T09:46:07.000Z</time>
      </trkpt>
      <trkpt lat="47.36765" lon="-2.37541">
        <ele>22.799999237061</ele>
        <time>2022-01-13T09:46:12.000Z</time>
      </trkpt>
      <trkpt lat="47.3677" lon="-2.37537">
        <ele>22.799999237061</ele>
        <time>2022-01-13T09:46:13.000Z</time>
      </trkpt>
      <trkpt lat="47.36788" lon="-2.37531">
        <ele>22.799999237061</ele>
        <time>2022-01-13T09:46:17.000Z</time>
      </trkpt>
      <trkpt lat="47.36793" lon="-2.37532">
        <ele>22.799999237061</ele>
        <time>2022-01-13T09:46:18.000Z</time>
      </trkpt>
      <trkpt lat="47.36798" lon="-2.37533">
        <ele>22.799999237061</ele>
        <time>2022-01-13T09:46:19.000Z</time>
      </trkpt>
      <trkpt lat="47.36811" lon="-2.37539">
        <ele>22.799999237061</ele>
        <time>2022-01-13T09:46:22.000Z</time>
      </trkpt>
      <trkpt lat="47.36815" lon="-2.37542">
        <ele>22.799999237061</ele>
        <time>2022-01-13T09:46:23.000Z</time>
      </trkpt>
      <trkpt lat="47.36847" lon="-2.3756">
        <ele>22.799999237061</ele>
        <time>2022-01-13T09:46:30.000Z</time>
      </trkpt>
      <trkpt lat="47.36875" lon="-2.37571">
        <ele>22.799999237061</ele>
        <time>2022-01-13T09:46:36.000Z</time>
      </trkpt>
      <trkpt lat="47.36888" lon="-2.37572">
        <ele>22.799999237061</ele>
        <time>2022-01-13T09:46:39.000Z</time>
      </trkpt>
      <trkpt lat="47.36901" lon="-2.37572">
        <ele>22.799999237061</ele>
        <time>2022-01-13T09:46:42.000Z</time>
      </trkpt>
      <trkpt lat="47.36922" lon="-2.37569">
        <ele>22.799999237061</ele>
        <time>2022-01-13T09:46:47.000Z</time>
      </trkpt>
      <trkpt lat="47.3694" lon="-2.37566">
        <ele>22.799999237061</ele>
        <time>2022-01-13T09:46:51.000Z</time>
      </trkpt>
      <trkpt lat="47.36949" lon="-2.37561">
        <ele>22.799999237061</ele>
        <time>2022-01-13T09:46:53.000Z</time>
      </trkpt>
      <trkpt lat="47.36955" lon="-2.3756">
        <ele>22.799999237061</ele>
        <time>2022-01-13T09:46:54.000Z</time>
      </trkpt>
      <trkpt lat="47.36975" lon="-2.3755">
        <ele>22.799999237061</ele>
        <time>2022-01-13T09:46:58.000Z</time>
      </trkpt>
      <trkpt lat="47.37006" lon="-2.37532">
        <ele>22.799999237061</ele>
        <time>2022-01-13T09:47:04.000Z</time>
      </trkpt>
      <trkpt lat="47.37027" lon="-2.37512">
        <ele>22.799999237061</ele>
        <time>2022-01-13T09:47:09.000Z</time>
      </trkpt>
      <trkpt lat="47.3703" lon="-2.37507">
        <ele>22.799999237061</ele>
        <time>2022-01-13T09:47:10.000Z</time>
      </trkpt>
      <trkpt lat="47.37046" lon="-2.37477">
        <ele>22.799999237061</ele>
        <time>2022-01-13T09:47:16.000Z</time>
      </trkpt>
      <trkpt lat="47.37066" lon="-2.37435">
        <ele>22.799999237061</ele>
        <time>2022-01-13T09:47:23.000Z</time>
      </trkpt>
      <trkpt lat="47.37085" lon="-2.37397">
        <ele>23.200000762939</ele>
        <time>2022-01-13T09:47:29.000Z</time>
      </trkpt>
      <trkpt lat="47.37088" lon="-2.37391">
        <ele>23.60000038147</ele>
        <time>2022-01-13T09:47:30.000Z</time>
      </trkpt>
      <trkpt lat="47.37091" lon="-2.37384">
        <ele>24</ele>
        <time>2022-01-13T09:47:31.000Z</time>
      </trkpt>
      <trkpt lat="47.37094" lon="-2.37378">
        <ele>24.60000038147</ele>
        <time>2022-01-13T09:47:32.000Z</time>
      </trkpt>
      <trkpt lat="47.37098" lon="-2.37373">
        <ele>25</ele>
        <time>2022-01-13T09:47:33.000Z</time>
      </trkpt>
      <trkpt lat="47.37108" lon="-2.37353">
        <ele>25</ele>
        <time>2022-01-13T09:47:36.000Z</time>
      </trkpt>
      <trkpt lat="47.37141" lon="-2.37303">
        <ele>25</ele>
        <time>2022-01-13T09:47:44.000Z</time>
      </trkpt>
      <trkpt lat="47.37168" lon="-2.37288">
        <ele>25</ele>
        <time>2022-01-13T09:47:49.000Z</time>
      </trkpt>
      <trkpt lat="47.37212" lon="-2.37279">
        <ele>25</ele>
        <time>2022-01-13T09:47:57.000Z</time>
      </trkpt>
      <trkpt lat="47.37224" lon="-2.37276">
        <ele>24.60000038147</ele>
        <time>2022-01-13T09:47:59.000Z</time>
      </trkpt>
      <trkpt lat="47.3723" lon="-2.37275">
        <ele>24.200000762939</ele>
        <time>2022-01-13T09:48:00.000Z</time>
      </trkpt>
      <trkpt lat="47.37235" lon="-2.37274">
        <ele>23.799999237061</ele>
        <time>2022-01-13T09:48:01.000Z</time>
      </trkpt>
      <trkpt lat="47.37241" lon="-2.37273">
        <ele>23.39999961853</ele>
        <time>2022-01-13T09:48:02.000Z</time>
      </trkpt>
      <trkpt lat="47.37247" lon="-2.37272">
        <ele>23</ele>
        <time>2022-01-13T09:48:03.000Z</time>
      </trkpt>
      <trkpt lat="47.3726" lon="-2.37269">
        <ele>23</ele>
        <time>2022-01-13T09:48:05.000Z</time>
      </trkpt>
      <trkpt lat="47.37287" lon="-2.37261">
        <ele>22.60000038147</ele>
        <time>2022-01-13T09:48:09.000Z</time>
      </trkpt>
      <trkpt lat="47.37293" lon="-2.37258">
        <ele>22.200000762939</ele>
        <time>2022-01-13T09:48:10.000Z</time>
      </trkpt>
      <trkpt lat="47.373" lon="-2.37256">
        <ele>21.799999237061</ele>
        <time>2022-01-13T09:48:11.000Z</time>
      </trkpt>
      <trkpt lat="47.37305" lon="-2.37253">
        <ele>21.39999961853</ele>
        <time>2022-01-13T09:48:12.000Z</time>
      </trkpt>
      <trkpt lat="47.37311" lon="-2.3725">
        <ele>21</ele>
        <time>2022-01-13T09:48:13.000Z</time>
      </trkpt>
      <trkpt lat="47.37335" lon="-2.37237">
        <ele>21</ele>
        <time>2022-01-13T09:48:18.000Z</time>
      </trkpt>
      <trkpt lat="47.3736" lon="-2.3722">
        <ele>21</ele>
        <time>2022-01-13T09:48:24.000Z</time>
      </trkpt>
      <trkpt lat="47.37371" lon="-2.372">
        <ele>21</ele>
        <time>2022-01-13T09:48:29.000Z</time>
      </trkpt>
      <trkpt lat="47.3737" lon="-2.37189">
        <ele>21.39999961853</ele>
        <time>2022-01-13T09:48:31.000Z</time>
      </trkpt>
      <trkpt lat="47.37369" lon="-2.37183">
        <ele>21.799999237061</ele>
        <time>2022-01-13T09:48:32.000Z</time>
      </trkpt>
      <trkpt lat="47.37368" lon="-2.37177">
        <ele>22.200000762939</ele>
        <time>2022-01-13T09:48:33.000Z</time>
      </trkpt>
      <trkpt lat="47.37367" lon="-2.37171">
        <ele>22.60000038147</ele>
        <time>2022-01-13T09:48:34.000Z</time>
      </trkpt>
      <trkpt lat="47.37365" lon="-2.37165">
        <ele>23</ele>
        <time>2022-01-13T09:48:35.000Z</time>
      </trkpt>
      <trkpt lat="47.37358" lon="-2.37142">
        <ele>23</ele>
        <time>2022-01-13T09:48:39.000Z</time>
      </trkpt>
      <trkpt lat="47.37356" lon="-2.37136">
        <ele>23</ele>
        <time>2022-01-13T09:48:40.000Z</time>
      </trkpt>
      <trkpt lat="47.37342" lon="-2.37086">
        <ele>23</ele>
        <time>2022-01-13T09:48:48.000Z</time>
      </trkpt>
      <trkpt lat="47.37337" lon="-2.37068">
        <ele>23</ele>
        <time>2022-01-13T09:48:51.000Z</time>
      </trkpt>
      <trkpt lat="47.37335" lon="-2.37051">
        <ele>23</ele>
        <time>2022-01-13T09:48:54.000Z</time>
      </trkpt>
      <trkpt lat="47.37336" lon="-2.37042">
        <ele>23</ele>
        <time>2022-01-13T09:48:56.000Z</time>
      </trkpt>
      <trkpt lat="47.3734" lon="-2.37037">
        <ele>23</ele>
        <time>2022-01-13T09:48:58.000Z</time>
      </trkpt>
      <trkpt lat="47.37357" lon="-2.37024">
        <ele>23</ele>
        <time>2022-01-13T09:49:04.000Z</time>
      </trkpt>
      <trkpt lat="47.37376" lon="-2.37014">
        <ele>23</ele>
        <time>2022-01-13T09:49:10.000Z</time>
      </trkpt>
      <trkpt lat="47.37386" lon="-2.37">
        <ele>23.39999961853</ele>
        <time>2022-01-13T09:49:14.000Z</time>
      </trkpt>
      <trkpt lat="47.37388" lon="-2.36995">
        <ele>23.799999237061</ele>
        <time>2022-01-13T09:49:15.000Z</time>
      </trkpt>
      <trkpt lat="47.37388" lon="-2.36989">
        <ele>24.200000762939</ele>
        <time>2022-01-13T09:49:16.000Z</time>
      </trkpt>
      <trkpt lat="47.37389" lon="-2.36983">
        <ele>24.60000038147</ele>
        <time>2022-01-13T09:49:17.000Z</time>
      </trkpt>
      <trkpt lat="47.37389" lon="-2.36977">
        <ele>25</ele>
        <time>2022-01-13T09:49:18.000Z</time>
      </trkpt>
      <trkpt lat="47.37388" lon="-2.36964">
        <ele>25</ele>
        <time>2022-01-13T09:49:20.000Z</time>
      </trkpt>
      <trkpt lat="47.37387" lon="-2.36942">
        <ele>25</ele>
        <time>2022-01-13T09:49:23.000Z</time>
      </trkpt>
      <trkpt lat="47.37385" lon="-2.36918">
        <ele>25</ele>
        <time>2022-01-13T09:49:26.000Z</time>
      </trkpt>
      <trkpt lat="47.37375" lon="-2.36859">
        <ele>25</ele>
        <time>2022-01-13T09:49:34.000Z</time>
      </trkpt>
      <trkpt lat="47.37371" lon="-2.36823">
        <ele>25</ele>
        <time>2022-01-13T09:49:39.000Z</time>
      </trkpt>
      <trkpt lat="47.3737" lon="-2.36809">
        <ele>25</ele>
        <time>2022-01-13T09:49:41.000Z</time>
      </trkpt>
      <trkpt lat="47.37365" lon="-2.36764">
        <ele>25</ele>
        <time>2022-01-13T09:49:48.000Z</time>
      </trkpt>
      <trkpt lat="47.37361" lon="-2.36736">
        <ele>25</ele>
        <time>2022-01-13T09:49:52.000Z</time>
      </trkpt>
      <trkpt lat="47.37359" lon="-2.3672">
        <ele>25</ele>
        <time>2022-01-13T09:49:54.000Z</time>
      </trkpt>
      <trkpt lat="47.37358" lon="-2.36713">
        <ele>25</ele>
        <time>2022-01-13T09:49:55.000Z</time>
      </trkpt>
      <trkpt lat="47.37361" lon="-2.36691">
        <ele>25</ele>
        <time>2022-01-13T09:49:58.000Z</time>
      </trkpt>
      <trkpt lat="47.37372" lon="-2.36671">
        <ele>25</ele>
        <time>2022-01-13T09:50:01.000Z</time>
      </trkpt>
      <trkpt lat="47.37375" lon="-2.36665">
        <ele>25</ele>
        <time>2022-01-13T09:50:02.000Z</time>
      </trkpt>
      <trkpt lat="47.37389" lon="-2.36639">
        <ele>25</ele>
        <time>2022-01-13T09:50:07.000Z</time>
      </trkpt>
      <trkpt lat="47.37409" lon="-2.36605">
        <ele>25</ele>
        <time>2022-01-13T09:50:13.000Z</time>
      </trkpt>
      <trkpt lat="47.37436" lon="-2.36564">
        <ele>25</ele>
        <time>2022-01-13T09:50:20.000Z</time>
      </trkpt>
      <trkpt lat="47.3744" lon="-2.36559">
        <ele>25</ele>
        <time>2022-01-13T09:50:21.000Z</time>
      </trkpt>
      <trkpt lat="47.37461" lon="-2.36539">
        <ele>25</ele>
        <time>2022-01-13T09:50:25.000Z</time>
      </trkpt>
      <trkpt lat="47.37482" lon="-2.36518">
        <ele>25</ele>
        <time>2022-01-13T09:50:29.000Z</time>
      </trkpt>
      <trkpt lat="47.37493" lon="-2.36506">
        <ele>25</ele>
        <time>2022-01-13T09:50:31.000Z</time>
      </trkpt>
      <trkpt lat="47.37513" lon="-2.36467">
        <ele>25</ele>
        <time>2022-01-13T09:50:36.000Z</time>
      </trkpt>
      <trkpt lat="47.37522" lon="-2.36441">
        <ele>25</ele>
        <time>2022-01-13T09:50:39.000Z</time>
      </trkpt>
      <trkpt lat="47.37525" lon="-2.36423">
        <ele>25</ele>
        <time>2022-01-13T09:50:41.000Z</time>
      </trkpt>
      <trkpt lat="47.37528" lon="-2.36404">
        <ele>24.200000762939</ele>
        <time>2022-01-13T09:50:43.000Z</time>
      </trkpt>
      <trkpt lat="47.3753" lon="-2.36395">
        <ele>23.799999237061</ele>
        <time>2022-01-13T09:50:44.000Z</time>
      </trkpt>
      <trkpt lat="47.37532" lon="-2.36385">
        <ele>23.39999961853</ele>
        <time>2022-01-13T09:50:45.000Z</time>
      </trkpt>
      <trkpt lat="47.37533" lon="-2.36375">
        <ele>22.799999237061</ele>
        <time>2022-01-13T09:50:46.000Z</time>
      </trkpt>
      <trkpt lat="47.37541" lon="-2.3631">
        <ele>22.799999237061</ele>
        <time>2022-01-13T09:50:53.000Z</time>
      </trkpt>
      <trkpt lat="47.37548" lon="-2.36266">
        <ele>22.799999237061</ele>
        <time>2022-01-13T09:50:58.000Z</time>
      </trkpt>
      <trkpt lat="47.37554" lon="-2.36231">
        <ele>22.799999237061</ele>
        <time>2022-01-13T09:51:02.000Z</time>
      </trkpt>
      <trkpt lat="47.3756" lon="-2.36215">
        <ele>22.799999237061</ele>
        <time>2022-01-13T09:51:04.000Z</time>
      </trkpt>
      <trkpt lat="47.37571" lon="-2.36194">
        <ele>22.799999237061</ele>
        <time>2022-01-13T09:51:07.000Z</time>
      </trkpt>
      <trkpt lat="47.37575" lon="-2.36187">
        <ele>22.799999237061</ele>
        <time>2022-01-13T09:51:08.000Z</time>
      </trkpt>
      <trkpt lat="47.3758" lon="-2.36181">
        <ele>22.799999237061</ele>
        <time>2022-01-13T09:51:09.000Z</time>
      </trkpt>
      <trkpt lat="47.37611" lon="-2.36147">
        <ele>22.799999237061</ele>
        <time>2022-01-13T09:51:16.000Z</time>
      </trkpt>
      <trkpt lat="47.37638" lon="-2.36119">
        <ele>22.799999237061</ele>
        <time>2022-01-13T09:51:23.000Z</time>
      </trkpt>
      <trkpt lat="47.37645" lon="-2.36093">
        <ele>22.799999237061</ele>
        <time>2022-01-13T09:51:27.000Z</time>
      </trkpt>
      <trkpt lat="47.37644" lon="-2.36074">
        <ele>22.799999237061</ele>
        <time>2022-01-13T09:51:30.000Z</time>
      </trkpt>
      <trkpt lat="47.37642" lon="-2.36062">
        <ele>22.799999237061</ele>
        <time>2022-01-13T09:51:32.000Z</time>
      </trkpt>
      <trkpt lat="47.37639" lon="-2.36048">
        <ele>22.799999237061</ele>
        <time>2022-01-13T09:51:36.000Z</time>
      </trkpt>
      <trkpt lat="47.37634" lon="-2.36044">
        <ele>22.799999237061</ele>
        <time>2022-01-13T09:51:38.000Z</time>
      </trkpt>
      <trkpt lat="47.37627" lon="-2.36045">
        <ele>22.799999237061</ele>
        <time>2022-01-13T09:51:40.000Z</time>
      </trkpt>
      <trkpt lat="47.37609" lon="-2.36048">
        <ele>22.799999237061</ele>
        <time>2022-01-13T09:51:45.000Z</time>
      </trkpt>
      <trkpt lat="47.37582" lon="-2.36053">
        <ele>23.200000762939</ele>
        <time>2022-01-13T09:51:52.000Z</time>
      </trkpt>
      <trkpt lat="47.37577" lon="-2.36054">
        <ele>23.799999237061</ele>
        <time>2022-01-13T09:51:53.000Z</time>
      </trkpt>
      <trkpt lat="47.37573" lon="-2.36056">
        <ele>24.200000762939</ele>
        <time>2022-01-13T09:51:54.000Z</time>
      </trkpt>
      <trkpt lat="47.37569" lon="-2.36057">
        <ele>24.60000038147</ele>
        <time>2022-01-13T09:51:55.000Z</time>
      </trkpt>
      <trkpt lat="47.37565" lon="-2.36058">
        <ele>25</ele>
        <time>2022-01-13T09:51:56.000Z</time>
      </trkpt>
      <trkpt lat="47.37557" lon="-2.36062">
        <ele>25</ele>
        <time>2022-01-13T09:51:58.000Z</time>
      </trkpt>
      <trkpt lat="47.37525" lon="-2.36073">
        <ele>25</ele>
        <time>2022-01-13T09:52:05.000Z</time>
      </trkpt>
      <trkpt lat="47.3749" lon="-2.36092">
        <ele>25</ele>
        <time>2022-01-13T09:52:13.000Z</time>
      </trkpt>
      <trkpt lat="47.3746" lon="-2.3611">
        <ele>25</ele>
        <time>2022-01-13T09:52:19.000Z</time>
      </trkpt>
      <trkpt lat="47.37454" lon="-2.36114">
        <ele>25</ele>
        <time>2022-01-13T09:52:20.000Z</time>
      </trkpt>
      <trkpt lat="47.37448" lon="-2.36118">
        <ele>24.39999961853</ele>
        <time>2022-01-13T09:52:21.000Z</time>
      </trkpt>
      <trkpt lat="47.37442" lon="-2.36123">
        <ele>23.60000038147</ele>
        <time>2022-01-13T09:52:22.000Z</time>
      </trkpt>
      <trkpt lat="47.37436" lon="-2.36126">
        <ele>23</ele>
        <time>2022-01-13T09:52:23.000Z</time>
      </trkpt>
      <trkpt lat="47.37431" lon="-2.36131">
        <ele>22.60000038147</ele>
        <time>2022-01-13T09:52:24.000Z</time>
      </trkpt>
      <trkpt lat="47.37426" lon="-2.36135">
        <ele>22.200000762939</ele>
        <time>2022-01-13T09:52:25.000Z</time>
      </trkpt>
      <trkpt lat="47.37421" lon="-2.36138">
        <ele>21.60000038147</ele>
        <time>2022-01-13T09:52:26.000Z</time>
      </trkpt>
      <trkpt lat="47.37417" lon="-2.3614">
        <ele>21.200000762939</ele>
        <time>2022-01-13T09:52:27.000Z</time>
      </trkpt>
      <trkpt lat="47.37414" lon="-2.36139">
        <ele>20.799999237061</ele>
        <time>2022-01-13T09:52:28.000Z</time>
      </trkpt>
      <trkpt lat="47.37411" lon="-2.36136">
        <ele>20.200000762939</ele>
        <time>2022-01-13T09:52:29.000Z</time>
      </trkpt>
      <trkpt lat="47.37402" lon="-2.36124">
        <ele>20.200000762939</ele>
        <time>2022-01-13T09:52:32.000Z</time>
      </trkpt>
      <trkpt lat="47.3739" lon="-2.36106">
        <ele>20.200000762939</ele>
        <time>2022-01-13T09:52:37.000Z</time>
      </trkpt>
      <trkpt lat="47.37385" lon="-2.36104">
        <ele>20.200000762939</ele>
        <time>2022-01-13T09:52:39.000Z</time>
      </trkpt>
      <trkpt lat="47.3738" lon="-2.36106">
        <ele>20.200000762939</ele>
        <time>2022-01-13T09:52:41.000Z</time>
      </trkpt>
      <trkpt lat="47.37363" lon="-2.36122">
        <ele>20.200000762939</ele>
        <time>2022-01-13T09:52:47.000Z</time>
      </trkpt>
      <trkpt lat="47.3735" lon="-2.36124">
        <ele>20.200000762939</ele>
        <time>2022-01-13T09:52:51.000Z</time>
      </trkpt>
      <trkpt lat="47.37333" lon="-2.36121">
        <ele>20.200000762939</ele>
        <time>2022-01-13T09:52:57.000Z</time>
      </trkpt>
      <trkpt lat="47.37321" lon="-2.36121">
        <ele>20.200000762939</ele>
        <time>2022-01-13T09:53:02.000Z</time>
      </trkpt>
      <trkpt lat="47.3732" lon="-2.36121">
        <ele>20.200000762939</ele>
        <time>2022-01-13T09:53:04.000Z</time>
      </trkpt>
      <trkpt lat="47.37319" lon="-2.36115">
        <ele>20.200000762939</ele>
        <time>2022-01-13T10:11:29.000Z</time>
      </trkpt>
      <trkpt lat="47.37323" lon="-2.36116">
        <ele>20.200000762939</ele>
        <time>2022-01-13T10:11:31.000Z</time>
      </trkpt>
      <trkpt lat="47.3734" lon="-2.36123">
        <ele>20.200000762939</ele>
        <time>2022-01-13T10:11:38.000Z</time>
      </trkpt>
      <trkpt lat="47.37351" lon="-2.36129">
        <ele>20.200000762939</ele>
        <time>2022-01-13T10:11:42.000Z</time>
      </trkpt>
      <trkpt lat="47.37354" lon="-2.36127">
        <ele>20.200000762939</ele>
        <time>2022-01-13T10:11:43.000Z</time>
      </trkpt>
      <trkpt lat="47.37372" lon="-2.36112">
        <ele>20.200000762939</ele>
        <time>2022-01-13T10:11:48.000Z</time>
      </trkpt>
      <trkpt lat="47.37389" lon="-2.36109">
        <ele>20.200000762939</ele>
        <time>2022-01-13T10:11:53.000Z</time>
      </trkpt>
      <trkpt lat="47.37401" lon="-2.36123">
        <ele>20.200000762939</ele>
        <time>2022-01-13T10:11:57.000Z</time>
      </trkpt>
      <trkpt lat="47.37418" lon="-2.3614">
        <ele>20.200000762939</ele>
        <time>2022-01-13T10:12:03.000Z</time>
      </trkpt>
      <trkpt lat="47.37432" lon="-2.3613">
        <ele>20.200000762939</ele>
        <time>2022-01-13T10:12:07.000Z</time>
      </trkpt>
      <trkpt lat="47.37452" lon="-2.36116">
        <ele>20.60000038147</ele>
        <time>2022-01-13T10:12:12.000Z</time>
      </trkpt>
      <trkpt lat="47.37455" lon="-2.36114">
        <ele>21</ele>
        <time>2022-01-13T10:12:13.000Z</time>
      </trkpt>
      <trkpt lat="47.37459" lon="-2.36111">
        <ele>21.60000038147</ele>
        <time>2022-01-13T10:12:14.000Z</time>
      </trkpt>
      <trkpt lat="47.37462" lon="-2.36109">
        <ele>22</ele>
        <time>2022-01-13T10:12:15.000Z</time>
      </trkpt>
      <trkpt lat="47.37465" lon="-2.36107">
        <ele>22.39999961853</ele>
        <time>2022-01-13T10:12:16.000Z</time>
      </trkpt>
      <trkpt lat="47.37478" lon="-2.36101">
        <ele>22.799999237061</ele>
        <time>2022-01-13T10:12:20.000Z</time>
      </trkpt>
      <trkpt lat="47.3748" lon="-2.36099">
        <ele>23.200000762939</ele>
        <time>2022-01-13T10:12:21.000Z</time>
      </trkpt>
      <trkpt lat="47.37483" lon="-2.36098">
        <ele>23.60000038147</ele>
        <time>2022-01-13T10:12:22.000Z</time>
      </trkpt>
      <trkpt lat="47.37486" lon="-2.36096">
        <ele>24</ele>
        <time>2022-01-13T10:12:23.000Z</time>
      </trkpt>
      <trkpt lat="47.37489" lon="-2.36094">
        <ele>24.39999961853</ele>
        <time>2022-01-13T10:12:24.000Z</time>
      </trkpt>
      <trkpt lat="47.37498" lon="-2.3609">
        <ele>24.39999961853</ele>
        <time>2022-01-13T10:12:27.000Z</time>
      </trkpt>
      <trkpt lat="47.37526" lon="-2.36075">
        <ele>24.39999961853</ele>
        <time>2022-01-13T10:12:35.000Z</time>
      </trkpt>
      <trkpt lat="47.3753" lon="-2.36073">
        <ele>24.799999237061</ele>
        <time>2022-01-13T10:12:36.000Z</time>
      </trkpt>
      <trkpt lat="47.37534" lon="-2.36072">
        <ele>25.39999961853</ele>
        <time>2022-01-13T10:12:37.000Z</time>
      </trkpt>
      <trkpt lat="47.37538" lon="-2.36071">
        <ele>25.799999237061</ele>
        <time>2022-01-13T10:12:38.000Z</time>
      </trkpt>
      <trkpt lat="47.37542" lon="-2.3607">
        <ele>26.200000762939</ele>
        <time>2022-01-13T10:12:39.000Z</time>
      </trkpt>
      <trkpt lat="47.37545" lon="-2.36069">
        <ele>26.60000038147</ele>
        <time>2022-01-13T10:12:40.000Z</time>
      </trkpt>
      <trkpt lat="47.37561" lon="-2.36063">
        <ele>26.60000038147</ele>
        <time>2022-01-13T10:12:44.000Z</time>
      </trkpt>
      <trkpt lat="47.37583" lon="-2.36055">
        <ele>26.60000038147</ele>
        <time>2022-01-13T10:12:50.000Z</time>
      </trkpt>
      <trkpt lat="47.37602" lon="-2.36047">
        <ele>26.60000038147</ele>
        <time>2022-01-13T10:12:56.000Z</time>
      </trkpt>
      <trkpt lat="47.3763" lon="-2.36045">
        <ele>26.60000038147</ele>
        <time>2022-01-13T10:13:03.000Z</time>
      </trkpt>
      <trkpt lat="47.37639" lon="-2.36049">
        <ele>26.60000038147</ele>
        <time>2022-01-13T10:13:06.000Z</time>
      </trkpt>
      <trkpt lat="47.37641" lon="-2.36053">
        <ele>26.60000038147</ele>
        <time>2022-01-13T10:13:07.000Z</time>
      </trkpt>
      <trkpt lat="47.37645" lon="-2.36077">
        <ele>26.60000038147</ele>
        <time>2022-01-13T10:13:11.000Z</time>
      </trkpt>
      <trkpt lat="47.37646" lon="-2.36085">
        <ele>26.60000038147</ele>
        <time>2022-01-13T10:13:12.000Z</time>
      </trkpt>
      <trkpt lat="47.37645" lon="-2.36106">
        <ele>26.200000762939</ele>
        <time>2022-01-13T10:13:15.000Z</time>
      </trkpt>
      <trkpt lat="47.37643" lon="-2.36113">
        <ele>25.799999237061</ele>
        <time>2022-01-13T10:13:16.000Z</time>
      </trkpt>
      <trkpt lat="47.3764" lon="-2.3612">
        <ele>25.39999961853</ele>
        <time>2022-01-13T10:13:17.000Z</time>
      </trkpt>
      <trkpt lat="47.37636" lon="-2.36125">
        <ele>25</ele>
        <time>2022-01-13T10:13:18.000Z</time>
      </trkpt>
      <trkpt lat="47.37632" lon="-2.36129">
        <ele>24.60000038147</ele>
        <time>2022-01-13T10:13:19.000Z</time>
      </trkpt>
      <trkpt lat="47.37628" lon="-2.36133">
        <ele>24.60000038147</ele>
        <time>2022-01-13T10:13:20.000Z</time>
      </trkpt>
      <trkpt lat="47.37594" lon="-2.36168">
        <ele>24.60000038147</ele>
        <time>2022-01-13T10:13:27.000Z</time>
      </trkpt>
      <trkpt lat="47.3758" lon="-2.36184">
        <ele>24.60000038147</ele>
        <time>2022-01-13T10:13:30.000Z</time>
      </trkpt>
      <trkpt lat="47.37572" lon="-2.36198">
        <ele>24.60000038147</ele>
        <time>2022-01-13T10:13:32.000Z</time>
      </trkpt>
      <trkpt lat="47.37559" lon="-2.36227">
        <ele>24.60000038147</ele>
        <time>2022-01-13T10:13:36.000Z</time>
      </trkpt>
      <trkpt lat="47.37555" lon="-2.36243">
        <ele>24.60000038147</ele>
        <time>2022-01-13T10:13:38.000Z</time>
      </trkpt>
      <trkpt lat="47.37554" lon="-2.36251">
        <ele>24.60000038147</ele>
        <time>2022-01-13T10:13:39.000Z</time>
      </trkpt>
      <trkpt lat="47.37547" lon="-2.36281">
        <ele>24.60000038147</ele>
        <time>2022-01-13T10:13:43.000Z</time>
      </trkpt>
      <trkpt lat="47.37543" lon="-2.3632">
        <ele>24.60000038147</ele>
        <time>2022-01-13T10:13:48.000Z</time>
      </trkpt>
      <trkpt lat="47.37541" lon="-2.36327">
        <ele>24.60000038147</ele>
        <time>2022-01-13T10:13:49.000Z</time>
      </trkpt>
      <trkpt lat="47.37537" lon="-2.36367">
        <ele>24.60000038147</ele>
        <time>2022-01-13T10:13:54.000Z</time>
      </trkpt>
      <trkpt lat="47.37536" lon="-2.36374">
        <ele>24.60000038147</ele>
        <time>2022-01-13T10:13:55.000Z</time>
      </trkpt>
      <trkpt lat="47.37533" lon="-2.3639">
        <ele>24.60000038147</ele>
        <time>2022-01-13T10:13:57.000Z</time>
      </trkpt>
      <trkpt lat="47.3753" lon="-2.36414">
        <ele>24.60000038147</ele>
        <time>2022-01-13T10:14:00.000Z</time>
      </trkpt>
      <trkpt lat="47.37522" lon="-2.36459">
        <ele>24.60000038147</ele>
        <time>2022-01-13T10:14:06.000Z</time>
      </trkpt>
      <trkpt lat="47.37519" lon="-2.36467">
        <ele>24.60000038147</ele>
        <time>2022-01-13T10:14:07.000Z</time>
      </trkpt>
      <trkpt lat="47.37509" lon="-2.36486">
        <ele>24.60000038147</ele>
        <time>2022-01-13T10:14:10.000Z</time>
      </trkpt>
      <trkpt lat="47.37502" lon="-2.36498">
        <ele>24.60000038147</ele>
        <time>2022-01-13T10:14:12.000Z</time>
      </trkpt>
      <trkpt lat="47.37481" lon="-2.36524">
        <ele>24.60000038147</ele>
        <time>2022-01-13T10:14:17.000Z</time>
      </trkpt>
      <trkpt lat="47.37452" lon="-2.36554">
        <ele>24.60000038147</ele>
        <time>2022-01-13T10:14:24.000Z</time>
      </trkpt>
      <trkpt lat="47.37443" lon="-2.36564">
        <ele>25</ele>
        <time>2022-01-13T10:14:26.000Z</time>
      </trkpt>
      <trkpt lat="47.3744" lon="-2.36568">
        <ele>25.39999961853</ele>
        <time>2022-01-13T10:14:27.000Z</time>
      </trkpt>
      <trkpt lat="47.37436" lon="-2.36574">
        <ele>25.799999237061</ele>
        <time>2022-01-13T10:14:28.000Z</time>
      </trkpt>
      <trkpt lat="47.37432" lon="-2.36579">
        <ele>26.200000762939</ele>
        <time>2022-01-13T10:14:29.000Z</time>
      </trkpt>
      <trkpt lat="47.37429" lon="-2.36584">
        <ele>26.60000038147</ele>
        <time>2022-01-13T10:14:30.000Z</time>
      </trkpt>
      <trkpt lat="47.37425" lon="-2.36588">
        <ele>26.60000038147</ele>
        <time>2022-01-13T10:14:31.000Z</time>
      </trkpt>
      <trkpt lat="47.37411" lon="-2.36612">
        <ele>26.60000038147</ele>
        <time>2022-01-13T10:14:35.000Z</time>
      </trkpt>
      <trkpt lat="47.37396" lon="-2.36632">
        <ele>26.60000038147</ele>
        <time>2022-01-13T10:14:39.000Z</time>
      </trkpt>
      <trkpt lat="47.37389" lon="-2.36643">
        <ele>26.60000038147</ele>
        <time>2022-01-13T10:14:41.000Z</time>
      </trkpt>
      <trkpt lat="47.37369" lon="-2.36677">
        <ele>26.60000038147</ele>
        <time>2022-01-13T10:14:47.000Z</time>
      </trkpt>
      <trkpt lat="47.37366" lon="-2.36685">
        <ele>26.60000038147</ele>
        <time>2022-01-13T10:14:48.000Z</time>
      </trkpt>
      <trkpt lat="47.37361" lon="-2.36708">
        <ele>26.60000038147</ele>
        <time>2022-01-13T10:14:51.000Z</time>
      </trkpt>
      <trkpt lat="47.37361" lon="-2.36739">
        <ele>26.60000038147</ele>
        <time>2022-01-13T10:14:55.000Z</time>
      </trkpt>
      <trkpt lat="47.37368" lon="-2.36792">
        <ele>26.60000038147</ele>
        <time>2022-01-13T10:15:02.000Z</time>
      </trkpt>
      <trkpt lat="47.37375" lon="-2.36842">
        <ele>26.60000038147</ele>
        <time>2022-01-13T10:15:08.000Z</time>
      </trkpt>
      <trkpt lat="47.37382" lon="-2.36886">
        <ele>27</ele>
        <time>2022-01-13T10:15:13.000Z</time>
      </trkpt>
      <trkpt lat="47.37383" lon="-2.36894">
        <ele>27.39999961853</ele>
        <time>2022-01-13T10:15:14.000Z</time>
      </trkpt>
      <trkpt lat="47.37385" lon="-2.36902">
        <ele>27.799999237061</ele>
        <time>2022-01-13T10:15:15.000Z</time>
      </trkpt>
      <trkpt lat="47.37386" lon="-2.36911">
        <ele>28.200000762939</ele>
        <time>2022-01-13T10:15:16.000Z</time>
      </trkpt>
      <trkpt lat="47.37387" lon="-2.3692">
        <ele>28.60000038147</ele>
        <time>2022-01-13T10:15:17.000Z</time>
      </trkpt>
      <trkpt lat="47.37394" lon="-2.36977">
        <ele>28.60000038147</ele>
        <time>2022-01-13T10:15:24.000Z</time>
      </trkpt>
      <trkpt lat="47.37393" lon="-2.36993">
        <ele>28.60000038147</ele>
        <time>2022-01-13T10:15:26.000Z</time>
      </trkpt>
      <trkpt lat="47.37387" lon="-2.37006">
        <ele>28.60000038147</ele>
        <time>2022-01-13T10:15:28.000Z</time>
      </trkpt>
      <trkpt lat="47.37367" lon="-2.37023">
        <ele>28.60000038147</ele>
        <time>2022-01-13T10:15:32.000Z</time>
      </trkpt>
      <trkpt lat="47.37361" lon="-2.37026">
        <ele>28.60000038147</ele>
        <time>2022-01-13T10:15:33.000Z</time>
      </trkpt>
      <trkpt lat="47.37346" lon="-2.37038">
        <ele>28.200000762939</ele>
        <time>2022-01-13T10:15:36.000Z</time>
      </trkpt>
      <trkpt lat="47.37342" lon="-2.37046">
        <ele>27.60000038147</ele>
        <time>2022-01-13T10:15:37.000Z</time>
      </trkpt>
      <trkpt lat="47.3734" lon="-2.37054">
        <ele>27.200000762939</ele>
        <time>2022-01-13T10:15:38.000Z</time>
      </trkpt>
      <trkpt lat="47.37339" lon="-2.37062">
        <ele>26.799999237061</ele>
        <time>2022-01-13T10:15:39.000Z</time>
      </trkpt>
      <trkpt lat="47.3734" lon="-2.37071">
        <ele>26.39999961853</ele>
        <time>2022-01-13T10:15:40.000Z</time>
      </trkpt>
      <trkpt lat="47.37349" lon="-2.37102">
        <ele>26.39999961853</ele>
        <time>2022-01-13T10:15:44.000Z</time>
      </trkpt>
      <trkpt lat="47.37355" lon="-2.37125">
        <ele>26.39999961853</ele>
        <time>2022-01-13T10:15:47.000Z</time>
      </trkpt>
      <trkpt lat="47.37367" lon="-2.37161">
        <ele>26.39999961853</ele>
        <time>2022-01-13T10:15:52.000Z</time>
      </trkpt>
      <trkpt lat="47.37376" lon="-2.37192">
        <ele>26.39999961853</ele>
        <time>2022-01-13T10:15:56.000Z</time>
      </trkpt>
      <trkpt lat="47.37376" lon="-2.37205">
        <ele>26.39999961853</ele>
        <time>2022-01-13T10:15:58.000Z</time>
      </trkpt>
      <trkpt lat="47.37366" lon="-2.3722">
        <ele>26.39999961853</ele>
        <time>2022-01-13T10:16:01.000Z</time>
      </trkpt>
      <trkpt lat="47.37353" lon="-2.3723">
        <ele>25.799999237061</ele>
        <time>2022-01-13T10:16:03.000Z</time>
      </trkpt>
      <trkpt lat="47.37346" lon="-2.37235">
        <ele>25.39999961853</ele>
        <time>2022-01-13T10:16:04.000Z</time>
      </trkpt>
      <trkpt lat="47.37339" lon="-2.3724">
        <ele>25</ele>
        <time>2022-01-13T10:16:05.000Z</time>
      </trkpt>
      <trkpt lat="47.37332" lon="-2.37244">
        <ele>24.60000038147</ele>
        <time>2022-01-13T10:16:06.000Z</time>
      </trkpt>
      <trkpt lat="47.37324" lon="-2.37248">
        <ele>24.200000762939</ele>
        <time>2022-01-13T10:16:07.000Z</time>
      </trkpt>
      <trkpt lat="47.37304" lon="-2.37258">
        <ele>24.200000762939</ele>
        <time>2022-01-13T10:16:10.000Z</time>
      </trkpt>
      <trkpt lat="47.37264" lon="-2.37277">
        <ele>24.200000762939</ele>
        <time>2022-01-13T10:16:16.000Z</time>
      </trkpt>
      <trkpt lat="47.37232" lon="-2.3728">
        <ele>24.200000762939</ele>
        <time>2022-01-13T10:16:21.000Z</time>
      </trkpt>
      <trkpt lat="47.37193" lon="-2.37288">
        <ele>24.60000038147</ele>
        <time>2022-01-13T10:16:28.000Z</time>
      </trkpt>
      <trkpt lat="47.37187" lon="-2.3729">
        <ele>25</ele>
        <time>2022-01-13T10:16:29.000Z</time>
      </trkpt>
      <trkpt lat="47.37181" lon="-2.37291">
        <ele>25.39999961853</ele>
        <time>2022-01-13T10:16:30.000Z</time>
      </trkpt>
      <trkpt lat="47.37176" lon="-2.37293">
        <ele>25.799999237061</ele>
        <time>2022-01-13T10:16:31.000Z</time>
      </trkpt>
      <trkpt lat="47.37169" lon="-2.37295">
        <ele>26.200000762939</ele>
        <time>2022-01-13T10:16:32.000Z</time>
      </trkpt>
      <trkpt lat="47.37163" lon="-2.37297">
        <ele>26.200000762939</ele>
        <time>2022-01-13T10:16:33.000Z</time>
      </trkpt>
      <trkpt lat="47.37147" lon="-2.37308">
        <ele>26.200000762939</ele>
        <time>2022-01-13T10:16:36.000Z</time>
      </trkpt>
      <trkpt lat="47.37137" lon="-2.37318">
        <ele>26.200000762939</ele>
        <time>2022-01-13T10:16:38.000Z</time>
      </trkpt>
      <trkpt lat="47.37129" lon="-2.37331">
        <ele>26.200000762939</ele>
        <time>2022-01-13T10:16:40.000Z</time>
      </trkpt>
      <trkpt lat="47.37125" lon="-2.37338">
        <ele>26.200000762939</ele>
        <time>2022-01-13T10:16:41.000Z</time>
      </trkpt>
      <trkpt lat="47.37097" lon="-2.37388">
        <ele>26.200000762939</ele>
        <time>2022-01-13T10:16:48.000Z</time>
      </trkpt>
      <trkpt lat="47.37068" lon="-2.37441">
        <ele>26.200000762939</ele>
        <time>2022-01-13T10:16:55.000Z</time>
      </trkpt>
      <trkpt lat="47.3704" lon="-2.37492">
        <ele>26.200000762939</ele>
        <time>2022-01-13T10:17:02.000Z</time>
      </trkpt>
      <trkpt lat="47.37031" lon="-2.37506">
        <ele>26.200000762939</ele>
        <time>2022-01-13T10:17:04.000Z</time>
      </trkpt>
      <trkpt lat="47.37017" lon="-2.37525">
        <ele>26.200000762939</ele>
        <time>2022-01-13T10:17:07.000Z</time>
      </trkpt>
      <trkpt lat="47.37012" lon="-2.3753">
        <ele>26.200000762939</ele>
        <time>2022-01-13T10:17:08.000Z</time>
      </trkpt>
      <trkpt lat="47.36974" lon="-2.37555">
        <ele>26.200000762939</ele>
        <time>2022-01-13T10:17:14.000Z</time>
      </trkpt>
      <trkpt lat="47.36928" lon="-2.37575">
        <ele>26.200000762939</ele>
        <time>2022-01-13T10:17:21.000Z</time>
      </trkpt>
      <trkpt lat="47.36886" lon="-2.37576">
        <ele>26.200000762939</ele>
        <time>2022-01-13T10:17:27.000Z</time>
      </trkpt>
      <trkpt lat="47.36851" lon="-2.37567">
        <ele>26.200000762939</ele>
        <time>2022-01-13T10:17:32.000Z</time>
      </trkpt>
      <trkpt lat="47.368" lon="-2.37539">
        <ele>26.200000762939</ele>
        <time>2022-01-13T10:17:40.000Z</time>
      </trkpt>
      <trkpt lat="47.36793" lon="-2.37537">
        <ele>26.200000762939</ele>
        <time>2022-01-13T10:17:41.000Z</time>
      </trkpt>
      <trkpt lat="47.36787" lon="-2.37536">
        <ele>25.799999237061</ele>
        <time>2022-01-13T10:17:42.000Z</time>
      </trkpt>
      <trkpt lat="47.3678" lon="-2.37537">
        <ele>25.39999961853</ele>
        <time>2022-01-13T10:17:43.000Z</time>
      </trkpt>
      <trkpt lat="47.36772" lon="-2.3754">
        <ele>25</ele>
        <time>2022-01-13T10:17:44.000Z</time>
      </trkpt>
      <trkpt lat="47.36766" lon="-2.37544">
        <ele>24.60000038147</ele>
        <time>2022-01-13T10:17:45.000Z</time>
      </trkpt>
      <trkpt lat="47.3676" lon="-2.3755">
        <ele>24.200000762939</ele>
        <time>2022-01-13T10:17:46.000Z</time>
      </trkpt>
      <trkpt lat="47.36754" lon="-2.37557">
        <ele>24.200000762939</ele>
        <time>2022-01-13T10:17:47.000Z</time>
      </trkpt>
      <trkpt lat="47.36745" lon="-2.37573">
        <ele>24.200000762939</ele>
        <time>2022-01-13T10:17:49.000Z</time>
      </trkpt>
      <trkpt lat="47.36733" lon="-2.37598">
        <ele>24.200000762939</ele>
        <time>2022-01-13T10:17:52.000Z</time>
      </trkpt>
      <trkpt lat="47.36713" lon="-2.37653">
        <ele>24.200000762939</ele>
        <time>2022-01-13T10:17:59.000Z</time>
      </trkpt>
      <trkpt lat="47.36701" lon="-2.37708">
        <ele>24.200000762939</ele>
        <time>2022-01-13T10:18:05.000Z</time>
      </trkpt>
      <trkpt lat="47.36693" lon="-2.37764">
        <ele>24.200000762939</ele>
        <time>2022-01-13T10:18:11.000Z</time>
      </trkpt>
      <trkpt lat="47.36681" lon="-2.37816">
        <ele>24.200000762939</ele>
        <time>2022-01-13T10:18:17.000Z</time>
      </trkpt>
      <trkpt lat="47.36672" lon="-2.37842">
        <ele>24.60000038147</ele>
        <time>2022-01-13T10:18:20.000Z</time>
      </trkpt>
      <trkpt lat="47.36669" lon="-2.37851">
        <ele>25</ele>
        <time>2022-01-13T10:18:21.000Z</time>
      </trkpt>
      <trkpt lat="47.36665" lon="-2.37859">
        <ele>25.39999961853</ele>
        <time>2022-01-13T10:18:22.000Z</time>
      </trkpt>
      <trkpt lat="47.36662" lon="-2.37867">
        <ele>25.799999237061</ele>
        <time>2022-01-13T10:18:23.000Z</time>
      </trkpt>
      <trkpt lat="47.36659" lon="-2.37875">
        <ele>26.200000762939</ele>
        <time>2022-01-13T10:18:24.000Z</time>
      </trkpt>
      <trkpt lat="47.36639" lon="-2.37933">
        <ele>26.200000762939</ele>
        <time>2022-01-13T10:18:31.000Z</time>
      </trkpt>
      <trkpt lat="47.36624" lon="-2.37986">
        <ele>26.200000762939</ele>
        <time>2022-01-13T10:18:38.000Z</time>
      </trkpt>
      <trkpt lat="47.36616" lon="-2.38008">
        <ele>26.200000762939</ele>
        <time>2022-01-13T10:18:42.000Z</time>
      </trkpt>
      <trkpt lat="47.36613" lon="-2.3801">
        <ele>26.200000762939</ele>
        <time>2022-01-13T10:18:43.000Z</time>
      </trkpt>
      <trkpt lat="47.36606" lon="-2.38002">
        <ele>26.60000038147</ele>
        <time>2022-01-13T10:18:46.000Z</time>
      </trkpt>
      <trkpt lat="47.36603" lon="-2.37997">
        <ele>27.200000762939</ele>
        <time>2022-01-13T10:18:47.000Z</time>
      </trkpt>
      <trkpt lat="47.36601" lon="-2.3799">
        <ele>27.60000038147</ele>
        <time>2022-01-13T10:18:48.000Z</time>
      </trkpt>
      <trkpt lat="47.36599" lon="-2.37983">
        <ele>28</ele>
        <time>2022-01-13T10:18:49.000Z</time>
      </trkpt>
      <trkpt lat="47.36597" lon="-2.37977">
        <ele>28.39999961853</ele>
        <time>2022-01-13T10:18:50.000Z</time>
      </trkpt>
      <trkpt lat="47.36594" lon="-2.3797">
        <ele>28.39999961853</ele>
        <time>2022-01-13T10:18:51.000Z</time>
      </trkpt>
      <trkpt lat="47.36582" lon="-2.37944">
        <ele>28.39999961853</ele>
        <time>2022-01-13T10:18:55.000Z</time>
      </trkpt>
      <trkpt lat="47.36571" lon="-2.37907">
        <ele>28.39999961853</ele>
        <time>2022-01-13T10:19:01.000Z</time>
      </trkpt>
      <trkpt lat="47.3657" lon="-2.37901">
        <ele>28.39999961853</ele>
        <time>2022-01-13T10:19:02.000Z</time>
      </trkpt>
      <trkpt lat="47.36568" lon="-2.37894">
        <ele>28.39999961853</ele>
        <time>2022-01-13T10:19:03.000Z</time>
      </trkpt>
      <trkpt lat="47.36562" lon="-2.37865">
        <ele>28.39999961853</ele>
        <time>2022-01-13T10:19:07.000Z</time>
      </trkpt>
      <trkpt lat="47.36546" lon="-2.37808">
        <ele>28.39999961853</ele>
        <time>2022-01-13T10:19:15.000Z</time>
      </trkpt>
      <trkpt lat="47.36544" lon="-2.37801">
        <ele>28.39999961853</ele>
        <time>2022-01-13T10:19:16.000Z</time>
      </trkpt>
      <trkpt lat="47.36533" lon="-2.37782">
        <ele>28.39999961853</ele>
        <time>2022-01-13T10:19:19.000Z</time>
      </trkpt>
      <trkpt lat="47.36529" lon="-2.37777">
        <ele>28.39999961853</ele>
        <time>2022-01-13T10:19:20.000Z</time>
      </trkpt>
      <trkpt lat="47.36504" lon="-2.37751">
        <ele>28.799999237061</ele>
        <time>2022-01-13T10:19:26.000Z</time>
      </trkpt>
      <trkpt lat="47.36499" lon="-2.37746">
        <ele>29.39999961853</ele>
        <time>2022-01-13T10:19:27.000Z</time>
      </trkpt>
      <trkpt lat="47.36495" lon="-2.37741">
        <ele>29.799999237061</ele>
        <time>2022-01-13T10:19:28.000Z</time>
      </trkpt>
      <trkpt lat="47.36491" lon="-2.37736">
        <ele>30.39999961853</ele>
        <time>2022-01-13T10:19:29.000Z</time>
      </trkpt>
      <trkpt lat="47.36487" lon="-2.3773">
        <ele>30.799999237061</ele>
        <time>2022-01-13T10:19:30.000Z</time>
      </trkpt>
      <trkpt lat="47.36478" lon="-2.37711">
        <ele>30.799999237061</ele>
        <time>2022-01-13T10:19:33.000Z</time>
      </trkpt>
      <trkpt lat="47.36457" lon="-2.37661">
        <ele>30.39999961853</ele>
        <time>2022-01-13T10:19:40.000Z</time>
      </trkpt>
      <trkpt lat="47.36454" lon="-2.37653">
        <ele>30</ele>
        <time>2022-01-13T10:19:41.000Z</time>
      </trkpt>
      <trkpt lat="47.36451" lon="-2.37646">
        <ele>29.39999961853</ele>
        <time>2022-01-13T10:19:42.000Z</time>
      </trkpt>
      <trkpt lat="47.36447" lon="-2.37639">
        <ele>29</ele>
        <time>2022-01-13T10:19:43.000Z</time>
      </trkpt>
      <trkpt lat="47.36442" lon="-2.37632">
        <ele>28.60000038147</ele>
        <time>2022-01-13T10:19:44.000Z</time>
      </trkpt>
      <trkpt lat="47.36431" lon="-2.37624">
        <ele>28.60000038147</ele>
        <time>2022-01-13T10:19:46.000Z</time>
      </trkpt>
      <trkpt lat="47.36419" lon="-2.37618">
        <ele>28.60000038147</ele>
        <time>2022-01-13T10:19:48.000Z</time>
      </trkpt>
      <trkpt lat="47.36398" lon="-2.37614">
        <ele>28.60000038147</ele>
        <time>2022-01-13T10:19:51.000Z</time>
      </trkpt>
      <trkpt lat="47.36378" lon="-2.3761">
        <ele>28.200000762939</ele>
        <time>2022-01-13T10:19:54.000Z</time>
      </trkpt>
      <trkpt lat="47.36372" lon="-2.37608">
        <ele>27.799999237061</ele>
        <time>2022-01-13T10:19:55.000Z</time>
      </trkpt>
      <trkpt lat="47.36366" lon="-2.37605">
        <ele>27.39999961853</ele>
        <time>2022-01-13T10:19:56.000Z</time>
      </trkpt>
      <trkpt lat="47.36359" lon="-2.37601">
        <ele>26.60000038147</ele>
        <time>2022-01-13T10:19:57.000Z</time>
      </trkpt>
      <trkpt lat="47.36336" lon="-2.3758">
        <ele>26.60000038147</ele>
        <time>2022-01-13T10:20:01.000Z</time>
      </trkpt>
      <trkpt lat="47.36329" lon="-2.37571">
        <ele>26.60000038147</ele>
        <time>2022-01-13T10:20:02.000Z</time>
      </trkpt>
      <trkpt lat="47.36291" lon="-2.3753">
        <ele>26.60000038147</ele>
        <time>2022-01-13T10:20:09.000Z</time>
      </trkpt>
      <trkpt lat="47.36252" lon="-2.37496">
        <ele>26.60000038147</ele>
        <time>2022-01-13T10:20:16.000Z</time>
      </trkpt>
      <trkpt lat="47.36212" lon="-2.37467">
        <ele>26.60000038147</ele>
        <time>2022-01-13T10:20:23.000Z</time>
      </trkpt>
      <trkpt lat="47.362" lon="-2.37461">
        <ele>26.60000038147</ele>
        <time>2022-01-13T10:20:25.000Z</time>
      </trkpt>
      <trkpt lat="47.36175" lon="-2.37452">
        <ele>26.60000038147</ele>
        <time>2022-01-13T10:20:29.000Z</time>
      </trkpt>
      <trkpt lat="47.36126" lon="-2.37434">
        <ele>26.60000038147</ele>
        <time>2022-01-13T10:20:37.000Z</time>
      </trkpt>
      <trkpt lat="47.36081" lon="-2.3742">
        <ele>26.60000038147</ele>
        <time>2022-01-13T10:20:45.000Z</time>
      </trkpt>
      <trkpt lat="47.36049" lon="-2.37415">
        <ele>26.60000038147</ele>
        <time>2022-01-13T10:20:52.000Z</time>
      </trkpt>
      <trkpt lat="47.36045" lon="-2.37415">
        <ele>26.60000038147</ele>
        <time>2022-01-13T10:20:53.000Z</time>
      </trkpt>
      <trkpt lat="47.36026" lon="-2.37416">
        <ele>26.60000038147</ele>
        <time>2022-01-13T10:20:57.000Z</time>
      </trkpt>
      <trkpt lat="47.36013" lon="-2.37406">
        <ele>26.60000038147</ele>
        <time>2022-01-13T10:21:00.000Z</time>
      </trkpt>
      <trkpt lat="47.35984" lon="-2.37384">
        <ele>26.60000038147</ele>
        <time>2022-01-13T10:21:06.000Z</time>
      </trkpt>
      <trkpt lat="47.35952" lon="-2.37371">
        <ele>26.60000038147</ele>
        <time>2022-01-13T10:21:12.000Z</time>
      </trkpt>
      <trkpt lat="47.35914" lon="-2.37357">
        <ele>26.60000038147</ele>
        <time>2022-01-13T10:21:19.000Z</time>
      </trkpt>
      <trkpt lat="47.35883" lon="-2.37346">
        <ele>26.60000038147</ele>
        <time>2022-01-13T10:21:25.000Z</time>
      </trkpt>
      <trkpt lat="47.35878" lon="-2.37344">
        <ele>27</ele>
        <time>2022-01-13T10:21:26.000Z</time>
      </trkpt>
      <trkpt lat="47.35874" lon="-2.37343">
        <ele>27.39999961853</ele>
        <time>2022-01-13T10:21:27.000Z</time>
      </trkpt>
      <trkpt lat="47.35868" lon="-2.37341">
        <ele>27.799999237061</ele>
        <time>2022-01-13T10:21:28.000Z</time>
      </trkpt>
      <trkpt lat="47.35864" lon="-2.37339">
        <ele>28.200000762939</ele>
        <time>2022-01-13T10:21:29.000Z</time>
      </trkpt>
      <trkpt lat="47.35859" lon="-2.37338">
        <ele>28.60000038147</ele>
        <time>2022-01-13T10:21:30.000Z</time>
      </trkpt>
      <trkpt lat="47.35849" lon="-2.37335">
        <ele>28.60000038147</ele>
        <time>2022-01-13T10:21:32.000Z</time>
      </trkpt>
      <trkpt lat="47.3584" lon="-2.3733">
        <ele>28.60000038147</ele>
        <time>2022-01-13T10:21:34.000Z</time>
      </trkpt>
      <trkpt lat="47.35822" lon="-2.37323">
        <ele>28.60000038147</ele>
        <time>2022-01-13T10:21:38.000Z</time>
      </trkpt>
      <trkpt lat="47.35793" lon="-2.37313">
        <ele>29</ele>
        <time>2022-01-13T10:21:44.000Z</time>
      </trkpt>
      <trkpt lat="47.35789" lon="-2.37312">
        <ele>29.39999961853</ele>
        <time>2022-01-13T10:21:45.000Z</time>
      </trkpt>
      <trkpt lat="47.35784" lon="-2.3731">
        <ele>29.799999237061</ele>
        <time>2022-01-13T10:21:46.000Z</time>
      </trkpt>
      <trkpt lat="47.3578" lon="-2.37309">
        <ele>30.200000762939</ele>
        <time>2022-01-13T10:21:47.000Z</time>
      </trkpt>
      <trkpt lat="47.35775" lon="-2.37307">
        <ele>30.60000038147</ele>
        <time>2022-01-13T10:21:48.000Z</time>
      </trkpt>
      <trkpt lat="47.35753" lon="-2.37298">
        <ele>30.60000038147</ele>
        <time>2022-01-13T10:21:53.000Z</time>
      </trkpt>
      <trkpt lat="47.35749" lon="-2.37296">
        <ele>31.39999961853</ele>
        <time>2022-01-13T10:21:54.000Z</time>
      </trkpt>
      <trkpt lat="47.35744" lon="-2.37293">
        <ele>32</ele>
        <time>2022-01-13T10:21:55.000Z</time>
      </trkpt>
      <trkpt lat="47.3574" lon="-2.3729">
        <ele>32.400001525879</ele>
        <time>2022-01-13T10:21:56.000Z</time>
      </trkpt>
      <trkpt lat="47.35736" lon="-2.37287">
        <ele>32.799999237061</ele>
        <time>2022-01-13T10:21:57.000Z</time>
      </trkpt>
      <trkpt lat="47.35721" lon="-2.37273">
        <ele>32.799999237061</ele>
        <time>2022-01-13T10:22:01.000Z</time>
      </trkpt>
      <trkpt lat="47.35711" lon="-2.37253">
        <ele>32.799999237061</ele>
        <time>2022-01-13T10:22:05.000Z</time>
      </trkpt>
      <trkpt lat="47.35708" lon="-2.37249">
        <ele>32.799999237061</ele>
        <time>2022-01-13T10:22:06.000Z</time>
      </trkpt>
      <trkpt lat="47.35696" lon="-2.37249">
        <ele>32.799999237061</ele>
        <time>2022-01-13T10:22:09.000Z</time>
      </trkpt>
      <trkpt lat="47.35679" lon="-2.37256">
        <ele>32.799999237061</ele>
        <time>2022-01-13T10:22:14.000Z</time>
      </trkpt>
      <trkpt lat="47.35673" lon="-2.37258">
        <ele>32.799999237061</ele>
        <time>2022-01-13T10:22:16.000Z</time>
      </trkpt>
      <trkpt lat="47.35669" lon="-2.37258">
        <ele>33.200000762939</ele>
        <time>2022-01-13T10:22:17.000Z</time>
      </trkpt>
      <trkpt lat="47.35664" lon="-2.37258">
        <ele>33.799999237061</ele>
        <time>2022-01-13T10:22:18.000Z</time>
      </trkpt>
      <trkpt lat="47.3566" lon="-2.37258">
        <ele>34.599998474121</ele>
        <time>2022-01-13T10:22:19.000Z</time>
      </trkpt>
      <trkpt lat="47.35656" lon="-2.37258">
        <ele>35</ele>
        <time>2022-01-13T10:22:20.000Z</time>
      </trkpt>
      <trkpt lat="47.35638" lon="-2.37266">
        <ele>35</ele>
        <time>2022-01-13T10:22:24.000Z</time>
      </trkpt>
      <trkpt lat="47.35634" lon="-2.37269">
        <ele>35</ele>
        <time>2022-01-13T10:22:25.000Z</time>
      </trkpt>
      <trkpt lat="47.35631" lon="-2.37272">
        <ele>35</ele>
        <time>2022-01-13T10:22:26.000Z</time>
      </trkpt>
      <trkpt lat="47.35612" lon="-2.3729">
        <ele>35</ele>
        <time>2022-01-13T10:22:31.000Z</time>
      </trkpt>
      <trkpt lat="47.356" lon="-2.373">
        <ele>35.400001525879</ele>
        <time>2022-01-13T10:22:34.000Z</time>
      </trkpt>
      <trkpt lat="47.35596" lon="-2.37304">
        <ele>35.799999237061</ele>
        <time>2022-01-13T10:22:35.000Z</time>
      </trkpt>
      <trkpt lat="47.35592" lon="-2.37306">
        <ele>36.400001525879</ele>
        <time>2022-01-13T10:22:36.000Z</time>
      </trkpt>
      <trkpt lat="47.35588" lon="-2.37309">
        <ele>36.799999237061</ele>
        <time>2022-01-13T10:22:37.000Z</time>
      </trkpt>
      <trkpt lat="47.35584" lon="-2.37313">
        <ele>37.200000762939</ele>
        <time>2022-01-13T10:22:38.000Z</time>
      </trkpt>
      <trkpt lat="47.35549" lon="-2.37339">
        <ele>37.200000762939</ele>
        <time>2022-01-13T10:22:46.000Z</time>
      </trkpt>
      <trkpt lat="47.35529" lon="-2.37351">
        <ele>37.200000762939</ele>
        <time>2022-01-13T10:22:50.000Z</time>
      </trkpt>
      <trkpt lat="47.35519" lon="-2.37355">
        <ele>37.200000762939</ele>
        <time>2022-01-13T10:22:52.000Z</time>
      </trkpt>
      <trkpt lat="47.3551" lon="-2.37363">
        <ele>37.200000762939</ele>
        <time>2022-01-13T10:22:54.000Z</time>
      </trkpt>
      <trkpt lat="47.35496" lon="-2.37371">
        <ele>37.200000762939</ele>
        <time>2022-01-13T10:22:57.000Z</time>
      </trkpt>
      <trkpt lat="47.35477" lon="-2.37383">
        <ele>37.200000762939</ele>
        <time>2022-01-13T10:23:01.000Z</time>
      </trkpt>
      <trkpt lat="47.35468" lon="-2.37386">
        <ele>37.200000762939</ele>
        <time>2022-01-13T10:23:03.000Z</time>
      </trkpt>
      <trkpt lat="47.35446" lon="-2.37393">
        <ele>37.200000762939</ele>
        <time>2022-01-13T10:23:08.000Z</time>
      </trkpt>
      <trkpt lat="47.35441" lon="-2.37394">
        <ele>37.200000762939</ele>
        <time>2022-01-13T10:23:09.000Z</time>
      </trkpt>
      <trkpt lat="47.35422" lon="-2.37397">
        <ele>37.200000762939</ele>
        <time>2022-01-13T10:23:13.000Z</time>
      </trkpt>
      <trkpt lat="47.35396" lon="-2.37401">
        <ele>37.200000762939</ele>
        <time>2022-01-13T10:23:18.000Z</time>
      </trkpt>
      <trkpt lat="47.35391" lon="-2.37402">
        <ele>37.200000762939</ele>
        <time>2022-01-13T10:23:19.000Z</time>
      </trkpt>
      <trkpt lat="47.3536" lon="-2.37411">
        <ele>37.200000762939</ele>
        <time>2022-01-13T10:23:25.000Z</time>
      </trkpt>
      <trkpt lat="47.35336" lon="-2.37418">
        <ele>37.599998474121</ele>
        <time>2022-01-13T10:23:30.000Z</time>
      </trkpt>
      <trkpt lat="47.35331" lon="-2.37419">
        <ele>38</ele>
        <time>2022-01-13T10:23:31.000Z</time>
      </trkpt>
      <trkpt lat="47.35326" lon="-2.37421">
        <ele>38.400001525879</ele>
        <time>2022-01-13T10:23:32.000Z</time>
      </trkpt>
      <trkpt lat="47.35321" lon="-2.37422">
        <ele>39.200000762939</ele>
        <time>2022-01-13T10:23:33.000Z</time>
      </trkpt>
      <trkpt lat="47.35302" lon="-2.37429">
        <ele>39.200000762939</ele>
        <time>2022-01-13T10:23:38.000Z</time>
      </trkpt>
      <trkpt lat="47.35286" lon="-2.37425">
        <ele>39.200000762939</ele>
        <time>2022-01-13T10:23:43.000Z</time>
      </trkpt>
      <trkpt lat="47.35282" lon="-2.37403">
        <ele>39.200000762939</ele>
        <time>2022-01-13T10:23:47.000Z</time>
      </trkpt>
      <trkpt lat="47.35282" lon="-2.37389">
        <ele>39.200000762939</ele>
        <time>2022-01-13T10:23:49.000Z</time>
      </trkpt>
      <trkpt lat="47.35281" lon="-2.37367">
        <ele>39.599998474121</ele>
        <time>2022-01-13T10:23:52.000Z</time>
      </trkpt>
      <trkpt lat="47.35281" lon="-2.3736">
        <ele>40</ele>
        <time>2022-01-13T10:23:53.000Z</time>
      </trkpt>
      <trkpt lat="47.35281" lon="-2.37354">
        <ele>40.400001525879</ele>
        <time>2022-01-13T10:23:54.000Z</time>
      </trkpt>
      <trkpt lat="47.35281" lon="-2.37347">
        <ele>41</ele>
        <time>2022-01-13T10:23:55.000Z</time>
      </trkpt>
      <trkpt lat="47.35281" lon="-2.3734">
        <ele>41.400001525879</ele>
        <time>2022-01-13T10:23:56.000Z</time>
      </trkpt>
      <trkpt lat="47.3528" lon="-2.3732">
        <ele>41.400001525879</ele>
        <time>2022-01-13T10:23:59.000Z</time>
      </trkpt>
      <trkpt lat="47.3528" lon="-2.37306">
        <ele>41.400001525879</ele>
        <time>2022-01-13T10:24:01.000Z</time>
      </trkpt>
      <trkpt lat="47.35279" lon="-2.37243">
        <ele>41.400001525879</ele>
        <time>2022-01-13T10:24:09.000Z</time>
      </trkpt>
      <trkpt lat="47.35278" lon="-2.37216">
        <ele>41.400001525879</ele>
        <time>2022-01-13T10:24:13.000Z</time>
      </trkpt>
      <trkpt lat="47.35275" lon="-2.3721">
        <ele>41.400001525879</ele>
        <time>2022-01-13T10:24:15.000Z</time>
      </trkpt>
      <trkpt lat="47.35261" lon="-2.37193">
        <ele>41.400001525879</ele>
        <time>2022-01-13T10:24:19.000Z</time>
      </trkpt>
      <trkpt lat="47.35258" lon="-2.37188">
        <ele>41.400001525879</ele>
        <time>2022-01-13T10:24:20.000Z</time>
      </trkpt>
      <trkpt lat="47.35245" lon="-2.37167">
        <ele>41.400001525879</ele>
        <time>2022-01-13T10:24:24.000Z</time>
      </trkpt>
      <trkpt lat="47.3524" lon="-2.37155">
        <ele>41.400001525879</ele>
        <time>2022-01-13T10:24:26.000Z</time>
      </trkpt>
      <trkpt lat="47.3523" lon="-2.37113">
        <ele>41.400001525879</ele>
        <time>2022-01-13T10:24:32.000Z</time>
      </trkpt>
      <trkpt lat="47.35218" lon="-2.37055">
        <ele>41.400001525879</ele>
        <time>2022-01-13T10:24:40.000Z</time>
      </trkpt>
      <trkpt lat="47.35204" lon="-2.37004">
        <ele>41.400001525879</ele>
        <time>2022-01-13T10:24:47.000Z</time>
      </trkpt>
      <trkpt lat="47.35186" lon="-2.36965">
        <ele>41.400001525879</ele>
        <time>2022-01-13T10:24:53.000Z</time>
      </trkpt>
      <trkpt lat="47.35173" lon="-2.36938">
        <ele>41.400001525879</ele>
        <time>2022-01-13T10:24:57.000Z</time>
      </trkpt>
      <trkpt lat="47.35169" lon="-2.36931">
        <ele>41.400001525879</ele>
        <time>2022-01-13T10:24:58.000Z</time>
      </trkpt>
      <trkpt lat="47.3515" lon="-2.36878">
        <ele>41.400001525879</ele>
        <time>2022-01-13T10:25:05.000Z</time>
      </trkpt>
      <trkpt lat="47.35138" lon="-2.36822">
        <ele>41.400001525879</ele>
        <time>2022-01-13T10:25:12.000Z</time>
      </trkpt>
      <trkpt lat="47.35123" lon="-2.36759">
        <ele>41.400001525879</ele>
        <time>2022-01-13T10:25:20.000Z</time>
      </trkpt>
      <trkpt lat="47.3511" lon="-2.36704">
        <ele>41.400001525879</ele>
        <time>2022-01-13T10:25:27.000Z</time>
      </trkpt>
      <trkpt lat="47.35088" lon="-2.36635">
        <ele>41.400001525879</ele>
        <time>2022-01-13T10:25:36.000Z</time>
      </trkpt>
      <trkpt lat="47.35062" lon="-2.36562">
        <ele>41.400001525879</ele>
        <time>2022-01-13T10:25:45.000Z</time>
      </trkpt>
      <trkpt lat="47.35052" lon="-2.36539">
        <ele>40.799999237061</ele>
        <time>2022-01-13T10:25:48.000Z</time>
      </trkpt>
      <trkpt lat="47.35048" lon="-2.36531">
        <ele>40.400001525879</ele>
        <time>2022-01-13T10:25:49.000Z</time>
      </trkpt>
      <trkpt lat="47.35044" lon="-2.36523">
        <ele>40</ele>
        <time>2022-01-13T10:25:50.000Z</time>
      </trkpt>
      <trkpt lat="47.35039" lon="-2.36516">
        <ele>39.599998474121</ele>
        <time>2022-01-13T10:25:51.000Z</time>
      </trkpt>
      <trkpt lat="47.35034" lon="-2.36508">
        <ele>39</ele>
        <time>2022-01-13T10:25:52.000Z</time>
      </trkpt>
      <trkpt lat="47.35021" lon="-2.36484">
        <ele>38.599998474121</ele>
        <time>2022-01-13T10:25:55.000Z</time>
      </trkpt>
      <trkpt lat="47.35017" lon="-2.36476">
        <ele>38.200000762939</ele>
        <time>2022-01-13T10:25:56.000Z</time>
      </trkpt>
      <trkpt lat="47.35013" lon="-2.36467">
        <ele>37.799999237061</ele>
        <time>2022-01-13T10:25:57.000Z</time>
      </trkpt>
      <trkpt lat="47.35011" lon="-2.36459">
        <ele>37.400001525879</ele>
        <time>2022-01-13T10:25:58.000Z</time>
      </trkpt>
      <trkpt lat="47.35009" lon="-2.3645">
        <ele>37</ele>
        <time>2022-01-13T10:25:59.000Z</time>
      </trkpt>
      <trkpt lat="47.35001" lon="-2.36425">
        <ele>37</ele>
        <time>2022-01-13T10:26:02.000Z</time>
      </trkpt>
      <trkpt lat="47.34997" lon="-2.36418">
        <ele>37</ele>
        <time>2022-01-13T10:26:03.000Z</time>
      </trkpt>
      <trkpt lat="47.34976" lon="-2.36402">
        <ele>37</ele>
        <time>2022-01-13T10:26:07.000Z</time>
      </trkpt>
      <trkpt lat="47.34971" lon="-2.36398">
        <ele>37</ele>
        <time>2022-01-13T10:26:08.000Z</time>
      </trkpt>
      <trkpt lat="47.34947" lon="-2.36382">
        <ele>37.400001525879</ele>
        <time>2022-01-13T10:26:13.000Z</time>
      </trkpt>
      <trkpt lat="47.34942" lon="-2.36379">
        <ele>37.799999237061</ele>
        <time>2022-01-13T10:26:14.000Z</time>
      </trkpt>
      <trkpt lat="47.34937" lon="-2.36376">
        <ele>38.200000762939</ele>
        <time>2022-01-13T10:26:15.000Z</time>
      </trkpt>
      <trkpt lat="47.34933" lon="-2.36373">
        <ele>38.799999237061</ele>
        <time>2022-01-13T10:26:16.000Z</time>
      </trkpt>
      <trkpt lat="47.34928" lon="-2.3637">
        <ele>39.200000762939</ele>
        <time>2022-01-13T10:26:17.000Z</time>
      </trkpt>
      <trkpt lat="47.34914" lon="-2.36363">
        <ele>39.599998474121</ele>
        <time>2022-01-13T10:26:20.000Z</time>
      </trkpt>
      <trkpt lat="47.34909" lon="-2.3636">
        <ele>40</ele>
        <time>2022-01-13T10:26:21.000Z</time>
      </trkpt>
      <trkpt lat="47.34904" lon="-2.36357">
        <ele>40.599998474121</ele>
        <time>2022-01-13T10:26:22.000Z</time>
      </trkpt>
      <trkpt lat="47.349" lon="-2.36355">
        <ele>41</ele>
        <time>2022-01-13T10:26:23.000Z</time>
      </trkpt>
      <trkpt lat="47.34895" lon="-2.36352">
        <ele>41.400001525879</ele>
        <time>2022-01-13T10:26:24.000Z</time>
      </trkpt>
      <trkpt lat="47.34887" lon="-2.36348">
        <ele>41.400001525879</ele>
        <time>2022-01-13T10:26:26.000Z</time>
      </trkpt>
      <trkpt lat="47.34863" lon="-2.36334">
        <ele>41.400001525879</ele>
        <time>2022-01-13T10:26:32.000Z</time>
      </trkpt>
      <trkpt lat="47.3485" lon="-2.36326">
        <ele>41.799999237061</ele>
        <time>2022-01-13T10:26:35.000Z</time>
      </trkpt>
      <trkpt lat="47.34846" lon="-2.36324">
        <ele>42.200000762939</ele>
        <time>2022-01-13T10:26:36.000Z</time>
      </trkpt>
      <trkpt lat="47.34842" lon="-2.36321">
        <ele>42.599998474121</ele>
        <time>2022-01-13T10:26:37.000Z</time>
      </trkpt>
      <trkpt lat="47.34838" lon="-2.36319">
        <ele>43</ele>
        <time>2022-01-13T10:26:38.000Z</time>
      </trkpt>
      <trkpt lat="47.34833" lon="-2.36317">
        <ele>43.599998474121</ele>
        <time>2022-01-13T10:26:39.000Z</time>
      </trkpt>
      <trkpt lat="47.34829" lon="-2.36316">
        <ele>43.599998474121</ele>
        <time>2022-01-13T10:26:40.000Z</time>
      </trkpt>
      <trkpt lat="47.34816" lon="-2.36324">
        <ele>43.599998474121</ele>
        <time>2022-01-13T10:26:43.000Z</time>
      </trkpt>
      <trkpt lat="47.34774" lon="-2.36354">
        <ele>43.599998474121</ele>
        <time>2022-01-13T10:26:52.000Z</time>
      </trkpt>
      <trkpt lat="47.34733" lon="-2.3638">
        <ele>43.599998474121</ele>
        <time>2022-01-13T10:27:00.000Z</time>
      </trkpt>
      <trkpt lat="47.34711" lon="-2.36391">
        <ele>43.599998474121</ele>
        <time>2022-01-13T10:27:04.000Z</time>
      </trkpt>
      <trkpt lat="47.347" lon="-2.36396">
        <ele>43.599998474121</ele>
        <time>2022-01-13T10:27:06.000Z</time>
      </trkpt>
      <trkpt lat="47.34661" lon="-2.3641">
        <ele>43</ele>
        <time>2022-01-13T10:27:12.000Z</time>
      </trkpt>
      <trkpt lat="47.34654" lon="-2.36413">
        <ele>42.599998474121</ele>
        <time>2022-01-13T10:27:13.000Z</time>
      </trkpt>
      <trkpt lat="47.34647" lon="-2.36416">
        <ele>42.200000762939</ele>
        <time>2022-01-13T10:27:14.000Z</time>
      </trkpt>
      <trkpt lat="47.34641" lon="-2.3642">
        <ele>41.799999237061</ele>
        <time>2022-01-13T10:27:15.000Z</time>
      </trkpt>
      <trkpt lat="47.34634" lon="-2.36423">
        <ele>41.400001525879</ele>
        <time>2022-01-13T10:27:16.000Z</time>
      </trkpt>
      <trkpt lat="47.34614" lon="-2.36434">
        <ele>41</ele>
        <time>2022-01-13T10:27:19.000Z</time>
      </trkpt>
      <trkpt lat="47.34608" lon="-2.36437">
        <ele>40.400001525879</ele>
        <time>2022-01-13T10:27:20.000Z</time>
      </trkpt>
      <trkpt lat="47.34603" lon="-2.36439">
        <ele>40</ele>
        <time>2022-01-13T10:27:21.000Z</time>
      </trkpt>
      <trkpt lat="47.34598" lon="-2.3644">
        <ele>39.599998474121</ele>
        <time>2022-01-13T10:27:22.000Z</time>
      </trkpt>
      <trkpt lat="47.34593" lon="-2.36438">
        <ele>39.200000762939</ele>
        <time>2022-01-13T10:27:23.000Z</time>
      </trkpt>
      <trkpt lat="47.34589" lon="-2.36435">
        <ele>39.200000762939</ele>
        <time>2022-01-13T10:27:24.000Z</time>
      </trkpt>
      <trkpt lat="47.34582" lon="-2.36423">
        <ele>39.200000762939</ele>
        <time>2022-01-13T10:27:26.000Z</time>
      </trkpt>
      <trkpt lat="47.34578" lon="-2.36415">
        <ele>39.200000762939</ele>
        <time>2022-01-13T10:27:27.000Z</time>
      </trkpt>
      <trkpt lat="47.34565" lon="-2.36395">
        <ele>38.799999237061</ele>
        <time>2022-01-13T10:27:30.000Z</time>
      </trkpt>
      <trkpt lat="47.34561" lon="-2.36388">
        <ele>38.400001525879</ele>
        <time>2022-01-13T10:27:31.000Z</time>
      </trkpt>
      <trkpt lat="47.34557" lon="-2.36381">
        <ele>38</ele>
        <time>2022-01-13T10:27:32.000Z</time>
      </trkpt>
      <trkpt lat="47.34553" lon="-2.36374">
        <ele>37.599998474121</ele>
        <time>2022-01-13T10:27:33.000Z</time>
      </trkpt>
      <trkpt lat="47.34549" lon="-2.36367">
        <ele>37.200000762939</ele>
        <time>2022-01-13T10:27:34.000Z</time>
      </trkpt>
      <trkpt lat="47.34546" lon="-2.3636">
        <ele>37.200000762939</ele>
        <time>2022-01-13T10:27:35.000Z</time>
      </trkpt>
      <trkpt lat="47.3454" lon="-2.36341">
        <ele>37.200000762939</ele>
        <time>2022-01-13T10:27:38.000Z</time>
      </trkpt>
      <trkpt lat="47.34531" lon="-2.36318">
        <ele>37.200000762939</ele>
        <time>2022-01-13T10:27:42.000Z</time>
      </trkpt>
      <trkpt lat="47.34527" lon="-2.36303">
        <ele>37.200000762939</ele>
        <time>2022-01-13T10:27:44.000Z</time>
      </trkpt>
      <trkpt lat="47.34524" lon="-2.36296">
        <ele>37.200000762939</ele>
        <time>2022-01-13T10:27:45.000Z</time>
      </trkpt>
      <trkpt lat="47.34509" lon="-2.36248">
        <ele>36.799999237061</ele>
        <time>2022-01-13T10:27:51.000Z</time>
      </trkpt>
      <trkpt lat="47.34507" lon="-2.36239">
        <ele>36.400001525879</ele>
        <time>2022-01-13T10:27:52.000Z</time>
      </trkpt>
      <trkpt lat="47.34504" lon="-2.36231">
        <ele>36</ele>
        <time>2022-01-13T10:27:53.000Z</time>
      </trkpt>
      <trkpt lat="47.345" lon="-2.36224">
        <ele>35.599998474121</ele>
        <time>2022-01-13T10:27:54.000Z</time>
      </trkpt>
      <trkpt lat="47.34496" lon="-2.36217">
        <ele>35.200000762939</ele>
        <time>2022-01-13T10:27:55.000Z</time>
      </trkpt>
      <trkpt lat="47.34491" lon="-2.36211">
        <ele>35.200000762939</ele>
        <time>2022-01-13T10:27:56.000Z</time>
      </trkpt>
      <trkpt lat="47.3447" lon="-2.36173">
        <ele>35.200000762939</ele>
        <time>2022-01-13T10:28:02.000Z</time>
      </trkpt>
      <trkpt lat="47.34466" lon="-2.36167">
        <ele>35.200000762939</ele>
        <time>2022-01-13T10:28:03.000Z</time>
      </trkpt>
      <trkpt lat="47.34458" lon="-2.3615">
        <ele>35.200000762939</ele>
        <time>2022-01-13T10:28:06.000Z</time>
      </trkpt>
      <trkpt lat="47.34445" lon="-2.36116">
        <ele>35.200000762939</ele>
        <time>2022-01-13T10:28:12.000Z</time>
      </trkpt>
      <trkpt lat="47.3444" lon="-2.36104">
        <ele>35.599998474121</ele>
        <time>2022-01-13T10:28:14.000Z</time>
      </trkpt>
      <trkpt lat="47.34437" lon="-2.36098">
        <ele>36</ele>
        <time>2022-01-13T10:28:15.000Z</time>
      </trkpt>
      <trkpt lat="47.34435" lon="-2.36091">
        <ele>36.400001525879</ele>
        <time>2022-01-13T10:28:16.000Z</time>
      </trkpt>
      <trkpt lat="47.34432" lon="-2.36085">
        <ele>36.799999237061</ele>
        <time>2022-01-13T10:28:17.000Z</time>
      </trkpt>
      <trkpt lat="47.34431" lon="-2.36077">
        <ele>37.200000762939</ele>
        <time>2022-01-13T10:28:18.000Z</time>
      </trkpt>
      <trkpt lat="47.34429" lon="-2.36071">
        <ele>37.200000762939</ele>
        <time>2022-01-13T10:28:19.000Z</time>
      </trkpt>
      <trkpt lat="47.3442" lon="-2.36036">
        <ele>37.200000762939</ele>
        <time>2022-01-13T10:28:24.000Z</time>
      </trkpt>
      <trkpt lat="47.34419" lon="-2.3603">
        <ele>37.200000762939</ele>
        <time>2022-01-13T10:28:25.000Z</time>
      </trkpt>
      <trkpt lat="47.34407" lon="-2.36005">
        <ele>37.200000762939</ele>
        <time>2022-01-13T10:28:30.000Z</time>
      </trkpt>
      <trkpt lat="47.34403" lon="-2.36001">
        <ele>37.200000762939</ele>
        <time>2022-01-13T10:28:31.000Z</time>
      </trkpt>
      <trkpt lat="47.34391" lon="-2.35992">
        <ele>37.200000762939</ele>
        <time>2022-01-13T10:28:34.000Z</time>
      </trkpt>
      <trkpt lat="47.34387" lon="-2.35989">
        <ele>37.200000762939</ele>
        <time>2022-01-13T10:28:35.000Z</time>
      </trkpt>
      <trkpt lat="47.34358" lon="-2.35979">
        <ele>37.200000762939</ele>
        <time>2022-01-13T10:28:41.000Z</time>
      </trkpt>
      <trkpt lat="47.34354" lon="-2.35977">
        <ele>37.599998474121</ele>
        <time>2022-01-13T10:28:42.000Z</time>
      </trkpt>
      <trkpt lat="47.34349" lon="-2.35974">
        <ele>38</ele>
        <time>2022-01-13T10:28:43.000Z</time>
      </trkpt>
      <trkpt lat="47.34344" lon="-2.35973">
        <ele>38.599998474121</ele>
        <time>2022-01-13T10:28:44.000Z</time>
      </trkpt>
      <trkpt lat="47.3434" lon="-2.3597">
        <ele>39</ele>
        <time>2022-01-13T10:28:45.000Z</time>
      </trkpt>
      <trkpt lat="47.34335" lon="-2.35968">
        <ele>39.400001525879</ele>
        <time>2022-01-13T10:28:46.000Z</time>
      </trkpt>
      <trkpt lat="47.34309" lon="-2.35951">
        <ele>39.400001525879</ele>
        <time>2022-01-13T10:28:51.000Z</time>
      </trkpt>
      <trkpt lat="47.34303" lon="-2.3595">
        <ele>39.400001525879</ele>
        <time>2022-01-13T10:28:52.000Z</time>
      </trkpt>
      <trkpt lat="47.3428" lon="-2.35945">
        <ele>39</ele>
        <time>2022-01-13T10:28:56.000Z</time>
      </trkpt>
      <trkpt lat="47.34274" lon="-2.35944">
        <ele>38.599998474121</ele>
        <time>2022-01-13T10:28:57.000Z</time>
      </trkpt>
      <trkpt lat="47.34268" lon="-2.35944">
        <ele>38</ele>
        <time>2022-01-13T10:28:58.000Z</time>
      </trkpt>
      <trkpt lat="47.34262" lon="-2.35945">
        <ele>37.599998474121</ele>
        <time>2022-01-13T10:28:59.000Z</time>
      </trkpt>
      <trkpt lat="47.34257" lon="-2.35945">
        <ele>37.200000762939</ele>
        <time>2022-01-13T10:29:00.000Z</time>
      </trkpt>
      <trkpt lat="47.34252" lon="-2.35945">
        <ele>36.599998474121</ele>
        <time>2022-01-13T10:29:01.000Z</time>
      </trkpt>
      <trkpt lat="47.34248" lon="-2.35944">
        <ele>36</ele>
        <time>2022-01-13T10:29:02.000Z</time>
      </trkpt>
      <trkpt lat="47.34245" lon="-2.35943">
        <ele>35.400001525879</ele>
        <time>2022-01-13T10:29:03.000Z</time>
      </trkpt>
      <trkpt lat="47.34243" lon="-2.35943">
        <ele>35</ele>
        <time>2022-01-13T10:29:04.000Z</time>
      </trkpt>
      <trkpt lat="47.34238" lon="-2.35938">
        <ele>34.599998474121</ele>
        <time>2022-01-13T10:29:06.000Z</time>
      </trkpt>
      <trkpt lat="47.34238" lon="-2.35934">
        <ele>34.200000762939</ele>
        <time>2022-01-13T10:29:07.000Z</time>
      </trkpt>
      <trkpt lat="47.34238" lon="-2.35929">
        <ele>33.599998474121</ele>
        <time>2022-01-13T10:29:08.000Z</time>
      </trkpt>
      <trkpt lat="47.34239" lon="-2.35923">
        <ele>33.200000762939</ele>
        <time>2022-01-13T10:29:09.000Z</time>
      </trkpt>
      <trkpt lat="47.34241" lon="-2.35918">
        <ele>32.799999237061</ele>
        <time>2022-01-13T10:29:10.000Z</time>
      </trkpt>
      <trkpt lat="47.34249" lon="-2.35873">
        <ele>32.799999237061</ele>
        <time>2022-01-13T10:29:16.000Z</time>
      </trkpt>
      <trkpt lat="47.3425" lon="-2.35846">
        <ele>32.799999237061</ele>
        <time>2022-01-13T10:29:19.000Z</time>
      </trkpt>
      <trkpt lat="47.34247" lon="-2.3583">
        <ele>32.799999237061</ele>
        <time>2022-01-13T10:29:21.000Z</time>
      </trkpt>
      <trkpt lat="47.34243" lon="-2.35815">
        <ele>32.799999237061</ele>
        <time>2022-01-13T10:29:23.000Z</time>
      </trkpt>
      <trkpt lat="47.34232" lon="-2.35788">
        <ele>32.799999237061</ele>
        <time>2022-01-13T10:29:27.000Z</time>
      </trkpt>
      <trkpt lat="47.34226" lon="-2.3577">
        <ele>32.799999237061</ele>
        <time>2022-01-13T10:29:30.000Z</time>
      </trkpt>
      <trkpt lat="47.34225" lon="-2.35764">
        <ele>32.400001525879</ele>
        <time>2022-01-13T10:29:31.000Z</time>
      </trkpt>
      <trkpt lat="47.34224" lon="-2.35758">
        <ele>32</ele>
        <time>2022-01-13T10:29:32.000Z</time>
      </trkpt>
      <trkpt lat="47.34223" lon="-2.35753">
        <ele>31.60000038147</ele>
        <time>2022-01-13T10:29:33.000Z</time>
      </trkpt>
      <trkpt lat="47.34224" lon="-2.35747">
        <ele>31.200000762939</ele>
        <time>2022-01-13T10:29:34.000Z</time>
      </trkpt>
      <trkpt lat="47.34223" lon="-2.35741">
        <ele>30.799999237061</ele>
        <time>2022-01-13T10:29:35.000Z</time>
      </trkpt>
      <trkpt lat="47.34221" lon="-2.35736">
        <ele>30.799999237061</ele>
        <time>2022-01-13T10:29:36.000Z</time>
      </trkpt>
      <trkpt lat="47.34215" lon="-2.3573">
        <ele>30.799999237061</ele>
        <time>2022-01-13T10:29:39.000Z</time>
      </trkpt>
      <trkpt lat="47.34209" lon="-2.35721">
        <ele>30.799999237061</ele>
        <time>2022-01-13T10:29:43.000Z</time>
      </trkpt>
      <trkpt lat="47.34209" lon="-2.35719">
        <ele>31.200000762939</ele>
        <time>2022-01-13T10:29:44.000Z</time>
      </trkpt>
      <trkpt lat="47.34208" lon="-2.35716">
        <ele>31.60000038147</ele>
        <time>2022-01-13T10:29:45.000Z</time>
      </trkpt>
      <trkpt lat="47.34208" lon="-2.35713">
        <ele>32</ele>
        <time>2022-01-13T10:29:46.000Z</time>
      </trkpt>
      <trkpt lat="47.34208" lon="-2.3571">
        <ele>32.400001525879</ele>
        <time>2022-01-13T10:29:47.000Z</time>
      </trkpt>
      <trkpt lat="47.34207" lon="-2.35708">
        <ele>33</ele>
        <time>2022-01-13T10:29:48.000Z</time>
      </trkpt>
      <trkpt lat="47.34206" lon="-2.35705">
        <ele>33.400001525879</ele>
        <time>2022-01-13T10:29:49.000Z</time>
      </trkpt>
      <trkpt lat="47.34205" lon="-2.35701">
        <ele>34</ele>
        <time>2022-01-13T10:29:50.000Z</time>
      </trkpt>
      <trkpt lat="47.34202" lon="-2.35698">
        <ele>34.400001525879</ele>
        <time>2022-01-13T10:29:51.000Z</time>
      </trkpt>
      <trkpt lat="47.342" lon="-2.35696">
        <ele>35</ele>
        <time>2022-01-13T10:29:52.000Z</time>
      </trkpt>
      <trkpt lat="47.34192" lon="-2.35684">
        <ele>35.400001525879</ele>
        <time>2022-01-13T10:29:56.000Z</time>
      </trkpt>
      <trkpt lat="47.34189" lon="-2.35681">
        <ele>35.799999237061</ele>
        <time>2022-01-13T10:29:57.000Z</time>
      </trkpt>
      <trkpt lat="47.34187" lon="-2.35678">
        <ele>36.200000762939</ele>
        <time>2022-01-13T10:29:58.000Z</time>
      </trkpt>
      <trkpt lat="47.34184" lon="-2.35674">
        <ele>36.599998474121</ele>
        <time>2022-01-13T10:29:59.000Z</time>
      </trkpt>
      <trkpt lat="47.34182" lon="-2.35671">
        <ele>37</ele>
        <time>2022-01-13T10:30:00.000Z</time>
      </trkpt>
      <trkpt lat="47.34175" lon="-2.35658">
        <ele>38</ele>
        <time>2022-01-13T10:30:03.000Z</time>
      </trkpt>
      <trkpt lat="47.34173" lon="-2.35654">
        <ele>38.400001525879</ele>
        <time>2022-01-13T10:30:04.000Z</time>
      </trkpt>
      <trkpt lat="47.34171" lon="-2.35649">
        <ele>38.799999237061</ele>
        <time>2022-01-13T10:30:05.000Z</time>
      </trkpt>
      <trkpt lat="47.34168" lon="-2.35646">
        <ele>39.200000762939</ele>
        <time>2022-01-13T10:30:06.000Z</time>
      </trkpt>
      <trkpt lat="47.34157" lon="-2.3563">
        <ele>39.200000762939</ele>
        <time>2022-01-13T10:30:10.000Z</time>
      </trkpt>
      <trkpt lat="47.34142" lon="-2.35603">
        <ele>39.200000762939</ele>
        <time>2022-01-13T10:30:16.000Z</time>
      </trkpt>
      <trkpt lat="47.3414" lon="-2.35598">
        <ele>39.200000762939</ele>
        <time>2022-01-13T10:30:17.000Z</time>
      </trkpt>
      <trkpt lat="47.34134" lon="-2.35581">
        <ele>39.200000762939</ele>
        <time>2022-01-13T10:30:20.000Z</time>
      </trkpt>
      <trkpt lat="47.34132" lon="-2.35575">
        <ele>39.200000762939</ele>
        <time>2022-01-13T10:30:21.000Z</time>
      </trkpt>
      <trkpt lat="47.34116" lon="-2.35528">
        <ele>39.200000762939</ele>
        <time>2022-01-13T10:30:28.000Z</time>
      </trkpt>
      <trkpt lat="47.34099" lon="-2.35482">
        <ele>39.200000762939</ele>
        <time>2022-01-13T10:30:35.000Z</time>
      </trkpt>
      <trkpt lat="47.3408" lon="-2.35434">
        <ele>39.200000762939</ele>
        <time>2022-01-13T10:30:43.000Z</time>
      </trkpt>
      <trkpt lat="47.3407" lon="-2.35405">
        <ele>39.200000762939</ele>
        <time>2022-01-13T10:30:48.000Z</time>
      </trkpt>
      <trkpt lat="47.34061" lon="-2.35383">
        <ele>39.599998474121</ele>
        <time>2022-01-13T10:30:52.000Z</time>
      </trkpt>
      <trkpt lat="47.34059" lon="-2.35378">
        <ele>40.400001525879</ele>
        <time>2022-01-13T10:30:53.000Z</time>
      </trkpt>
      <trkpt lat="47.34056" lon="-2.35373">
        <ele>40.799999237061</ele>
        <time>2022-01-13T10:30:54.000Z</time>
      </trkpt>
      <trkpt lat="47.34053" lon="-2.35368">
        <ele>41.400001525879</ele>
        <time>2022-01-13T10:30:55.000Z</time>
      </trkpt>
      <trkpt lat="47.3405" lon="-2.35364">
        <ele>41.400001525879</ele>
        <time>2022-01-13T10:30:56.000Z</time>
      </trkpt>
      <trkpt lat="47.34044" lon="-2.35355">
        <ele>41.400001525879</ele>
        <time>2022-01-13T10:30:58.000Z</time>
      </trkpt>
      <trkpt lat="47.34029" lon="-2.35339">
        <ele>41.400001525879</ele>
        <time>2022-01-13T10:31:02.000Z</time>
      </trkpt>
      <trkpt lat="47.34003" lon="-2.35315">
        <ele>41.400001525879</ele>
        <time>2022-01-13T10:31:08.000Z</time>
      </trkpt>
      <trkpt lat="47.3398" lon="-2.35289">
        <ele>41.799999237061</ele>
        <time>2022-01-13T10:31:14.000Z</time>
      </trkpt>
      <trkpt lat="47.33976" lon="-2.35285">
        <ele>42.200000762939</ele>
        <time>2022-01-13T10:31:15.000Z</time>
      </trkpt>
      <trkpt lat="47.33972" lon="-2.35281">
        <ele>42.599998474121</ele>
        <time>2022-01-13T10:31:16.000Z</time>
      </trkpt>
      <trkpt lat="47.33968" lon="-2.35277">
        <ele>43</ele>
        <time>2022-01-13T10:31:17.000Z</time>
      </trkpt>
      <trkpt lat="47.33965" lon="-2.35273">
        <ele>43.400001525879</ele>
        <time>2022-01-13T10:31:18.000Z</time>
      </trkpt>
      <trkpt lat="47.33954" lon="-2.35261">
        <ele>43.799999237061</ele>
        <time>2022-01-13T10:31:21.000Z</time>
      </trkpt>
      <trkpt lat="47.33951" lon="-2.35256">
        <ele>44.200000762939</ele>
        <time>2022-01-13T10:31:22.000Z</time>
      </trkpt>
      <trkpt lat="47.33948" lon="-2.3525">
        <ele>44.599998474121</ele>
        <time>2022-01-13T10:31:23.000Z</time>
      </trkpt>
      <trkpt lat="47.33946" lon="-2.35243">
        <ele>45</ele>
        <time>2022-01-13T10:31:24.000Z</time>
      </trkpt>
      <trkpt lat="47.33944" lon="-2.35236">
        <ele>45.400001525879</ele>
        <time>2022-01-13T10:31:25.000Z</time>
      </trkpt>
      <trkpt lat="47.33942" lon="-2.35231">
        <ele>45.400001525879</ele>
        <time>2022-01-13T10:31:26.000Z</time>
      </trkpt>
      <trkpt lat="47.3394" lon="-2.35224">
        <ele>45.400001525879</ele>
        <time>2022-01-13T10:31:27.000Z</time>
      </trkpt>
      <trkpt lat="47.33925" lon="-2.35195">
        <ele>45.400001525879</ele>
        <time>2022-01-13T10:31:32.000Z</time>
      </trkpt>
      <trkpt lat="47.33921" lon="-2.3519">
        <ele>45.400001525879</ele>
        <time>2022-01-13T10:31:33.000Z</time>
      </trkpt>
      <trkpt lat="47.33896" lon="-2.35165">
        <ele>45.400001525879</ele>
        <time>2022-01-13T10:31:39.000Z</time>
      </trkpt>
      <trkpt lat="47.33891" lon="-2.35162">
        <ele>45.799999237061</ele>
        <time>2022-01-13T10:31:40.000Z</time>
      </trkpt>
      <trkpt lat="47.33887" lon="-2.35159">
        <ele>46.200000762939</ele>
        <time>2022-01-13T10:31:41.000Z</time>
      </trkpt>
      <trkpt lat="47.33883" lon="-2.35155">
        <ele>47</ele>
        <time>2022-01-13T10:31:42.000Z</time>
      </trkpt>
      <trkpt lat="47.33878" lon="-2.35152">
        <ele>47.400001525879</ele>
        <time>2022-01-13T10:31:43.000Z</time>
      </trkpt>
      <trkpt lat="47.33869" lon="-2.35144">
        <ele>47.400001525879</ele>
        <time>2022-01-13T10:31:45.000Z</time>
      </trkpt>
      <trkpt lat="47.33851" lon="-2.35128">
        <ele>47.400001525879</ele>
        <time>2022-01-13T10:31:49.000Z</time>
      </trkpt>
      <trkpt lat="47.33841" lon="-2.35121">
        <ele>47.400001525879</ele>
        <time>2022-01-13T10:31:51.000Z</time>
      </trkpt>
      <trkpt lat="47.33803" lon="-2.35098">
        <ele>47</ele>
        <time>2022-01-13T10:31:58.000Z</time>
      </trkpt>
      <trkpt lat="47.33797" lon="-2.35095">
        <ele>46.599998474121</ele>
        <time>2022-01-13T10:31:59.000Z</time>
      </trkpt>
      <trkpt lat="47.33791" lon="-2.35091">
        <ele>46</ele>
        <time>2022-01-13T10:32:00.000Z</time>
      </trkpt>
      <trkpt lat="47.33785" lon="-2.35088">
        <ele>45.599998474121</ele>
        <time>2022-01-13T10:32:01.000Z</time>
      </trkpt>
      <trkpt lat="47.33779" lon="-2.35084">
        <ele>45.200000762939</ele>
        <time>2022-01-13T10:32:02.000Z</time>
      </trkpt>
      <trkpt lat="47.33755" lon="-2.35068">
        <ele>45.200000762939</ele>
        <time>2022-01-13T10:32:06.000Z</time>
      </trkpt>
      <trkpt lat="47.33738" lon="-2.35054">
        <ele>45.200000762939</ele>
        <time>2022-01-13T10:32:09.000Z</time>
      </trkpt>
      <trkpt lat="47.33724" lon="-2.35036">
        <ele>45.200000762939</ele>
        <time>2022-01-13T10:32:12.000Z</time>
      </trkpt>
      <trkpt lat="47.33698" lon="-2.34997">
        <ele>45.200000762939</ele>
        <time>2022-01-13T10:32:18.000Z</time>
      </trkpt>
      <trkpt lat="47.33664" lon="-2.34946">
        <ele>45.200000762939</ele>
        <time>2022-01-13T10:32:26.000Z</time>
      </trkpt>
      <trkpt lat="47.33644" lon="-2.34919">
        <ele>45.200000762939</ele>
        <time>2022-01-13T10:32:31.000Z</time>
      </trkpt>
      <trkpt lat="47.33616" lon="-2.34883">
        <ele>45.200000762939</ele>
        <time>2022-01-13T10:32:38.000Z</time>
      </trkpt>
      <trkpt lat="47.33595" lon="-2.34853">
        <ele>45.200000762939</ele>
        <time>2022-01-13T10:32:44.000Z</time>
      </trkpt>
      <trkpt lat="47.33573" lon="-2.34828">
        <ele>45.200000762939</ele>
        <time>2022-01-13T10:32:49.000Z</time>
      </trkpt>
      <trkpt lat="47.33542" lon="-2.3479">
        <ele>45.599998474121</ele>
        <time>2022-01-13T10:32:57.000Z</time>
      </trkpt>
      <trkpt lat="47.33537" lon="-2.34784">
        <ele>46</ele>
        <time>2022-01-13T10:32:58.000Z</time>
      </trkpt>
      <trkpt lat="47.33533" lon="-2.34779">
        <ele>46.400001525879</ele>
        <time>2022-01-13T10:32:59.000Z</time>
      </trkpt>
      <trkpt lat="47.33529" lon="-2.34772">
        <ele>46.799999237061</ele>
        <time>2022-01-13T10:33:00.000Z</time>
      </trkpt>
      <trkpt lat="47.33525" lon="-2.34767">
        <ele>47.200000762939</ele>
        <time>2022-01-13T10:33:01.000Z</time>
      </trkpt>
      <trkpt lat="47.33512" lon="-2.34744">
        <ele>47.200000762939</ele>
        <time>2022-01-13T10:33:04.000Z</time>
      </trkpt>
      <trkpt lat="47.33478" lon="-2.34694">
        <ele>47.200000762939</ele>
        <time>2022-01-13T10:33:11.000Z</time>
      </trkpt>
      <trkpt lat="47.33453" lon="-2.34651">
        <ele>46.799999237061</ele>
        <time>2022-01-13T10:33:16.000Z</time>
      </trkpt>
      <trkpt lat="47.33449" lon="-2.34643">
        <ele>46.400001525879</ele>
        <time>2022-01-13T10:33:17.000Z</time>
      </trkpt>
      <trkpt lat="47.33443" lon="-2.34635">
        <ele>46</ele>
        <time>2022-01-13T10:33:18.000Z</time>
      </trkpt>
      <trkpt lat="47.33439" lon="-2.34626">
        <ele>45.599998474121</ele>
        <time>2022-01-13T10:33:19.000Z</time>
      </trkpt>
      <trkpt lat="47.33435" lon="-2.34618">
        <ele>45.200000762939</ele>
        <time>2022-01-13T10:33:20.000Z</time>
      </trkpt>
      <trkpt lat="47.33416" lon="-2.34582">
        <ele>45.200000762939</ele>
        <time>2022-01-13T10:33:24.000Z</time>
      </trkpt>
      <trkpt lat="47.33403" lon="-2.34558">
        <ele>44.799999237061</ele>
        <time>2022-01-13T10:33:27.000Z</time>
      </trkpt>
      <trkpt lat="47.33399" lon="-2.34549">
        <ele>44.400001525879</ele>
        <time>2022-01-13T10:33:28.000Z</time>
      </trkpt>
      <trkpt lat="47.33394" lon="-2.3454">
        <ele>44</ele>
        <time>2022-01-13T10:33:29.000Z</time>
      </trkpt>
      <trkpt lat="47.3339" lon="-2.34532">
        <ele>43.599998474121</ele>
        <time>2022-01-13T10:33:30.000Z</time>
      </trkpt>
      <trkpt lat="47.33385" lon="-2.34523">
        <ele>43.200000762939</ele>
        <time>2022-01-13T10:33:31.000Z</time>
      </trkpt>
      <trkpt lat="47.33364" lon="-2.34488">
        <ele>43.200000762939</ele>
        <time>2022-01-13T10:33:36.000Z</time>
      </trkpt>
      <trkpt lat="47.33361" lon="-2.34485">
        <ele>42.799999237061</ele>
        <time>2022-01-13T10:33:37.000Z</time>
      </trkpt>
      <trkpt lat="47.33357" lon="-2.34486">
        <ele>42.400001525879</ele>
        <time>2022-01-13T10:33:38.000Z</time>
      </trkpt>
      <trkpt lat="47.33353" lon="-2.3449">
        <ele>41.799999237061</ele>
        <time>2022-01-13T10:33:39.000Z</time>
      </trkpt>
      <trkpt lat="47.33351" lon="-2.34494">
        <ele>41.400001525879</ele>
        <time>2022-01-13T10:33:40.000Z</time>
      </trkpt>
      <trkpt lat="47.33349" lon="-2.34498">
        <ele>41</ele>
        <time>2022-01-13T10:33:41.000Z</time>
      </trkpt>
      <trkpt lat="47.33346" lon="-2.34502">
        <ele>41</ele>
        <time>2022-01-13T10:33:42.000Z</time>
      </trkpt>
      <trkpt lat="47.33336" lon="-2.34507">
        <ele>41</ele>
        <time>2022-01-13T10:33:44.000Z</time>
      </trkpt>
      <trkpt lat="47.33321" lon="-2.345">
        <ele>41</ele>
        <time>2022-01-13T10:33:47.000Z</time>
      </trkpt>
      <trkpt lat="47.33316" lon="-2.34497">
        <ele>41</ele>
        <time>2022-01-13T10:33:48.000Z</time>
      </trkpt>
      <trkpt lat="47.33302" lon="-2.34489">
        <ele>40.599998474121</ele>
        <time>2022-01-13T10:33:51.000Z</time>
      </trkpt>
      <trkpt lat="47.33298" lon="-2.34487">
        <ele>40.200000762939</ele>
        <time>2022-01-13T10:33:52.000Z</time>
      </trkpt>
      <trkpt lat="47.33295" lon="-2.34485">
        <ele>39.799999237061</ele>
        <time>2022-01-13T10:33:53.000Z</time>
      </trkpt>
      <trkpt lat="47.33291" lon="-2.34483">
        <ele>39.200000762939</ele>
        <time>2022-01-13T10:33:54.000Z</time>
      </trkpt>
      <trkpt lat="47.33288" lon="-2.34481">
        <ele>38.799999237061</ele>
        <time>2022-01-13T10:33:55.000Z</time>
      </trkpt>
      <trkpt lat="47.3328" lon="-2.34478">
        <ele>38.799999237061</ele>
        <time>2022-01-13T10:33:58.000Z</time>
      </trkpt>
      <trkpt lat="47.33262" lon="-2.34474">
        <ele>38.799999237061</ele>
        <time>2022-01-13T10:34:03.000Z</time>
      </trkpt>
      <trkpt lat="47.33245" lon="-2.34483">
        <ele>38.400001525879</ele>
        <time>2022-01-13T10:34:06.000Z</time>
      </trkpt>
      <trkpt lat="47.3324" lon="-2.34487">
        <ele>38</ele>
        <time>2022-01-13T10:34:07.000Z</time>
      </trkpt>
      <trkpt lat="47.33234" lon="-2.34491">
        <ele>37.599998474121</ele>
        <time>2022-01-13T10:34:08.000Z</time>
      </trkpt>
      <trkpt lat="47.33229" lon="-2.34495">
        <ele>36.799999237061</ele>
        <time>2022-01-13T10:34:09.000Z</time>
      </trkpt>
      <trkpt lat="47.33201" lon="-2.34521">
        <ele>36.799999237061</ele>
        <time>2022-01-13T10:34:14.000Z</time>
      </trkpt>
      <trkpt lat="47.33174" lon="-2.34545">
        <ele>36.799999237061</ele>
        <time>2022-01-13T10:34:19.000Z</time>
      </trkpt>
      <trkpt lat="47.3317" lon="-2.3455">
        <ele>36.799999237061</ele>
        <time>2022-01-13T10:34:20.000Z</time>
      </trkpt>
      <trkpt lat="47.33138" lon="-2.34581">
        <ele>36.799999237061</ele>
        <time>2022-01-13T10:34:27.000Z</time>
      </trkpt>
      <trkpt lat="47.33116" lon="-2.34603">
        <ele>36.799999237061</ele>
        <time>2022-01-13T10:34:33.000Z</time>
      </trkpt>
      <trkpt lat="47.33103" lon="-2.34618">
        <ele>36.799999237061</ele>
        <time>2022-01-13T10:34:37.000Z</time>
      </trkpt>
      <trkpt lat="47.33095" lon="-2.34625">
        <ele>36.799999237061</ele>
        <time>2022-01-13T10:34:39.000Z</time>
      </trkpt>
      <trkpt lat="47.33076" lon="-2.34642">
        <ele>36.799999237061</ele>
        <time>2022-01-13T10:34:44.000Z</time>
      </trkpt>
      <trkpt lat="47.33067" lon="-2.3465">
        <ele>36.799999237061</ele>
        <time>2022-01-13T10:34:46.000Z</time>
      </trkpt>
      <trkpt lat="47.33059" lon="-2.34658">
        <ele>36.799999237061</ele>
        <time>2022-01-13T10:34:48.000Z</time>
      </trkpt>
      <trkpt lat="47.33048" lon="-2.3467">
        <ele>36.799999237061</ele>
        <time>2022-01-13T10:34:51.000Z</time>
      </trkpt>
      <trkpt lat="47.33024" lon="-2.34693">
        <ele>36.799999237061</ele>
        <time>2022-01-13T10:34:57.000Z</time>
      </trkpt>
      <trkpt lat="47.32999" lon="-2.34717">
        <ele>36.799999237061</ele>
        <time>2022-01-13T10:35:03.000Z</time>
      </trkpt>
      <trkpt lat="47.3299" lon="-2.34724">
        <ele>37.200000762939</ele>
        <time>2022-01-13T10:35:05.000Z</time>
      </trkpt>
      <trkpt lat="47.32985" lon="-2.34728">
        <ele>37.599998474121</ele>
        <time>2022-01-13T10:35:06.000Z</time>
      </trkpt>
      <trkpt lat="47.32981" lon="-2.34731">
        <ele>38</ele>
        <time>2022-01-13T10:35:07.000Z</time>
      </trkpt>
      <trkpt lat="47.32977" lon="-2.34734">
        <ele>38.400001525879</ele>
        <time>2022-01-13T10:35:08.000Z</time>
      </trkpt>
      <trkpt lat="47.32973" lon="-2.34737">
        <ele>39</ele>
        <time>2022-01-13T10:35:09.000Z</time>
      </trkpt>
      <trkpt lat="47.32964" lon="-2.34744">
        <ele>39</ele>
        <time>2022-01-13T10:35:11.000Z</time>
      </trkpt>
      <trkpt lat="47.32948" lon="-2.34755">
        <ele>39</ele>
        <time>2022-01-13T10:35:15.000Z</time>
      </trkpt>
      <trkpt lat="47.32933" lon="-2.34761">
        <ele>39.400001525879</ele>
        <time>2022-01-13T10:35:18.000Z</time>
      </trkpt>
      <trkpt lat="47.32929" lon="-2.34764">
        <ele>39.799999237061</ele>
        <time>2022-01-13T10:35:19.000Z</time>
      </trkpt>
      <trkpt lat="47.32925" lon="-2.34767">
        <ele>40.200000762939</ele>
        <time>2022-01-13T10:35:20.000Z</time>
      </trkpt>
      <trkpt lat="47.32921" lon="-2.3477">
        <ele>40.599998474121</ele>
        <time>2022-01-13T10:35:21.000Z</time>
      </trkpt>
      <trkpt lat="47.32916" lon="-2.34772">
        <ele>41</ele>
        <time>2022-01-13T10:35:22.000Z</time>
      </trkpt>
      <trkpt lat="47.32888" lon="-2.3479">
        <ele>41</ele>
        <time>2022-01-13T10:35:28.000Z</time>
      </trkpt>
      <trkpt lat="47.32863" lon="-2.34807">
        <ele>41</ele>
        <time>2022-01-13T10:35:34.000Z</time>
      </trkpt>
      <trkpt lat="47.32841" lon="-2.34822">
        <ele>41.400001525879</ele>
        <time>2022-01-13T10:35:39.000Z</time>
      </trkpt>
      <trkpt lat="47.32836" lon="-2.34826">
        <ele>41.799999237061</ele>
        <time>2022-01-13T10:35:40.000Z</time>
      </trkpt>
      <trkpt lat="47.32832" lon="-2.34829">
        <ele>42.200000762939</ele>
        <time>2022-01-13T10:35:41.000Z</time>
      </trkpt>
      <trkpt lat="47.32827" lon="-2.34832">
        <ele>42.599998474121</ele>
        <time>2022-01-13T10:35:42.000Z</time>
      </trkpt>
      <trkpt lat="47.32823" lon="-2.34836">
        <ele>43</ele>
        <time>2022-01-13T10:35:43.000Z</time>
      </trkpt>
      <trkpt lat="47.32818" lon="-2.34839">
        <ele>43</ele>
        <time>2022-01-13T10:35:44.000Z</time>
      </trkpt>
      <trkpt lat="47.32804" lon="-2.34849">
        <ele>43</ele>
        <time>2022-01-13T10:35:47.000Z</time>
      </trkpt>
      <trkpt lat="47.32772" lon="-2.34873">
        <ele>43</ele>
        <time>2022-01-13T10:35:54.000Z</time>
      </trkpt>
      <trkpt lat="47.32763" lon="-2.34881">
        <ele>43</ele>
        <time>2022-01-13T10:35:56.000Z</time>
      </trkpt>
      <trkpt lat="47.32748" lon="-2.34892">
        <ele>43</ele>
        <time>2022-01-13T10:35:59.000Z</time>
      </trkpt>
      <trkpt lat="47.32712" lon="-2.34918">
        <ele>43</ele>
        <time>2022-01-13T10:36:07.000Z</time>
      </trkpt>
      <trkpt lat="47.32703" lon="-2.34924">
        <ele>43</ele>
        <time>2022-01-13T10:36:09.000Z</time>
      </trkpt>
      <trkpt lat="47.32688" lon="-2.34936">
        <ele>43.400001525879</ele>
        <time>2022-01-13T10:36:13.000Z</time>
      </trkpt>
      <trkpt lat="47.32684" lon="-2.34938">
        <ele>43.799999237061</ele>
        <time>2022-01-13T10:36:14.000Z</time>
      </trkpt>
      <trkpt lat="47.32681" lon="-2.34941">
        <ele>44.200000762939</ele>
        <time>2022-01-13T10:36:15.000Z</time>
      </trkpt>
      <trkpt lat="47.32679" lon="-2.34944">
        <ele>44.599998474121</ele>
        <time>2022-01-13T10:36:16.000Z</time>
      </trkpt>
      <trkpt lat="47.32676" lon="-2.34946">
        <ele>45.200000762939</ele>
        <time>2022-01-13T10:36:17.000Z</time>
      </trkpt>
      <trkpt lat="47.32664" lon="-2.34956">
        <ele>45.200000762939</ele>
        <time>2022-01-13T10:36:23.000Z</time>
      </trkpt>
      <trkpt lat="47.32653" lon="-2.34961">
        <ele>45.200000762939</ele>
        <time>2022-01-13T10:36:28.000Z</time>
      </trkpt>
      <trkpt lat="47.32632" lon="-2.34972">
        <ele>45.200000762939</ele>
        <time>2022-01-13T10:36:34.000Z</time>
      </trkpt>
      <trkpt lat="47.32613" lon="-2.34984">
        <ele>45.200000762939</ele>
        <time>2022-01-13T10:36:40.000Z</time>
      </trkpt>
      <trkpt lat="47.32589" lon="-2.34996">
        <ele>45.200000762939</ele>
        <time>2022-01-13T10:36:46.000Z</time>
      </trkpt>
      <trkpt lat="47.32585" lon="-2.34998">
        <ele>45.200000762939</ele>
        <time>2022-01-13T10:36:47.000Z</time>
      </trkpt>
      <trkpt lat="47.32577" lon="-2.35003">
        <ele>45.200000762939</ele>
        <time>2022-01-13T10:36:49.000Z</time>
      </trkpt>
      <trkpt lat="47.32573" lon="-2.35005">
        <ele>45.599998474121</ele>
        <time>2022-01-13T10:36:50.000Z</time>
      </trkpt>
      <trkpt lat="47.32569" lon="-2.35007">
        <ele>46</ele>
        <time>2022-01-13T10:36:51.000Z</time>
      </trkpt>
      <trkpt lat="47.32566" lon="-2.35009">
        <ele>46.400001525879</ele>
        <time>2022-01-13T10:36:52.000Z</time>
      </trkpt>
      <trkpt lat="47.32562" lon="-2.3501">
        <ele>46.799999237061</ele>
        <time>2022-01-13T10:36:53.000Z</time>
      </trkpt>
      <trkpt lat="47.32558" lon="-2.35012">
        <ele>47.200000762939</ele>
        <time>2022-01-13T10:36:54.000Z</time>
      </trkpt>
      <trkpt lat="47.3254" lon="-2.35018">
        <ele>47.200000762939</ele>
        <time>2022-01-13T10:36:58.000Z</time>
      </trkpt>
      <trkpt lat="47.32501" lon="-2.35026">
        <ele>47.200000762939</ele>
        <time>2022-01-13T10:37:06.000Z</time>
      </trkpt>
      <trkpt lat="47.32466" lon="-2.35035">
        <ele>47.200000762939</ele>
        <time>2022-01-13T10:37:13.000Z</time>
      </trkpt>
      <trkpt lat="47.32447" lon="-2.35039">
        <ele>47.599998474121</ele>
        <time>2022-01-13T10:37:17.000Z</time>
      </trkpt>
      <trkpt lat="47.32442" lon="-2.35041">
        <ele>48</ele>
        <time>2022-01-13T10:37:18.000Z</time>
      </trkpt>
      <trkpt lat="47.32437" lon="-2.35042">
        <ele>48.400001525879</ele>
        <time>2022-01-13T10:37:19.000Z</time>
      </trkpt>
      <trkpt lat="47.32432" lon="-2.35043">
        <ele>48.799999237061</ele>
        <time>2022-01-13T10:37:20.000Z</time>
      </trkpt>
      <trkpt lat="47.32427" lon="-2.35044">
        <ele>49.200000762939</ele>
        <time>2022-01-13T10:37:21.000Z</time>
      </trkpt>
      <trkpt lat="47.32405" lon="-2.35049">
        <ele>49.200000762939</ele>
        <time>2022-01-13T10:37:25.000Z</time>
      </trkpt>
      <trkpt lat="47.32369" lon="-2.35049">
        <ele>49.200000762939</ele>
        <time>2022-01-13T10:37:31.000Z</time>
      </trkpt>
      <trkpt lat="47.32316" lon="-2.35049">
        <ele>49.200000762939</ele>
        <time>2022-01-13T10:37:40.000Z</time>
      </trkpt>
      <trkpt lat="47.32293" lon="-2.35049">
        <ele>48.799999237061</ele>
        <time>2022-01-13T10:37:44.000Z</time>
      </trkpt>
      <trkpt lat="47.32288" lon="-2.35049">
        <ele>48.400001525879</ele>
        <time>2022-01-13T10:37:45.000Z</time>
      </trkpt>
      <trkpt lat="47.32282" lon="-2.35049">
        <ele>48</ele>
        <time>2022-01-13T10:37:46.000Z</time>
      </trkpt>
      <trkpt lat="47.32276" lon="-2.35049">
        <ele>47.599998474121</ele>
        <time>2022-01-13T10:37:47.000Z</time>
      </trkpt>
      <trkpt lat="47.3227" lon="-2.35049">
        <ele>47.200000762939</ele>
        <time>2022-01-13T10:37:48.000Z</time>
      </trkpt>
      <trkpt lat="47.32258" lon="-2.35049">
        <ele>47.200000762939</ele>
        <time>2022-01-13T10:37:50.000Z</time>
      </trkpt>
      <trkpt lat="47.32247" lon="-2.3505">
        <ele>47.200000762939</ele>
        <time>2022-01-13T10:37:52.000Z</time>
      </trkpt>
      <trkpt lat="47.32203" lon="-2.35056">
        <ele>47.200000762939</ele>
        <time>2022-01-13T10:37:59.000Z</time>
      </trkpt>
      <trkpt lat="47.32197" lon="-2.35057">
        <ele>47.200000762939</ele>
        <time>2022-01-13T10:38:00.000Z</time>
      </trkpt>
      <trkpt lat="47.32185" lon="-2.35057">
        <ele>46.799999237061</ele>
        <time>2022-01-13T10:38:02.000Z</time>
      </trkpt>
      <trkpt lat="47.32179" lon="-2.35058">
        <ele>46.400001525879</ele>
        <time>2022-01-13T10:38:03.000Z</time>
      </trkpt>
      <trkpt lat="47.32173" lon="-2.35058">
        <ele>45.799999237061</ele>
        <time>2022-01-13T10:38:04.000Z</time>
      </trkpt>
      <trkpt lat="47.32167" lon="-2.35059">
        <ele>45.400001525879</ele>
        <time>2022-01-13T10:38:05.000Z</time>
      </trkpt>
      <trkpt lat="47.3216" lon="-2.35059">
        <ele>45</ele>
        <time>2022-01-13T10:38:06.000Z</time>
      </trkpt>
      <trkpt lat="47.32135" lon="-2.3506">
        <ele>45</ele>
        <time>2022-01-13T10:38:10.000Z</time>
      </trkpt>
      <trkpt lat="47.32089" lon="-2.35059">
        <ele>45</ele>
        <time>2022-01-13T10:38:17.000Z</time>
      </trkpt>
      <trkpt lat="47.32051" lon="-2.35057">
        <ele>45</ele>
        <time>2022-01-13T10:38:24.000Z</time>
      </trkpt>
      <trkpt lat="47.32033" lon="-2.35061">
        <ele>45</ele>
        <time>2022-01-13T10:38:29.000Z</time>
      </trkpt>
      <trkpt lat="47.32033" lon="-2.35074">
        <ele>45</ele>
        <time>2022-01-13T10:38:33.000Z</time>
      </trkpt>
      <trkpt lat="47.32034" lon="-2.35079">
        <ele>45</ele>
        <time>2022-01-13T10:38:34.000Z</time>
      </trkpt>
      <trkpt lat="47.32038" lon="-2.351">
        <ele>45</ele>
        <time>2022-01-13T10:38:38.000Z</time>
      </trkpt>
      <trkpt lat="47.32033" lon="-2.35117">
        <ele>45</ele>
        <time>2022-01-13T10:38:41.000Z</time>
      </trkpt>
      <trkpt lat="47.3203" lon="-2.35122">
        <ele>45</ele>
        <time>2022-01-13T10:38:42.000Z</time>
      </trkpt>
      <trkpt lat="47.32009" lon="-2.35147">
        <ele>45</ele>
        <time>2022-01-13T10:38:48.000Z</time>
      </trkpt>
      <trkpt lat="47.32002" lon="-2.35155">
        <ele>45</ele>
        <time>2022-01-13T10:38:50.000Z</time>
      </trkpt>
      <trkpt lat="47.31992" lon="-2.35167">
        <ele>45</ele>
        <time>2022-01-13T10:38:53.000Z</time>
      </trkpt>
      <trkpt lat="47.31976" lon="-2.35182">
        <ele>45</ele>
        <time>2022-01-13T10:38:57.000Z</time>
      </trkpt>
      <trkpt lat="47.31968" lon="-2.3519">
        <ele>45</ele>
        <time>2022-01-13T10:38:59.000Z</time>
      </trkpt>
      <trkpt lat="47.31954" lon="-2.35201">
        <ele>45</ele>
        <time>2022-01-13T10:39:03.000Z</time>
      </trkpt>
      <trkpt lat="47.31946" lon="-2.3521">
        <ele>45</ele>
        <time>2022-01-13T10:39:09.000Z</time>
      </trkpt>
      <trkpt lat="47.31945" lon="-2.35211">
        <ele>45</ele>
        <time>2022-01-13T10:39:10.000Z</time>
      </trkpt>
      <trkpt lat="47.31926" lon="-2.3523">
        <ele>45</ele>
        <time>2022-01-13T10:40:55.000Z</time>
      </trkpt>
      <trkpt lat="47.31921" lon="-2.35236">
        <ele>45</ele>
        <time>2022-01-13T10:40:57.000Z</time>
      </trkpt>
      <trkpt lat="47.31904" lon="-2.35252">
        <ele>45</ele>
        <time>2022-01-13T10:41:03.000Z</time>
      </trkpt>
      <trkpt lat="47.31885" lon="-2.35269">
        <ele>45</ele>
        <time>2022-01-13T10:41:09.000Z</time>
      </trkpt>
      <trkpt lat="47.31882" lon="-2.35272">
        <ele>45.400001525879</ele>
        <time>2022-01-13T10:41:10.000Z</time>
      </trkpt>
      <trkpt lat="47.3188" lon="-2.35276">
        <ele>46</ele>
        <time>2022-01-13T10:41:11.000Z</time>
      </trkpt>
      <trkpt lat="47.31876" lon="-2.35279">
        <ele>46.400001525879</ele>
        <time>2022-01-13T10:41:12.000Z</time>
      </trkpt>
      <trkpt lat="47.31873" lon="-2.35282">
        <ele>46.799999237061</ele>
        <time>2022-01-13T10:41:13.000Z</time>
      </trkpt>
      <trkpt lat="47.3187" lon="-2.35285">
        <ele>47.200000762939</ele>
        <time>2022-01-13T10:41:14.000Z</time>
      </trkpt>
      <trkpt lat="47.31854" lon="-2.35298">
        <ele>47.200000762939</ele>
        <time>2022-01-13T10:41:19.000Z</time>
      </trkpt>
      <trkpt lat="47.31829" lon="-2.35311">
        <ele>47.200000762939</ele>
        <time>2022-01-13T10:41:25.000Z</time>
      </trkpt>
      <trkpt lat="47.31812" lon="-2.35319">
        <ele>47.599998474121</ele>
        <time>2022-01-13T10:41:29.000Z</time>
      </trkpt>
      <trkpt lat="47.31809" lon="-2.35322">
        <ele>48</ele>
        <time>2022-01-13T10:41:30.000Z</time>
      </trkpt>
      <trkpt lat="47.31805" lon="-2.35323">
        <ele>48.599998474121</ele>
        <time>2022-01-13T10:41:31.000Z</time>
      </trkpt>
      <trkpt lat="47.31802" lon="-2.35325">
        <ele>49.400001525879</ele>
        <time>2022-01-13T10:41:32.000Z</time>
      </trkpt>
      <trkpt lat="47.31784" lon="-2.35336">
        <ele>49.400001525879</ele>
        <time>2022-01-13T10:41:38.000Z</time>
      </trkpt>
      <trkpt lat="47.31767" lon="-2.35346">
        <ele>49.799999237061</ele>
        <time>2022-01-13T10:41:43.000Z</time>
      </trkpt>
      <trkpt lat="47.31764" lon="-2.35348">
        <ele>50.200000762939</ele>
        <time>2022-01-13T10:41:44.000Z</time>
      </trkpt>
      <trkpt lat="47.31761" lon="-2.35349">
        <ele>50.599998474121</ele>
        <time>2022-01-13T10:41:45.000Z</time>
      </trkpt>
      <trkpt lat="47.31758" lon="-2.35351">
        <ele>51</ele>
        <time>2022-01-13T10:41:46.000Z</time>
      </trkpt>
      <trkpt lat="47.31755" lon="-2.35353">
        <ele>51.400001525879</ele>
        <time>2022-01-13T10:41:47.000Z</time>
      </trkpt>
      <trkpt lat="47.31746" lon="-2.35359">
        <ele>51.400001525879</ele>
        <time>2022-01-13T10:41:50.000Z</time>
      </trkpt>
      <trkpt lat="47.31732" lon="-2.35364">
        <ele>51.400001525879</ele>
        <time>2022-01-13T10:41:55.000Z</time>
      </trkpt>
      <trkpt lat="47.31721" lon="-2.35367">
        <ele>52</ele>
        <time>2022-01-13T10:41:58.000Z</time>
      </trkpt>
      <trkpt lat="47.31717" lon="-2.35368">
        <ele>52.400001525879</ele>
        <time>2022-01-13T10:41:59.000Z</time>
      </trkpt>
      <trkpt lat="47.31713" lon="-2.35368">
        <ele>52.799999237061</ele>
        <time>2022-01-13T10:42:00.000Z</time>
      </trkpt>
      <trkpt lat="47.31709" lon="-2.35369">
        <ele>53.200000762939</ele>
        <time>2022-01-13T10:42:01.000Z</time>
      </trkpt>
      <trkpt lat="47.31706" lon="-2.3537">
        <ele>53.599998474121</ele>
        <time>2022-01-13T10:42:02.000Z</time>
      </trkpt>
      <trkpt lat="47.3168" lon="-2.35371">
        <ele>53.599998474121</ele>
        <time>2022-01-13T10:42:07.000Z</time>
      </trkpt>
      <trkpt lat="47.31658" lon="-2.35372">
        <ele>53.599998474121</ele>
        <time>2022-01-13T10:42:12.000Z</time>
      </trkpt>
      <trkpt lat="47.3163" lon="-2.35363">
        <ele>53.599998474121</ele>
        <time>2022-01-13T10:42:18.000Z</time>
      </trkpt>
      <trkpt lat="47.31625" lon="-2.35362">
        <ele>53.599998474121</ele>
        <time>2022-01-13T10:42:19.000Z</time>
      </trkpt>
      <trkpt lat="47.31607" lon="-2.35362">
        <ele>53.599998474121</ele>
        <time>2022-01-13T10:42:23.000Z</time>
      </trkpt>
      <trkpt lat="47.31586" lon="-2.35371">
        <ele>53.599998474121</ele>
        <time>2022-01-13T10:42:28.000Z</time>
      </trkpt>
      <trkpt lat="47.31548" lon="-2.35393">
        <ele>53.599998474121</ele>
        <time>2022-01-13T10:42:36.000Z</time>
      </trkpt>
      <trkpt lat="47.31531" lon="-2.35404">
        <ele>53.599998474121</ele>
        <time>2022-01-13T10:42:40.000Z</time>
      </trkpt>
      <trkpt lat="47.31521" lon="-2.35411">
        <ele>53.599998474121</ele>
        <time>2022-01-13T10:42:42.000Z</time>
      </trkpt>
      <trkpt lat="47.31512" lon="-2.35417">
        <ele>53.599998474121</ele>
        <time>2022-01-13T10:42:44.000Z</time>
      </trkpt>
      <trkpt lat="47.31502" lon="-2.35429">
        <ele>53.599998474121</ele>
        <time>2022-01-13T10:42:47.000Z</time>
      </trkpt>
      <trkpt lat="47.31498" lon="-2.35434">
        <ele>53.599998474121</ele>
        <time>2022-01-13T10:42:48.000Z</time>
      </trkpt>
      <trkpt lat="47.31491" lon="-2.35452">
        <ele>53.599998474121</ele>
        <time>2022-01-13T10:42:51.000Z</time>
      </trkpt>
      <trkpt lat="47.31489" lon="-2.35458">
        <ele>54</ele>
        <time>2022-01-13T10:42:52.000Z</time>
      </trkpt>
      <trkpt lat="47.31488" lon="-2.35463">
        <ele>54.400001525879</ele>
        <time>2022-01-13T10:42:53.000Z</time>
      </trkpt>
      <trkpt lat="47.31487" lon="-2.3547">
        <ele>54.799999237061</ele>
        <time>2022-01-13T10:42:54.000Z</time>
      </trkpt>
      <trkpt lat="47.31486" lon="-2.35476">
        <ele>55.200000762939</ele>
        <time>2022-01-13T10:42:55.000Z</time>
      </trkpt>
      <trkpt lat="47.31484" lon="-2.35483">
        <ele>55.599998474121</ele>
        <time>2022-01-13T10:42:56.000Z</time>
      </trkpt>
      <trkpt lat="47.31479" lon="-2.35502">
        <ele>55.599998474121</ele>
        <time>2022-01-13T10:42:59.000Z</time>
      </trkpt>
      <trkpt lat="47.31477" lon="-2.35508">
        <ele>55.599998474121</ele>
        <time>2022-01-13T10:43:00.000Z</time>
      </trkpt>
      <trkpt lat="47.3147" lon="-2.35518">
        <ele>55.599998474121</ele>
        <time>2022-01-13T10:43:03.000Z</time>
      </trkpt>
      <trkpt lat="47.31461" lon="-2.35519">
        <ele>55.599998474121</ele>
        <time>2022-01-13T10:43:07.000Z</time>
      </trkpt>
      <trkpt lat="47.31455" lon="-2.35519">
        <ele>55.599998474121</ele>
        <time>2022-01-13T10:43:09.000Z</time>
      </trkpt>
      <trkpt lat="47.31444" lon="-2.3552">
        <ele>55.599998474121</ele>
        <time>2022-01-13T10:43:12.000Z</time>
      </trkpt>
      <trkpt lat="47.31425" lon="-2.35522">
        <ele>55.599998474121</ele>
        <time>2022-01-13T10:43:17.000Z</time>
      </trkpt>
      <trkpt lat="47.31395" lon="-2.35526">
        <ele>55.599998474121</ele>
        <time>2022-01-13T10:43:24.000Z</time>
      </trkpt>
      <trkpt lat="47.31377" lon="-2.35529">
        <ele>55.599998474121</ele>
        <time>2022-01-13T10:43:29.000Z</time>
      </trkpt>
      <trkpt lat="47.31371" lon="-2.35532">
        <ele>56</ele>
        <time>2022-01-13T10:43:31.000Z</time>
      </trkpt>
      <trkpt lat="47.31367" lon="-2.35534">
        <ele>56.599998474121</ele>
        <time>2022-01-13T10:43:32.000Z</time>
      </trkpt>
      <trkpt lat="47.31364" lon="-2.35535">
        <ele>57</ele>
        <time>2022-01-13T10:43:33.000Z</time>
      </trkpt>
      <trkpt lat="47.31362" lon="-2.35536">
        <ele>57.400001525879</ele>
        <time>2022-01-13T10:43:34.000Z</time>
      </trkpt>
      <trkpt lat="47.31359" lon="-2.35538">
        <ele>58</ele>
        <time>2022-01-13T10:43:35.000Z</time>
      </trkpt>
      <trkpt lat="47.31341" lon="-2.35548">
        <ele>58</ele>
        <time>2022-01-13T10:43:41.000Z</time>
      </trkpt>
      <trkpt lat="47.31319" lon="-2.35564">
        <ele>58</ele>
        <time>2022-01-13T10:43:48.000Z</time>
      </trkpt>
      <trkpt lat="47.31294" lon="-2.35581">
        <ele>58</ele>
        <time>2022-01-13T10:43:54.000Z</time>
      </trkpt>
      <trkpt lat="47.31257" lon="-2.35612">
        <ele>58</ele>
        <time>2022-01-13T10:44:02.000Z</time>
      </trkpt>
      <trkpt lat="47.31226" lon="-2.35639">
        <ele>58</ele>
        <time>2022-01-13T10:44:09.000Z</time>
      </trkpt>
      <trkpt lat="47.31193" lon="-2.35671">
        <ele>58.400001525879</ele>
        <time>2022-01-13T10:44:17.000Z</time>
      </trkpt>
      <trkpt lat="47.3119" lon="-2.35676">
        <ele>58.799999237061</ele>
        <time>2022-01-13T10:44:18.000Z</time>
      </trkpt>
      <trkpt lat="47.31187" lon="-2.35681">
        <ele>59.200000762939</ele>
        <time>2022-01-13T10:44:19.000Z</time>
      </trkpt>
      <trkpt lat="47.31184" lon="-2.35688">
        <ele>59.599998474121</ele>
        <time>2022-01-13T10:44:20.000Z</time>
      </trkpt>
      <trkpt lat="47.31182" lon="-2.35694">
        <ele>60</ele>
        <time>2022-01-13T10:44:21.000Z</time>
      </trkpt>
      <trkpt lat="47.3118" lon="-2.35701">
        <ele>60</ele>
        <time>2022-01-13T10:44:22.000Z</time>
      </trkpt>
      <trkpt lat="47.31179" lon="-2.35709">
        <ele>60</ele>
        <time>2022-01-13T10:44:23.000Z</time>
      </trkpt>
      <trkpt lat="47.31176" lon="-2.35724">
        <ele>60</ele>
        <time>2022-01-13T10:44:25.000Z</time>
      </trkpt>
      <trkpt lat="47.31172" lon="-2.35739">
        <ele>60</ele>
        <time>2022-01-13T10:44:27.000Z</time>
      </trkpt>
      <trkpt lat="47.31167" lon="-2.35753">
        <ele>60</ele>
        <time>2022-01-13T10:44:29.000Z</time>
      </trkpt>
      <trkpt lat="47.31161" lon="-2.35764">
        <ele>60</ele>
        <time>2022-01-13T10:44:31.000Z</time>
      </trkpt>
      <trkpt lat="47.31157" lon="-2.35769">
        <ele>60</ele>
        <time>2022-01-13T10:44:32.000Z</time>
      </trkpt>
      <trkpt lat="47.31139" lon="-2.35777">
        <ele>60</ele>
        <time>2022-01-13T10:44:36.000Z</time>
      </trkpt>
      <trkpt lat="47.31135" lon="-2.35778">
        <ele>60</ele>
        <time>2022-01-13T10:44:37.000Z</time>
      </trkpt>
      <trkpt lat="47.31104" lon="-2.35784">
        <ele>60</ele>
        <time>2022-01-13T10:44:44.000Z</time>
      </trkpt>
      <trkpt lat="47.31075" lon="-2.35791">
        <ele>60</ele>
        <time>2022-01-13T10:44:51.000Z</time>
      </trkpt>
      <trkpt lat="47.31047" lon="-2.35798">
        <ele>60</ele>
        <time>2022-01-13T10:44:58.000Z</time>
      </trkpt>
      <trkpt lat="47.3102" lon="-2.35807">
        <ele>60</ele>
        <time>2022-01-13T10:45:04.000Z</time>
      </trkpt>
      <trkpt lat="47.31015" lon="-2.35809">
        <ele>60.400001525879</ele>
        <time>2022-01-13T10:45:05.000Z</time>
      </trkpt>
      <trkpt lat="47.3101" lon="-2.35811">
        <ele>60.799999237061</ele>
        <time>2022-01-13T10:45:06.000Z</time>
      </trkpt>
      <trkpt lat="47.31005" lon="-2.35813">
        <ele>61.200000762939</ele>
        <time>2022-01-13T10:45:07.000Z</time>
      </trkpt>
      <trkpt lat="47.31" lon="-2.35815">
        <ele>61.599998474121</ele>
        <time>2022-01-13T10:45:08.000Z</time>
      </trkpt>
      <trkpt lat="47.30995" lon="-2.35817">
        <ele>62.200000762939</ele>
        <time>2022-01-13T10:45:09.000Z</time>
      </trkpt>
      <trkpt lat="47.30986" lon="-2.35822">
        <ele>62.200000762939</ele>
        <time>2022-01-13T10:45:11.000Z</time>
      </trkpt>
      <trkpt lat="47.30952" lon="-2.35838">
        <ele>62.200000762939</ele>
        <time>2022-01-13T10:45:18.000Z</time>
      </trkpt>
      <trkpt lat="47.30913" lon="-2.35859">
        <ele>62.200000762939</ele>
        <time>2022-01-13T10:45:26.000Z</time>
      </trkpt>
      <trkpt lat="47.30894" lon="-2.35865">
        <ele>62.200000762939</ele>
        <time>2022-01-13T10:45:30.000Z</time>
      </trkpt>
      <trkpt lat="47.30884" lon="-2.35865">
        <ele>62.200000762939</ele>
        <time>2022-01-13T10:45:32.000Z</time>
      </trkpt>
      <trkpt lat="47.30857" lon="-2.35856">
        <ele>62.200000762939</ele>
        <time>2022-01-13T10:45:37.000Z</time>
      </trkpt>
      <trkpt lat="47.30822" lon="-2.35832">
        <ele>62.200000762939</ele>
        <time>2022-01-13T10:45:44.000Z</time>
      </trkpt>
      <trkpt lat="47.30789" lon="-2.35809">
        <ele>62.200000762939</ele>
        <time>2022-01-13T10:45:51.000Z</time>
      </trkpt>
      <trkpt lat="47.30779" lon="-2.35803">
        <ele>62.599998474121</ele>
        <time>2022-01-13T10:45:53.000Z</time>
      </trkpt>
      <trkpt lat="47.30774" lon="-2.358">
        <ele>63</ele>
        <time>2022-01-13T10:45:54.000Z</time>
      </trkpt>
      <trkpt lat="47.30769" lon="-2.35798">
        <ele>63.400001525879</ele>
        <time>2022-01-13T10:45:55.000Z</time>
      </trkpt>
      <trkpt lat="47.30763" lon="-2.35797">
        <ele>63.799999237061</ele>
        <time>2022-01-13T10:45:56.000Z</time>
      </trkpt>
      <trkpt lat="47.30758" lon="-2.35798">
        <ele>64.199996948242</ele>
        <time>2022-01-13T10:45:57.000Z</time>
      </trkpt>
      <trkpt lat="47.30738" lon="-2.35813">
        <ele>64.199996948242</ele>
        <time>2022-01-13T10:46:01.000Z</time>
      </trkpt>
      <trkpt lat="47.30709" lon="-2.35846">
        <ele>64.199996948242</ele>
        <time>2022-01-13T10:46:07.000Z</time>
      </trkpt>
      <trkpt lat="47.30684" lon="-2.35874">
        <ele>63.599998474121</ele>
        <time>2022-01-13T10:46:12.000Z</time>
      </trkpt>
      <trkpt lat="47.30679" lon="-2.35879">
        <ele>63.200000762939</ele>
        <time>2022-01-13T10:46:13.000Z</time>
      </trkpt>
      <trkpt lat="47.30674" lon="-2.35884">
        <ele>62.799999237061</ele>
        <time>2022-01-13T10:46:14.000Z</time>
      </trkpt>
      <trkpt lat="47.30671" lon="-2.35888">
        <ele>62.400001525879</ele>
        <time>2022-01-13T10:46:15.000Z</time>
      </trkpt>
      <trkpt lat="47.30667" lon="-2.35893">
        <ele>62</ele>
        <time>2022-01-13T10:46:16.000Z</time>
      </trkpt>
      <trkpt lat="47.3066" lon="-2.35902">
        <ele>62</ele>
        <time>2022-01-13T10:46:18.000Z</time>
      </trkpt>
      <trkpt lat="47.30652" lon="-2.35903">
        <ele>62</ele>
        <time>2022-01-13T10:46:20.000Z</time>
      </trkpt>
      <trkpt lat="47.30643" lon="-2.35897">
        <ele>62</ele>
        <time>2022-01-13T10:46:22.000Z</time>
      </trkpt>
      <trkpt lat="47.30634" lon="-2.35888">
        <ele>62</ele>
        <time>2022-01-13T10:46:24.000Z</time>
      </trkpt>
      <trkpt lat="47.30602" lon="-2.35853">
        <ele>62</ele>
        <time>2022-01-13T10:46:31.000Z</time>
      </trkpt>
      <trkpt lat="47.30562" lon="-2.35803">
        <ele>62</ele>
        <time>2022-01-13T10:46:40.000Z</time>
      </trkpt>
      <trkpt lat="47.30519" lon="-2.35746">
        <ele>62</ele>
        <time>2022-01-13T10:46:50.000Z</time>
      </trkpt>
      <trkpt lat="47.30498" lon="-2.3572">
        <ele>61.599998474121</ele>
        <time>2022-01-13T10:46:55.000Z</time>
      </trkpt>
      <trkpt lat="47.30494" lon="-2.35714">
        <ele>61.200000762939</ele>
        <time>2022-01-13T10:46:56.000Z</time>
      </trkpt>
      <trkpt lat="47.3049" lon="-2.35709">
        <ele>60.799999237061</ele>
        <time>2022-01-13T10:46:57.000Z</time>
      </trkpt>
      <trkpt lat="47.30486" lon="-2.35703">
        <ele>60.400001525879</ele>
        <time>2022-01-13T10:46:58.000Z</time>
      </trkpt>
      <trkpt lat="47.30482" lon="-2.35699">
        <ele>59.799999237061</ele>
        <time>2022-01-13T10:46:59.000Z</time>
      </trkpt>
      <trkpt lat="47.3047" lon="-2.35686">
        <ele>59.799999237061</ele>
        <time>2022-01-13T10:47:02.000Z</time>
      </trkpt>
      <trkpt lat="47.30461" lon="-2.35678">
        <ele>59.799999237061</ele>
        <time>2022-01-13T10:47:04.000Z</time>
      </trkpt>
      <trkpt lat="47.30429" lon="-2.35652">
        <ele>59.799999237061</ele>
        <time>2022-01-13T10:47:11.000Z</time>
      </trkpt>
      <trkpt lat="47.30418" lon="-2.3564">
        <ele>59.799999237061</ele>
        <time>2022-01-13T10:47:14.000Z</time>
      </trkpt>
      <trkpt lat="47.30408" lon="-2.35626">
        <ele>59.799999237061</ele>
        <time>2022-01-13T10:47:17.000Z</time>
      </trkpt>
      <trkpt lat="47.30405" lon="-2.35621">
        <ele>59.799999237061</ele>
        <time>2022-01-13T10:47:18.000Z</time>
      </trkpt>
      <trkpt lat="47.30394" lon="-2.35603">
        <ele>59.799999237061</ele>
        <time>2022-01-13T10:47:22.000Z</time>
      </trkpt>
      <trkpt lat="47.30391" lon="-2.35599">
        <ele>59.799999237061</ele>
        <time>2022-01-13T10:47:23.000Z</time>
      </trkpt>
      <trkpt lat="47.30378" lon="-2.35596">
        <ele>59.799999237061</ele>
        <time>2022-01-13T10:47:26.000Z</time>
      </trkpt>
      <trkpt lat="47.30369" lon="-2.35597">
        <ele>59.799999237061</ele>
        <time>2022-01-13T10:47:28.000Z</time>
      </trkpt>
      <trkpt lat="47.30354" lon="-2.35598">
        <ele>59.799999237061</ele>
        <time>2022-01-13T10:47:31.000Z</time>
      </trkpt>
      <trkpt lat="47.30344" lon="-2.35597">
        <ele>59.799999237061</ele>
        <time>2022-01-13T10:47:33.000Z</time>
      </trkpt>
      <trkpt lat="47.30328" lon="-2.35593">
        <ele>59.799999237061</ele>
        <time>2022-01-13T10:47:36.000Z</time>
      </trkpt>
      <trkpt lat="47.30297" lon="-2.35589">
        <ele>59.799999237061</ele>
        <time>2022-01-13T10:47:42.000Z</time>
      </trkpt>
      <trkpt lat="47.30278" lon="-2.35585">
        <ele>59.799999237061</ele>
        <time>2022-01-13T10:47:46.000Z</time>
      </trkpt>
      <trkpt lat="47.3027" lon="-2.35582">
        <ele>59.799999237061</ele>
        <time>2022-01-13T10:47:48.000Z</time>
      </trkpt>
      <trkpt lat="47.30261" lon="-2.35582">
        <ele>59.799999237061</ele>
        <time>2022-01-13T10:47:50.000Z</time>
      </trkpt>
      <trkpt lat="47.30257" lon="-2.35581">
        <ele>59.799999237061</ele>
        <time>2022-01-13T10:47:51.000Z</time>
      </trkpt>
      <trkpt lat="47.30249" lon="-2.3558">
        <ele>59.799999237061</ele>
        <time>2022-01-13T10:47:53.000Z</time>
      </trkpt>
      <trkpt lat="47.3022" lon="-2.35576">
        <ele>59.799999237061</ele>
        <time>2022-01-13T10:48:00.000Z</time>
      </trkpt>
      <trkpt lat="47.30211" lon="-2.35575">
        <ele>59.799999237061</ele>
        <time>2022-01-13T10:48:02.000Z</time>
      </trkpt>
      <trkpt lat="47.30199" lon="-2.35576">
        <ele>59.799999237061</ele>
        <time>2022-01-13T10:48:05.000Z</time>
      </trkpt>
      <trkpt lat="47.30178" lon="-2.35583">
        <ele>59.799999237061</ele>
        <time>2022-01-13T10:48:10.000Z</time>
      </trkpt>
      <trkpt lat="47.30154" lon="-2.35593">
        <ele>59.799999237061</ele>
        <time>2022-01-13T10:48:15.000Z</time>
      </trkpt>
      <trkpt lat="47.30146" lon="-2.35598">
        <ele>59.799999237061</ele>
        <time>2022-01-13T10:48:17.000Z</time>
      </trkpt>
      <trkpt lat="47.30136" lon="-2.3561">
        <ele>59.799999237061</ele>
        <time>2022-01-13T10:48:20.000Z</time>
      </trkpt>
      <trkpt lat="47.30133" lon="-2.35613">
        <ele>59.799999237061</ele>
        <time>2022-01-13T10:48:21.000Z</time>
      </trkpt>
      <trkpt lat="47.30119" lon="-2.35615">
        <ele>59.799999237061</ele>
        <time>2022-01-13T10:48:24.000Z</time>
      </trkpt>
      <trkpt lat="47.30114" lon="-2.35617">
        <ele>59.799999237061</ele>
        <time>2022-01-13T10:48:25.000Z</time>
      </trkpt>
      <trkpt lat="47.30099" lon="-2.35624">
        <ele>59.799999237061</ele>
        <time>2022-01-13T10:48:28.000Z</time>
      </trkpt>
      <trkpt lat="47.30061" lon="-2.35649">
        <ele>59.799999237061</ele>
        <time>2022-01-13T10:48:36.000Z</time>
      </trkpt>
      <trkpt lat="47.30022" lon="-2.35673">
        <ele>59.799999237061</ele>
        <time>2022-01-13T10:48:44.000Z</time>
      </trkpt>
      <trkpt lat="47.29978" lon="-2.357">
        <ele>59.799999237061</ele>
        <time>2022-01-13T10:48:53.000Z</time>
      </trkpt>
      <trkpt lat="47.29964" lon="-2.35708">
        <ele>59.799999237061</ele>
        <time>2022-01-13T10:48:56.000Z</time>
      </trkpt>
      <trkpt lat="47.29944" lon="-2.35721">
        <ele>59.799999237061</ele>
        <time>2022-01-13T10:49:00.000Z</time>
      </trkpt>
      <trkpt lat="47.29922" lon="-2.3574">
        <ele>59.400001525879</ele>
        <time>2022-01-13T10:49:05.000Z</time>
      </trkpt>
      <trkpt lat="47.29917" lon="-2.35744">
        <ele>59</ele>
        <time>2022-01-13T10:49:06.000Z</time>
      </trkpt>
      <trkpt lat="47.29913" lon="-2.35748">
        <ele>58.599998474121</ele>
        <time>2022-01-13T10:49:07.000Z</time>
      </trkpt>
      <trkpt lat="47.29908" lon="-2.35752">
        <ele>58.200000762939</ele>
        <time>2022-01-13T10:49:08.000Z</time>
      </trkpt>
      <trkpt lat="47.29903" lon="-2.35755">
        <ele>57.799999237061</ele>
        <time>2022-01-13T10:49:09.000Z</time>
      </trkpt>
      <trkpt lat="47.29877" lon="-2.35769">
        <ele>57.799999237061</ele>
        <time>2022-01-13T10:49:14.000Z</time>
      </trkpt>
      <trkpt lat="47.29838" lon="-2.35784">
        <ele>57.799999237061</ele>
        <time>2022-01-13T10:49:21.000Z</time>
      </trkpt>
      <trkpt lat="47.29819" lon="-2.35791">
        <ele>57.799999237061</ele>
        <time>2022-01-13T10:49:25.000Z</time>
      </trkpt>
      <trkpt lat="47.2981" lon="-2.35794">
        <ele>58.200000762939</ele>
        <time>2022-01-13T10:49:27.000Z</time>
      </trkpt>
      <trkpt lat="47.29806" lon="-2.35795">
        <ele>58.599998474121</ele>
        <time>2022-01-13T10:49:28.000Z</time>
      </trkpt>
      <trkpt lat="47.29802" lon="-2.35797">
        <ele>59</ele>
        <time>2022-01-13T10:49:29.000Z</time>
      </trkpt>
      <trkpt lat="47.29798" lon="-2.35798">
        <ele>59.400001525879</ele>
        <time>2022-01-13T10:49:30.000Z</time>
      </trkpt>
      <trkpt lat="47.29794" lon="-2.35799">
        <ele>60</ele>
        <time>2022-01-13T10:49:31.000Z</time>
      </trkpt>
      <trkpt lat="47.29782" lon="-2.35803">
        <ele>60</ele>
        <time>2022-01-13T10:49:34.000Z</time>
      </trkpt>
      <trkpt lat="47.29745" lon="-2.35817">
        <ele>60</ele>
        <time>2022-01-13T10:49:43.000Z</time>
      </trkpt>
      <trkpt lat="47.29719" lon="-2.35831">
        <ele>59.400001525879</ele>
        <time>2022-01-13T10:49:48.000Z</time>
      </trkpt>
      <trkpt lat="47.29713" lon="-2.35834">
        <ele>59</ele>
        <time>2022-01-13T10:49:49.000Z</time>
      </trkpt>
      <trkpt lat="47.29707" lon="-2.35837">
        <ele>58.599998474121</ele>
        <time>2022-01-13T10:49:51.000Z</time>
      </trkpt>
      <trkpt lat="47.29701" lon="-2.3584">
        <ele>58.200000762939</ele>
        <time>2022-01-13T10:49:52.000Z</time>
      </trkpt>
      <trkpt lat="47.29696" lon="-2.35842">
        <ele>57.799999237061</ele>
        <time>2022-01-13T10:49:53.000Z</time>
      </trkpt>
      <trkpt lat="47.29684" lon="-2.35846">
        <ele>57.799999237061</ele>
        <time>2022-01-13T10:49:55.000Z</time>
      </trkpt>
      <trkpt lat="47.29674" lon="-2.3585">
        <ele>57.799999237061</ele>
        <time>2022-01-13T10:49:57.000Z</time>
      </trkpt>
      <trkpt lat="47.29661" lon="-2.35861">
        <ele>57.799999237061</ele>
        <time>2022-01-13T10:50:00.000Z</time>
      </trkpt>
      <trkpt lat="47.29631" lon="-2.35877">
        <ele>57.799999237061</ele>
        <time>2022-01-13T10:50:06.000Z</time>
      </trkpt>
      <trkpt lat="47.29603" lon="-2.35892">
        <ele>57.799999237061</ele>
        <time>2022-01-13T10:50:13.000Z</time>
      </trkpt>
      <trkpt lat="47.29576" lon="-2.35908">
        <ele>57.799999237061</ele>
        <time>2022-01-13T10:50:20.000Z</time>
      </trkpt>
      <trkpt lat="47.29572" lon="-2.3591">
        <ele>57.799999237061</ele>
        <time>2022-01-13T10:50:21.000Z</time>
      </trkpt>
      <trkpt lat="47.29548" lon="-2.35924">
        <ele>57.799999237061</ele>
        <time>2022-01-13T10:50:27.000Z</time>
      </trkpt>
      <trkpt lat="47.29522" lon="-2.35939">
        <ele>57.799999237061</ele>
        <time>2022-01-13T10:50:34.000Z</time>
      </trkpt>
      <trkpt lat="47.2951" lon="-2.35947">
        <ele>57.400001525879</ele>
        <time>2022-01-13T10:50:38.000Z</time>
      </trkpt>
      <trkpt lat="47.29507" lon="-2.3595">
        <ele>57</ele>
        <time>2022-01-13T10:50:39.000Z</time>
      </trkpt>
      <trkpt lat="47.29503" lon="-2.35953">
        <ele>56.599998474121</ele>
        <time>2022-01-13T10:50:40.000Z</time>
      </trkpt>
      <trkpt lat="47.29499" lon="-2.35955">
        <ele>56.200000762939</ele>
        <time>2022-01-13T10:50:41.000Z</time>
      </trkpt>
      <trkpt lat="47.29496" lon="-2.35958">
        <ele>55.799999237061</ele>
        <time>2022-01-13T10:50:42.000Z</time>
      </trkpt>
      <trkpt lat="47.29477" lon="-2.35975">
        <ele>55.799999237061</ele>
        <time>2022-01-13T10:50:48.000Z</time>
      </trkpt>
      <trkpt lat="47.29475" lon="-2.3598">
        <ele>55.799999237061</ele>
        <time>2022-01-13T10:50:49.000Z</time>
      </trkpt>
      <trkpt lat="47.29471" lon="-2.3599">
        <ele>55.799999237061</ele>
        <time>2022-01-13T10:50:51.000Z</time>
      </trkpt>
      <trkpt lat="47.29459" lon="-2.35998">
        <ele>55.799999237061</ele>
        <time>2022-01-13T10:50:54.000Z</time>
      </trkpt>
      <trkpt lat="47.29455" lon="-2.36001">
        <ele>55.799999237061</ele>
        <time>2022-01-13T10:50:55.000Z</time>
      </trkpt>
      <trkpt lat="47.2944" lon="-2.36015">
        <ele>55.799999237061</ele>
        <time>2022-01-13T10:50:59.000Z</time>
      </trkpt>
      <trkpt lat="47.29428" lon="-2.36026">
        <ele>55.799999237061</ele>
        <time>2022-01-13T10:51:02.000Z</time>
      </trkpt>
      <trkpt lat="47.29421" lon="-2.36032">
        <ele>55.799999237061</ele>
        <time>2022-01-13T10:51:04.000Z</time>
      </trkpt>
      <trkpt lat="47.29398" lon="-2.36053">
        <ele>55.799999237061</ele>
        <time>2022-01-13T10:51:10.000Z</time>
      </trkpt>
      <trkpt lat="47.29394" lon="-2.36057">
        <ele>55.799999237061</ele>
        <time>2022-01-13T10:51:11.000Z</time>
      </trkpt>
      <trkpt lat="47.29361" lon="-2.36086">
        <ele>55.799999237061</ele>
        <time>2022-01-13T10:51:18.000Z</time>
      </trkpt>
      <trkpt lat="47.29319" lon="-2.36116">
        <ele>55.799999237061</ele>
        <time>2022-01-13T10:51:26.000Z</time>
      </trkpt>
      <trkpt lat="47.29265" lon="-2.36142">
        <ele>55.799999237061</ele>
        <time>2022-01-13T10:51:36.000Z</time>
      </trkpt>
      <trkpt lat="47.29225" lon="-2.36158">
        <ele>55.799999237061</ele>
        <time>2022-01-13T10:51:43.000Z</time>
      </trkpt>
      <trkpt lat="47.29185" lon="-2.36178">
        <ele>55.799999237061</ele>
        <time>2022-01-13T10:51:50.000Z</time>
      </trkpt>
      <trkpt lat="47.2914" lon="-2.36196">
        <ele>55.799999237061</ele>
        <time>2022-01-13T10:51:58.000Z</time>
      </trkpt>
      <trkpt lat="47.29088" lon="-2.36217">
        <ele>55.799999237061</ele>
        <time>2022-01-13T10:52:07.000Z</time>
      </trkpt>
      <trkpt lat="47.29077" lon="-2.36222">
        <ele>55.799999237061</ele>
        <time>2022-01-13T10:52:09.000Z</time>
      </trkpt>
      <trkpt lat="47.29071" lon="-2.36224">
        <ele>55.400001525879</ele>
        <time>2022-01-13T10:52:10.000Z</time>
      </trkpt>
      <trkpt lat="47.29065" lon="-2.36227">
        <ele>55</ele>
        <time>2022-01-13T10:52:11.000Z</time>
      </trkpt>
      <trkpt lat="47.29059" lon="-2.3623">
        <ele>54.599998474121</ele>
        <time>2022-01-13T10:52:12.000Z</time>
      </trkpt>
      <trkpt lat="47.29053" lon="-2.36233">
        <ele>54.200000762939</ele>
        <time>2022-01-13T10:52:13.000Z</time>
      </trkpt>
      <trkpt lat="47.29047" lon="-2.36235">
        <ele>53.799999237061</ele>
        <time>2022-01-13T10:52:14.000Z</time>
      </trkpt>
      <trkpt lat="47.2904" lon="-2.36238">
        <ele>53.799999237061</ele>
        <time>2022-01-13T10:52:15.000Z</time>
      </trkpt>
      <trkpt lat="47.28993" lon="-2.36259">
        <ele>53.799999237061</ele>
        <time>2022-01-13T10:52:23.000Z</time>
      </trkpt>
      <trkpt lat="47.28938" lon="-2.36282">
        <ele>53.799999237061</ele>
        <time>2022-01-13T10:52:32.000Z</time>
      </trkpt>
      <trkpt lat="47.28895" lon="-2.36302">
        <ele>53.799999237061</ele>
        <time>2022-01-13T10:52:40.000Z</time>
      </trkpt>
      <trkpt lat="47.28867" lon="-2.36316">
        <ele>53.799999237061</ele>
        <time>2022-01-13T10:52:47.000Z</time>
      </trkpt>
      <trkpt lat="47.28842" lon="-2.36322">
        <ele>53.799999237061</ele>
        <time>2022-01-13T10:52:54.000Z</time>
      </trkpt>
      <trkpt lat="47.28839" lon="-2.36319">
        <ele>53.799999237061</ele>
        <time>2022-01-13T10:52:55.000Z</time>
      </trkpt>
      <trkpt lat="47.2883" lon="-2.36307">
        <ele>53.799999237061</ele>
        <time>2022-01-13T10:52:58.000Z</time>
      </trkpt>
      <trkpt lat="47.28812" lon="-2.36285">
        <ele>53.799999237061</ele>
        <time>2022-01-13T10:53:04.000Z</time>
      </trkpt>
      <trkpt lat="47.28805" lon="-2.36279">
        <ele>54.200000762939</ele>
        <time>2022-01-13T10:53:06.000Z</time>
      </trkpt>
      <trkpt lat="47.28802" lon="-2.36277">
        <ele>54.599998474121</ele>
        <time>2022-01-13T10:53:07.000Z</time>
      </trkpt>
      <trkpt lat="47.28799" lon="-2.36273">
        <ele>55</ele>
        <time>2022-01-13T10:53:08.000Z</time>
      </trkpt>
      <trkpt lat="47.28795" lon="-2.3627">
        <ele>55.400001525879</ele>
        <time>2022-01-13T10:53:09.000Z</time>
      </trkpt>
      <trkpt lat="47.28793" lon="-2.36266">
        <ele>55.799999237061</ele>
        <time>2022-01-13T10:53:10.000Z</time>
      </trkpt>
      <trkpt lat="47.28771" lon="-2.36234">
        <ele>55.799999237061</ele>
        <time>2022-01-13T10:53:18.000Z</time>
      </trkpt>
      <trkpt lat="47.28761" lon="-2.36221">
        <ele>55.799999237061</ele>
        <time>2022-01-13T10:53:22.000Z</time>
      </trkpt>
      <trkpt lat="47.28758" lon="-2.36222">
        <ele>55.799999237061</ele>
        <time>2022-01-13T10:53:23.000Z</time>
      </trkpt>
      <trkpt lat="47.28749" lon="-2.36229">
        <ele>55.799999237061</ele>
        <time>2022-01-13T10:53:27.000Z</time>
      </trkpt>
      <trkpt lat="47.28734" lon="-2.3624">
        <ele>55.799999237061</ele>
        <time>2022-01-13T10:53:33.000Z</time>
      </trkpt>
      <trkpt lat="47.28731" lon="-2.36242">
        <ele>55.799999237061</ele>
        <time>2022-01-13T10:53:34.000Z</time>
      </trkpt>
      <trkpt lat="47.28727" lon="-2.36247">
        <ele>56.200000762939</ele>
        <time>2022-01-13T10:53:36.000Z</time>
      </trkpt>
      <trkpt lat="47.28726" lon="-2.3625">
        <ele>56.599998474121</ele>
        <time>2022-01-13T10:53:37.000Z</time>
      </trkpt>
      <trkpt lat="47.28724" lon="-2.36252">
        <ele>57</ele>
        <time>2022-01-13T10:53:38.000Z</time>
      </trkpt>
      <trkpt lat="47.28722" lon="-2.36255">
        <ele>57.400001525879</ele>
        <time>2022-01-13T10:53:39.000Z</time>
      </trkpt>
      <trkpt lat="47.28719" lon="-2.36258">
        <ele>57.799999237061</ele>
        <time>2022-01-13T10:53:40.000Z</time>
      </trkpt>
      <trkpt lat="47.28714" lon="-2.36264">
        <ele>57.799999237061</ele>
        <time>2022-01-13T10:53:42.000Z</time>
      </trkpt>
      <trkpt lat="47.28702" lon="-2.36274">
        <ele>58.200000762939</ele>
        <time>2022-01-13T10:53:46.000Z</time>
      </trkpt>
      <trkpt lat="47.287" lon="-2.36275">
        <ele>58.599998474121</ele>
        <time>2022-01-13T10:53:47.000Z</time>
      </trkpt>
      <trkpt lat="47.28697" lon="-2.36276">
        <ele>59</ele>
        <time>2022-01-13T10:53:48.000Z</time>
      </trkpt>
      <trkpt lat="47.28693" lon="-2.36277">
        <ele>59.400001525879</ele>
        <time>2022-01-13T10:53:49.000Z</time>
      </trkpt>
      <trkpt lat="47.28691" lon="-2.36278">
        <ele>59.799999237061</ele>
        <time>2022-01-13T10:53:50.000Z</time>
      </trkpt>
      <trkpt lat="47.28683" lon="-2.3628">
        <ele>59.799999237061</ele>
        <time>2022-01-13T10:53:55.000Z</time>
      </trkpt>
      <trkpt lat="47.28672" lon="-2.36275">
        <ele>60.200000762939</ele>
        <time>2022-01-13T10:54:00.000Z</time>
      </trkpt>
      <trkpt lat="47.2867" lon="-2.36273">
        <ele>60.599998474121</ele>
        <time>2022-01-13T10:54:01.000Z</time>
      </trkpt>
      <trkpt lat="47.28668" lon="-2.36271">
        <ele>61</ele>
        <time>2022-01-13T10:54:02.000Z</time>
      </trkpt>
      <trkpt lat="47.28666" lon="-2.36269">
        <ele>61.400001525879</ele>
        <time>2022-01-13T10:54:03.000Z</time>
      </trkpt>
      <trkpt lat="47.28665" lon="-2.36266">
        <ele>62</ele>
        <time>2022-01-13T10:54:04.000Z</time>
      </trkpt>
      <trkpt lat="47.28665" lon="-2.36262">
        <ele>62</ele>
        <time>2022-01-13T10:54:05.000Z</time>
      </trkpt>
      <trkpt lat="47.28665" lon="-2.36256">
        <ele>62</ele>
        <time>2022-01-13T10:54:06.000Z</time>
      </trkpt>
      <trkpt lat="47.28667" lon="-2.36228">
        <ele>62</ele>
        <time>2022-01-13T10:54:12.000Z</time>
      </trkpt>
      <trkpt lat="47.28668" lon="-2.36218">
        <ele>62.400001525879</ele>
        <time>2022-01-13T10:54:15.000Z</time>
      </trkpt>
      <trkpt lat="47.28668" lon="-2.36215">
        <ele>62.799999237061</ele>
        <time>2022-01-13T10:54:16.000Z</time>
      </trkpt>
      <trkpt lat="47.28668" lon="-2.36212">
        <ele>63.200000762939</ele>
        <time>2022-01-13T10:54:17.000Z</time>
      </trkpt>
      <trkpt lat="47.28667" lon="-2.36209">
        <ele>64</ele>
        <time>2022-01-13T10:54:18.000Z</time>
      </trkpt>
      <trkpt lat="47.28661" lon="-2.3619">
        <ele>64</ele>
        <time>2022-01-13T10:54:23.000Z</time>
      </trkpt>
      <trkpt lat="47.28659" lon="-2.36188">
        <ele>64</ele>
        <time>2022-01-13T10:54:24.000Z</time>
      </trkpt>
      <trkpt lat="47.28644" lon="-2.36173">
        <ele>64</ele>
        <time>2022-01-13T10:54:30.000Z</time>
      </trkpt>
      <trkpt lat="47.28642" lon="-2.36171">
        <ele>64.400001525879</ele>
        <time>2022-01-13T10:54:31.000Z</time>
      </trkpt>
      <trkpt lat="47.28641" lon="-2.36169">
        <ele>64.800003051758</ele>
        <time>2022-01-13T10:54:32.000Z</time>
      </trkpt>
      <trkpt lat="47.2864" lon="-2.36166">
        <ele>65.199996948242</ele>
        <time>2022-01-13T10:54:33.000Z</time>
      </trkpt>
      <trkpt lat="47.28639" lon="-2.36162">
        <ele>65.800003051758</ele>
        <time>2022-01-13T10:54:34.000Z</time>
      </trkpt>
      <trkpt lat="47.28636" lon="-2.36159">
        <ele>66.199996948242</ele>
        <time>2022-01-13T10:54:35.000Z</time>
      </trkpt>
      <trkpt lat="47.28635" lon="-2.36155">
        <ele>66.199996948242</ele>
        <time>2022-01-13T10:54:36.000Z</time>
      </trkpt>
      <trkpt lat="47.28627" lon="-2.36152">
        <ele>66.199996948242</ele>
        <time>2022-01-13T10:54:39.000Z</time>
      </trkpt>
      <trkpt lat="47.2862" lon="-2.36153">
        <ele>66.199996948242</ele>
        <time>2022-01-13T10:54:41.000Z</time>
      </trkpt>
      <trkpt lat="47.2861" lon="-2.36158">
        <ele>66.199996948242</ele>
        <time>2022-01-13T10:54:44.000Z</time>
      </trkpt>
      <trkpt lat="47.28595" lon="-2.36157">
        <ele>66.599998474121</ele>
        <time>2022-01-13T10:54:49.000Z</time>
      </trkpt>
      <trkpt lat="47.28593" lon="-2.36157">
        <ele>67</ele>
        <time>2022-01-13T10:54:50.000Z</time>
      </trkpt>
      <trkpt lat="47.2859" lon="-2.36155">
        <ele>67.400001525879</ele>
        <time>2022-01-13T10:54:51.000Z</time>
      </trkpt>
      <trkpt lat="47.28587" lon="-2.36152">
        <ele>67.800003051758</ele>
        <time>2022-01-13T10:54:52.000Z</time>
      </trkpt>
      <trkpt lat="47.28584" lon="-2.3615">
        <ele>68.199996948242</ele>
        <time>2022-01-13T10:54:53.000Z</time>
      </trkpt>
      <trkpt lat="47.28579" lon="-2.36149">
        <ele>68.199996948242</ele>
        <time>2022-01-13T10:54:54.000Z</time>
      </trkpt>
      <trkpt lat="47.28576" lon="-2.3615">
        <ele>68.199996948242</ele>
        <time>2022-01-13T10:54:55.000Z</time>
      </trkpt>
      <trkpt lat="47.28565" lon="-2.36153">
        <ele>68.199996948242</ele>
        <time>2022-01-13T10:54:57.000Z</time>
      </trkpt>
      <trkpt lat="47.28561" lon="-2.36154">
        <ele>67.599998474121</ele>
        <time>2022-01-13T10:54:58.000Z</time>
      </trkpt>
      <trkpt lat="47.28556" lon="-2.36154">
        <ele>67.199996948242</ele>
        <time>2022-01-13T10:54:59.000Z</time>
      </trkpt>
      <trkpt lat="47.28551" lon="-2.36155">
        <ele>66.800003051758</ele>
        <time>2022-01-13T10:55:00.000Z</time>
      </trkpt>
      <trkpt lat="47.28547" lon="-2.36154">
        <ele>66.199996948242</ele>
        <time>2022-01-13T10:55:01.000Z</time>
      </trkpt>
      <trkpt lat="47.28544" lon="-2.36151">
        <ele>65.599998474121</ele>
        <time>2022-01-13T10:55:02.000Z</time>
      </trkpt>
      <trkpt lat="47.28542" lon="-2.36146">
        <ele>65.199996948242</ele>
        <time>2022-01-13T10:55:03.000Z</time>
      </trkpt>
      <trkpt lat="47.2854" lon="-2.3614">
        <ele>64.599998474121</ele>
        <time>2022-01-13T10:55:04.000Z</time>
      </trkpt>
      <trkpt lat="47.28539" lon="-2.36135">
        <ele>64</ele>
        <time>2022-01-13T10:55:05.000Z</time>
      </trkpt>
      <trkpt lat="47.28537" lon="-2.36128">
        <ele>63.400001525879</ele>
        <time>2022-01-13T10:55:06.000Z</time>
      </trkpt>
      <trkpt lat="47.28532" lon="-2.36092">
        <ele>63.400001525879</ele>
        <time>2022-01-13T10:55:12.000Z</time>
      </trkpt>
      <trkpt lat="47.28526" lon="-2.36074">
        <ele>63.400001525879</ele>
        <time>2022-01-13T10:55:16.000Z</time>
      </trkpt>
      <trkpt lat="47.28509" lon="-2.36047">
        <ele>63.400001525879</ele>
        <time>2022-01-13T10:55:22.000Z</time>
      </trkpt>
      <trkpt lat="47.2849" lon="-2.36033">
        <ele>63.400001525879</ele>
        <time>2022-01-13T10:55:27.000Z</time>
      </trkpt>
      <trkpt lat="47.28465" lon="-2.36016">
        <ele>63.400001525879</ele>
        <time>2022-01-13T10:55:33.000Z</time>
      </trkpt>
      <trkpt lat="47.28455" lon="-2.35991">
        <ele>63.400001525879</ele>
        <time>2022-01-13T10:55:38.000Z</time>
      </trkpt>
      <trkpt lat="47.28456" lon="-2.35979">
        <ele>63.400001525879</ele>
        <time>2022-01-13T10:55:40.000Z</time>
      </trkpt>
      <trkpt lat="47.28459" lon="-2.35966">
        <ele>63.400001525879</ele>
        <time>2022-01-13T10:55:42.000Z</time>
      </trkpt>
      <trkpt lat="47.28467" lon="-2.35945">
        <ele>62.799999237061</ele>
        <time>2022-01-13T10:55:45.000Z</time>
      </trkpt>
      <trkpt lat="47.28469" lon="-2.35938">
        <ele>62.400001525879</ele>
        <time>2022-01-13T10:55:46.000Z</time>
      </trkpt>
      <trkpt lat="47.28471" lon="-2.3593">
        <ele>61.799999237061</ele>
        <time>2022-01-13T10:55:47.000Z</time>
      </trkpt>
      <trkpt lat="47.28473" lon="-2.35923">
        <ele>61.200000762939</ele>
        <time>2022-01-13T10:55:48.000Z</time>
      </trkpt>
      <trkpt lat="47.28474" lon="-2.35916">
        <ele>60.599998474121</ele>
        <time>2022-01-13T10:55:49.000Z</time>
      </trkpt>
      <trkpt lat="47.28475" lon="-2.3591">
        <ele>59.799999237061</ele>
        <time>2022-01-13T10:55:50.000Z</time>
      </trkpt>
      <trkpt lat="47.28474" lon="-2.35904">
        <ele>59</ele>
        <time>2022-01-13T10:55:51.000Z</time>
      </trkpt>
      <trkpt lat="47.28471" lon="-2.35897">
        <ele>58.200000762939</ele>
        <time>2022-01-13T10:55:52.000Z</time>
      </trkpt>
      <trkpt lat="47.28467" lon="-2.35892">
        <ele>57.599998474121</ele>
        <time>2022-01-13T10:55:53.000Z</time>
      </trkpt>
      <trkpt lat="47.28462" lon="-2.35889">
        <ele>56.799999237061</ele>
        <time>2022-01-13T10:55:54.000Z</time>
      </trkpt>
      <trkpt lat="47.28457" lon="-2.35886">
        <ele>56</ele>
        <time>2022-01-13T10:55:55.000Z</time>
      </trkpt>
      <trkpt lat="47.28452" lon="-2.35884">
        <ele>55.200000762939</ele>
        <time>2022-01-13T10:55:56.000Z</time>
      </trkpt>
      <trkpt lat="47.28447" lon="-2.35883">
        <ele>53.599998474121</ele>
        <time>2022-01-13T10:55:57.000Z</time>
      </trkpt>
      <trkpt lat="47.28443" lon="-2.35881">
        <ele>53.599998474121</ele>
        <time>2022-01-13T10:55:58.000Z</time>
      </trkpt>
      <trkpt lat="47.2844" lon="-2.35878">
        <ele>53.599998474121</ele>
        <time>2022-01-13T10:55:59.000Z</time>
      </trkpt>
      <trkpt lat="47.28433" lon="-2.35866">
        <ele>53.599998474121</ele>
        <time>2022-01-13T10:56:02.000Z</time>
      </trkpt>
      <trkpt lat="47.28429" lon="-2.35857">
        <ele>53.599998474121</ele>
        <time>2022-01-13T10:56:04.000Z</time>
      </trkpt>
      <trkpt lat="47.28411" lon="-2.35828">
        <ele>53.599998474121</ele>
        <time>2022-01-13T10:56:10.000Z</time>
      </trkpt>
      <trkpt lat="47.28395" lon="-2.35811">
        <ele>53.599998474121</ele>
        <time>2022-01-13T10:56:15.000Z</time>
      </trkpt>
      <trkpt lat="47.28384" lon="-2.35804">
        <ele>53.200000762939</ele>
        <time>2022-01-13T10:56:18.000Z</time>
      </trkpt>
      <trkpt lat="47.28381" lon="-2.35803">
        <ele>52.799999237061</ele>
        <time>2022-01-13T10:56:19.000Z</time>
      </trkpt>
      <trkpt lat="47.28376" lon="-2.35804">
        <ele>52.400001525879</ele>
        <time>2022-01-13T10:56:20.000Z</time>
      </trkpt>
      <trkpt lat="47.28372" lon="-2.35804">
        <ele>52</ele>
        <time>2022-01-13T10:56:21.000Z</time>
      </trkpt>
      <trkpt lat="47.28368" lon="-2.35805">
        <ele>51.599998474121</ele>
        <time>2022-01-13T10:56:22.000Z</time>
      </trkpt>
      <trkpt lat="47.28359" lon="-2.35812">
        <ele>51.599998474121</ele>
        <time>2022-01-13T10:56:25.000Z</time>
      </trkpt>
      <trkpt lat="47.28339" lon="-2.35833">
        <ele>51.599998474121</ele>
        <time>2022-01-13T10:56:31.000Z</time>
      </trkpt>
      <trkpt lat="47.28321" lon="-2.35849">
        <ele>51.200000762939</ele>
        <time>2022-01-13T10:56:36.000Z</time>
      </trkpt>
      <trkpt lat="47.28317" lon="-2.35852">
        <ele>50.799999237061</ele>
        <time>2022-01-13T10:56:37.000Z</time>
      </trkpt>
      <trkpt lat="47.28312" lon="-2.35855">
        <ele>50.400001525879</ele>
        <time>2022-01-13T10:56:38.000Z</time>
      </trkpt>
      <trkpt lat="47.28308" lon="-2.35858">
        <ele>50</ele>
        <time>2022-01-13T10:56:39.000Z</time>
      </trkpt>
      <trkpt lat="47.28303" lon="-2.35862">
        <ele>49.599998474121</ele>
        <time>2022-01-13T10:56:40.000Z</time>
      </trkpt>
      <trkpt lat="47.28297" lon="-2.35865">
        <ele>49.599998474121</ele>
        <time>2022-01-13T10:56:41.000Z</time>
      </trkpt>
      <trkpt lat="47.28284" lon="-2.35875">
        <ele>49.599998474121</ele>
        <time>2022-01-13T10:56:44.000Z</time>
      </trkpt>
      <trkpt lat="47.2828" lon="-2.3588">
        <ele>49.599998474121</ele>
        <time>2022-01-13T10:56:45.000Z</time>
      </trkpt>
      <trkpt lat="47.28268" lon="-2.35891">
        <ele>49.599998474121</ele>
        <time>2022-01-13T10:56:48.000Z</time>
      </trkpt>
      <trkpt lat="47.28265" lon="-2.35893">
        <ele>49.599998474121</ele>
        <time>2022-01-13T10:56:49.000Z</time>
      </trkpt>
      <trkpt lat="47.28253" lon="-2.35898">
        <ele>49.200000762939</ele>
        <time>2022-01-13T10:56:52.000Z</time>
      </trkpt>
      <trkpt lat="47.28249" lon="-2.359">
        <ele>48.799999237061</ele>
        <time>2022-01-13T10:56:53.000Z</time>
      </trkpt>
      <trkpt lat="47.28246" lon="-2.35901">
        <ele>48.400001525879</ele>
        <time>2022-01-13T10:56:54.000Z</time>
      </trkpt>
      <trkpt lat="47.28242" lon="-2.35901">
        <ele>48</ele>
        <time>2022-01-13T10:56:55.000Z</time>
      </trkpt>
      <trkpt lat="47.28238" lon="-2.35901">
        <ele>47.599998474121</ele>
        <time>2022-01-13T10:56:56.000Z</time>
      </trkpt>
      <trkpt lat="47.28223" lon="-2.35899">
        <ele>47.599998474121</ele>
        <time>2022-01-13T10:56:59.000Z</time>
      </trkpt>
      <trkpt lat="47.28205" lon="-2.35897">
        <ele>47.599998474121</ele>
        <time>2022-01-13T10:57:04.000Z</time>
      </trkpt>
      <trkpt lat="47.28191" lon="-2.35894">
        <ele>47.200000762939</ele>
        <time>2022-01-13T10:57:08.000Z</time>
      </trkpt>
      <trkpt lat="47.28188" lon="-2.35894">
        <ele>46.799999237061</ele>
        <time>2022-01-13T10:57:09.000Z</time>
      </trkpt>
      <trkpt lat="47.28186" lon="-2.35895">
        <ele>46.400001525879</ele>
        <time>2022-01-13T10:57:10.000Z</time>
      </trkpt>
      <trkpt lat="47.28184" lon="-2.35897">
        <ele>45.599998474121</ele>
        <time>2022-01-13T10:57:11.000Z</time>
      </trkpt>
      <trkpt lat="47.28183" lon="-2.35899">
        <ele>45.599998474121</ele>
        <time>2022-01-13T10:57:12.000Z</time>
      </trkpt>
      <trkpt lat="47.28181" lon="-2.359">
        <ele>45.599998474121</ele>
        <time>2022-01-13T10:57:14.000Z</time>
      </trkpt>
      <trkpt lat="47.28163" lon="-2.35895">
        <ele>45.599998474121</ele>
        <time>2022-01-13T10:57:29.000Z</time>
      </trkpt>
      <trkpt lat="47.28158" lon="-2.3589">
        <ele>45.599998474121</ele>
        <time>2022-01-13T10:57:32.000Z</time>
      </trkpt>
      <trkpt lat="47.28143" lon="-2.35881">
        <ele>45.599998474121</ele>
        <time>2022-01-13T10:57:38.000Z</time>
      </trkpt>
      <trkpt lat="47.28136" lon="-2.3587">
        <ele>45.599998474121</ele>
        <time>2022-01-13T10:57:42.000Z</time>
      </trkpt>
      <trkpt lat="47.28136" lon="-2.35866">
        <ele>45.599998474121</ele>
        <time>2022-01-13T10:57:43.000Z</time>
      </trkpt>
      <trkpt lat="47.28131" lon="-2.35851">
        <ele>45.599998474121</ele>
        <time>2022-01-13T10:57:49.000Z</time>
      </trkpt>
      <trkpt lat="47.28121" lon="-2.35847">
        <ele>45.599998474121</ele>
        <time>2022-01-13T10:57:55.000Z</time>
      </trkpt>
      <trkpt lat="47.28117" lon="-2.35842">
        <ele>45.599998474121</ele>
        <time>2022-01-13T10:57:57.000Z</time>
      </trkpt>
      <trkpt lat="47.28112" lon="-2.35827">
        <ele>45.599998474121</ele>
        <time>2022-01-13T10:58:00.000Z</time>
      </trkpt>
      <trkpt lat="47.28103" lon="-2.35815">
        <ele>45.200000762939</ele>
        <time>2022-01-13T10:58:04.000Z</time>
      </trkpt>
      <trkpt lat="47.28101" lon="-2.35814">
        <ele>44.799999237061</ele>
        <time>2022-01-13T10:58:05.000Z</time>
      </trkpt>
      <trkpt lat="47.28098" lon="-2.35812">
        <ele>44.400001525879</ele>
        <time>2022-01-13T10:58:06.000Z</time>
      </trkpt>
      <trkpt lat="47.28095" lon="-2.3581">
        <ele>44</ele>
        <time>2022-01-13T10:58:07.000Z</time>
      </trkpt>
      <trkpt lat="47.28092" lon="-2.35808">
        <ele>43.599998474121</ele>
        <time>2022-01-13T10:58:08.000Z</time>
      </trkpt>
      <trkpt lat="47.28083" lon="-2.35807">
        <ele>43.599998474121</ele>
        <time>2022-01-13T10:58:11.000Z</time>
      </trkpt>
      <trkpt lat="47.28079" lon="-2.35805">
        <ele>44</ele>
        <time>2022-01-13T10:58:13.000Z</time>
      </trkpt>
      <trkpt lat="47.28077" lon="-2.35802">
        <ele>44.400001525879</ele>
        <time>2022-01-13T10:58:14.000Z</time>
      </trkpt>
      <trkpt lat="47.28077" lon="-2.35798">
        <ele>44.799999237061</ele>
        <time>2022-01-13T10:58:15.000Z</time>
      </trkpt>
      <trkpt lat="47.28078" lon="-2.35794">
        <ele>45.200000762939</ele>
        <time>2022-01-13T10:58:16.000Z</time>
      </trkpt>
      <trkpt lat="47.28079" lon="-2.3579">
        <ele>45.599998474121</ele>
        <time>2022-01-13T10:58:17.000Z</time>
      </trkpt>
      <trkpt lat="47.28083" lon="-2.35781">
        <ele>45.599998474121</ele>
        <time>2022-01-13T10:58:20.000Z</time>
      </trkpt>
      <trkpt lat="47.28085" lon="-2.35765">
        <ele>45.599998474121</ele>
        <time>2022-01-13T10:58:25.000Z</time>
      </trkpt>
      <trkpt lat="47.28085" lon="-2.35751">
        <ele>46</ele>
        <time>2022-01-13T10:58:28.000Z</time>
      </trkpt>
      <trkpt lat="47.28086" lon="-2.35746">
        <ele>46.400001525879</ele>
        <time>2022-01-13T10:58:29.000Z</time>
      </trkpt>
      <trkpt lat="47.28086" lon="-2.35742">
        <ele>46.799999237061</ele>
        <time>2022-01-13T10:58:30.000Z</time>
      </trkpt>
      <trkpt lat="47.28087" lon="-2.35738">
        <ele>47.400001525879</ele>
        <time>2022-01-13T10:58:31.000Z</time>
      </trkpt>
      <trkpt lat="47.28087" lon="-2.35734">
        <ele>47.799999237061</ele>
        <time>2022-01-13T10:58:32.000Z</time>
      </trkpt>
      <trkpt lat="47.28089" lon="-2.35723">
        <ele>48.200000762939</ele>
        <time>2022-01-13T10:58:35.000Z</time>
      </trkpt>
      <trkpt lat="47.2809" lon="-2.35719">
        <ele>48.599998474121</ele>
        <time>2022-01-13T10:58:36.000Z</time>
      </trkpt>
      <trkpt lat="47.2809" lon="-2.35716">
        <ele>49</ele>
        <time>2022-01-13T10:58:37.000Z</time>
      </trkpt>
      <trkpt lat="47.28091" lon="-2.35712">
        <ele>49.400001525879</ele>
        <time>2022-01-13T10:58:38.000Z</time>
      </trkpt>
      <trkpt lat="47.28092" lon="-2.35708">
        <ele>49.799999237061</ele>
        <time>2022-01-13T10:58:39.000Z</time>
      </trkpt>
      <trkpt lat="47.28091" lon="-2.35691">
        <ele>49.799999237061</ele>
        <time>2022-01-13T10:58:44.000Z</time>
      </trkpt>
      <trkpt lat="47.28087" lon="-2.35672">
        <ele>49.799999237061</ele>
        <time>2022-01-13T10:58:47.000Z</time>
      </trkpt>
      <trkpt lat="47.28085" lon="-2.35666">
        <ele>49.799999237061</ele>
        <time>2022-01-13T10:58:48.000Z</time>
      </trkpt>
      <trkpt lat="47.28082" lon="-2.35653">
        <ele>48.799999237061</ele>
        <time>2022-01-13T10:58:50.000Z</time>
      </trkpt>
      <trkpt lat="47.28081" lon="-2.35648">
        <ele>48.400001525879</ele>
        <time>2022-01-13T10:58:51.000Z</time>
      </trkpt>
      <trkpt lat="47.2808" lon="-2.35642">
        <ele>47.799999237061</ele>
        <time>2022-01-13T10:58:52.000Z</time>
      </trkpt>
      <trkpt lat="47.2808" lon="-2.35637">
        <ele>47.200000762939</ele>
        <time>2022-01-13T10:58:53.000Z</time>
      </trkpt>
      <trkpt lat="47.2808" lon="-2.35631">
        <ele>46.599998474121</ele>
        <time>2022-01-13T10:58:54.000Z</time>
      </trkpt>
      <trkpt lat="47.2808" lon="-2.35627">
        <ele>46</ele>
        <time>2022-01-13T10:58:55.000Z</time>
      </trkpt>
      <trkpt lat="47.28082" lon="-2.35624">
        <ele>45.400001525879</ele>
        <time>2022-01-13T10:58:56.000Z</time>
      </trkpt>
      <trkpt lat="47.28084" lon="-2.35622">
        <ele>44.799999237061</ele>
        <time>2022-01-13T10:58:57.000Z</time>
      </trkpt>
      <trkpt lat="47.28086" lon="-2.35622">
        <ele>44.799999237061</ele>
        <time>2022-01-13T10:58:58.000Z</time>
      </trkpt>
      <trkpt lat="47.28087" lon="-2.35625">
        <ele>44.799999237061</ele>
        <time>2022-01-13T10:59:01.000Z</time>
      </trkpt>
      <trkpt lat="47.28088" lon="-2.35626">
        <ele>44.799999237061</ele>
        <time>2022-01-13T10:59:02.000Z</time>
      </trkpt>
      <trkpt lat="47.28088" lon="-2.35627">
        <ele>44.799999237061</ele>
        <time>2022-01-13T10:59:05.000Z</time>
      </trkpt>
      <trkpt lat="47.28087" lon="-2.35625">
        <ele>44.799999237061</ele>
        <time>2022-01-13T11:09:24.000Z</time>
      </trkpt>
      <trkpt lat="47.28086" lon="-2.35623">
        <ele>44.799999237061</ele>
        <time>2022-01-13T11:09:25.000Z</time>
      </trkpt>
      <trkpt lat="47.28077" lon="-2.35608">
        <ele>44.799999237061</ele>
        <time>2022-01-13T11:09:31.000Z</time>
      </trkpt>
      <trkpt lat="47.28064" lon="-2.3559">
        <ele>44.799999237061</ele>
        <time>2022-01-13T11:09:36.000Z</time>
      </trkpt>
      <trkpt lat="47.2806" lon="-2.35587">
        <ele>44.799999237061</ele>
        <time>2022-01-13T11:09:37.000Z</time>
      </trkpt>
      <trkpt lat="47.28042" lon="-2.35582">
        <ele>44.799999237061</ele>
        <time>2022-01-13T11:09:41.000Z</time>
      </trkpt>
      <trkpt lat="47.28038" lon="-2.35579">
        <ele>44.799999237061</ele>
        <time>2022-01-13T11:09:42.000Z</time>
      </trkpt>
      <trkpt lat="47.28029" lon="-2.35572">
        <ele>44.799999237061</ele>
        <time>2022-01-13T11:09:44.000Z</time>
      </trkpt>
      <trkpt lat="47.28009" lon="-2.35565">
        <ele>44.799999237061</ele>
        <time>2022-01-13T11:09:48.000Z</time>
      </trkpt>
      <trkpt lat="47.28004" lon="-2.35564">
        <ele>44.799999237061</ele>
        <time>2022-01-13T11:09:49.000Z</time>
      </trkpt>
      <trkpt lat="47.28" lon="-2.35565">
        <ele>44.400001525879</ele>
        <time>2022-01-13T11:09:50.000Z</time>
      </trkpt>
      <trkpt lat="47.27995" lon="-2.35567">
        <ele>44</ele>
        <time>2022-01-13T11:09:51.000Z</time>
      </trkpt>
      <trkpt lat="47.27991" lon="-2.35568">
        <ele>43.599998474121</ele>
        <time>2022-01-13T11:09:52.000Z</time>
      </trkpt>
      <trkpt lat="47.27986" lon="-2.35569">
        <ele>43.200000762939</ele>
        <time>2022-01-13T11:09:53.000Z</time>
      </trkpt>
      <trkpt lat="47.27981" lon="-2.3557">
        <ele>42.799999237061</ele>
        <time>2022-01-13T11:09:54.000Z</time>
      </trkpt>
      <trkpt lat="47.27964" lon="-2.35577">
        <ele>42.799999237061</ele>
        <time>2022-01-13T11:09:58.000Z</time>
      </trkpt>
      <trkpt lat="47.27926" lon="-2.3559">
        <ele>42.799999237061</ele>
        <time>2022-01-13T11:10:06.000Z</time>
      </trkpt>
      <trkpt lat="47.27916" lon="-2.35591">
        <ele>42.799999237061</ele>
        <time>2022-01-13T11:10:08.000Z</time>
      </trkpt>
      <trkpt lat="47.2791" lon="-2.35592">
        <ele>42.400001525879</ele>
        <time>2022-01-13T11:10:09.000Z</time>
      </trkpt>
      <trkpt lat="47.27905" lon="-2.35593">
        <ele>42</ele>
        <time>2022-01-13T11:10:10.000Z</time>
      </trkpt>
      <trkpt lat="47.27899" lon="-2.35594">
        <ele>41.599998474121</ele>
        <time>2022-01-13T11:10:11.000Z</time>
      </trkpt>
      <trkpt lat="47.27893" lon="-2.35595">
        <ele>41</ele>
        <time>2022-01-13T11:10:12.000Z</time>
      </trkpt>
      <trkpt lat="47.27888" lon="-2.35596">
        <ele>40.599998474121</ele>
        <time>2022-01-13T11:10:13.000Z</time>
      </trkpt>
      <trkpt lat="47.27858" lon="-2.35604">
        <ele>40.599998474121</ele>
        <time>2022-01-13T11:10:18.000Z</time>
      </trkpt>
      <trkpt lat="47.2784" lon="-2.35609">
        <ele>40.200000762939</ele>
        <time>2022-01-13T11:10:21.000Z</time>
      </trkpt>
      <trkpt lat="47.27833" lon="-2.35611">
        <ele>39.799999237061</ele>
        <time>2022-01-13T11:10:22.000Z</time>
      </trkpt>
      <trkpt lat="47.27827" lon="-2.35613">
        <ele>39.400001525879</ele>
        <time>2022-01-13T11:10:23.000Z</time>
      </trkpt>
      <trkpt lat="47.27821" lon="-2.35615">
        <ele>39</ele>
        <time>2022-01-13T11:10:24.000Z</time>
      </trkpt>
      <trkpt lat="47.27814" lon="-2.35616">
        <ele>38.599998474121</ele>
        <time>2022-01-13T11:10:25.000Z</time>
      </trkpt>
      <trkpt lat="47.27794" lon="-2.35624">
        <ele>38.599998474121</ele>
        <time>2022-01-13T11:10:28.000Z</time>
      </trkpt>
      <trkpt lat="47.27776" lon="-2.35636">
        <ele>38.599998474121</ele>
        <time>2022-01-13T11:10:31.000Z</time>
      </trkpt>
      <trkpt lat="47.27764" lon="-2.35646">
        <ele>38.599998474121</ele>
        <time>2022-01-13T11:10:33.000Z</time>
      </trkpt>
      <trkpt lat="47.27759" lon="-2.35652">
        <ele>38.200000762939</ele>
        <time>2022-01-13T11:10:34.000Z</time>
      </trkpt>
      <trkpt lat="47.27754" lon="-2.35658">
        <ele>37.799999237061</ele>
        <time>2022-01-13T11:10:35.000Z</time>
      </trkpt>
      <trkpt lat="47.27749" lon="-2.35665">
        <ele>37.400001525879</ele>
        <time>2022-01-13T11:10:36.000Z</time>
      </trkpt>
      <trkpt lat="47.27744" lon="-2.35672">
        <ele>37</ele>
        <time>2022-01-13T11:10:37.000Z</time>
      </trkpt>
      <trkpt lat="47.2774" lon="-2.35678">
        <ele>36.599998474121</ele>
        <time>2022-01-13T11:10:38.000Z</time>
      </trkpt>
      <trkpt lat="47.27712" lon="-2.35716">
        <ele>36.599998474121</ele>
        <time>2022-01-13T11:10:44.000Z</time>
      </trkpt>
      <trkpt lat="47.277" lon="-2.35727">
        <ele>36.200000762939</ele>
        <time>2022-01-13T11:10:46.000Z</time>
      </trkpt>
      <trkpt lat="47.27693" lon="-2.35731">
        <ele>35.799999237061</ele>
        <time>2022-01-13T11:10:47.000Z</time>
      </trkpt>
      <trkpt lat="47.27687" lon="-2.35737">
        <ele>35.400001525879</ele>
        <time>2022-01-13T11:10:48.000Z</time>
      </trkpt>
      <trkpt lat="47.27682" lon="-2.35742">
        <ele>35</ele>
        <time>2022-01-13T11:10:49.000Z</time>
      </trkpt>
      <trkpt lat="47.27677" lon="-2.35744">
        <ele>34.599998474121</ele>
        <time>2022-01-13T11:10:50.000Z</time>
      </trkpt>
      <trkpt lat="47.27667" lon="-2.35739">
        <ele>34.599998474121</ele>
        <time>2022-01-13T11:10:52.000Z</time>
      </trkpt>
      <trkpt lat="47.27648" lon="-2.35721">
        <ele>34.599998474121</ele>
        <time>2022-01-13T11:10:56.000Z</time>
      </trkpt>
      <trkpt lat="47.27636" lon="-2.35716">
        <ele>34.599998474121</ele>
        <time>2022-01-13T11:10:58.000Z</time>
      </trkpt>
      <trkpt lat="47.27629" lon="-2.35715">
        <ele>34</ele>
        <time>2022-01-13T11:10:59.000Z</time>
      </trkpt>
      <trkpt lat="47.27623" lon="-2.35713">
        <ele>33.599998474121</ele>
        <time>2022-01-13T11:11:00.000Z</time>
      </trkpt>
      <trkpt lat="47.27616" lon="-2.35711">
        <ele>33.200000762939</ele>
        <time>2022-01-13T11:11:01.000Z</time>
      </trkpt>
      <trkpt lat="47.2761" lon="-2.35709">
        <ele>32.599998474121</ele>
        <time>2022-01-13T11:11:02.000Z</time>
      </trkpt>
      <trkpt lat="47.27603" lon="-2.35708">
        <ele>32.200000762939</ele>
        <time>2022-01-13T11:11:03.000Z</time>
      </trkpt>
      <trkpt lat="47.27558" lon="-2.35698">
        <ele>32.200000762939</ele>
        <time>2022-01-13T11:11:10.000Z</time>
      </trkpt>
      <trkpt lat="47.27528" lon="-2.35692">
        <ele>32.200000762939</ele>
        <time>2022-01-13T11:11:15.000Z</time>
      </trkpt>
      <trkpt lat="47.27521" lon="-2.3569">
        <ele>31.799999237061</ele>
        <time>2022-01-13T11:11:16.000Z</time>
      </trkpt>
      <trkpt lat="47.27515" lon="-2.35689">
        <ele>31.39999961853</ele>
        <time>2022-01-13T11:11:17.000Z</time>
      </trkpt>
      <trkpt lat="47.27509" lon="-2.35687">
        <ele>31</ele>
        <time>2022-01-13T11:11:18.000Z</time>
      </trkpt>
      <trkpt lat="47.27502" lon="-2.35686">
        <ele>30.60000038147</ele>
        <time>2022-01-13T11:11:19.000Z</time>
      </trkpt>
      <trkpt lat="47.27496" lon="-2.35685">
        <ele>30.200000762939</ele>
        <time>2022-01-13T11:11:20.000Z</time>
      </trkpt>
      <trkpt lat="47.27483" lon="-2.35682">
        <ele>30.200000762939</ele>
        <time>2022-01-13T11:11:22.000Z</time>
      </trkpt>
      <trkpt lat="47.27451" lon="-2.35676">
        <ele>29.799999237061</ele>
        <time>2022-01-13T11:11:27.000Z</time>
      </trkpt>
      <trkpt lat="47.27445" lon="-2.35674">
        <ele>29.39999961853</ele>
        <time>2022-01-13T11:11:28.000Z</time>
      </trkpt>
      <trkpt lat="47.27439" lon="-2.35673">
        <ele>29</ele>
        <time>2022-01-13T11:11:29.000Z</time>
      </trkpt>
      <trkpt lat="47.27433" lon="-2.35671">
        <ele>28.60000038147</ele>
        <time>2022-01-13T11:11:30.000Z</time>
      </trkpt>
      <trkpt lat="47.27427" lon="-2.3567">
        <ele>28.200000762939</ele>
        <time>2022-01-13T11:11:31.000Z</time>
      </trkpt>
      <trkpt lat="47.27421" lon="-2.35669">
        <ele>28.200000762939</ele>
        <time>2022-01-13T11:11:32.000Z</time>
      </trkpt>
      <trkpt lat="47.27404" lon="-2.35671">
        <ele>28.200000762939</ele>
        <time>2022-01-13T11:11:35.000Z</time>
      </trkpt>
      <trkpt lat="47.27399" lon="-2.35674">
        <ele>28.200000762939</ele>
        <time>2022-01-13T11:11:36.000Z</time>
      </trkpt>
      <trkpt lat="47.27383" lon="-2.35684">
        <ele>28.200000762939</ele>
        <time>2022-01-13T11:11:39.000Z</time>
      </trkpt>
      <trkpt lat="47.27357" lon="-2.35702">
        <ele>28.200000762939</ele>
        <time>2022-01-13T11:11:44.000Z</time>
      </trkpt>
      <trkpt lat="47.27351" lon="-2.35705">
        <ele>28.200000762939</ele>
        <time>2022-01-13T11:11:45.000Z</time>
      </trkpt>
      <trkpt lat="47.27326" lon="-2.35724">
        <ele>28.200000762939</ele>
        <time>2022-01-13T11:11:50.000Z</time>
      </trkpt>
      <trkpt lat="47.27323" lon="-2.35729">
        <ele>28.200000762939</ele>
        <time>2022-01-13T11:11:51.000Z</time>
      </trkpt>
      <trkpt lat="47.27315" lon="-2.3574">
        <ele>28.200000762939</ele>
        <time>2022-01-13T11:11:54.000Z</time>
      </trkpt>
      <trkpt lat="47.27312" lon="-2.3574">
        <ele>28.200000762939</ele>
        <time>2022-01-13T11:11:55.000Z</time>
      </trkpt>
      <trkpt lat="47.27303" lon="-2.35727">
        <ele>28.200000762939</ele>
        <time>2022-01-13T11:11:58.000Z</time>
      </trkpt>
      <trkpt lat="47.27301" lon="-2.35721">
        <ele>28.200000762939</ele>
        <time>2022-01-13T11:11:59.000Z</time>
      </trkpt>
      <trkpt lat="47.27287" lon="-2.35689">
        <ele>28.200000762939</ele>
        <time>2022-01-13T11:12:04.000Z</time>
      </trkpt>
      <trkpt lat="47.2727" lon="-2.3565">
        <ele>28.200000762939</ele>
        <time>2022-01-13T11:12:11.000Z</time>
      </trkpt>
      <trkpt lat="47.27253" lon="-2.35613">
        <ele>28.200000762939</ele>
        <time>2022-01-13T11:12:19.000Z</time>
      </trkpt>
      <trkpt lat="47.27233" lon="-2.35568">
        <ele>28.200000762939</ele>
        <time>2022-01-13T11:12:28.000Z</time>
      </trkpt>
      <trkpt lat="47.27218" lon="-2.35535">
        <ele>28.60000038147</ele>
        <time>2022-01-13T11:12:34.000Z</time>
      </trkpt>
      <trkpt lat="47.27215" lon="-2.35529">
        <ele>29</ele>
        <time>2022-01-13T11:12:35.000Z</time>
      </trkpt>
      <trkpt lat="47.27213" lon="-2.35524">
        <ele>29.39999961853</ele>
        <time>2022-01-13T11:12:36.000Z</time>
      </trkpt>
      <trkpt lat="47.2721" lon="-2.35518">
        <ele>29.799999237061</ele>
        <time>2022-01-13T11:12:37.000Z</time>
      </trkpt>
      <trkpt lat="47.27208" lon="-2.35512">
        <ele>30.39999961853</ele>
        <time>2022-01-13T11:12:38.000Z</time>
      </trkpt>
      <trkpt lat="47.27187" lon="-2.35471">
        <ele>30.39999961853</ele>
        <time>2022-01-13T11:12:45.000Z</time>
      </trkpt>
      <trkpt lat="47.27165" lon="-2.35431">
        <ele>30.39999961853</ele>
        <time>2022-01-13T11:12:52.000Z</time>
      </trkpt>
      <trkpt lat="47.2714" lon="-2.35383">
        <ele>30.39999961853</ele>
        <time>2022-01-13T11:13:00.000Z</time>
      </trkpt>
      <trkpt lat="47.27103" lon="-2.3532">
        <ele>30.39999961853</ele>
        <time>2022-01-13T11:13:10.000Z</time>
      </trkpt>
      <trkpt lat="47.27067" lon="-2.35264">
        <ele>30.39999961853</ele>
        <time>2022-01-13T11:13:19.000Z</time>
      </trkpt>
      <trkpt lat="47.27035" lon="-2.35217">
        <ele>30.39999961853</ele>
        <time>2022-01-13T11:13:26.000Z</time>
      </trkpt>
      <trkpt lat="47.27001" lon="-2.35163">
        <ele>30.39999961853</ele>
        <time>2022-01-13T11:13:34.000Z</time>
      </trkpt>
      <trkpt lat="47.26968" lon="-2.35111">
        <ele>30.39999961853</ele>
        <time>2022-01-13T11:13:42.000Z</time>
      </trkpt>
      <trkpt lat="47.26939" lon="-2.35067">
        <ele>30.39999961853</ele>
        <time>2022-01-13T11:13:49.000Z</time>
      </trkpt>
      <trkpt lat="47.26906" lon="-2.35017">
        <ele>30.39999961853</ele>
        <time>2022-01-13T11:13:57.000Z</time>
      </trkpt>
      <trkpt lat="47.26868" lon="-2.34961">
        <ele>30.39999961853</ele>
        <time>2022-01-13T11:14:06.000Z</time>
      </trkpt>
      <trkpt lat="47.26838" lon="-2.34915">
        <ele>30.39999961853</ele>
        <time>2022-01-13T11:14:13.000Z</time>
      </trkpt>
      <trkpt lat="47.26804" lon="-2.34864">
        <ele>30.39999961853</ele>
        <time>2022-01-13T11:14:21.000Z</time>
      </trkpt>
      <trkpt lat="47.26764" lon="-2.34811">
        <ele>30.39999961853</ele>
        <time>2022-01-13T11:14:30.000Z</time>
      </trkpt>
      <trkpt lat="47.2676" lon="-2.34805">
        <ele>30.39999961853</ele>
        <time>2022-01-13T11:14:31.000Z</time>
      </trkpt>
      <trkpt lat="47.26751" lon="-2.34793">
        <ele>30.39999961853</ele>
        <time>2022-01-13T11:14:33.000Z</time>
      </trkpt>
      <trkpt lat="47.26741" lon="-2.34781">
        <ele>30.39999961853</ele>
        <time>2022-01-13T11:14:35.000Z</time>
      </trkpt>
      <trkpt lat="47.26702" lon="-2.34733">
        <ele>30.39999961853</ele>
        <time>2022-01-13T11:14:43.000Z</time>
      </trkpt>
      <trkpt lat="47.26668" lon="-2.34692">
        <ele>30.39999961853</ele>
        <time>2022-01-13T11:14:50.000Z</time>
      </trkpt>
      <trkpt lat="47.26654" lon="-2.34674">
        <ele>30.39999961853</ele>
        <time>2022-01-13T11:14:53.000Z</time>
      </trkpt>
      <trkpt lat="47.26625" lon="-2.34639">
        <ele>30.39999961853</ele>
        <time>2022-01-13T11:14:59.000Z</time>
      </trkpt>
      <trkpt lat="47.26593" lon="-2.346">
        <ele>30.39999961853</ele>
        <time>2022-01-13T11:15:06.000Z</time>
      </trkpt>
      <trkpt lat="47.26559" lon="-2.34562">
        <ele>30.39999961853</ele>
        <time>2022-01-13T11:15:13.000Z</time>
      </trkpt>
      <trkpt lat="47.2652" lon="-2.34523">
        <ele>30.39999961853</ele>
        <time>2022-01-13T11:15:21.000Z</time>
      </trkpt>
      <trkpt lat="47.26482" lon="-2.34495">
        <ele>30.39999961853</ele>
        <time>2022-01-13T11:15:28.000Z</time>
      </trkpt>
      <trkpt lat="47.26442" lon="-2.34467">
        <ele>30.39999961853</ele>
        <time>2022-01-13T11:15:35.000Z</time>
      </trkpt>
      <trkpt lat="47.26394" lon="-2.3443">
        <ele>30.39999961853</ele>
        <time>2022-01-13T11:15:44.000Z</time>
      </trkpt>
      <trkpt lat="47.26362" lon="-2.34401">
        <ele>30.39999961853</ele>
        <time>2022-01-13T11:15:51.000Z</time>
      </trkpt>
      <trkpt lat="47.26339" lon="-2.34382">
        <ele>30.39999961853</ele>
        <time>2022-01-13T11:15:57.000Z</time>
      </trkpt>
      <trkpt lat="47.26324" lon="-2.34378">
        <ele>30.39999961853</ele>
        <time>2022-01-13T11:16:00.000Z</time>
      </trkpt>
      <trkpt lat="47.2632" lon="-2.34373">
        <ele>30.39999961853</ele>
        <time>2022-01-13T11:16:01.000Z</time>
      </trkpt>
      <trkpt lat="47.2631" lon="-2.34354">
        <ele>30.39999961853</ele>
        <time>2022-01-13T11:16:04.000Z</time>
      </trkpt>
      <trkpt lat="47.26305" lon="-2.34349">
        <ele>30.39999961853</ele>
        <time>2022-01-13T11:16:05.000Z</time>
      </trkpt>
      <trkpt lat="47.26275" lon="-2.34317">
        <ele>30.39999961853</ele>
        <time>2022-01-13T11:16:12.000Z</time>
      </trkpt>
      <trkpt lat="47.26246" lon="-2.34286">
        <ele>30.39999961853</ele>
        <time>2022-01-13T11:16:19.000Z</time>
      </trkpt>
      <trkpt lat="47.26209" lon="-2.34247">
        <ele>30.39999961853</ele>
        <time>2022-01-13T11:16:27.000Z</time>
      </trkpt>
      <trkpt lat="47.26162" lon="-2.342">
        <ele>30.39999961853</ele>
        <time>2022-01-13T11:16:37.000Z</time>
      </trkpt>
      <trkpt lat="47.26142" lon="-2.34184">
        <ele>30.39999961853</ele>
        <time>2022-01-13T11:16:41.000Z</time>
      </trkpt>
      <trkpt lat="47.26138" lon="-2.34183">
        <ele>30.39999961853</ele>
        <time>2022-01-13T11:16:42.000Z</time>
      </trkpt>
      <trkpt lat="47.26129" lon="-2.34183">
        <ele>30</ele>
        <time>2022-01-13T11:16:44.000Z</time>
      </trkpt>
      <trkpt lat="47.26125" lon="-2.34181">
        <ele>29.39999961853</ele>
        <time>2022-01-13T11:16:45.000Z</time>
      </trkpt>
      <trkpt lat="47.26122" lon="-2.34179">
        <ele>29</ele>
        <time>2022-01-13T11:16:46.000Z</time>
      </trkpt>
      <trkpt lat="47.26118" lon="-2.34177">
        <ele>28.60000038147</ele>
        <time>2022-01-13T11:16:47.000Z</time>
      </trkpt>
      <trkpt lat="47.26115" lon="-2.34174">
        <ele>28.200000762939</ele>
        <time>2022-01-13T11:16:48.000Z</time>
      </trkpt>
      <trkpt lat="47.26096" lon="-2.3416">
        <ele>28.200000762939</ele>
        <time>2022-01-13T11:16:53.000Z</time>
      </trkpt>
      <trkpt lat="47.26063" lon="-2.34145">
        <ele>28.200000762939</ele>
        <time>2022-01-13T11:17:00.000Z</time>
      </trkpt>
      <trkpt lat="47.26033" lon="-2.34129">
        <ele>28.200000762939</ele>
        <time>2022-01-13T11:17:07.000Z</time>
      </trkpt>
      <trkpt lat="47.26029" lon="-2.34127">
        <ele>28.200000762939</ele>
        <time>2022-01-13T11:17:08.000Z</time>
      </trkpt>
      <trkpt lat="47.26008" lon="-2.34117">
        <ele>28.200000762939</ele>
        <time>2022-01-13T11:17:13.000Z</time>
      </trkpt>
      <trkpt lat="47.25987" lon="-2.34108">
        <ele>28.200000762939</ele>
        <time>2022-01-13T11:17:19.000Z</time>
      </trkpt>
      <trkpt lat="47.2597" lon="-2.34096">
        <ele>28.200000762939</ele>
        <time>2022-01-13T11:17:24.000Z</time>
      </trkpt>
      <trkpt lat="47.25963" lon="-2.34089">
        <ele>28.200000762939</ele>
        <time>2022-01-13T11:17:26.000Z</time>
      </trkpt>
      <trkpt lat="47.25951" lon="-2.34081">
        <ele>28.200000762939</ele>
        <time>2022-01-13T11:17:29.000Z</time>
      </trkpt>
      <trkpt lat="47.25947" lon="-2.3408">
        <ele>28.200000762939</ele>
        <time>2022-01-13T11:17:30.000Z</time>
      </trkpt>
      <trkpt lat="47.25927" lon="-2.34073">
        <ele>28.200000762939</ele>
        <time>2022-01-13T11:17:35.000Z</time>
      </trkpt>
      <trkpt lat="47.25919" lon="-2.34072">
        <ele>28.200000762939</ele>
        <time>2022-01-13T11:17:37.000Z</time>
      </trkpt>
      <trkpt lat="47.25906" lon="-2.34069">
        <ele>28.200000762939</ele>
        <time>2022-01-13T11:17:40.000Z</time>
      </trkpt>
      <trkpt lat="47.25897" lon="-2.34056">
        <ele>28.200000762939</ele>
        <time>2022-01-13T11:17:43.000Z</time>
      </trkpt>
      <trkpt lat="47.25896" lon="-2.34037">
        <ele>28.200000762939</ele>
        <time>2022-01-13T11:17:46.000Z</time>
      </trkpt>
      <trkpt lat="47.25905" lon="-2.34015">
        <ele>28.200000762939</ele>
        <time>2022-01-13T11:17:50.000Z</time>
      </trkpt>
      <trkpt lat="47.25911" lon="-2.3399">
        <ele>28.200000762939</ele>
        <time>2022-01-13T11:17:54.000Z</time>
      </trkpt>
      <trkpt lat="47.25912" lon="-2.33985">
        <ele>28.200000762939</ele>
        <time>2022-01-13T11:17:55.000Z</time>
      </trkpt>
      <trkpt lat="47.25921" lon="-2.3396">
        <ele>28.200000762939</ele>
        <time>2022-01-13T11:18:00.000Z</time>
      </trkpt>
      <trkpt lat="47.25931" lon="-2.3394">
        <ele>28.200000762939</ele>
        <time>2022-01-13T11:18:06.000Z</time>
      </trkpt>
      <trkpt lat="47.25933" lon="-2.33938">
        <ele>27.799999237061</ele>
        <time>2022-01-13T11:18:07.000Z</time>
      </trkpt>
      <trkpt lat="47.25934" lon="-2.33936">
        <ele>27.39999961853</ele>
        <time>2022-01-13T11:18:08.000Z</time>
      </trkpt>
      <trkpt lat="47.25935" lon="-2.33933">
        <ele>26.60000038147</ele>
        <time>2022-01-13T11:18:09.000Z</time>
      </trkpt>
      <trkpt lat="47.25936" lon="-2.33931">
        <ele>26.200000762939</ele>
        <time>2022-01-13T11:18:10.000Z</time>
      </trkpt>
      <trkpt lat="47.25938" lon="-2.33929">
        <ele>26.200000762939</ele>
        <time>2022-01-13T11:18:11.000Z</time>
      </trkpt>
      <trkpt lat="47.25944" lon="-2.33912">
        <ele>26.200000762939</ele>
        <time>2022-01-13T11:18:17.000Z</time>
      </trkpt>
      <trkpt lat="47.25954" lon="-2.33894">
        <ele>26.200000762939</ele>
        <time>2022-01-13T11:18:23.000Z</time>
      </trkpt>
      <trkpt lat="47.25966" lon="-2.33887">
        <ele>26.200000762939</ele>
        <time>2022-01-13T11:18:28.000Z</time>
      </trkpt>
      <trkpt lat="47.25973" lon="-2.33869">
        <ele>26.200000762939</ele>
        <time>2022-01-13T11:18:32.000Z</time>
      </trkpt>
      <trkpt lat="47.25983" lon="-2.33842">
        <ele>26.200000762939</ele>
        <time>2022-01-13T11:18:37.000Z</time>
      </trkpt>
      <trkpt lat="47.25987" lon="-2.33831">
        <ele>26.200000762939</ele>
        <time>2022-01-13T11:18:39.000Z</time>
      </trkpt>
      <trkpt lat="47.25991" lon="-2.33819">
        <ele>26.200000762939</ele>
        <time>2022-01-13T11:18:41.000Z</time>
      </trkpt>
      <trkpt lat="47.26" lon="-2.33795">
        <ele>26.200000762939</ele>
        <time>2022-01-13T11:18:45.000Z</time>
      </trkpt>
      <trkpt lat="47.26016" lon="-2.3375">
        <ele>26.200000762939</ele>
        <time>2022-01-13T11:18:52.000Z</time>
      </trkpt>
      <trkpt lat="47.26034" lon="-2.3371">
        <ele>26.200000762939</ele>
        <time>2022-01-13T11:18:59.000Z</time>
      </trkpt>
      <trkpt lat="47.26045" lon="-2.33694">
        <ele>26.200000762939</ele>
        <time>2022-01-13T11:19:03.000Z</time>
      </trkpt>
      <trkpt lat="47.2605" lon="-2.33681">
        <ele>26.200000762939</ele>
        <time>2022-01-13T11:19:05.000Z</time>
      </trkpt>
      <trkpt lat="47.26059" lon="-2.33653">
        <ele>26.200000762939</ele>
        <time>2022-01-13T11:19:09.000Z</time>
      </trkpt>
      <trkpt lat="47.26078" lon="-2.33597">
        <ele>26.200000762939</ele>
        <time>2022-01-13T11:19:17.000Z</time>
      </trkpt>
      <trkpt lat="47.26097" lon="-2.33543">
        <ele>26.200000762939</ele>
        <time>2022-01-13T11:19:25.000Z</time>
      </trkpt>
      <trkpt lat="47.26115" lon="-2.33494">
        <ele>26.200000762939</ele>
        <time>2022-01-13T11:19:32.000Z</time>
      </trkpt>
      <trkpt lat="47.26127" lon="-2.3346">
        <ele>26.200000762939</ele>
        <time>2022-01-13T11:19:38.000Z</time>
      </trkpt>
      <trkpt lat="47.26133" lon="-2.33433">
        <ele>26.200000762939</ele>
        <time>2022-01-13T11:19:44.000Z</time>
      </trkpt>
      <trkpt lat="47.2613" lon="-2.33429">
        <ele>26.200000762939</ele>
        <time>2022-01-13T11:19:45.000Z</time>
      </trkpt>
      <trkpt lat="47.26125" lon="-2.3342">
        <ele>26.200000762939</ele>
        <time>2022-01-13T11:19:47.000Z</time>
      </trkpt>
      <trkpt lat="47.2612" lon="-2.3341">
        <ele>26.200000762939</ele>
        <time>2022-01-13T11:19:49.000Z</time>
      </trkpt>
      <trkpt lat="47.26109" lon="-2.33396">
        <ele>26.200000762939</ele>
        <time>2022-01-13T11:19:52.000Z</time>
      </trkpt>
      <trkpt lat="47.26094" lon="-2.33377">
        <ele>26.200000762939</ele>
        <time>2022-01-13T11:19:56.000Z</time>
      </trkpt>
      <trkpt lat="47.26086" lon="-2.33367">
        <ele>26.200000762939</ele>
        <time>2022-01-13T11:19:58.000Z</time>
      </trkpt>
      <trkpt lat="47.26072" lon="-2.33337">
        <ele>26.200000762939</ele>
        <time>2022-01-13T11:20:03.000Z</time>
      </trkpt>
      <trkpt lat="47.26064" lon="-2.33315">
        <ele>26.200000762939</ele>
        <time>2022-01-13T11:20:06.000Z</time>
      </trkpt>
      <trkpt lat="47.2606" lon="-2.33302">
        <ele>26.200000762939</ele>
        <time>2022-01-13T11:20:08.000Z</time>
      </trkpt>
      <trkpt lat="47.26058" lon="-2.33295">
        <ele>26.200000762939</ele>
        <time>2022-01-13T11:20:09.000Z</time>
      </trkpt>
      <trkpt lat="47.26039" lon="-2.33244">
        <ele>26.200000762939</ele>
        <time>2022-01-13T11:20:16.000Z</time>
      </trkpt>
      <trkpt lat="47.26019" lon="-2.33184">
        <ele>26.200000762939</ele>
        <time>2022-01-13T11:20:24.000Z</time>
      </trkpt>
      <trkpt lat="47.25994" lon="-2.33109">
        <ele>26.200000762939</ele>
        <time>2022-01-13T11:20:34.000Z</time>
      </trkpt>
      <trkpt lat="47.25989" lon="-2.33085">
        <ele>26.200000762939</ele>
        <time>2022-01-13T11:20:37.000Z</time>
      </trkpt>
      <trkpt lat="47.25986" lon="-2.33078">
        <ele>26.200000762939</ele>
        <time>2022-01-13T11:20:38.000Z</time>
      </trkpt>
      <trkpt lat="47.25965" lon="-2.33025">
        <ele>26.200000762939</ele>
        <time>2022-01-13T11:20:45.000Z</time>
      </trkpt>
      <trkpt lat="47.2595" lon="-2.32983">
        <ele>26.60000038147</ele>
        <time>2022-01-13T11:20:51.000Z</time>
      </trkpt>
      <trkpt lat="47.25947" lon="-2.32977">
        <ele>27</ele>
        <time>2022-01-13T11:20:52.000Z</time>
      </trkpt>
      <trkpt lat="47.25945" lon="-2.3297">
        <ele>27.39999961853</ele>
        <time>2022-01-13T11:20:53.000Z</time>
      </trkpt>
      <trkpt lat="47.25942" lon="-2.32964">
        <ele>27.799999237061</ele>
        <time>2022-01-13T11:20:54.000Z</time>
      </trkpt>
      <trkpt lat="47.25939" lon="-2.32957">
        <ele>28.200000762939</ele>
        <time>2022-01-13T11:20:55.000Z</time>
      </trkpt>
      <trkpt lat="47.25937" lon="-2.3295">
        <ele>28.200000762939</ele>
        <time>2022-01-13T11:20:56.000Z</time>
      </trkpt>
      <trkpt lat="47.25934" lon="-2.32942">
        <ele>28.200000762939</ele>
        <time>2022-01-13T11:20:57.000Z</time>
      </trkpt>
      <trkpt lat="47.25918" lon="-2.32898">
        <ele>28.200000762939</ele>
        <time>2022-01-13T11:21:03.000Z</time>
      </trkpt>
      <trkpt lat="47.25913" lon="-2.32883">
        <ele>28.200000762939</ele>
        <time>2022-01-13T11:21:05.000Z</time>
      </trkpt>
      <trkpt lat="47.25902" lon="-2.32853">
        <ele>28.200000762939</ele>
        <time>2022-01-13T11:21:09.000Z</time>
      </trkpt>
      <trkpt lat="47.25883" lon="-2.32793">
        <ele>27.799999237061</ele>
        <time>2022-01-13T11:21:17.000Z</time>
      </trkpt>
      <trkpt lat="47.25881" lon="-2.32786">
        <ele>27.39999961853</ele>
        <time>2022-01-13T11:21:18.000Z</time>
      </trkpt>
      <trkpt lat="47.25878" lon="-2.32779">
        <ele>27</ele>
        <time>2022-01-13T11:21:19.000Z</time>
      </trkpt>
      <trkpt lat="47.25876" lon="-2.32772">
        <ele>26.60000038147</ele>
        <time>2022-01-13T11:21:20.000Z</time>
      </trkpt>
      <trkpt lat="47.25874" lon="-2.32764">
        <ele>26.200000762939</ele>
        <time>2022-01-13T11:21:21.000Z</time>
      </trkpt>
      <trkpt lat="47.25866" lon="-2.32737">
        <ele>26.200000762939</ele>
        <time>2022-01-13T11:21:25.000Z</time>
      </trkpt>
      <trkpt lat="47.25865" lon="-2.3273">
        <ele>26.200000762939</ele>
        <time>2022-01-13T11:21:26.000Z</time>
      </trkpt>
      <trkpt lat="47.25864" lon="-2.3271">
        <ele>26.200000762939</ele>
        <time>2022-01-13T11:21:29.000Z</time>
      </trkpt>
      <trkpt lat="47.25854" lon="-2.32693">
        <ele>26.200000762939</ele>
        <time>2022-01-13T11:21:32.000Z</time>
      </trkpt>
      <trkpt lat="47.25847" lon="-2.32671">
        <ele>26.200000762939</ele>
        <time>2022-01-13T11:21:35.000Z</time>
      </trkpt>
      <trkpt lat="47.25843" lon="-2.32654">
        <ele>26.200000762939</ele>
        <time>2022-01-13T11:21:37.000Z</time>
      </trkpt>
      <trkpt lat="47.25828" lon="-2.32597">
        <ele>26.200000762939</ele>
        <time>2022-01-13T11:21:44.000Z</time>
      </trkpt>
      <trkpt lat="47.25816" lon="-2.32551">
        <ele>26.200000762939</ele>
        <time>2022-01-13T11:21:50.000Z</time>
      </trkpt>
      <trkpt lat="47.2581" lon="-2.32524">
        <ele>26.200000762939</ele>
        <time>2022-01-13T11:21:54.000Z</time>
      </trkpt>
      <trkpt lat="47.25805" lon="-2.32505">
        <ele>26.200000762939</ele>
        <time>2022-01-13T11:21:57.000Z</time>
      </trkpt>
      <trkpt lat="47.25801" lon="-2.32474">
        <ele>26.200000762939</ele>
        <time>2022-01-13T11:22:02.000Z</time>
      </trkpt>
      <trkpt lat="47.25803" lon="-2.3247">
        <ele>26.200000762939</ele>
        <time>2022-01-13T11:22:03.000Z</time>
      </trkpt>
      <trkpt lat="47.25814" lon="-2.32455">
        <ele>26.200000762939</ele>
        <time>2022-01-13T11:22:07.000Z</time>
      </trkpt>
      <trkpt lat="47.25826" lon="-2.32461">
        <ele>26.200000762939</ele>
        <time>2022-01-13T11:22:10.000Z</time>
      </trkpt>
      <trkpt lat="47.2584" lon="-2.32468">
        <ele>26.200000762939</ele>
        <time>2022-01-13T11:22:13.000Z</time>
      </trkpt>
      <trkpt lat="47.25849" lon="-2.3247">
        <ele>26.200000762939</ele>
        <time>2022-01-13T11:22:15.000Z</time>
      </trkpt>
      <trkpt lat="47.25882" lon="-2.32469">
        <ele>26.200000762939</ele>
        <time>2022-01-13T11:22:22.000Z</time>
      </trkpt>
      <trkpt lat="47.25891" lon="-2.32465">
        <ele>26.200000762939</ele>
        <time>2022-01-13T11:22:24.000Z</time>
      </trkpt>
      <trkpt lat="47.259" lon="-2.32457">
        <ele>26.200000762939</ele>
        <time>2022-01-13T11:22:26.000Z</time>
      </trkpt>
      <trkpt lat="47.25907" lon="-2.32448">
        <ele>26.200000762939</ele>
        <time>2022-01-13T11:22:28.000Z</time>
      </trkpt>
      <trkpt lat="47.25918" lon="-2.32433">
        <ele>26.200000762939</ele>
        <time>2022-01-13T11:22:31.000Z</time>
      </trkpt>
      <trkpt lat="47.25925" lon="-2.32423">
        <ele>26.200000762939</ele>
        <time>2022-01-13T11:22:33.000Z</time>
      </trkpt>
      <trkpt lat="47.25953" lon="-2.32384">
        <ele>26.200000762939</ele>
        <time>2022-01-13T11:22:41.000Z</time>
      </trkpt>
      <trkpt lat="47.25975" lon="-2.32355">
        <ele>26.200000762939</ele>
        <time>2022-01-13T11:22:47.000Z</time>
      </trkpt>
      <trkpt lat="47.26005" lon="-2.32317">
        <ele>26.200000762939</ele>
        <time>2022-01-13T11:22:55.000Z</time>
      </trkpt>
      <trkpt lat="47.26031" lon="-2.32287">
        <ele>26.200000762939</ele>
        <time>2022-01-13T11:23:02.000Z</time>
      </trkpt>
      <trkpt lat="47.26058" lon="-2.32257">
        <ele>26.200000762939</ele>
        <time>2022-01-13T11:23:09.000Z</time>
      </trkpt>
      <trkpt lat="47.26075" lon="-2.32237">
        <ele>26.200000762939</ele>
        <time>2022-01-13T11:23:14.000Z</time>
      </trkpt>
      <trkpt lat="47.26095" lon="-2.32206">
        <ele>26.200000762939</ele>
        <time>2022-01-13T11:23:20.000Z</time>
      </trkpt>
      <trkpt lat="47.26099" lon="-2.32195">
        <ele>26.200000762939</ele>
        <time>2022-01-13T11:23:22.000Z</time>
      </trkpt>
      <trkpt lat="47.26106" lon="-2.32178">
        <ele>26.200000762939</ele>
        <time>2022-01-13T11:23:25.000Z</time>
      </trkpt>
      <trkpt lat="47.26119" lon="-2.32149">
        <ele>26.200000762939</ele>
        <time>2022-01-13T11:23:31.000Z</time>
      </trkpt>
      <trkpt lat="47.26121" lon="-2.32143">
        <ele>26.200000762939</ele>
        <time>2022-01-13T11:23:32.000Z</time>
      </trkpt>
      <trkpt lat="47.26135" lon="-2.321">
        <ele>26.200000762939</ele>
        <time>2022-01-13T11:23:39.000Z</time>
      </trkpt>
      <trkpt lat="47.26148" lon="-2.32057">
        <ele>26.200000762939</ele>
        <time>2022-01-13T11:23:46.000Z</time>
      </trkpt>
      <trkpt lat="47.26163" lon="-2.32025">
        <ele>26.200000762939</ele>
        <time>2022-01-13T11:23:52.000Z</time>
      </trkpt>
      <trkpt lat="47.26175" lon="-2.32019">
        <ele>26.200000762939</ele>
        <time>2022-01-13T11:23:56.000Z</time>
      </trkpt>
      <trkpt lat="47.2619" lon="-2.32022">
        <ele>26.200000762939</ele>
        <time>2022-01-13T11:24:01.000Z</time>
      </trkpt>
      <trkpt lat="47.26195" lon="-2.32021">
        <ele>26.200000762939</ele>
        <time>2022-01-13T11:24:03.000Z</time>
      </trkpt>
      <trkpt lat="47.26198" lon="-2.32017">
        <ele>26.200000762939</ele>
        <time>2022-01-13T11:24:05.000Z</time>
      </trkpt>
      <trkpt lat="47.26202" lon="-2.32007">
        <ele>26.200000762939</ele>
        <time>2022-01-13T11:24:08.000Z</time>
      </trkpt>
      <trkpt lat="47.2621" lon="-2.31997">
        <ele>26.200000762939</ele>
        <time>2022-01-13T11:24:13.000Z</time>
      </trkpt>
      <trkpt lat="47.26222" lon="-2.31981">
        <ele>26.200000762939</ele>
        <time>2022-01-13T11:24:18.000Z</time>
      </trkpt>
      <trkpt lat="47.26239" lon="-2.31961">
        <ele>26.200000762939</ele>
        <time>2022-01-13T11:24:24.000Z</time>
      </trkpt>
      <trkpt lat="47.26249" lon="-2.31946">
        <ele>26.200000762939</ele>
        <time>2022-01-13T11:24:29.000Z</time>
      </trkpt>
      <trkpt lat="47.26256" lon="-2.31933">
        <ele>26.200000762939</ele>
        <time>2022-01-13T11:24:34.000Z</time>
      </trkpt>
      <trkpt lat="47.26271" lon="-2.31909">
        <ele>26.200000762939</ele>
        <time>2022-01-13T11:24:40.000Z</time>
      </trkpt>
      <trkpt lat="47.26292" lon="-2.31891">
        <ele>26.200000762939</ele>
        <time>2022-01-13T11:24:46.000Z</time>
      </trkpt>
      <trkpt lat="47.26298" lon="-2.31868">
        <ele>26.200000762939</ele>
        <time>2022-01-13T11:24:51.000Z</time>
      </trkpt>
      <trkpt lat="47.26301" lon="-2.31825">
        <ele>26.200000762939</ele>
        <time>2022-01-13T11:24:59.000Z</time>
      </trkpt>
      <trkpt lat="47.26303" lon="-2.31796">
        <ele>26.200000762939</ele>
        <time>2022-01-13T11:25:04.000Z</time>
      </trkpt>
      <trkpt lat="47.26303" lon="-2.31754">
        <ele>26.200000762939</ele>
        <time>2022-01-13T11:25:11.000Z</time>
      </trkpt>
      <trkpt lat="47.26303" lon="-2.31725">
        <ele>26.200000762939</ele>
        <time>2022-01-13T11:25:16.000Z</time>
      </trkpt>
      <trkpt lat="47.26305" lon="-2.31722">
        <ele>26.200000762939</ele>
        <time>2022-01-13T11:25:17.000Z</time>
      </trkpt>
      <trkpt lat="47.26313" lon="-2.31718">
        <ele>26.200000762939</ele>
        <time>2022-01-13T11:25:19.000Z</time>
      </trkpt>
      <trkpt lat="47.26335" lon="-2.317">
        <ele>26.200000762939</ele>
        <time>2022-01-13T11:25:26.000Z</time>
      </trkpt>
      <trkpt lat="47.26342" lon="-2.31687">
        <ele>26.200000762939</ele>
        <time>2022-01-13T11:25:30.000Z</time>
      </trkpt>
      <trkpt lat="47.26344" lon="-2.31686">
        <ele>26.60000038147</ele>
        <time>2022-01-13T11:25:31.000Z</time>
      </trkpt>
      <trkpt lat="47.26347" lon="-2.31684">
        <ele>27</ele>
        <time>2022-01-13T11:25:32.000Z</time>
      </trkpt>
      <trkpt lat="47.26349" lon="-2.31682">
        <ele>27.39999961853</ele>
        <time>2022-01-13T11:25:33.000Z</time>
      </trkpt>
      <trkpt lat="47.26352" lon="-2.31681">
        <ele>28</ele>
        <time>2022-01-13T11:25:34.000Z</time>
      </trkpt>
      <trkpt lat="47.26355" lon="-2.31679">
        <ele>28.39999961853</ele>
        <time>2022-01-13T11:25:35.000Z</time>
      </trkpt>
      <trkpt lat="47.26358" lon="-2.31678">
        <ele>28.39999961853</ele>
        <time>2022-01-13T11:25:36.000Z</time>
      </trkpt>
      <trkpt lat="47.26374" lon="-2.31671">
        <ele>28.39999961853</ele>
        <time>2022-01-13T11:25:41.000Z</time>
      </trkpt>
      <trkpt lat="47.26393" lon="-2.31661">
        <ele>28.799999237061</ele>
        <time>2022-01-13T11:25:47.000Z</time>
      </trkpt>
      <trkpt lat="47.26396" lon="-2.3166">
        <ele>29.200000762939</ele>
        <time>2022-01-13T11:25:48.000Z</time>
      </trkpt>
      <trkpt lat="47.264" lon="-2.31658">
        <ele>29.60000038147</ele>
        <time>2022-01-13T11:25:49.000Z</time>
      </trkpt>
      <trkpt lat="47.26402" lon="-2.31657">
        <ele>30</ele>
        <time>2022-01-13T11:25:50.000Z</time>
      </trkpt>
      <trkpt lat="47.26405" lon="-2.31655">
        <ele>30.39999961853</ele>
        <time>2022-01-13T11:25:51.000Z</time>
      </trkpt>
      <trkpt lat="47.2641" lon="-2.31649">
        <ele>30.39999961853</ele>
        <time>2022-01-13T11:25:53.000Z</time>
      </trkpt>
      <trkpt lat="47.26411" lon="-2.31645">
        <ele>30.39999961853</ele>
        <time>2022-01-13T11:25:54.000Z</time>
      </trkpt>
      <trkpt lat="47.26411" lon="-2.31637">
        <ele>30.39999961853</ele>
        <time>2022-01-13T11:25:56.000Z</time>
      </trkpt>
      <trkpt lat="47.2641" lon="-2.31604">
        <ele>30.39999961853</ele>
        <time>2022-01-13T11:26:03.000Z</time>
      </trkpt>
      <trkpt lat="47.26411" lon="-2.31572">
        <ele>30.39999961853</ele>
        <time>2022-01-13T11:26:10.000Z</time>
      </trkpt>
      <trkpt lat="47.26413" lon="-2.31553">
        <ele>30.39999961853</ele>
        <time>2022-01-13T11:26:15.000Z</time>
      </trkpt>
      <trkpt lat="47.26415" lon="-2.31551">
        <ele>30.39999961853</ele>
        <time>2022-01-13T11:26:16.000Z</time>
      </trkpt>
      <trkpt lat="47.26417" lon="-2.31553">
        <ele>30.799999237061</ele>
        <time>2022-01-13T11:26:20.000Z</time>
      </trkpt>
      <trkpt lat="47.26417" lon="-2.31553">
        <ele>31.39999961853</ele>
        <time>2022-01-13T11:26:21.000Z</time>
      </trkpt>
    </trkseg>
  </trk>
</gpx>